ECMWFFLT1_500_spd_000.txt.gz
Wind_Speed
9 9 10 11 12 13 16 15 13 13 14 12 13 15 15 15 15 16 16 18 18 19 18 17 19 20 20 21 21 22 22 22 23 24 25 25 24 24 24 25 26 27 27 27 27 27 27 26 25 24 24 23 22 22 22 21 20 21 22 22 23 24 25
7 9 10 10 11 13 16 18 16 14 13 13 13 14 14 15 16 16 17 19 18 18 18 18 20 20 20 21 21 21 21 22 23 24 26 27 27 26 25 25 26 27 28 28 28 27 27 27 26 25 24 23 23 23 23 22 22 22 23 24 25 25 26
10 10 11 11 11 13 16 19 18 16 14 15 15 16 16 17 17 18 18 18 17 17 18 19 20 20 20 21 21 21 22 23 23 24 26 28 28 27 26 27 27 27 27 27 27 27 26 27 27 26 25 24 24 24 24 23 23 23 24 25 26 27 27
11 11 12 13 13 14 16 17 18 17 16 15 15 16 17 18 18 18 17 16 16 17 18 19 20 21 21 21 21 23 24 25 25 25 27 28 29 28 28 29 29 29 29 28 27 27 25 25 26 26 25 24 24 24 24 24 24 24 25 26 27 27 28
13 15 15 14 14 16 17 17 17 15 14 13 13 13 14 15 16 15 15 15 16 17 18 19 20 20 22 23 24 25 26 27 27 27 29 30 30 31 31 33 33 32 31 29 28 27 25 23 24 25 25 24 24 24 25 25 25 25 26 26 27 28 28
17 18 17 15 15 17 17 16 14 11 9 8 8 9 9 10 11 12 13 15 16 17 18 19 20 20 22 23 24 26 26 27 27 29 31 32 32 33 34 35 35 34 32 31 30 29 26 23 23 23 24 24 24 24 25 26 25 25 26 26 27 27 29
19 21 20 17 16 16 16 15 12 9 7 5 4 5 6 7 8 10 12 14 15 16 17 18 19 20 22 24 24 25 26 27 27 27 30 32 33 34 35 36 36 35 34 33 32 31 27 24 22 22 22 23 23 24 25 25 26 26 26 26 26 27 28
22 24 21 17 16 16 16 15 11 8 6 3 1 2 3 4 5 7 9 11 12 14 16 18 19 21 23 24 25 26 27 28 27 27 28 30 30 32 34 36 35 35 34 33 34 32 27 24 23 22 22 23 23 24 25 26 27 27 27 26 26 26 27
23 23 20 18 17 16 15 13 11 9 7 4 3 4 5 6 5 6 8 11 13 15 17 19 21 22 24 25 26 27 28 29 28 27 27 27 27 28 31 35 37 37 36 34 35 33 29 25 24 23 24 24 23 23 25 27 28 28 27 26 26 26 27
21 21 20 19 16 14 12 9 8 7 6 5 7 8 8 7 7 8 10 12 14 15 17 19 21 23 25 26 27 28 30 32 31 29 27 26 28 28 29 33 38 39 38 38 38 36 32 29 27 26 27 27 26 25 26 27 28 27 27 26 26 27 28
20 21 21 19 16 14 9 5 5 6 6 7 8 8 6 6 7 10 11 13 14 15 17 19 21 23 25 26 28 29 31 33 34 34 33 31 31 32 32 35 36 37 38 39 38 37 35 34 33 32 31 30 29 28 27 28 28 27 27 26 25 27 28
21 22 20 17 16 14 10 6 6 8 8 8 7 4 3 5 8 10 12 14 16 17 19 21 23 25 26 27 29 30 31 33 34 36 38 37 37 38 38 37 35 34 37 38 38 37 36 35 37 37 35 32 31 30 29 29 28 26 25 25 26 27 28
20 19 19 17 15 13 11 8 8 8 7 7 6 5 6 8 9 11 13 16 18 19 21 24 25 27 28 29 31 32 33 35 37 39 41 42 43 41 39 38 38 37 37 37 36 36 36 36 38 41 38 34 32 31 31 30 29 26 25 26 27 28 28
17 17 18 16 13 12 10 9 8 8 9 8 8 9 9 10 12 13 15 17 18 19 22 25 27 28 29 31 32 34 36 37 39 42 45 47 49 48 44 40 35 32 34 35 33 35 37 38 39 41 40 36 33 32 33 32 30 27 26 27 28 28 28
16 17 18 14 11 10 11 11 11 11 12 12 12 13 14 14 14 15 16 17 18 20 22 25 27 29 30 31 32 35 37 38 39 43 48 51 52 52 48 40 31 29 30 31 33 37 38 38 39 40 39 37 34 34 34 33 31 29 28 28 29 28 28
17 17 16 12 10 11 13 14 15 15 16 17 18 19 19 18 17 17 17 18 19 21 23 26 28 31 32 31 32 35 38 39 41 44 51 54 54 56 54 47 39 38 35 30 34 38 39 39 41 41 39 37 35 35 35 35 34 32 30 29 29 28 27
16 13 12 12 12 14 16 18 18 19 20 22 23 23 23 21 21 20 20 21 23 23 25 26 28 30 30 29 31 34 36 38 41 44 49 50 48 46 43 38 36 42 40 35 37 39 40 42 44 43 41 39 37 36 37 36 36 35 31 30 29 27 27
15 11 11 14 16 18 19 20 20 21 23 24 26 27 26 25 25 24 25 27 28 28 27 27 29 30 30 30 32 36 38 39 39 41 42 39 36 35 31 30 35 41 41 39 39 41 42 43 44 45 44 41 39 39 39 39 39 37 33 31 29 28 27
15 13 15 18 20 22 23 23 23 24 26 28 29 29 29 29 28 28 29 30 31 31 30 29 32 33 33 35 36 38 41 40 38 38 38 34 33 35 36 35 38 41 42 42 42 42 44 44 43 43 44 43 42 41 41 40 40 39 35 32 30 28 27
18 18 19 21 23 25 26 26 26 28 28 28 29 29 30 31 31 31 32 33 34 34 33 32 34 36 37 39 40 40 40 41 42 40 37 35 36 38 39 39 39 42 42 43 45 43 43 44 42 40 41 42 42 42 41 41 41 40 37 33 29 28 28
22 23 22 22 25 28 28 29 30 29 28 27 27 28 30 33 35 35 35 36 36 36 36 36 37 39 40 41 42 41 41 42 44 44 41 38 35 35 39 40 41 44 44 44 44 41 39 40 37 35 37 40 41 41 41 41 42 41 37 34 31 30 31
28 29 26 23 26 30 29 30 30 29 28 29 28 29 33 37 38 37 37 37 37 37 39 39 40 41 42 42 42 42 44 45 44 44 42 39 35 36 39 41 43 46 48 45 41 37 34 34 33 33 36 40 41 41 41 42 41 39 36 34 34 34 34
34 32 27 26 30 33 32 31 31 31 32 32 32 34 39 41 41 38 36 37 38 39 40 40 41 42 43 42 42 43 46 47 46 45 42 38 38 40 41 44 47 47 47 45 40 34 31 33 34 37 40 41 42 43 43 41 39 37 35 35 37 38 36
35 31 28 30 35 38 38 36 36 35 36 38 39 41 42 42 41 39 37 37 40 42 42 42 42 44 44 43 43 45 48 49 49 46 42 40 42 44 42 44 46 44 43 44 40 33 31 33 37 41 44 43 42 43 42 38 36 35 34 35 39 40 37
32 31 31 35 38 39 39 40 40 40 42 43 44 44 44 43 43 42 41 42 43 44 44 43 44 46 46 45 46 47 49 49 48 45 43 43 45 46 44 43 43 44 45 45 42 38 35 35 37 40 42 40 39 41 41 37 34 33 32 34 38 38 36
32 33 34 37 40 40 41 44 46 46 48 48 47 47 47 46 46 46 46 45 45 45 45 44 46 47 47 46 48 49 49 48 46 43 43 44 45 45 46 46 46 46 44 41 40 39 38 38 39 39 39 37 35 36 37 36 35 34 33 34 36 37 38
36 36 36 39 42 44 46 48 49 49 51 51 50 50 49 48 48 48 48 47 46 46 46 46 48 48 47 47 49 49 49 47 45 43 42 44 46 48 49 49 48 45 41 38 37 37 37 37 36 33 33 32 31 32 34 35 36 34 34 35 36 37 38
41 40 40 40 42 45 46 47 49 50 52 52 52 50 49 49 50 51 50 49 48 47 48 49 50 49 48 48 49 49 48 46 45 44 42 44 47 48 47 45 43 40 38 36 33 32 33 32 29 27 28 28 28 29 30 32 33 31 31 32 33 34 35
46 46 44 42 41 42 44 46 48 50 51 52 52 52 53 55 55 55 53 51 49 50 51 52 52 51 49 48 48 48 46 45 46 46 43 44 45 45 43 40 38 37 34 31 28 29 32 31 27 24 25 27 30 31 32 34 36 37 34 33 34 35 36
44 44 42 39 38 39 41 43 45 47 49 51 53 55 58 59 57 55 53 51 51 52 53 53 52 51 49 48 47 47 45 45 46 46 45 45 44 43 40 38 37 34 30 28 27 28 31 32 29 26 29 35 39 40 40 41 43 44 41 39 38 38 36
38 38 36 35 35 36 38 40 42 44 47 52 55 58 59 57 55 53 52 52 52 53 53 52 51 49 47 47 46 45 44 44 45 45 45 45 44 42 39 36 35 32 30 29 31 29 28 29 28 31 37 43 45 45 45 44 42 40 39 38 37 36 35
36 36 35 35 36 38 40 43 46 47 49 52 55 57 57 54 52 51 51 52 53 54 53 52 50 47 45 45 44 44 43 43 44 44 44 44 43 40 37 35 32 31 31 34 36 34 31 30 32 34 38 42 45 47 46 42 39 37 37 37 36 36 36
35 36 36 36 39 42 45 48 50 50 50 51 53 54 52 50 49 50 52 53 53 53 51 49 46 44 43 42 43 43 43 44 44 43 42 42 42 40 39 38 35 34 34 35 35 35 36 39 41 40 41 44 46 46 43 40 39 39 38 37 37 36 37
38 38 37 38 42 46 49 52 51 48 45 45 47 47 46 46 45 46 46 45 44 43 41 40 40 39 40 41 42 43 44 44 43 41 40 40 40 41 41 39 37 34 32 32 34 38 42 45 45 43 44 45 44 42 40 40 41 41 40 39 38 37 38
42 39 36 38 43 48 51 52 50 45 42 39 37 35 35 35 35 34 33 34 34 34 35 35 36 37 39 41 43 44 44 43 42 41 41 41 41 41 41 39 37 36 36 38 42 45 46 46 46 46 46 43 39 39 41 42 42 42 40 39 38 38 39
43 41 39 41 45 48 49 49 48 45 39 34 31 28 27 26 26 28 29 31 33 34 35 36 37 38 40 42 43 44 45 45 44 43 43 44 44 42 41 41 42 44 46 48 49 48 46 46 46 45 41 37 38 43 45 43 42 40 38 37 37 38 40
39 39 41 42 44 46 46 45 43 39 33 29 26 25 24 25 27 29 31 33 34 36 37 37 38 39 40 42 43 44 45 45 45 46 46 47 46 45 45 46 47 48 50 51 51 49 46 45 43 40 38 40 45 48 46 43 41 39 37 37 38 39 40
36 37 40 42 43 43 41 37 35 33 31 29 28 28 28 28 30 31 32 33 35 36 37 38 39 40 41 42 43 44 45 46 46 47 48 48 48 48 48 48 48 49 50 50 50 47 44 43 42 41 43 47 49 48 46 45 43 40 38 39 40 40 39

ECMWFFLT1_500_spd_003.txt.gz
Wind_Speed
17 16 15 13 12 12 12 12 12 13 13 12 14 18 19 19 18 17 16 16 15 15 15 15 15 16 17 17 18 18 18 19 20 21 21 22 22 21 21 21 22 23 25 26 26 27 28 28 28 27 27 26 25 25 24 23 21 21 20 20 20 20 20
11 11 11 11 10 10 11 12 13 15 15 14 14 17 18 17 16 16 15 16 16 16 15 14 15 16 17 17 17 17 18 19 19 19 20 20 21 21 21 22 23 23 24 26 27 27 28 29 29 29 29 28 28 27 25 25 24 23 22 22 22 22 22
7 8 9 12 11 11 12 14 15 16 17 16 14 15 17 17 17 17 17 18 17 17 15 15 16 16 16 16 16 17 18 19 19 19 19 19 20 21 22 24 25 25 25 26 27 28 28 28 29 29 30 29 29 28 27 27 26 25 24 24 24 24 24
11 10 10 13 13 13 14 14 17 18 18 18 15 14 15 17 18 19 19 19 17 16 15 15 15 15 17 17 16 17 18 19 20 20 20 20 20 21 23 26 28 28 28 27 27 27 27 27 26 28 30 29 28 28 28 28 28 27 26 26 26 25 25
14 13 14 15 15 15 14 15 17 18 18 16 14 13 14 15 16 16 16 16 15 15 14 14 14 15 17 18 17 17 18 19 21 21 21 21 21 22 24 27 30 30 30 29 27 26 26 26 25 26 28 28 27 28 28 28 29 28 28 28 27 27 27
14 14 16 18 18 16 16 16 18 17 16 14 11 10 11 12 12 11 12 12 12 13 13 13 13 14 16 16 16 17 19 20 21 22 23 22 21 22 23 26 28 29 30 30 27 27 27 26 26 25 26 26 26 26 27 27 28 29 29 29 28 28 28
14 16 17 20 21 20 19 19 18 16 14 13 10 8 8 8 8 8 9 9 10 10 10 11 11 11 13 14 16 18 18 21 23 23 24 23 22 22 24 26 28 29 31 29 27 29 29 28 27 26 26 27 26 26 27 27 27 27 28 29 29 29 30
16 17 19 21 23 23 21 19 18 17 15 12 9 6 4 4 5 5 6 6 6 6 7 8 9 10 12 14 16 18 19 22 24 25 25 23 23 25 28 30 31 31 32 30 29 31 31 28 29 29 28 29 29 29 29 29 29 28 28 30 30 30 30
18 18 21 24 26 24 22 20 19 18 16 13 10 9 7 6 6 6 5 5 4 4 6 8 9 10 12 14 15 18 20 22 25 27 27 26 28 30 32 34 35 36 36 34 31 32 33 32 34 33 31 30 32 33 32 32 33 33 32 33 33 32 31
19 20 23 26 26 24 22 20 19 19 18 15 14 14 12 10 9 9 8 6 4 4 6 8 9 11 12 14 16 19 21 24 26 28 29 31 33 34 34 35 37 39 42 42 41 38 36 37 39 37 34 32 33 35 34 33 35 36 35 35 35 34 31
21 21 24 26 27 25 23 20 19 19 18 16 15 15 14 12 10 9 7 5 4 5 6 8 10 11 13 14 17 19 21 25 27 28 29 31 34 34 35 36 38 41 43 46 47 45 40 40 40 39 39 36 33 33 34 34 35 36 36 36 36 34 32
22 22 23 25 26 25 23 21 19 19 18 16 14 13 12 10 8 7 6 5 6 6 8 9 11 12 14 17 20 20 20 23 26 27 28 28 31 33 34 36 40 43 45 46 48 48 45 42 39 37 37 36 33 31 34 35 36 37 38 37 36 34 32
24 24 25 25 25 24 23 20 20 20 18 15 13 11 11 10 9 9 8 7 8 8 9 11 12 13 15 18 20 20 20 21 25 28 27 28 32 34 35 39 42 43 48 49 48 48 44 39 36 37 37 36 34 32 34 36 37 38 39 39 37 35 33
26 27 27 26 25 24 21 19 20 20 18 15 13 12 12 12 11 11 10 10 10 11 12 13 13 14 16 18 20 20 21 22 26 28 28 30 34 37 38 40 41 46 54 49 39 36 34 31 33 37 38 36 37 36 36 38 41 41 40 39 38 36 35
27 29 29 27 26 23 20 19 20 20 17 15 13 13 14 14 14 13 13 13 13 14 15 16 16 16 17 19 20 22 23 24 27 30 31 31 33 36 39 39 39 46 50 40 29 24 23 24 27 30 31 32 35 38 40 40 42 44 42 40 39 38 36
25 26 26 27 27 22 18 18 19 19 17 15 14 14 15 15 16 17 17 17 16 17 17 18 18 18 19 21 22 24 26 27 29 32 34 34 34 35 38 37 37 38 38 34 30 24 19 22 26 28 31 33 32 35 41 43 45 45 44 42 41 40 39
21 21 23 26 26 22 17 17 19 19 18 16 16 16 17 18 19 20 21 21 20 20 20 20 20 21 22 23 24 26 27 29 32 34 36 38 37 37 37 37 37 37 36 35 33 29 25 24 27 31 34 35 35 35 38 43 46 46 45 44 43 43 43
18 20 23 24 22 20 19 19 20 20 20 19 20 21 22 23 23 23 25 25 24 23 22 23 23 24 25 25 27 28 29 30 32 34 37 40 39 38 38 38 39 40 39 37 35 36 35 31 32 38 38 35 37 37 36 38 43 46 46 45 44 44 45
21 24 26 23 20 18 19 20 22 24 25 25 25 25 26 27 28 29 29 29 26 25 24 25 26 26 27 28 29 31 31 32 33 36 40 41 38 37 38 38 39 39 39 38 38 41 40 37 39 46 45 40 38 38 36 35 38 44 46 45 45 46 46
26 28 29 25 20 19 23 27 29 29 29 29 29 30 31 32 33 31 28 26 25 26 27 28 28 28 30 30 32 32 33 34 35 38 43 42 40 41 41 39 38 37 38 40 41 41 39 38 41 47 48 44 39 36 35 33 35 41 44 44 44 44 44
28 29 30 26 21 24 31 35 34 32 32 33 34 36 37 36 33 28 24 24 27 30 32 31 30 31 32 33 35 35 35 36 37 40 43 45 45 47 47 45 42 39 40 43 42 42 42 42 44 46 45 43 38 34 34 33 34 36 38 39 40 41 43
29 31 32 27 25 32 38 37 35 35 36 38 40 41 39 35 31 27 27 29 33 35 35 34 34 35 36 37 38 38 37 38 40 41 43 45 48 50 51 51 48 44 43 43 42 42 44 44 45 42 40 40 38 33 30 30 30 30 32 36 39 40 41
34 34 35 33 33 37 42 40 37 37 39 41 42 41 37 33 31 31 32 35 36 38 38 38 39 39 40 41 41 40 40 41 42 42 43 45 48 50 52 53 51 48 45 44 43 43 44 44 43 39 37 38 36 30 28 28 27 29 32 33 34 34 35
36 36 37 38 39 41 43 44 42 41 41 41 41 39 34 33 33 34 37 39 40 41 42 42 43 43 43 43 43 43 43 43 43 43 45 47 50 51 52 52 53 51 47 45 44 43 44 43 41 38 36 34 29 25 26 27 28 29 29 27 28 29 31
36 37 39 42 43 43 45 47 46 44 43 42 43 40 36 35 37 38 39 41 42 44 45 46 46 46 46 47 47 47 46 45 45 46 48 50 52 51 51 51 52 51 48 46 45 44 44 43 40 38 35 31 26 22 21 23 25 23 21 23 25 27 27
36 38 41 43 44 45 47 47 47 46 45 46 46 43 39 38 40 40 41 43 45 48 49 49 49 48 48 49 50 51 50 48 47 49 51 52 51 50 49 51 51 49 46 44 43 43 44 43 41 39 35 30 27 23 19 18 17 16 18 23 27 29 31
38 39 42 43 44 45 46 47 47 47 47 47 46 42 39 39 40 41 43 44 46 48 50 50 50 50 51 53 54 56 55 52 51 53 54 52 50 49 49 50 49 47 44 42 41 42 43 42 41 38 34 31 28 23 18 17 15 17 24 30 32 34 37
40 41 43 44 45 44 45 46 46 46 47 46 43 40 38 38 39 41 42 44 45 46 47 49 50 52 55 57 59 61 61 57 54 55 55 52 50 50 49 48 47 45 42 40 39 40 40 39 38 37 35 33 29 22 18 18 20 24 31 35 36 36 37
40 41 42 44 47 47 45 44 43 43 44 43 40 39 37 37 39 41 42 43 45 47 49 52 53 54 56 59 62 63 59 55 54 54 54 53 52 49 46 45 44 43 40 38 37 37 37 37 35 35 35 35 29 23 21 23 27 32 36 38 38 38 38
39 40 40 42 45 46 47 47 44 42 41 41 39 40 39 38 40 42 42 43 45 48 52 55 56 56 56 58 59 56 51 49 51 54 54 52 49 45 42 42 42 41 40 38 36 36 37 36 33 33 33 33 29 27 29 34 37 38 38 39 39 39 38
42 43 43 43 45 46 47 48 46 43 42 40 39 40 40 39 40 42 43 43 45 48 51 53 55 54 53 52 51 49 47 48 50 51 49 45 41 39 39 40 40 40 40 39 39 39 39 38 35 33 32 31 32 34 38 41 42 41 40 38 35 35 36
44 45 46 46 45 43 41 41 43 44 43 41 40 40 40 40 40 42 44 45 47 48 49 49 48 46 46 47 46 45 44 43 42 40 38 36 35 37 38 39 39 39 39 40 40 40 40 40 39 38 37 37 38 40 42 43 43 42 39 36 33 34 38
39 40 41 41 39 36 34 36 39 39 38 39 42 42 42 42 42 43 46 47 47 46 46 45 42 38 38 39 38 36 34 33 33 33 33 33 35 36 37 38 39 39 39 39 40 41 42 42 42 42 42 42 43 43 42 41 40 37 35 34 35 39 41
34 35 37 38 37 36 36 38 39 39 39 43 45 44 42 42 42 43 43 43 42 41 40 39 36 32 31 31 30 30 30 31 32 33 34 35 36 37 38 39 39 40 40 41 42 44 44 44 44 44 44 44 44 43 41 40 38 36 35 36 39 40 40
36 37 39 40 40 41 42 42 43 44 44 45 44 42 42 42 42 41 39 37 36 35 34 32 31 29 29 30 31 32 32 33 34 35 36 37 38 39 39 40 41 43 43 44 45 46 47 46 46 46 45 45 44 42 41 39 37 36 36 38 39 40 40
38 39 40 41 41 41 42 43 44 44 44 45 44 45 46 45 42 38 35 34 33 32 31 31 31 31 32 32 33 34 34 35 36 37 38 39 40 41 42 43 44 45 45 46 46 46 46 45 45 45 44 43 42 41 39 37 35 35 36 38 40 41 42
39 39 39 39 40 40 41 43 45 45 45 46 46 47 45 42 37 35 33 33 35 35 35 34 34 34 34 35 35 35 35 36 37 38 39 40 41 42 44 45 46 46 45 45 44 44 44 44 44 43 42 41 40 38 36 34 34 36 38 40 42 42 42
38 38 38 39 41 42 43 46 48 49 48 47 45 44 40 36 33 33 34 36 37 38 37 36 36 36 37 37 37 37 38 39 39 40 40 40 41 42 43 43 43 43 44 44 44 44 44 44 43 42 41 40 38 36 34 34 36 38 40 41 41 39 38

ECMWFFLT1_500_spd_006.txt.gz
Wind_Speed
24 24 24 24 22 20 19 17 15 15 15 14 12 13 15 16 17 18 19 20 20 20 19 20 20 20 19 19 18 18 18 17 17 16 15 15 15 16 17 17 17 17 17 17 17 18 20 21 22 23 23 23 23 23 22 21 22 23 23 24 25 25 25
25 25 22 20 18 17 16 15 14 14 13 12 11 12 13 13 13 15 17 19 20 20 19 20 19 18 18 18 18 17 16 16 15 15 15 15 16 16 16 17 19 19 20 20 21 21 21 22 23 24 24 24 24 24 23 23 23 24 24 25 26 26 26
20 20 16 13 13 14 15 14 13 12 12 12 12 12 12 13 13 13 16 18 19 20 19 18 18 18 19 18 17 16 15 15 15 16 16 16 16 16 16 18 20 22 22 23 24 24 24 25 25 26 25 24 24 25 25 24 24 24 25 25 25 26 27
12 13 12 12 14 14 15 15 14 13 14 13 13 12 12 13 15 15 16 17 18 19 18 18 19 19 18 17 17 16 15 15 16 17 17 17 16 16 17 19 22 23 25 26 26 27 28 28 28 27 26 24 24 26 27 27 25 25 25 26 25 25 26
13 13 12 14 16 18 17 17 17 16 16 15 14 12 11 13 16 16 16 17 18 18 18 19 19 18 17 17 17 16 16 16 16 17 18 18 18 17 19 21 23 24 26 27 28 29 31 33 32 31 29 29 27 27 28 27 27 26 27 27 27 26 26
18 16 14 15 19 22 21 20 20 19 18 18 16 13 12 12 14 15 16 16 16 17 18 19 17 16 17 17 16 16 15 15 16 17 17 18 18 19 20 22 22 23 26 28 30 32 34 36 37 36 35 35 33 31 31 30 29 29 30 31 30 29 28
21 18 17 17 18 22 23 22 23 22 21 20 17 14 13 12 12 14 15 15 16 17 18 17 16 16 16 15 14 14 14 15 17 17 17 19 20 20 21 22 22 24 28 30 31 33 34 36 37 39 40 41 39 37 36 34 33 33 33 33 34 33 32
24 21 20 20 20 20 22 24 25 24 23 22 19 15 13 12 11 12 13 14 16 17 17 16 15 15 15 14 13 13 13 15 17 18 19 21 21 21 22 24 25 27 29 30 31 32 33 34 36 38 41 43 44 43 42 39 38 39 38 38 37 37 36
25 22 20 20 22 24 23 24 26 26 25 25 22 16 14 13 11 11 12 13 14 15 15 15 15 14 14 13 13 12 13 15 17 19 20 22 21 21 23 24 24 26 28 29 30 31 32 34 37 39 41 45 46 44 45 44 40 39 39 40 39 38 38
23 21 18 17 20 25 27 26 26 26 25 26 23 17 16 16 15 13 12 12 12 13 14 14 14 13 13 12 11 11 12 14 17 19 20 21 21 21 24 25 24 25 27 28 29 32 34 36 40 40 41 45 45 44 45 44 38 36 39 41 41 39 38
22 21 19 17 17 21 25 26 25 25 26 27 23 17 17 19 18 17 15 13 13 14 14 14 13 13 13 12 9 9 11 13 15 17 17 18 21 24 27 29 28 27 27 28 30 32 34 33 34 34 34 38 41 39 38 36 33 35 41 43 42 40 39
21 21 20 18 16 17 20 21 22 24 27 28 25 19 17 18 19 18 16 15 16 16 16 15 15 14 14 13 10 9 11 11 12 14 15 18 21 24 27 28 29 30 28 29 31 32 33 33 32 32 31 31 31 26 24 24 26 32 37 40 41 42 42
20 20 20 19 18 18 19 20 22 25 28 29 26 21 19 18 18 18 17 17 17 18 18 17 17 16 16 15 11 10 12 11 12 15 20 26 27 26 28 29 29 31 31 31 30 31 34 36 34 31 27 25 23 20 20 24 29 33 36 38 40 43 45
17 17 18 19 20 21 22 23 24 26 28 28 26 23 20 19 19 19 19 20 20 20 19 19 19 19 18 17 14 13 14 14 16 20 26 31 31 31 34 34 35 37 37 34 32 32 36 36 33 30 27 26 26 26 29 33 36 38 40 41 41 43 46
18 18 18 19 21 24 25 26 26 26 26 26 25 23 22 20 20 20 21 22 22 22 22 21 21 21 21 20 18 17 18 19 21 26 29 32 32 33 35 37 39 39 36 34 35 35 36 35 34 33 32 31 31 31 34 36 38 40 43 45 44 42 44
21 21 20 20 23 26 27 28 28 27 26 26 24 24 23 21 21 22 23 25 25 25 24 23 23 22 22 22 20 20 22 24 27 30 31 33 34 34 34 33 34 33 32 33 35 35 36 37 38 38 35 33 32 33 34 36 38 40 41 43 44 42 41
22 22 23 23 25 28 29 30 30 27 27 26 25 24 24 22 22 23 25 26 27 26 26 26 24 24 24 24 23 23 25 28 31 32 33 35 35 36 36 33 31 31 33 34 35 35 36 37 38 39 38 36 35 35 36 38 38 37 37 39 41 41 39
25 25 25 26 27 29 32 32 30 28 27 27 26 25 25 24 24 25 26 27 27 27 28 28 28 28 27 26 26 26 28 31 33 34 35 36 37 38 40 38 35 34 36 37 37 37 37 36 36 37 37 38 38 38 38 38 35 34 36 39 40 39 37
29 30 29 28 26 29 33 34 31 29 28 27 26 26 27 27 27 27 29 30 30 29 29 29 29 29 29 28 28 29 32 34 36 36 38 39 39 40 42 42 40 39 40 41 43 43 42 39 36 35 35 36 37 38 39 37 35 34 36 38 37 36 35
32 33 31 28 26 29 34 34 32 31 30 29 30 31 30 30 30 31 32 33 32 31 29 28 26 25 25 26 29 31 34 37 38 39 41 42 42 42 43 44 44 44 44 45 46 48 48 46 41 38 37 36 36 38 37 36 34 34 35 35 34 34 33
34 34 31 28 27 29 32 30 29 30 31 31 33 34 34 34 35 35 36 36 34 32 29 26 24 23 23 26 30 34 37 39 41 42 43 43 43 44 44 45 46 46 47 48 49 49 50 49 46 42 39 37 37 37 36 34 33 32 32 32 32 33 32
35 35 33 30 29 30 31 29 27 28 31 33 36 38 39 40 39 38 38 37 35 32 30 28 27 26 27 30 34 37 40 42 44 44 44 43 44 44 45 46 47 49 50 51 52 51 51 51 48 44 40 38 38 37 35 33 32 30 29 30 31 31 32
37 38 37 33 31 32 34 32 30 31 34 37 40 43 44 44 42 40 40 40 37 33 32 32 32 32 32 34 36 38 40 42 44 44 43 43 44 44 46 47 49 50 52 54 54 53 52 52 49 44 40 38 38 36 34 32 31 30 29 30 29 29 30
38 40 40 37 34 34 36 35 34 36 38 41 43 44 45 46 45 42 42 42 40 36 34 33 34 35 36 37 38 39 40 41 42 43 44 45 45 46 47 49 51 53 55 56 56 54 53 52 49 44 40 37 37 35 32 31 31 31 31 31 29 27 25
40 41 41 39 37 37 38 37 38 40 41 43 44 44 45 46 45 42 41 42 41 40 37 35 35 36 37 38 39 41 41 41 43 45 47 48 48 49 50 51 54 56 58 59 57 53 52 52 49 43 39 36 34 32 31 31 31 31 31 30 27 25 22
41 40 39 39 38 38 39 38 39 42 43 44 45 45 46 46 45 44 43 43 43 42 40 37 36 36 37 39 41 42 42 43 45 48 49 50 50 51 52 54 57 58 60 59 54 49 49 50 47 41 38 35 32 31 30 31 31 31 30 27 24 23 23
41 40 39 38 38 39 40 40 41 42 44 45 46 47 48 47 46 45 45 45 44 42 40 38 38 38 39 40 42 44 44 45 47 50 51 52 52 53 54 56 57 57 55 52 47 45 47 47 43 38 36 34 32 31 31 30 30 31 31 28 26 26 28
42 40 40 38 38 40 41 42 43 43 44 46 47 48 49 49 48 47 46 45 44 42 41 40 40 41 42 43 45 46 45 46 49 52 53 54 54 54 53 52 51 50 48 46 45 45 44 41 37 36 34 33 32 32 32 30 29 30 31 31 31 32 36
43 42 42 41 40 40 41 43 43 43 43 44 46 47 48 48 49 48 47 46 44 43 43 43 43 44 45 45 45 45 46 49 51 52 53 54 53 51 48 45 45 44 43 43 42 40 37 35 35 35 34 34 34 34 33 31 31 32 34 34 35 37 37
44 44 44 43 42 41 41 42 41 41 42 43 44 45 46 47 48 50 50 49 46 44 45 47 47 46 45 45 45 46 49 51 51 50 51 51 49 46 42 41 39 38 37 36 35 34 34 34 34 34 34 35 36 36 36 36 36 37 38 38 37 36 35
43 44 45 45 44 42 41 40 39 39 40 40 41 42 43 45 47 48 50 51 49 47 48 49 46 44 44 45 46 48 49 49 48 48 48 47 44 41 38 35 33 32 32 32 32 33 34 34 34 34 35 36 37 38 39 40 40 40 39 38 37 35 34
43 44 44 45 44 42 40 39 38 38 37 38 39 40 41 43 44 45 45 47 48 48 48 47 45 44 45 45 45 47 47 46 45 45 43 41 39 37 34 33 33 32 32 33 33 34 35 35 35 36 37 38 40 40 41 41 40 39 39 39 37 36 35
41 42 43 43 43 41 39 38 38 37 37 38 39 41 42 43 43 43 42 43 45 45 45 45 45 45 45 45 46 47 45 43 42 41 39 38 37 36 35 35 35 35 34 35 36 36 37 37 38 39 40 41 42 42 41 40 39 39 39 38 36 36 36
41 42 43 44 44 44 42 41 39 39 39 39 40 41 42 42 41 41 42 43 44 43 43 44 45 45 46 47 49 48 44 41 40 39 38 38 39 39 38 38 38 38 37 38 39 39 40 40 41 42 43 43 43 42 41 40 39 39 38 36 37 38 37
43 44 43 44 46 47 46 45 45 44 41 39 38 39 39 40 41 41 42 43 43 42 43 45 46 46 47 49 50 47 43 40 40 40 40 41 41 41 41 41 40 40 40 40 41 42 43 43 43 43 44 44 43 41 39 38 38 38 38 38 38 38 36
42 44 43 44 46 48 49 49 46 42 37 34 34 37 39 41 42 42 43 44 44 44 45 47 47 48 49 49 49 46 43 41 41 42 43 43 43 43 43 43 42 42 43 43 43 44 45 45 45 45 45 44 42 41 40 40 40 40 39 38 36 35 35
42 43 44 44 45 48 50 47 39 33 31 32 34 37 38 40 42 42 43 44 45 45 46 48 48 48 48 49 47 45 43 42 42 42 43 43 43 44 44 44 44 45 45 45 45 46 46 46 45 45 46 45 44 43 43 43 41 39 36 34 33 34 35
42 43 43 42 42 43 43 39 33 30 32 33 34 36 38 40 42 43 44 45 46 48 49 47 46 46 48 48 47 44 42 42 42 42 42 43 44 45 46 46 47 47 47 47 46 46 45 45 45 45 46 46 45 44 43 40 37 34 33 33 33 35 36

ECMWFFLT1_500_spd_009.txt.gz
Wind_Speed
28 27 25 22 18 18 19 17 17 17 19 21 20 17 16 16 16 17 19 21 22 23 22 22 21 21 21 23 23 22 21 20 20 19 19 19 19 18 18 18 18 18 17 17 17 18 20 21 22 22 23 23 24 24 24 24 24 25 27 27 28 27 26
25 24 24 22 17 15 15 14 14 16 17 17 16 15 14 14 15 16 18 21 23 23 23 22 22 21 22 23 23 21 20 20 20 20 19 19 18 18 17 18 18 18 17 17 18 18 20 22 23 24 25 26 26 27 28 28 26 26 27 28 29 28 27
24 23 23 21 14 11 12 10 10 11 11 11 11 11 11 12 13 15 17 19 22 23 23 22 22 22 23 23 22 20 20 20 20 20 19 18 18 17 17 17 18 18 18 18 18 18 20 23 25 26 27 27 28 29 31 32 32 31 30 31 30 29 27
24 23 24 20 13 12 12 10 8 8 8 9 10 11 11 12 14 15 16 17 19 21 21 21 22 22 22 21 20 20 21 21 21 20 18 18 17 16 15 15 16 16 17 19 19 20 22 25 25 26 26 27 28 30 33 35 35 35 34 34 34 33 30
26 25 24 18 13 14 13 11 10 10 11 12 13 13 14 14 15 16 15 16 17 19 20 21 22 22 21 20 20 21 22 22 21 19 18 17 16 15 14 15 15 16 17 19 20 21 23 25 25 25 26 27 29 32 35 37 38 38 37 36 37 37 35
25 25 21 15 12 14 15 14 13 13 14 15 15 16 16 16 16 15 15 15 16 18 19 21 21 21 20 20 22 22 23 21 20 19 18 16 15 14 15 16 16 16 17 19 21 22 23 24 24 24 27 29 31 33 35 37 38 37 37 37 38 39 38
27 25 19 15 15 16 18 18 16 16 17 18 18 18 18 18 17 16 16 15 16 18 19 21 22 22 22 23 24 23 22 20 18 18 17 15 15 16 17 17 18 18 19 20 22 21 21 23 24 25 29 31 33 34 36 36 36 34 32 32 34 36 38
28 27 22 20 18 19 21 21 19 19 18 19 20 19 19 20 19 17 16 16 17 17 18 20 21 22 23 23 23 21 20 19 17 16 16 15 16 18 19 19 19 20 22 23 23 22 24 25 26 28 30 31 33 34 34 33 30 27 25 24 24 26 29
27 27 27 26 21 21 22 22 22 22 20 20 20 19 20 21 21 19 18 17 16 15 15 19 20 20 21 21 20 20 19 17 16 17 16 16 18 21 21 21 21 23 26 26 25 26 27 27 27 29 30 31 32 31 30 29 26 23 22 22 25 28 29
32 27 28 27 23 22 23 24 26 25 24 23 22 20 19 22 23 22 20 18 16 15 15 18 19 18 18 18 18 18 18 17 17 17 16 17 18 20 21 21 22 24 26 26 26 28 28 29 32 34 33 32 33 30 28 28 27 26 26 29 33 36 36
28 29 32 29 25 26 27 26 27 27 27 25 25 22 20 22 25 23 22 20 19 19 19 19 19 16 16 17 17 17 17 17 17 17 17 17 18 19 20 22 24 24 26 28 30 31 31 32 33 32 30 30 31 29 29 29 28 28 30 32 35 37 38
24 29 34 30 27 30 29 27 25 26 26 24 24 23 21 23 26 25 24 21 21 23 21 20 19 16 15 17 17 17 17 18 18 18 18 17 18 20 21 22 23 24 26 28 29 29 28 28 27 27 27 29 31 32 31 30 30 30 31 33 35 38 39
33 31 32 29 28 30 29 25 24 23 23 23 22 22 22 24 27 27 24 21 21 23 22 21 19 16 16 18 17 17 18 20 21 20 18 17 19 21 21 21 22 24 26 25 24 25 26 27 27 28 29 31 33 35 35 33 32 32 33 34 36 37 39
38 36 34 30 29 30 27 24 22 22 22 21 20 21 23 26 28 27 24 21 21 22 22 21 20 17 18 19 19 18 20 23 23 20 19 19 20 22 22 23 26 28 28 27 24 25 26 28 29 30 31 32 35 37 37 36 35 34 34 36 36 36 36
37 36 36 34 33 30 26 23 22 21 20 20 20 22 25 27 27 26 23 21 21 21 22 21 20 20 19 20 21 21 22 25 23 19 19 20 22 25 26 27 28 29 29 29 28 27 28 30 32 33 34 34 36 38 38 38 37 37 37 37 37 37 36
37 35 36 36 34 30 26 24 22 20 20 20 21 24 25 26 26 25 22 20 20 22 23 22 21 22 22 22 23 23 23 23 21 20 21 22 24 27 29 29 29 29 30 30 29 28 29 31 33 35 36 37 39 39 39 38 37 37 37 36 36 37 37
41 39 37 35 33 32 30 26 23 21 21 22 23 25 26 26 25 24 22 21 22 23 24 23 22 22 23 23 23 24 23 23 22 22 23 24 26 29 31 32 31 31 31 30 29 29 30 32 34 36 38 39 40 41 40 38 37 36 36 35 35 35 36
42 39 38 36 33 33 32 28 25 23 22 23 26 26 27 26 26 25 23 23 24 24 24 24 23 23 24 24 23 23 21 21 21 21 22 24 26 29 32 34 34 34 33 33 32 31 32 34 36 39 40 42 43 44 42 39 37 36 36 35 34 35 36
40 37 39 38 32 30 30 28 26 25 25 26 27 28 28 27 27 26 26 26 26 26 26 26 25 25 25 24 22 18 16 16 18 19 22 25 28 31 33 34 35 36 36 36 36 35 36 37 39 41 43 45 47 48 46 42 37 36 37 35 34 35 35
38 39 41 38 33 31 30 27 27 28 29 29 29 30 30 28 29 29 29 28 28 28 28 28 27 24 23 22 20 18 18 19 21 22 25 27 30 32 34 36 36 37 38 39 40 41 41 42 43 44 45 47 49 50 50 46 39 36 36 36 35 35 34
41 40 41 38 37 35 31 28 29 31 32 31 32 32 30 31 32 32 31 30 29 29 29 29 27 25 23 23 23 23 24 25 26 27 28 29 31 33 36 37 38 39 41 42 43 44 45 46 47 47 48 50 51 52 52 47 39 35 35 35 34 35 34
44 42 44 43 40 36 32 30 32 34 34 33 33 32 32 33 33 33 33 33 32 31 31 29 28 28 28 30 30 30 29 28 29 30 30 31 32 34 37 40 41 42 43 45 46 47 47 48 49 50 50 51 52 52 50 43 36 34 35 34 33 34 33
48 46 47 47 44 38 33 32 34 36 36 34 33 33 34 34 34 35 35 35 34 34 33 31 31 33 34 35 35 35 33 32 32 31 31 32 33 36 39 42 43 44 45 47 49 50 49 50 50 50 51 51 50 48 44 39 35 34 34 33 33 34 32
49 46 45 45 45 41 35 34 36 37 36 35 34 33 33 34 36 38 38 37 37 36 35 34 35 36 37 37 37 37 36 36 35 34 33 34 36 38 41 43 45 46 47 50 52 52 51 51 51 51 50 48 46 43 40 38 35 33 33 32 32 33 32
45 44 43 45 46 44 38 36 38 38 38 37 34 33 34 36 39 40 39 38 39 38 37 37 37 37 37 39 40 40 40 40 39 37 36 36 38 40 43 45 46 47 49 53 55 54 52 51 50 48 46 44 43 41 39 38 35 32 33 33 33 33 31
42 41 43 46 48 46 41 39 40 40 39 38 35 35 36 37 39 40 40 39 39 39 39 39 38 38 39 41 42 42 43 42 41 40 39 39 39 42 43 45 46 49 52 55 56 54 51 48 46 45 44 43 42 40 37 35 33 33 33 34 34 33 31
40 39 42 46 49 48 44 42 43 42 41 40 38 37 37 37 38 39 40 40 40 40 40 40 39 39 40 41 43 44 44 43 43 44 45 43 41 41 43 44 47 50 53 54 54 51 47 45 43 42 41 39 37 36 34 33 33 34 35 35 34 34 33
38 38 43 47 49 48 46 45 45 44 44 44 41 39 39 39 39 40 41 42 42 41 41 41 41 42 42 42 43 43 43 44 46 49 50 47 42 41 42 45 48 51 52 52 49 46 42 40 39 37 36 35 33 33 33 33 34 36 36 36 35 35 36
37 39 43 45 46 47 47 48 48 47 45 44 43 41 41 41 41 42 43 43 43 43 43 43 44 43 41 41 43 44 46 49 52 54 53 48 42 41 43 45 47 50 51 48 44 41 38 37 36 35 35 35 34 34 34 35 36 37 38 37 37 37 38
35 37 39 42 45 48 49 49 49 47 46 45 44 42 41 41 42 43 43 44 44 43 43 43 42 39 38 41 45 48 49 51 53 53 51 45 42 43 44 45 48 50 49 46 42 38 37 36 37 37 37 37 36 36 36 37 38 39 39 39 39 38 39
34 35 37 41 46 48 48 47 47 47 47 46 45 44 42 42 42 43 43 43 43 43 43 42 40 39 41 44 46 46 46 46 47 46 44 43 44 44 44 46 49 50 49 45 41 39 38 38 39 39 39 39 38 38 39 40 40 40 41 40 40 40 40
37 37 39 41 43 45 46 46 46 45 45 44 45 45 44 43 43 43 42 42 43 43 42 41 41 43 44 45 44 43 42 41 43 44 44 45 45 45 45 47 49 49 48 45 42 41 41 41 41 41 41 41 40 41 42 42 42 43 43 42 41 42 43
38 38 38 38 40 43 45 46 46 46 45 45 45 45 44 43 43 42 43 43 42 41 40 40 42 44 44 42 42 41 41 40 42 45 46 47 47 46 47 49 49 48 48 46 44 44 44 44 44 43 42 42 43 43 44 44 45 45 43 40 41 43 45
34 35 35 35 37 41 44 46 47 47 47 46 46 45 44 43 42 42 42 42 41 42 42 43 43 43 42 41 41 42 43 42 43 45 47 48 49 48 49 49 48 47 48 48 47 47 46 46 45 44 43 43 44 44 44 45 45 43 41 41 43 46 46
33 34 35 36 38 41 44 46 48 48 47 46 46 45 45 44 43 43 42 42 43 44 45 45 43 42 41 41 42 44 45 45 45 47 48 49 49 49 49 49 48 47 48 49 49 48 47 46 45 44 44 44 44 44 45 46 45 44 44 46 47 48 47
35 37 37 38 41 43 46 48 49 49 48 47 46 46 46 45 44 44 44 45 46 47 47 45 43 41 42 43 45 46 46 47 49 50 49 49 49 49 49 48 47 47 49 50 49 47 46 46 45 45 45 44 45 46 47 47 48 48 48 48 48 48 48
38 39 40 41 43 44 46 47 47 48 48 47 46 46 46 46 46 47 48 49 49 49 49 47 43 41 43 45 46 47 48 50 51 51 51 50 50 49 48 46 47 48 49 49 48 46 46 46 45 45 45 45 45 47 48 48 48 48 48 48 48 47 46
42 42 42 42 42 43 43 44 45 46 46 46 46 47 47 46 47 50 51 52 53 51 48 44 41 41 44 46 48 48 50 51 52 52 52 51 49 48 47 46 47 49 49 48 47 46 46 46 45 45 45 45 45 46 47 47 47 48 48 48 47 45 43

ECMWFFLT1_500_spd_012.txt.gz
Wind_Speed
30 30 29 27 28 28 28 25 22 21 20 17 14 12 13 14 15 16 17 18 20 21 21 21 21 22 22 22 22 22 22 21 21 21 22 22 21 20 19 18 17 16 15 15 15 16 16 17 16 16 18 18 18 20 22 25 27 28 29 29 29 28 26
28 29 27 28 30 29 29 27 22 20 19 18 15 12 11 11 12 14 16 18 20 21 22 22 23 23 24 24 23 23 22 22 22 22 22 22 21 19 19 18 17 16 15 15 15 16 17 18 17 18 19 19 20 22 25 28 30 32 33 33 32 31 29
28 27 25 27 29 28 28 25 21 19 19 17 13 10 7 6 9 11 14 16 19 20 22 23 24 25 25 25 24 23 23 23 22 22 23 22 20 20 19 18 17 16 15 14 14 16 17 18 18 18 18 19 22 24 26 29 31 32 33 32 30 30 28
27 24 24 25 24 24 25 23 20 20 18 14 10 8 5 5 6 9 11 13 16 18 20 21 23 24 25 25 24 23 23 23 23 23 23 22 21 20 19 18 17 15 13 13 14 16 16 17 17 17 19 21 23 25 27 28 30 31 31 29 27 26 24
25 24 22 22 20 20 21 22 22 19 15 12 9 7 5 6 7 9 11 12 14 16 18 19 21 22 23 23 23 22 22 22 23 23 22 22 21 19 17 16 15 13 12 13 13 15 16 17 17 19 22 23 23 27 29 28 29 29 28 27 25 24 24
30 29 20 17 20 21 20 22 23 20 17 14 11 9 8 9 11 11 12 13 13 15 16 18 20 21 21 21 21 21 21 22 22 22 22 21 19 17 15 14 12 11 12 13 13 15 17 17 17 20 23 23 25 28 28 26 26 26 27 27 26 27 28
31 33 22 15 20 23 23 23 24 22 19 18 15 12 11 13 14 14 15 14 14 15 16 17 19 20 19 19 19 19 20 21 21 21 21 19 16 14 13 12 11 11 11 13 14 15 16 17 19 21 22 22 24 25 23 22 24 25 26 27 28 29 31
28 34 26 19 21 25 24 23 25 24 22 20 17 13 12 15 17 18 17 16 16 16 16 17 18 19 18 17 17 18 19 20 19 19 18 15 12 12 13 12 11 11 12 14 15 16 17 19 19 20 20 19 19 20 21 22 24 25 27 28 29 30 32
28 33 31 27 27 26 23 22 25 25 26 27 22 14 12 14 16 18 18 18 18 17 16 17 15 15 15 15 16 17 18 18 18 16 14 11 12 12 11 11 12 12 13 14 16 17 17 17 17 17 18 18 18 20 21 23 24 26 27 28 29 31 32
28 31 33 34 32 27 25 25 25 25 28 32 26 16 12 13 15 17 18 19 20 18 18 17 13 10 12 14 16 16 16 17 16 13 11 11 12 11 10 11 12 12 13 15 16 18 18 17 17 18 19 19 20 22 23 24 25 27 29 30 30 31 32
33 35 37 40 34 28 29 30 27 25 28 29 24 17 15 15 16 18 18 19 21 20 19 18 14 11 12 14 16 16 16 16 13 10 10 11 11 10 10 10 11 12 14 15 17 17 17 17 18 19 20 21 23 24 25 27 28 30 31 32 32 32 32
38 40 43 42 32 27 31 33 30 29 29 28 23 18 16 16 18 20 20 20 22 22 21 19 16 14 13 15 16 15 15 14 11 10 10 11 10 10 11 11 12 12 13 14 16 17 17 17 19 20 21 23 24 26 27 28 29 31 32 33 34 34 34
38 40 43 39 32 30 33 33 32 32 32 31 26 20 17 18 20 21 21 21 23 24 23 20 17 14 13 15 14 13 13 12 10 10 11 11 11 11 11 11 11 12 13 15 17 18 20 20 21 22 22 24 26 28 29 30 31 32 34 36 37 37 37
39 37 38 36 33 34 36 35 36 36 36 34 29 23 20 20 21 21 22 22 23 25 24 20 16 14 13 14 13 10 11 11 10 11 12 12 12 12 11 10 11 13 15 17 18 20 21 22 23 24 24 26 28 31 32 34 34 36 37 39 40 40 40
40 37 37 37 38 39 37 36 37 39 38 35 30 26 23 22 22 22 22 22 23 26 25 19 15 14 12 12 11 9 9 10 11 12 13 13 13 13 12 11 13 15 16 17 19 20 21 22 23 24 26 28 30 33 35 37 38 39 40 41 42 42 42
38 40 41 40 41 42 36 31 35 39 38 34 31 29 27 25 24 22 22 22 23 26 26 19 14 14 12 11 11 9 7 9 11 13 14 14 14 14 12 12 14 16 17 18 19 19 20 22 24 26 28 30 32 35 37 39 41 42 43 44 45 45 45
36 38 40 40 42 43 36 32 36 39 38 35 32 31 30 28 27 25 23 23 23 25 26 20 14 13 13 11 10 8 8 9 12 13 14 14 13 12 12 13 16 19 20 21 21 21 23 25 28 30 32 34 35 37 40 41 43 44 44 45 47 48 48
42 39 38 38 40 42 40 37 38 40 40 38 34 33 33 31 30 28 26 24 23 23 26 22 15 13 14 12 9 9 9 10 11 12 13 13 12 13 14 17 20 21 23 24 24 25 27 29 31 33 35 37 38 40 43 44 45 46 45 46 48 49 48
45 44 41 41 40 41 41 39 39 42 42 39 36 35 35 35 33 29 26 25 23 23 25 23 17 15 15 13 10 8 7 8 10 12 14 16 17 18 19 21 23 24 26 28 28 29 30 32 34 36 38 40 42 44 46 47 48 48 47 47 48 48 47
42 44 43 43 42 42 42 39 37 39 39 37 36 36 37 38 36 31 27 26 25 24 24 22 19 16 16 16 13 9 7 8 12 15 17 19 20 21 23 25 26 28 30 31 32 33 33 35 37 39 42 44 45 47 49 50 50 49 49 48 48 46 44
40 40 42 44 45 46 47 41 35 35 35 34 35 37 37 38 36 32 29 27 26 25 24 23 21 18 17 18 16 11 9 12 17 19 20 22 22 23 25 27 29 31 33 34 35 36 36 37 39 42 45 46 48 50 51 51 51 50 49 48 45 43 41
46 41 41 43 46 49 49 44 36 34 34 35 36 38 38 37 35 32 29 28 28 26 25 24 24 22 20 20 18 14 13 17 21 22 23 24 25 26 28 29 31 33 35 37 38 38 38 39 41 43 45 47 49 51 51 50 49 47 46 45 42 40 39
58 52 46 44 44 46 47 43 37 34 35 37 38 39 39 38 36 31 29 30 31 29 27 27 26 25 23 21 20 18 18 22 24 25 26 26 28 30 31 33 33 34 36 38 39 40 39 40 41 43 45 47 49 50 49 48 45 42 39 37 35 34 33
61 59 57 55 52 51 51 48 42 38 38 40 41 41 40 39 37 32 30 33 34 31 29 30 29 27 25 24 22 21 22 26 28 28 28 30 31 33 34 35 35 36 38 40 41 42 41 40 41 42 44 46 47 46 45 42 39 35 32 30 29 28 28
59 60 62 63 60 57 61 60 51 46 46 45 44 44 44 43 40 35 33 34 34 32 31 32 30 28 28 27 24 23 26 30 31 30 31 33 34 35 35 35 35 37 39 42 43 43 42 41 41 43 44 46 44 41 39 37 34 32 31 30 29 28 28
52 58 65 68 61 57 63 62 52 47 49 48 47 47 47 45 41 36 33 35 35 33 33 33 31 30 30 28 25 26 29 32 33 33 34 34 35 36 36 35 37 40 42 46 48 43 39 39 42 43 45 46 43 39 37 36 35 34 33 32 31 30 30
42 48 60 65 59 56 61 58 48 46 48 47 48 49 48 46 43 38 35 36 35 34 34 34 33 32 30 28 28 30 32 34 35 35 36 36 37 36 36 37 41 44 46 49 48 41 36 39 42 43 45 45 43 40 39 38 37 36 36 34 33 32 32
43 44 52 56 53 55 60 54 47 49 50 47 48 50 49 48 46 42 38 37 35 35 35 35 34 31 29 30 32 34 34 36 37 38 39 40 39 37 37 39 43 45 45 46 43 38 37 40 42 43 45 45 43 41 40 40 40 39 38 37 35 34 34
48 47 48 49 49 54 56 48 43 48 50 48 49 51 51 50 48 44 39 37 36 36 36 35 33 31 32 35 35 35 37 38 38 40 42 41 39 37 39 40 41 42 43 43 40 38 39 42 43 44 46 45 43 41 41 41 42 41 40 39 37 36 37
48 49 46 48 50 51 49 44 42 45 47 48 50 52 52 50 47 43 40 39 39 39 36 35 34 34 36 38 37 38 40 39 39 42 42 39 37 38 40 41 40 41 42 41 40 40 41 43 44 46 47 45 43 41 42 43 43 43 42 41 39 39 39
48 51 46 47 49 48 46 44 44 46 47 50 52 53 52 49 46 44 42 41 41 39 37 36 38 39 39 39 39 41 42 41 42 45 42 37 36 38 40 41 42 42 42 43 43 43 44 45 46 47 47 45 43 41 43 44 44 44 43 42 41 41 41
50 52 46 45 48 48 46 44 45 48 50 53 54 53 51 48 46 45 44 43 41 40 39 39 41 41 41 41 41 43 43 43 46 46 41 36 36 38 40 43 44 43 43 45 46 47 48 48 48 47 47 45 43 42 43 45 45 45 44 43 43 42 41
50 49 47 46 45 42 40 40 43 48 51 54 54 52 50 49 47 46 45 43 42 41 40 41 42 42 42 43 44 44 44 45 47 46 41 37 37 38 42 46 46 45 46 47 49 50 51 51 50 49 47 46 44 43 43 44 45 45 44 44 43 42 41
48 47 45 42 38 36 34 34 39 44 49 52 53 52 51 50 49 47 44 43 43 42 42 42 43 43 43 45 44 44 45 47 48 46 42 39 39 40 44 47 47 46 48 49 51 53 53 53 52 50 48 47 45 44 44 44 45 45 45 44 43 43 43
46 45 41 34 32 32 32 32 34 38 44 49 51 51 51 51 49 47 45 44 45 44 43 44 45 44 45 46 45 45 47 48 48 46 43 41 41 42 46 48 48 48 49 51 53 55 54 54 53 52 49 47 45 44 44 44 45 45 46 45 44 43 43
44 42 36 31 31 31 31 32 34 36 40 44 47 49 50 50 50 49 48 46 46 46 45 46 46 46 47 47 47 47 49 49 50 48 45 43 43 43 46 48 49 49 51 53 55 56 56 55 54 52 48 45 44 44 45 45 46 46 45 45 44 43 43
39 41 36 33 34 34 33 34 35 35 36 38 41 44 48 50 50 50 48 47 47 47 46 46 47 47 48 48 48 49 50 51 53 52 48 45 44 44 47 49 50 51 53 55 56 56 56 55 52 48 45 44 44 45 46 46 46 46 45 45 44 44 44
34 39 38 37 38 36 35 36 36 36 36 37 39 41 44 47 47 47 47 46 46 46 47 48 48 49 49 48 49 51 51 52 55 56 54 49 45 45 48 51 51 52 54 56 56 56 55 51 47 45 44 45 46 46 46 46 46 46 46 46 45 44 45

ECMWFFLT1_500_spd_015.txt.gz
Wind_Speed
25 26 24 22 22 20 19 19 19 19 18 18 17 17 20 21 22 23 24 24 24 22 19 17 17 18 18 19 20 20 20 20 20 20 19 18 18 17 16 15 14 13 11 10 10 11 11 11 10 10 10 9 10 12 14 17 21 21 21 21 21 21 20
26 27 24 22 23 20 19 19 21 21 20 19 20 20 22 23 22 23 24 25 23 22 21 19 18 18 19 20 21 21 21 21 21 20 20 19 18 17 16 15 13 12 9 9 10 10 10 10 11 11 10 9 12 15 16 19 22 20 19 19 20 20 21
27 28 24 22 22 20 19 22 24 24 23 21 22 24 25 25 23 23 24 23 22 21 21 20 19 19 20 21 22 22 22 22 21 21 21 20 18 17 16 14 12 10 8 9 10 10 10 11 11 13 12 12 15 16 16 18 18 17 17 18 19 20 21
24 25 24 23 22 21 22 23 24 25 25 24 23 25 27 25 23 23 22 21 20 19 20 20 19 18 19 20 21 22 23 23 22 22 21 20 17 16 14 12 9 7 8 9 10 11 11 12 12 13 13 14 15 15 15 15 15 16 17 18 20 21 21
24 23 23 23 23 22 22 21 21 22 24 25 25 27 27 26 25 23 22 21 19 17 18 18 16 15 16 17 18 20 22 22 22 21 20 18 16 14 12 9 6 5 7 10 11 12 11 11 12 11 11 11 12 12 13 14 15 16 18 19 21 22 23
25 24 23 23 23 21 21 21 20 20 22 24 26 28 27 27 26 24 23 21 18 16 15 14 13 12 13 13 14 16 18 19 19 18 16 14 13 11 10 7 5 5 8 10 12 12 11 10 10 9 8 9 10 11 13 14 16 18 19 21 23 24 26
25 24 22 22 22 21 22 21 19 20 23 25 26 27 26 26 26 25 24 21 17 15 13 11 10 10 10 11 11 12 13 14 14 13 11 10 9 8 7 5 5 7 9 10 12 12 10 8 8 7 8 9 10 11 14 16 18 20 21 23 25 26 28
26 25 24 25 23 21 21 20 19 22 25 26 26 23 24 26 26 25 23 20 17 14 11 9 9 8 8 9 9 10 10 10 9 9 8 7 6 6 5 5 6 9 10 10 10 10 8 6 6 8 9 10 11 12 14 16 19 21 23 24 26 27 29
31 30 25 23 23 23 21 19 17 19 22 25 25 22 23 24 24 23 23 21 19 15 12 9 8 7 6 7 8 8 8 7 6 6 5 3 4 4 5 6 8 10 9 9 8 8 7 7 8 10 12 13 13 13 15 17 19 21 24 25 27 29 30
33 32 26 23 24 24 22 20 18 19 20 23 25 25 24 24 24 24 24 23 20 17 14 11 9 7 7 7 8 8 6 4 5 5 3 3 3 4 5 8 10 9 8 8 9 9 9 10 11 12 13 14 14 15 16 18 20 23 25 27 29 31 32
26 23 20 25 27 24 23 22 22 23 22 23 27 28 27 27 26 26 25 24 22 19 17 14 11 10 10 10 10 9 6 5 5 5 4 5 5 5 7 9 9 8 8 10 10 10 11 12 12 13 13 14 14 15 16 18 21 24 27 30 33 34 36
23 19 18 23 24 22 23 24 26 28 25 25 29 30 30 29 27 26 26 25 24 21 20 17 14 12 12 12 12 11 8 6 7 7 7 7 7 8 9 9 9 9 10 10 10 11 13 13 14 14 13 13 14 14 16 18 21 24 28 32 35 37 39
23 22 21 21 20 21 25 28 30 31 29 28 30 31 31 29 27 26 27 27 26 24 23 20 16 14 13 14 14 12 9 8 9 10 10 9 9 9 9 9 10 11 11 11 11 13 14 14 13 13 12 12 14 15 17 19 22 25 29 33 37 40 41
24 23 25 24 24 26 30 32 33 34 33 32 32 33 34 32 29 27 26 27 28 27 26 24 19 14 13 15 15 12 10 10 11 11 11 11 10 9 8 9 10 11 12 12 13 14 13 13 12 12 13 14 16 18 21 22 24 27 30 35 38 41 42
28 26 27 28 30 33 34 35 37 38 37 34 33 35 36 35 33 30 28 28 29 28 27 25 20 15 14 15 14 12 12 12 12 12 12 11 10 9 10 10 11 12 13 14 14 14 12 12 13 15 18 20 22 24 26 27 28 30 32 36 39 42 43
34 32 31 31 34 36 38 40 42 42 40 38 36 36 36 37 36 33 31 30 30 29 27 25 20 15 14 15 15 14 13 13 12 12 12 11 11 11 12 12 13 14 14 15 15 15 14 15 17 20 23 25 27 29 30 31 31 32 34 37 40 42 43
39 40 38 36 37 39 41 44 45 44 43 41 38 35 35 38 38 36 33 33 32 31 28 26 22 16 14 16 17 16 14 13 13 13 13 12 11 11 12 13 14 14 14 15 16 17 19 21 23 24 26 27 29 31 32 33 33 33 35 38 40 42 43
42 40 40 41 43 46 48 48 46 45 43 40 37 35 34 36 37 36 35 34 33 30 28 27 24 18 15 18 18 17 15 14 14 14 12 10 9 9 10 11 13 14 15 16 18 19 21 24 25 26 27 28 30 31 33 34 34 34 36 39 40 41 41
43 39 39 43 45 46 47 47 46 47 45 41 39 38 36 35 33 33 33 34 32 30 29 29 26 22 18 19 19 18 16 15 14 13 11 9 8 9 9 11 12 14 15 16 17 19 21 24 26 27 28 29 31 33 34 35 35 35 37 39 40 40 39
43 43 44 47 46 45 45 46 47 49 46 42 41 41 41 38 34 32 33 33 33 32 31 30 28 25 22 20 20 19 17 15 14 12 11 10 10 10 10 11 13 14 15 17 18 20 22 24 26 28 30 32 33 34 35 36 36 36 37 38 39 38 37
43 45 48 51 49 45 42 43 44 43 39 37 39 42 44 42 37 34 34 34 34 34 33 31 30 29 26 24 23 20 17 16 15 13 12 12 12 12 12 14 15 16 17 19 20 21 23 26 28 29 32 35 36 36 37 37 37 37 37 38 37 36 36
46 45 48 51 50 46 42 40 43 43 40 36 37 41 45 45 41 37 35 34 34 35 34 32 32 31 29 27 25 21 18 18 16 14 13 14 14 14 15 16 18 18 20 22 22 23 26 28 29 31 34 36 38 38 38 38 38 37 37 37 36 34 35
52 50 49 50 50 49 47 45 47 49 49 45 42 42 43 44 43 40 36 35 35 35 35 34 33 32 30 27 26 22 19 19 18 16 15 15 15 16 17 19 20 20 22 24 24 26 28 30 31 33 35 35 37 37 35 36 37 37 37 38 36 34 34
56 54 52 51 51 51 50 51 52 52 53 52 49 44 42 43 45 42 37 36 35 35 36 35 34 34 31 28 25 22 19 19 19 17 16 16 17 18 19 20 21 22 24 25 27 29 30 31 32 34 34 33 34 34 33 34 37 37 38 39 38 35 34
64 61 57 55 56 56 54 56 56 55 54 53 50 45 43 44 46 45 40 37 36 36 37 37 36 35 32 29 27 23 21 20 19 17 17 18 19 20 21 22 23 24 26 27 29 31 32 32 33 33 32 31 32 33 33 35 37 38 40 41 40 38 36
64 64 63 61 62 63 62 62 62 59 56 53 48 45 45 47 48 46 42 39 39 40 40 39 38 36 35 32 29 26 24 22 20 18 19 20 22 23 24 24 25 26 28 29 32 33 32 33 34 34 32 31 32 33 35 37 38 40 42 43 42 40 38
57 59 62 64 65 66 67 66 65 64 61 57 51 47 47 49 48 46 43 42 43 43 42 41 40 40 39 36 31 29 27 25 22 21 22 24 25 26 26 26 27 29 30 32 33 33 33 35 36 35 33 33 34 35 36 38 40 42 43 43 42 41 39
51 52 56 62 66 67 67 66 66 66 65 64 61 54 49 49 49 48 46 46 45 44 44 45 45 44 42 38 33 31 29 26 24 25 27 28 28 28 28 28 30 31 32 34 35 34 35 37 38 36 35 35 36 37 38 40 42 43 43 43 42 41 39
45 45 48 54 61 65 66 66 68 69 68 67 67 63 58 54 52 51 49 47 47 48 49 50 49 47 44 41 37 34 30 28 28 30 31 32 31 30 29 30 31 33 34 35 36 36 37 39 39 37 37 37 38 39 41 42 45 46 46 45 44 42 40
48 46 45 47 51 55 57 60 65 68 70 71 71 70 69 65 61 60 59 55 54 55 55 53 51 49 47 44 41 36 32 32 33 34 35 34 32 31 31 32 33 34 35 37 38 38 39 40 40 39 38 38 39 41 43 45 47 49 48 47 46 44 40
52 50 48 46 46 47 49 52 58 62 68 73 76 77 77 74 70 68 65 61 60 60 59 57 54 51 50 48 44 38 35 35 36 37 36 35 33 32 33 34 35 36 38 40 41 41 42 43 43 43 42 39 39 42 45 48 50 50 50 49 47 43 40
56 53 51 50 48 47 49 52 55 58 62 67 74 78 79 78 77 72 64 59 60 61 61 60 57 54 52 50 45 40 38 38 38 38 37 35 34 34 34 36 37 39 40 42 43 44 44 45 48 49 44 39 39 43 46 49 51 51 51 49 45 41 40
57 56 55 55 53 51 52 54 57 58 59 62 68 72 70 70 74 75 68 62 61 61 62 62 60 57 54 50 46 43 41 40 39 37 35 34 34 35 36 38 40 42 43 44 45 46 46 48 51 49 42 38 41 44 46 49 51 51 49 46 42 41 41
58 59 58 57 57 56 55 55 56 57 58 61 67 70 66 62 64 70 71 68 63 63 65 65 64 60 56 52 50 46 41 36 34 33 33 33 35 36 38 40 42 44 45 45 46 48 49 51 52 49 43 42 44 45 47 50 51 50 47 43 41 41 41
55 57 58 57 57 58 57 56 57 58 59 61 64 68 67 60 56 61 70 73 69 68 68 65 61 58 53 49 45 39 32 29 29 31 33 35 36 38 40 41 43 45 46 47 49 50 50 51 52 50 48 47 47 46 48 51 51 48 45 42 41 41 41
51 52 55 56 56 56 56 56 56 58 60 61 59 60 62 59 55 56 61 66 65 63 60 55 50 46 41 37 33 29 27 28 31 33 35 36 38 39 41 42 45 47 48 49 50 51 51 52 53 52 50 48 47 47 49 50 49 46 43 41 40 41 41
47 48 51 54 55 55 55 54 55 58 61 60 56 55 58 59 58 54 51 52 51 49 47 43 40 38 32 28 27 27 28 31 33 35 37 38 39 40 42 44 47 48 47 47 49 51 52 53 53 51 48 47 47 48 48 48 45 42 40 40 41 41 41
43 45 46 48 52 55 57 56 54 53 55 54 53 54 56 55 53 48 42 40 40 42 40 36 34 32 30 28 29 31 32 34 36 37 38 39 41 43 45 46 47 48 46 45 47 49 49 47 46 44 44 46 47 47 46 44 42 40 40 41 41 41 41

ECMWFFLT1_500_spd_018.txt.gz
Wind_Speed
21 20 21 22 22 23 23 22 20 19 19 19 18 16 16 16 16 17 17 17 17 17 18 19 20 20 19 18 19 20 19 18 18 17 16 16 15 14 13 12 12 12 12 13 13 12 11 9 6 4 3 3 4 6 9 11 13 13 12 11 10 11 13
23 22 22 23 23 24 23 22 22 22 21 20 19 18 16 16 17 17 17 18 18 18 19 19 21 21 21 20 19 20 20 20 19 19 18 18 17 15 13 13 13 13 13 14 14 13 10 8 6 4 4 5 7 8 9 10 10 10 10 10 11 12 14
24 23 23 24 24 23 22 22 22 22 21 21 21 19 18 17 18 18 19 20 20 19 20 20 21 22 23 22 20 20 21 21 21 21 20 20 19 16 14 14 14 14 14 15 15 12 9 6 5 5 6 6 8 8 8 8 8 9 10 11 12 14 16
22 22 23 25 25 24 23 22 22 22 22 22 22 21 20 20 21 21 20 21 20 20 20 21 22 23 24 24 23 22 22 22 23 23 23 22 19 16 15 15 14 14 15 16 15 11 8 6 5 5 6 6 7 7 7 7 8 9 12 13 15 16 18
20 20 22 26 26 26 26 24 24 24 23 23 22 22 22 23 23 21 20 20 20 20 20 21 21 21 23 25 25 24 23 24 24 25 25 23 20 17 16 16 15 15 16 16 14 9 7 6 5 5 5 5 6 6 7 9 10 11 13 15 17 17 18
16 15 19 25 28 27 26 24 24 25 24 22 21 22 23 24 23 21 19 20 20 20 20 20 19 20 21 23 24 23 23 23 24 25 24 21 18 17 16 16 15 16 17 15 12 9 7 6 6 6 6 6 7 8 9 11 12 13 13 15 16 18 19
16 14 15 23 28 29 26 23 24 26 25 22 21 22 23 24 23 21 19 20 20 20 20 19 18 19 19 20 21 21 20 20 21 20 18 16 16 16 16 15 15 17 18 14 11 9 8 8 7 7 7 8 9 10 11 12 13 14 14 15 16 18 20
18 17 14 18 24 28 26 24 26 27 25 22 21 22 22 22 22 20 19 19 20 20 20 19 19 19 19 18 19 18 17 17 17 15 14 15 15 15 15 16 16 18 18 14 11 9 9 9 9 9 9 10 11 12 13 14 14 16 16 17 18 19 21
19 20 16 15 18 22 22 24 26 26 23 22 23 22 21 21 20 20 19 19 20 20 20 20 19 20 19 18 17 17 16 15 14 15 16 16 15 15 16 16 17 19 17 13 11 11 11 10 10 10 11 11 12 13 14 15 16 17 18 19 20 21 23
21 21 20 18 18 20 21 23 26 26 23 23 23 21 20 20 21 21 21 20 19 18 19 19 19 20 19 18 17 16 15 14 14 15 16 16 16 16 17 17 19 20 17 13 12 12 11 11 11 11 12 12 12 13 13 14 16 17 19 20 22 23 25
22 22 22 22 20 20 22 25 27 28 25 23 21 20 18 18 20 22 22 21 19 18 19 19 20 21 20 19 18 16 15 15 15 16 17 18 18 18 18 19 21 20 16 14 14 13 12 12 12 12 13 13 12 11 12 13 15 17 19 22 24 25 27
24 25 25 25 23 20 22 28 31 30 28 24 21 19 17 16 19 22 23 23 21 20 21 21 22 22 22 21 20 19 17 15 15 17 19 20 20 20 20 21 21 19 16 16 16 14 13 13 12 12 13 12 10 9 10 12 15 17 20 23 25 27 29
25 26 25 25 24 20 21 27 33 34 32 28 23 20 19 19 20 22 25 26 26 24 23 23 23 22 22 22 21 21 20 17 16 18 21 22 23 22 22 23 21 19 18 18 17 15 14 13 13 13 12 9 8 9 11 13 16 18 20 23 26 29 30
26 23 22 24 25 23 22 24 30 34 32 30 27 24 22 22 23 24 26 28 29 28 25 25 23 21 21 22 22 23 23 21 19 20 23 25 25 24 24 24 22 20 20 20 18 16 15 14 13 12 10 9 10 12 13 15 16 18 21 24 26 29 30
26 23 23 25 27 27 24 23 27 30 30 29 28 26 25 25 25 25 26 27 29 29 26 25 24 20 19 21 22 23 25 24 22 22 26 28 27 25 25 24 22 21 21 20 19 17 16 15 13 12 11 11 12 13 14 15 17 19 22 25 27 29 31
28 27 27 27 28 28 26 23 24 27 29 30 30 29 28 28 27 27 27 26 27 27 27 27 25 22 20 20 21 23 26 27 25 25 28 30 28 26 25 25 24 23 22 22 21 19 16 15 13 12 12 13 14 14 15 17 19 21 24 27 29 30 32
31 32 32 30 30 30 29 26 27 30 32 33 32 31 30 30 30 29 29 29 27 27 29 30 29 26 22 21 22 23 26 28 27 27 30 31 29 28 27 27 26 24 24 24 22 19 16 14 13 13 14 14 15 16 17 19 21 23 25 28 30 32 33
34 35 36 35 33 32 32 31 33 36 36 35 34 34 34 33 33 33 34 33 31 30 30 32 33 30 25 24 24 24 25 27 28 29 31 32 31 30 29 28 26 25 25 25 22 18 15 13 12 13 14 15 16 18 18 19 21 23 25 28 30 33 33
39 38 39 39 38 37 36 35 36 37 37 37 38 38 37 36 35 36 36 35 34 32 31 31 32 31 28 27 26 25 24 26 29 31 32 33 32 31 30 28 26 25 25 24 21 18 15 13 13 14 14 15 16 18 19 20 22 24 27 29 31 32 32
43 42 41 42 44 42 40 39 38 38 38 40 41 40 39 38 37 38 38 37 36 34 31 29 29 29 29 29 28 26 24 26 29 33 34 34 33 31 30 28 25 25 24 23 20 17 15 14 14 14 14 16 18 19 20 22 24 26 28 30 30 30 30
45 44 43 44 45 45 45 43 42 41 42 42 42 41 41 41 41 41 41 40 38 35 31 29 28 29 30 31 30 27 25 25 28 34 36 34 34 33 30 27 24 23 22 21 19 17 16 15 15 15 16 18 19 20 21 24 25 26 28 29 29 29 29
45 45 46 46 46 46 46 45 44 43 45 45 44 43 43 44 45 46 45 44 42 39 35 31 31 31 31 33 32 29 27 25 27 33 37 36 35 33 30 26 24 23 21 20 19 18 16 16 16 16 18 20 20 21 23 25 26 26 27 27 28 29 30
48 47 47 48 48 46 46 47 45 44 44 45 46 45 45 46 48 49 48 46 44 41 37 35 35 34 33 35 35 31 28 27 28 33 37 38 36 33 29 26 24 23 22 20 18 17 17 17 18 18 20 21 21 22 24 26 27 27 27 27 28 29 30
50 49 49 48 48 47 46 47 47 45 43 44 46 49 49 49 50 51 49 45 42 39 36 34 35 36 35 36 37 35 31 29 29 32 37 38 36 32 28 26 24 23 21 20 19 18 18 19 19 20 21 22 23 24 26 28 28 28 28 29 30 31 32
53 52 50 49 49 50 48 46 45 45 46 46 47 50 52 51 51 50 47 44 42 40 38 36 35 36 36 37 38 38 36 33 31 32 37 38 35 30 28 26 25 24 22 21 20 19 19 20 21 22 23 24 24 26 29 30 30 30 30 31 33 34 35
57 57 57 54 51 52 52 50 48 48 50 50 49 50 52 53 54 54 50 45 44 44 43 41 39 38 38 38 39 39 39 38 35 33 35 36 33 29 28 28 26 25 24 23 22 21 20 22 23 24 25 26 27 29 31 33 33 33 33 34 35 36 37
52 55 58 59 58 57 57 57 56 54 54 54 52 53 55 55 55 56 54 50 48 48 47 46 44 42 41 40 41 41 41 41 39 35 34 35 33 29 29 30 29 28 27 26 24 23 23 24 25 26 27 29 30 31 33 35 36 36 36 37 39 40 40
46 48 50 53 57 60 62 62 62 61 60 58 56 55 57 58 58 58 57 56 54 52 50 49 48 47 46 45 45 44 44 43 42 39 35 36 35 32 31 32 32 31 31 29 26 25 25 26 27 28 29 31 32 33 35 37 38 38 38 40 43 44 40
46 47 48 48 50 54 59 62 65 65 65 64 61 59 58 59 59 60 61 62 61 57 54 53 52 52 51 50 48 48 46 46 45 43 40 38 36 33 33 35 35 36 36 32 29 28 28 28 30 30 31 33 35 37 38 39 39 40 41 43 46 44 39
44 46 48 48 48 50 52 57 62 65 67 68 67 66 64 62 61 61 62 64 64 61 59 57 57 56 54 52 51 51 49 48 47 46 44 42 39 37 36 37 39 41 40 36 33 31 30 31 32 32 33 35 38 39 40 40 41 42 43 45 45 42 39
44 45 46 48 50 50 50 53 58 62 64 66 66 66 66 66 66 66 65 65 65 66 64 62 61 59 56 54 54 55 52 49 48 48 46 45 43 41 39 40 44 46 43 39 37 35 33 33 34 34 36 38 40 42 43 43 44 45 45 45 44 42 40
49 48 49 50 52 52 51 52 55 58 60 61 62 63 65 67 69 70 70 69 68 66 64 64 66 65 60 57 58 59 57 53 51 48 48 47 46 44 43 46 50 49 45 43 43 39 35 34 35 36 38 41 42 43 45 46 47 48 49 45 41 39 38
54 54 54 54 55 55 55 54 54 54 54 55 56 59 62 63 65 68 70 71 72 70 67 67 70 70 66 63 63 63 60 57 54 52 50 49 48 48 49 53 53 50 49 51 50 41 34 33 36 38 41 43 44 45 47 48 48 48 48 44 39 37 36
57 57 56 56 57 58 58 58 57 55 53 51 51 53 55 55 57 59 61 64 67 69 69 70 71 72 72 71 69 67 65 61 57 55 53 51 51 53 55 56 55 54 53 53 47 39 35 36 38 41 43 44 46 49 50 49 45 43 41 38 36 36 36
56 55 55 55 56 57 59 58 57 55 55 54 54 54 55 56 56 57 57 58 59 59 61 64 66 69 73 74 70 68 69 66 59 55 54 55 56 58 59 58 57 55 52 47 41 37 37 39 41 43 44 46 49 52 50 45 41 40 38 35 34 34 34
56 55 54 54 54 56 57 56 54 52 54 56 58 59 60 61 61 61 60 60 59 57 58 60 62 64 69 73 74 71 69 68 66 61 58 59 62 64 62 60 58 56 50 44 41 38 37 39 42 43 45 49 52 51 45 41 40 40 39 36 35 34 34
55 54 54 54 54 54 54 54 53 52 53 55 57 58 61 63 64 65 65 65 63 61 60 61 62 62 63 67 72 74 71 71 74 74 70 67 67 68 65 60 57 55 49 42 39 38 37 40 44 46 49 53 52 45 41 40 41 40 39 38 36 34 33
54 54 53 53 53 53 52 52 52 52 53 54 55 57 59 61 63 67 70 70 70 68 66 65 65 65 64 64 67 70 73 74 76 78 73 68 67 69 68 62 53 47 44 40 38 39 40 43 47 51 52 51 45 41 40 42 41 40 39 38 35 34 34

ECMWFFLT1_500_spd_021.txt.gz
Wind_Speed
15 14 15 17 19 22 23 21 20 20 20 19 17 18 19 19 19 18 16 15 15 15 15 14 14 15 15 15 16 16 16 17 16 16 17 16 16 16 16 15 15 15 15 15 16 16 15 14 12 10 9 8 7 6 7 8 10 11 11 9 7 7 9
18 16 15 16 17 20 24 25 23 22 22 21 20 20 20 19 19 17 17 16 16 16 15 14 14 14 14 15 16 17 17 18 18 18 18 18 17 17 17 17 17 17 16 16 17 17 16 15 13 11 10 9 7 7 8 9 11 11 10 8 8 10 12
21 19 16 15 15 18 23 27 26 25 23 22 22 21 19 18 18 18 18 19 19 18 16 14 14 14 14 15 15 16 18 19 19 19 19 19 19 19 19 19 19 19 18 18 18 18 17 16 13 12 11 9 7 7 9 10 11 11 10 9 11 13 14
22 20 17 16 15 17 22 27 28 26 25 23 22 21 20 19 20 21 21 21 20 18 16 15 15 14 14 14 15 16 18 20 20 20 21 22 22 21 20 21 21 21 20 20 19 19 18 16 14 13 11 8 7 8 10 11 12 12 11 12 14 15 16
17 15 15 15 15 17 21 26 27 25 25 25 23 22 21 22 23 24 23 22 20 18 17 16 16 15 14 13 14 16 18 21 22 22 23 24 24 22 21 22 22 23 23 22 21 20 18 16 15 14 10 8 8 9 11 12 12 12 12 14 15 16 17
14 12 12 11 12 16 21 24 25 24 25 25 24 23 23 24 25 25 24 23 21 20 18 17 15 14 14 13 13 14 17 19 21 23 24 25 25 24 23 24 24 24 25 24 22 20 18 17 16 14 10 8 9 11 12 13 14 14 14 15 16 17 17
16 13 12 10 9 13 18 22 24 24 24 25 24 24 25 26 26 25 25 24 22 21 19 16 15 14 13 13 13 13 15 17 19 22 24 26 26 25 25 26 26 26 26 25 23 20 18 18 18 14 11 10 11 13 14 15 15 15 15 15 16 16 16
18 16 13 11 9 11 15 19 22 23 23 25 26 27 28 28 26 26 26 24 23 22 19 16 15 14 14 13 13 13 15 16 18 21 23 25 26 26 27 27 26 26 27 25 23 20 20 20 18 14 12 12 13 15 16 17 17 17 16 15 14 15 16
21 19 16 14 12 10 12 15 18 22 24 25 27 28 28 28 27 25 24 23 23 21 18 15 15 15 14 14 14 14 15 16 17 19 22 24 25 26 26 26 25 26 26 26 23 21 21 21 18 15 13 13 15 17 17 18 18 16 15 13 13 16 18
23 21 18 16 14 12 12 13 15 20 24 25 26 27 27 28 27 24 22 23 23 20 18 16 16 16 15 14 14 14 14 15 16 17 19 21 22 23 25 24 25 26 27 26 23 21 23 21 18 15 14 15 17 18 18 18 17 15 13 13 14 17 19
23 22 20 18 16 15 16 16 16 19 22 23 23 24 25 26 25 22 22 22 21 19 19 18 17 17 16 15 14 14 13 14 14 15 16 18 20 22 24 24 25 26 27 26 22 22 23 20 16 15 16 18 19 18 18 16 14 12 13 14 16 18 19
25 25 24 20 17 17 19 19 17 18 20 21 21 22 24 25 24 22 22 22 21 20 19 18 18 18 17 15 15 14 14 14 14 14 14 16 20 23 25 25 26 26 27 26 23 23 23 20 17 17 18 19 18 17 16 14 12 12 14 16 17 19 20
29 29 26 21 18 19 22 23 20 17 19 22 23 23 24 24 23 22 21 20 19 19 18 18 20 20 18 16 15 15 15 15 15 15 15 17 20 24 26 27 27 28 28 27 24 24 23 20 19 20 20 20 18 16 13 11 11 14 15 16 18 20 22
34 32 28 25 23 24 25 26 23 19 17 21 26 27 26 25 23 22 20 18 18 17 17 19 21 21 20 19 16 15 15 17 17 17 19 20 22 25 27 29 29 29 30 28 26 25 23 22 23 23 21 19 16 14 11 10 12 14 14 16 19 21 23
35 33 31 30 29 27 27 26 24 20 17 19 24 29 30 27 24 22 20 18 19 18 17 19 22 23 21 20 17 15 16 18 19 19 21 24 25 26 27 29 30 31 32 30 27 26 25 25 26 24 21 18 15 13 11 11 12 13 15 17 20 22 24
34 31 29 30 30 28 27 26 24 21 18 19 23 28 32 30 27 24 21 20 20 19 18 20 22 23 22 19 17 17 18 20 20 21 22 25 27 27 27 29 32 34 33 31 28 27 27 27 26 23 20 18 16 14 12 12 13 14 16 18 21 23 25
33 30 26 27 29 28 27 26 24 22 20 19 22 27 31 32 29 26 24 23 22 21 21 21 21 22 22 19 18 20 21 21 22 22 23 24 27 30 30 30 33 36 35 33 30 29 29 28 25 22 20 19 17 16 13 13 14 15 17 19 22 25 27
36 32 25 24 26 28 27 26 25 25 23 20 22 26 29 30 31 29 27 26 24 24 24 24 22 22 22 20 21 23 24 24 24 24 24 25 27 30 32 33 34 37 38 35 32 31 30 28 25 23 22 20 18 16 15 14 15 17 18 21 23 25 27
39 35 30 27 28 28 27 25 25 27 26 23 24 27 27 27 29 29 29 27 27 27 28 27 25 24 23 22 23 25 26 27 28 26 25 26 27 29 33 35 35 37 39 37 33 33 31 28 25 24 23 21 19 17 16 16 16 18 19 22 24 26 27
42 39 35 33 32 31 29 25 24 26 26 25 25 28 29 28 29 31 32 30 29 30 30 29 27 26 25 25 25 26 27 29 29 28 27 27 29 30 33 36 36 37 39 38 36 34 32 29 26 25 23 22 20 19 18 17 18 19 20 22 25 27 27
42 42 40 38 35 33 31 28 27 28 29 28 28 29 31 31 31 34 34 32 32 34 33 31 30 28 28 28 27 27 27 27 28 28 27 28 30 31 32 35 37 38 39 39 37 34 32 30 28 26 25 24 23 21 19 18 19 19 20 23 26 27 28
41 42 43 41 38 35 33 32 32 33 34 33 32 33 34 32 33 35 35 34 35 36 36 35 34 33 32 32 30 28 27 26 27 27 27 29 31 32 33 35 37 39 40 39 37 35 34 32 29 27 27 26 25 23 20 20 19 19 21 24 27 28 29
41 42 43 43 41 39 38 38 38 38 38 38 38 38 38 36 35 36 37 37 37 38 39 39 38 37 36 36 35 34 31 29 28 27 28 29 31 32 33 35 37 39 40 39 36 35 35 32 30 29 29 28 26 23 21 21 20 21 23 26 28 30 30
41 42 43 44 44 43 43 43 43 42 42 41 41 41 40 40 39 39 39 40 41 42 43 43 42 41 40 39 39 39 37 33 31 30 29 30 31 32 33 35 37 39 39 37 36 35 33 32 31 31 32 30 26 24 23 23 22 23 25 27 30 31 32
43 43 44 46 47 46 46 46 46 45 44 42 42 42 42 41 41 42 43 44 45 46 47 46 46 45 42 40 38 38 37 34 32 32 31 31 31 32 33 35 37 39 39 37 35 33 32 33 34 34 33 30 27 26 26 25 25 27 27 29 32 33 33
46 46 46 47 49 49 49 48 47 47 46 44 43 43 44 43 43 44 45 45 46 48 47 46 45 46 45 43 39 35 34 33 32 33 34 33 33 34 34 35 37 39 39 37 34 34 35 36 36 34 32 30 29 29 28 27 28 30 30 32 34 35 35
48 48 48 49 50 51 51 50 48 47 47 45 45 46 46 46 46 46 46 46 47 48 46 44 45 45 46 46 42 35 33 32 32 33 35 36 36 36 36 36 37 39 40 39 36 36 37 38 37 35 33 32 31 30 30 30 31 32 33 36 37 37 37
47 49 50 51 52 52 52 52 51 50 49 48 48 49 48 48 48 48 48 49 49 47 44 43 44 45 46 49 47 40 36 35 33 33 37 39 40 40 39 38 38 39 41 42 40 39 39 39 38 37 36 35 33 33 33 33 34 35 36 38 39 38 38
45 47 50 51 53 53 53 53 52 53 53 52 51 52 53 53 53 52 52 52 51 48 46 45 46 47 47 50 51 47 42 39 36 35 38 40 42 42 40 39 39 40 42 45 44 42 41 41 40 40 39 38 36 36 36 36 37 38 39 40 40 39 40
43 45 47 48 50 52 53 54 54 55 55 55 55 54 54 55 55 55 56 55 53 52 52 51 51 51 51 52 53 52 48 43 41 42 43 42 44 45 43 41 41 42 44 46 47 46 44 43 44 44 43 42 41 41 42 41 40 39 39 40 41 40 41
44 44 43 42 43 45 47 49 51 52 53 53 53 52 51 51 52 53 54 54 53 54 54 54 53 54 54 54 54 54 52 50 51 54 52 48 47 48 47 45 44 45 46 47 48 48 46 46 48 49 49 48 48 48 49 48 44 40 38 39 40 41 41
45 44 43 42 41 41 42 43 44 45 47 48 49 49 49 50 50 51 52 52 53 54 54 55 55 55 55 55 55 55 55 54 55 57 57 55 53 53 52 52 51 50 50 50 51 51 50 50 52 54 54 53 52 52 53 52 48 44 40 38 39 40 41
46 45 45 45 44 43 43 44 45 46 46 47 48 49 50 50 51 52 53 54 56 56 57 57 58 58 58 58 58 58 57 57 58 59 59 60 59 57 56 57 57 56 55 55 56 55 54 53 54 55 57 56 54 55 55 53 50 47 43 40 40 40 39
50 49 47 47 46 45 45 46 48 49 49 50 50 50 50 50 51 52 53 54 56 57 59 60 60 61 61 60 60 60 60 60 61 62 63 64 64 62 60 60 62 61 59 59 60 60 57 55 56 60 62 59 56 57 57 54 51 48 42 40 40 41 40
54 54 53 51 49 47 47 48 49 50 51 51 51 51 51 51 51 52 52 52 53 55 57 59 61 62 62 62 63 64 64 64 63 63 65 67 67 67 65 64 64 63 63 62 63 62 61 59 61 64 64 59 58 60 59 56 56 54 47 42 42 42 42
56 57 57 56 54 52 50 51 52 52 53 53 54 54 54 54 54 54 53 52 52 54 55 57 59 61 62 63 64 64 65 65 64 63 64 66 67 67 67 67 67 66 65 66 65 65 66 67 68 68 66 63 63 63 61 58 59 58 52 47 45 43 41
60 61 61 60 59 57 56 56 56 55 55 56 56 57 57 57 58 58 57 54 52 52 53 54 56 57 59 60 62 63 64 65 64 64 64 65 67 67 68 69 68 67 65 65 68 70 69 68 69 69 67 68 70 68 64 62 60 56 53 50 46 42 40
61 63 64 63 62 61 61 60 59 57 56 57 57 57 57 58 58 58 58 55 53 51 52 53 54 56 57 59 61 64 66 66 67 67 67 68 68 69 69 70 70 69 67 67 70 73 69 64 63 66 67 69 71 67 63 63 60 55 53 51 46 41 38

ECMWFFLT1_500_spd_024.txt.gz
Wind_Speed
20 21 21 19 16 14 13 14 15 15 15 15 13 14 15 14 14 14 14 14 15 15 14 12 12 11 12 13 14 15 15 15 14 14 15 17 17 16 16 17 16 17 16 15 15 14 14 15 14 13 12 11 12 11 10 9 9 9 9 9 9 9 10
20 20 20 20 18 16 12 13 16 18 18 18 17 18 18 17 16 15 15 16 17 17 16 14 12 12 12 13 15 15 16 16 16 16 16 17 18 18 18 18 17 17 18 17 16 14 15 16 16 15 13 13 13 12 11 10 10 9 9 9 9 10 11
20 18 17 17 16 15 13 12 16 19 21 21 21 21 20 19 17 16 18 18 19 19 17 14 12 12 13 14 14 14 16 17 17 17 17 18 20 20 19 19 19 19 19 18 17 15 16 17 18 16 15 15 14 13 11 11 11 10 9 9 10 11 13
22 20 19 18 17 17 16 15 16 18 21 23 23 23 22 21 20 19 20 20 20 20 18 15 15 15 15 14 14 14 15 17 18 18 19 20 21 21 20 20 20 20 20 20 19 18 17 18 18 18 17 16 16 14 13 12 12 11 10 10 10 11 14
21 23 22 22 21 21 20 18 16 16 20 22 24 25 23 23 23 22 22 22 22 21 19 18 17 15 14 13 13 14 16 17 19 20 20 21 23 23 21 21 21 22 22 22 21 19 18 18 18 19 19 18 18 16 14 13 13 11 10 10 11 12 14
19 22 23 22 22 22 20 17 16 17 20 22 24 25 24 25 26 24 24 24 23 22 21 19 16 14 14 13 14 15 15 16 18 19 21 22 23 23 22 22 23 23 23 24 23 21 20 19 19 20 20 20 19 17 16 15 13 12 11 11 11 13 15
19 19 19 18 18 19 18 15 15 17 19 23 25 26 26 27 27 26 26 25 24 23 22 19 16 15 14 14 14 14 13 14 16 18 20 21 22 23 23 24 24 24 25 25 24 22 21 20 20 21 21 21 20 19 17 16 14 12 11 11 12 14 15
21 20 18 16 15 16 16 13 12 15 18 23 26 27 27 27 27 26 26 25 24 24 22 19 16 15 16 15 14 13 13 13 14 15 17 19 21 23 24 25 25 26 26 26 25 24 22 21 21 21 21 21 21 20 19 17 15 12 12 12 13 14 14
23 23 22 19 18 17 16 12 12 13 16 21 26 27 27 26 25 26 25 25 25 24 22 19 17 17 17 16 13 12 13 13 13 14 15 17 18 20 23 25 27 28 28 27 26 25 23 22 22 21 21 21 21 21 20 18 16 13 13 13 14 13 14
25 26 26 24 21 21 19 16 14 15 15 19 23 26 26 25 25 26 26 25 24 23 22 21 20 19 18 15 13 13 13 12 12 13 14 15 16 17 20 23 26 29 29 29 28 26 24 24 23 22 21 21 22 21 20 19 17 15 14 14 13 13 14
26 27 27 26 24 24 24 20 17 16 14 14 17 20 22 23 24 25 25 25 23 22 22 23 22 20 18 15 14 13 12 12 12 11 12 13 14 14 16 19 23 27 29 30 29 27 25 24 23 22 21 22 22 22 22 21 19 16 16 15 14 13 14
26 28 28 26 25 25 25 22 19 17 15 13 13 15 18 21 23 24 24 24 23 22 23 24 23 20 18 16 15 13 12 11 10 10 11 13 14 15 15 17 20 23 26 27 27 27 26 25 24 22 22 23 23 23 23 21 19 18 17 16 14 14 15
24 27 28 28 26 26 25 23 22 20 16 14 13 14 17 19 21 23 23 23 22 22 24 25 23 20 18 17 15 13 11 10 10 11 13 15 16 17 17 17 18 21 23 24 25 26 26 25 24 23 23 25 25 24 23 21 19 19 18 17 16 16 16
21 25 28 28 28 27 26 24 24 22 18 16 15 15 17 19 20 21 22 21 21 21 23 23 23 20 18 18 16 13 11 11 11 13 15 17 18 19 19 19 19 20 22 24 25 27 27 26 25 25 25 26 26 24 23 21 20 20 19 19 18 18 17
20 23 27 28 28 28 26 25 25 23 21 19 18 17 17 18 19 20 21 21 21 20 20 21 21 19 18 18 16 13 13 14 14 14 16 18 19 19 19 20 21 22 23 24 25 28 28 27 27 27 27 27 26 24 22 20 20 21 21 21 20 20 19
21 23 26 27 29 28 25 25 26 25 24 24 22 19 17 16 18 19 21 21 21 20 18 19 18 17 17 16 15 14 15 17 16 16 17 19 20 21 21 20 21 23 24 24 25 27 29 30 28 27 27 27 26 24 22 21 21 22 23 23 22 21 21
24 24 25 27 29 29 27 27 28 28 28 27 24 21 18 17 18 21 23 23 23 21 19 18 17 16 15 14 13 14 16 17 18 19 19 20 21 23 24 23 23 23 25 25 25 26 28 30 30 28 28 28 27 25 23 22 23 24 24 24 23 23 22
26 26 25 26 28 29 28 28 29 29 30 28 26 24 21 19 20 22 25 25 25 23 21 20 18 16 15 15 16 16 15 16 18 19 20 22 23 24 26 27 26 24 25 25 26 27 29 30 30 30 30 30 28 26 25 24 24 25 25 25 24 24 23
28 28 27 27 28 28 27 27 29 30 29 28 27 26 23 21 21 21 22 24 26 26 24 22 21 19 18 19 20 18 16 17 18 19 20 22 24 26 28 29 28 27 26 26 26 27 28 29 30 31 32 31 29 28 27 26 26 26 26 26 25 25 25
31 31 30 29 29 27 26 27 28 30 30 29 29 27 23 21 20 20 21 24 26 28 28 27 25 23 21 22 23 21 20 20 19 19 20 23 26 28 29 29 29 29 28 28 28 26 26 28 30 31 32 32 31 30 29 28 28 27 27 27 26 26 26
33 32 32 31 30 28 26 27 28 29 30 30 30 28 25 22 22 23 24 25 26 28 29 27 26 25 24 25 25 24 23 22 21 20 21 24 27 30 31 30 29 30 29 29 29 27 26 28 29 30 32 33 32 31 31 30 29 29 28 28 27 27 28
36 34 33 32 31 30 28 28 29 29 29 30 32 32 29 27 27 26 26 26 28 29 27 24 24 26 27 28 27 27 26 24 23 22 22 24 25 28 31 30 29 29 29 29 29 28 27 27 27 28 31 34 34 34 33 32 31 30 29 29 29 30 29
38 36 34 33 33 32 30 30 30 31 31 31 33 34 32 31 30 28 27 27 28 29 26 24 25 26 28 30 29 29 28 27 26 26 26 27 27 27 28 29 28 29 30 30 30 29 28 27 27 29 31 34 35 34 33 32 32 32 31 31 32 33 31
38 37 36 35 34 34 34 32 31 32 33 33 34 35 34 33 32 31 29 28 28 29 28 27 27 27 30 32 32 30 29 29 30 31 30 31 32 30 29 29 29 29 31 31 31 31 30 29 29 30 31 33 35 35 34 33 34 34 34 34 35 35 33
38 38 37 37 36 36 37 35 34 35 35 36 37 37 36 34 33 33 33 32 31 31 30 29 29 29 31 32 31 32 32 33 35 34 33 34 36 34 31 30 29 31 32 33 33 33 32 31 30 31 32 33 35 37 36 35 35 36 36 37 38 37 34
39 38 38 38 38 38 39 39 38 38 38 38 39 38 38 37 35 34 34 35 35 34 33 32 30 30 30 32 33 36 37 38 39 38 37 37 38 38 35 32 31 33 34 35 36 35 35 33 31 31 33 34 37 39 39 37 37 38 39 40 40 39 36
40 40 40 40 39 40 41 41 41 40 40 40 39 38 39 39 38 36 36 37 37 36 35 34 33 32 34 36 38 40 41 41 41 41 40 39 38 39 36 33 33 35 37 38 39 38 37 36 34 33 34 35 37 39 39 38 38 40 42 43 43 41 38
41 42 43 43 42 42 43 43 44 44 42 41 41 41 41 42 41 41 40 40 38 37 36 36 36 37 37 39 41 42 41 40 42 43 42 40 40 40 37 35 36 37 39 41 41 40 39 39 37 36 36 37 38 38 38 39 41 43 45 46 45 42 39
41 42 44 45 45 45 45 46 47 47 46 44 43 44 44 44 44 44 44 43 42 40 39 39 40 40 40 40 41 42 41 40 42 44 45 43 43 43 40 37 39 40 41 43 43 41 41 41 41 40 39 40 40 38 38 40 43 45 47 47 46 44 42
41 43 44 45 46 46 46 47 48 49 48 47 46 46 45 45 46 46 46 45 45 45 44 44 43 44 44 43 44 45 44 43 43 46 47 45 45 45 44 42 41 42 43 44 44 42 43 46 46 44 42 43 43 41 40 42 44 47 49 49 47 46 45
43 43 44 45 46 47 47 48 50 50 50 49 49 48 47 45 45 46 46 47 47 47 48 48 48 48 48 47 45 45 45 44 44 45 46 47 47 48 48 47 46 45 45 44 44 43 44 47 49 47 45 45 45 44 43 44 46 50 52 51 49 49 48
45 44 44 44 45 45 47 48 49 50 51 51 51 50 49 48 47 48 49 49 50 50 50 50 50 48 46 44 43 42 43 44 45 45 47 49 49 49 50 50 50 50 48 46 46 45 45 48 51 51 50 49 47 47 49 49 50 53 55 54 52 51 50
46 46 45 44 43 43 44 44 46 48 50 51 51 50 49 48 47 47 48 48 48 48 47 46 45 44 42 41 41 42 43 45 45 46 47 50 51 51 52 52 52 52 50 49 49 50 50 51 52 52 54 52 50 51 54 55 56 58 57 56 55 55 54
46 46 45 43 42 41 41 42 43 46 47 47 46 44 43 42 42 43 43 44 44 44 44 43 43 43 43 44 44 46 47 48 49 49 49 50 52 53 54 55 55 55 53 53 53 54 53 54 54 54 55 55 53 53 56 59 61 61 60 59 58 58 58
47 46 44 43 43 43 42 42 42 45 45 43 42 41 40 41 41 42 42 43 44 45 45 46 46 47 47 48 49 50 51 51 51 52 53 53 55 56 57 57 58 59 58 57 57 57 56 57 57 57 57 58 57 56 58 63 66 65 63 63 62 62 63
51 48 46 46 46 46 45 43 42 43 44 43 43 43 43 43 44 44 45 46 46 47 47 48 48 49 50 51 52 53 53 53 53 54 54 56 58 59 60 60 61 62 62 61 61 60 60 60 61 61 61 62 60 59 63 68 70 68 67 67 65 63 64
54 52 52 52 50 49 48 46 43 42 43 44 45 46 47 47 48 48 49 49 49 49 49 50 50 50 51 52 53 54 54 53 53 54 57 59 61 62 63 64 64 65 65 65 65 65 64 63 64 64 64 62 60 64 70 71 68 66 66 65 66 67 65
56 55 56 56 54 52 50 48 45 43 43 44 45 47 48 49 50 52 53 53 52 51 51 51 52 52 53 54 54 55 54 52 53 55 58 60 62 64 66 67 67 68 68 68 68 68 67 66 65 65 65 64 64 69 74 72 67 67 68 65 63 65 66

ECMWFFLT1_500_spd_027.txt.gz
Wind_Speed
26 24 22 21 21 20 19 18 18 17 16 15 16 16 16 15 15 14 14 15 16 17 17 17 17 16 16 16 17 16 16 15 14 14 14 14 15 15 15 15 16 17 18 19 18 16 14 13 13 12 11 12 13 13 13 13 12 11 9 7 6 5 5
26 24 22 21 21 20 20 20 21 20 19 17 17 17 16 15 15 14 13 14 14 16 17 17 17 16 17 17 18 17 17 17 16 16 15 15 15 16 17 16 16 17 19 20 19 17 16 15 15 14 12 12 13 13 13 13 13 12 10 9 7 6 6
28 25 23 22 20 18 18 19 21 21 20 19 19 18 16 15 14 14 15 15 15 16 17 17 16 17 18 18 18 17 18 18 18 18 17 17 18 19 19 18 17 18 19 20 20 19 18 17 16 16 14 13 13 13 14 14 14 13 12 11 9 7 7
27 26 25 23 20 18 17 18 19 20 21 21 20 20 19 18 17 17 17 17 17 18 17 17 18 19 19 18 18 19 19 19 19 19 20 20 21 21 20 19 19 19 19 20 21 20 19 18 18 17 16 14 14 14 14 14 14 14 13 13 11 9 8
26 25 24 22 19 17 16 16 17 17 19 20 20 21 21 21 21 20 20 19 19 19 19 20 20 20 19 18 18 18 18 19 20 20 21 22 22 22 21 21 20 20 20 21 21 21 20 20 19 19 18 16 16 15 14 15 15 15 14 14 13 11 10
26 25 25 23 21 19 18 17 16 16 17 18 20 22 22 23 23 22 22 21 21 20 20 21 20 20 18 17 17 17 17 18 19 20 21 22 23 22 22 23 22 22 22 22 22 22 21 20 20 20 19 18 17 16 15 15 16 16 15 15 14 13 11
26 26 27 26 25 23 22 20 18 17 17 18 21 23 25 26 25 25 25 24 23 23 22 20 20 19 18 18 18 18 18 18 19 20 20 21 22 21 22 23 24 23 23 23 23 22 22 21 22 22 21 20 19 18 17 16 17 17 16 16 15 14 13
26 26 28 29 27 25 24 23 21 19 18 19 22 24 26 27 27 27 27 26 25 24 23 21 20 19 19 19 19 18 18 19 19 19 18 18 19 20 21 23 24 24 24 24 24 24 23 23 23 23 22 21 20 20 18 17 18 18 17 17 16 15 14
29 28 28 28 26 25 25 26 26 23 21 21 23 25 27 27 28 29 27 26 26 25 23 22 21 21 21 21 20 19 19 19 18 17 16 15 16 17 19 21 23 24 24 24 25 25 25 24 24 24 24 23 22 22 20 18 19 19 18 17 17 16 15
33 32 30 29 28 26 26 28 28 26 23 23 24 26 28 28 28 29 28 28 27 25 24 23 22 22 23 21 21 20 20 18 17 15 14 14 14 15 16 17 19 21 22 24 25 26 26 26 25 25 25 24 23 23 21 20 20 20 19 18 17 16 16
34 34 33 33 31 29 28 29 30 28 25 25 24 24 27 28 29 29 29 28 27 25 25 25 23 23 22 22 22 21 20 18 16 14 13 13 13 13 13 13 14 15 17 20 22 25 26 27 27 27 26 25 25 24 23 22 22 21 20 19 18 16 16
30 33 34 35 34 32 30 30 31 29 26 26 25 23 25 27 28 28 29 28 27 25 25 26 25 24 23 22 22 22 20 18 16 14 13 13 12 11 11 10 10 11 13 14 16 18 21 24 26 28 27 26 26 25 24 23 23 22 21 20 18 17 16
24 28 31 33 34 34 33 32 31 30 28 28 27 24 23 25 26 28 29 29 27 25 26 27 26 25 24 23 23 22 21 18 16 14 14 13 12 10 10 9 9 10 12 13 13 14 15 17 19 22 24 25 26 26 25 24 24 23 22 21 19 18 18
19 23 27 31 33 34 34 33 31 30 29 28 27 25 23 23 25 27 29 28 26 25 25 26 26 25 23 22 22 22 20 19 17 15 14 13 12 11 10 10 10 11 12 13 13 14 15 15 15 16 18 20 23 25 25 25 24 23 22 21 20 19 20
20 21 24 28 31 32 32 32 30 30 29 28 27 26 24 23 23 25 27 27 26 25 24 24 25 24 22 21 21 21 21 20 19 17 15 14 12 11 11 12 12 12 12 12 12 13 15 16 16 16 16 18 21 23 24 25 24 23 22 21 21 22 22
21 20 21 23 26 28 30 30 29 29 30 29 28 26 24 23 22 23 23 24 24 23 23 23 22 21 19 18 19 21 22 22 21 18 16 14 13 12 13 15 15 14 13 13 13 13 14 15 16 17 17 18 20 22 23 24 24 24 24 23 23 24 24
22 22 21 21 23 26 28 29 29 28 29 29 28 26 25 23 21 21 21 22 23 22 22 22 21 19 18 16 17 20 23 23 22 20 18 16 15 14 14 16 17 17 17 16 15 15 15 15 15 16 17 18 20 21 22 23 25 26 25 25 25 26 26
25 25 24 23 23 25 27 29 29 28 28 29 29 27 26 24 22 20 20 20 20 20 21 21 20 18 17 16 18 19 20 21 21 20 19 18 17 17 16 17 18 19 20 19 18 18 17 16 16 16 17 17 18 20 21 23 25 27 27 27 28 28 28
28 27 26 25 25 25 26 28 29 28 28 30 30 28 27 27 24 21 19 18 19 20 21 20 19 18 18 18 19 18 18 19 20 19 18 18 19 19 20 19 18 19 21 22 22 21 20 18 17 17 17 16 17 18 20 23 26 27 28 29 30 30 29
30 29 28 27 26 25 25 26 27 27 27 30 31 30 29 28 27 24 23 22 22 22 22 21 20 20 20 20 20 18 18 19 19 19 19 19 20 22 22 21 19 19 21 23 24 24 22 21 19 18 17 17 17 18 20 22 26 28 28 30 31 31 31
33 31 30 28 27 26 26 26 26 25 26 28 30 31 30 29 28 27 27 26 25 24 24 24 24 24 24 23 22 21 21 20 20 20 21 21 22 23 23 22 22 22 22 24 25 26 25 24 22 20 19 18 18 19 19 21 25 28 29 30 32 33 33
35 33 31 29 28 27 27 26 25 25 25 27 29 30 30 30 30 29 29 30 28 26 26 27 28 29 28 27 26 25 24 23 23 24 24 23 24 24 24 25 25 24 24 24 25 27 27 26 24 22 21 20 20 20 20 21 24 27 29 30 33 34 34
36 35 33 30 29 28 28 28 26 25 26 27 28 29 30 32 33 32 31 32 31 29 28 28 30 31 30 29 28 26 26 28 28 28 27 26 26 26 26 26 27 27 25 24 25 26 28 27 26 26 25 24 22 22 22 23 25 27 29 31 34 35 34
37 37 35 33 31 30 30 30 28 27 28 28 28 29 31 32 34 35 34 32 31 29 28 29 30 30 28 26 24 25 30 33 32 31 30 28 28 28 28 28 29 29 30 29 28 28 29 30 30 29 28 27 25 24 24 25 26 28 30 32 34 35 35
38 38 37 35 33 32 32 31 30 29 29 30 30 30 31 32 34 35 34 33 31 29 28 27 27 26 25 23 22 26 32 34 33 32 33 33 33 32 31 31 32 33 35 35 34 32 32 35 35 33 31 30 29 27 27 27 28 30 31 32 34 36 36
40 39 38 37 35 34 33 33 32 32 31 32 32 32 32 32 32 34 35 35 34 32 30 28 27 27 26 26 26 29 32 33 33 33 32 33 35 36 35 35 35 35 36 36 36 35 34 37 39 37 34 33 33 31 30 30 31 31 32 33 35 37 38
41 40 39 38 37 36 35 34 34 34 33 33 34 34 34 34 34 35 36 37 36 34 33 32 32 32 32 32 31 32 32 34 35 33 31 31 32 34 36 36 36 36 36 36 37 36 35 36 39 41 39 36 36 35 33 33 33 33 34 35 37 39 40
44 42 40 39 38 38 37 36 35 35 35 34 34 35 36 37 37 38 38 39 39 38 36 36 36 36 36 36 35 34 35 36 36 36 34 33 33 34 36 37 37 37 37 38 38 38 36 36 37 41 42 39 37 37 38 38 37 36 36 37 38 39 40
45 44 42 40 38 38 38 38 37 37 37 37 37 37 38 39 39 40 40 41 41 41 40 39 38 39 39 39 38 37 38 38 38 38 37 35 35 37 39 39 39 39 40 40 41 41 40 38 36 38 42 42 40 39 40 40 40 40 39 39 39 40 40
46 45 44 42 40 39 38 38 38 38 39 39 40 39 39 39 40 41 41 42 42 42 41 40 40 40 40 39 39 38 38 38 38 38 38 37 38 39 41 42 42 42 43 44 45 45 44 42 39 38 39 42 43 43 42 42 42 42 41 42 42 42 42
47 47 46 44 43 41 39 39 39 40 40 41 42 41 41 41 40 40 41 42 43 43 42 41 41 41 41 40 40 40 40 40 40 40 40 41 42 42 43 44 45 46 46 45 46 48 47 45 43 40 39 41 44 44 44 45 45 44 43 45 46 44 44
47 47 46 46 45 43 40 38 39 40 41 42 43 44 44 44 43 43 42 42 43 44 44 43 42 42 43 43 43 42 42 43 43 43 43 44 45 45 45 45 46 47 47 46 47 48 49 48 47 45 43 43 44 44 44 44 44 43 43 46 49 48 48
47 47 46 46 45 45 42 39 38 39 40 42 43 46 47 47 47 47 46 45 44 44 44 44 44 44 44 45 45 45 45 46 46 47 47 47 47 46 46 46 46 46 47 47 49 50 50 50 51 51 49 47 47 48 47 45 44 43 43 47 51 50 50
47 46 46 46 45 45 43 41 39 38 39 40 41 43 45 46 47 47 47 47 47 46 46 46 46 45 46 47 48 48 48 48 48 48 48 47 46 46 47 47 47 48 49 50 51 52 51 51 52 53 52 51 51 51 49 47 46 46 46 49 53 53 53
47 46 45 45 46 45 43 41 39 38 38 39 39 39 41 43 44 44 45 46 47 47 48 48 48 48 49 50 49 49 48 47 47 47 46 46 46 47 47 48 49 50 52 52 52 53 53 54 54 54 54 55 55 55 54 52 50 50 51 53 54 55 57
49 47 46 45 46 46 45 43 40 39 39 38 37 38 40 41 42 42 43 43 44 45 45 46 47 48 48 48 48 47 47 47 47 46 46 47 48 49 49 50 51 52 54 55 55 55 56 57 57 56 55 57 58 59 59 57 54 54 57 59 58 58 59
51 50 48 47 46 46 47 45 43 41 40 39 38 38 40 41 42 43 43 44 44 43 43 43 44 44 45 46 46 47 48 48 47 47 48 49 50 51 52 53 54 55 56 58 58 59 59 60 60 59 59 60 60 61 61 61 59 59 59 61 63 64 63
54 53 51 49 48 47 47 47 45 43 42 41 40 40 41 42 43 44 45 45 45 44 43 43 43 44 46 47 48 50 51 51 51 51 51 52 53 54 55 56 56 57 58 60 61 61 62 63 63 63 64 64 64 64 64 64 64 63 61 62 66 68 66

ECMWFFLT1_500_spd_030.txt.gz
Wind_Speed
29 28 27 26 25 25 24 23 24 24 24 24 23 22 22 21 21 21 22 22 23 23 23 22 22 22 21 21 21 20 19 19 18 18 18 17 17 17 17 17 18 18 19 19 18 16 14 13 12 11 9 8 6 6 7 8 7 7 8 9 10 11 10
30 28 28 27 26 25 25 24 25 26 26 26 25 25 23 22 22 21 22 22 23 23 22 22 22 22 22 22 22 21 20 19 18 18 18 17 17 18 18 17 17 17 18 18 18 17 16 15 14 13 12 10 9 7 8 9 9 8 9 9 10 12 12
30 28 28 27 25 25 24 24 25 26 26 26 26 25 24 23 22 22 22 23 23 23 23 22 22 22 22 22 22 21 20 19 19 18 18 18 19 19 18 18 18 18 17 17 18 18 17 16 15 15 14 13 11 10 10 10 10 10 9 10 11 12 12
31 29 28 26 25 24 24 24 24 25 25 25 26 25 24 23 23 22 22 23 24 24 23 22 22 22 23 23 23 22 21 21 20 20 20 20 20 19 19 19 19 19 18 18 18 18 17 17 16 16 16 15 14 12 11 12 12 11 11 11 12 12 12
32 31 29 27 25 24 22 21 21 22 22 22 23 24 24 24 24 24 24 24 24 23 23 23 24 24 24 23 22 22 22 21 21 20 20 20 21 20 20 20 21 21 20 20 20 19 18 18 17 17 17 17 16 15 14 13 13 13 12 12 12 13 13
34 32 30 28 26 24 21 19 18 18 18 19 21 22 24 25 25 25 25 25 24 23 23 23 24 24 23 23 22 22 21 21 20 19 19 20 20 20 21 22 23 23 22 22 21 20 20 19 18 18 18 18 18 17 16 15 15 15 15 14 14 13 13
35 33 31 29 28 25 22 20 18 17 17 19 21 23 25 26 26 26 26 26 25 24 23 22 22 23 23 23 22 22 21 20 20 20 20 20 20 20 21 22 23 24 24 23 22 22 21 20 20 19 19 20 19 18 18 17 16 17 16 16 15 15 14
35 33 32 31 29 26 24 23 21 19 19 20 22 23 25 26 26 27 26 25 25 25 24 22 21 21 22 23 23 22 22 21 21 21 20 20 20 20 21 22 23 24 24 23 23 23 23 22 22 21 20 21 21 20 19 18 18 17 18 17 17 16 15
36 33 31 31 31 28 27 26 25 24 23 23 23 24 25 26 26 26 26 26 27 26 25 24 22 21 21 22 22 23 23 22 21 21 20 19 19 20 20 21 22 23 23 23 24 24 23 23 23 23 22 22 22 21 20 19 19 19 19 19 19 18 17
37 34 33 33 33 31 31 30 29 28 27 26 25 25 25 26 26 26 26 28 28 28 27 26 25 23 22 21 23 24 24 22 21 21 20 19 19 19 19 19 19 20 20 21 22 22 23 23 24 24 23 23 23 23 22 21 21 21 20 20 20 20 18
39 36 35 36 36 35 35 35 34 33 30 28 27 26 26 26 26 25 26 27 28 29 28 28 27 25 23 23 24 24 23 22 22 20 19 19 19 18 18 18 17 17 17 17 18 19 20 21 21 22 22 23 24 25 24 23 23 23 22 22 22 21 20
40 38 37 37 38 38 39 39 38 36 32 30 29 28 27 28 27 25 24 26 27 28 30 30 29 26 24 24 24 23 22 22 21 20 20 20 19 19 18 17 15 14 14 14 14 14 14 14 15 15 17 20 22 24 25 25 25 25 23 23 22 22 21
42 40 39 39 39 40 41 41 40 37 35 33 33 31 30 31 30 27 25 25 25 27 30 31 31 28 26 25 24 22 22 22 21 20 21 20 20 19 18 16 13 12 12 11 10 10 9 9 9 10 11 13 15 18 21 22 22 22 22 22 22 22 22
41 41 41 41 41 41 41 41 40 39 38 37 36 35 34 33 31 29 28 26 25 27 29 31 31 30 28 27 25 22 21 21 21 22 22 22 21 20 18 15 13 12 11 9 7 6 6 6 7 8 9 10 10 12 14 15 15 16 18 19 20 21 22
38 41 43 43 43 42 41 41 41 40 38 37 37 37 35 33 32 30 28 26 25 25 27 30 32 31 29 27 24 21 21 22 23 23 23 23 22 21 18 16 14 13 11 8 6 5 4 5 6 7 9 10 11 11 12 11 11 12 15 18 19 20 23
33 36 40 42 43 43 42 42 42 41 38 37 37 38 36 34 32 30 28 26 24 23 24 27 30 31 29 27 23 22 22 23 24 24 24 24 23 22 19 18 16 14 11 9 8 6 6 6 7 8 9 10 11 13 13 13 12 12 15 18 18 20 22
29 30 33 36 39 40 41 41 40 40 39 38 38 38 37 35 33 30 28 26 24 23 23 26 28 30 29 25 23 22 23 23 25 25 25 25 24 23 21 19 17 15 13 11 10 9 9 9 10 10 10 11 11 13 14 14 14 13 15 18 19 19 21
28 28 28 28 29 32 34 35 35 37 39 39 38 38 37 36 33 30 27 25 24 24 24 25 27 28 28 25 24 23 22 24 26 27 26 26 25 24 22 21 19 17 15 14 13 13 13 13 13 14 13 13 13 14 14 14 14 15 16 18 20 20 20
26 27 26 25 24 25 27 28 29 32 35 36 37 37 37 37 34 29 25 25 25 25 25 24 25 27 27 26 25 24 24 25 27 27 26 26 26 25 25 23 21 19 18 17 17 18 18 18 18 18 17 16 16 16 15 15 15 16 18 20 21 21 21
27 27 26 25 24 24 24 24 24 26 28 30 32 34 35 34 32 29 27 26 25 24 23 22 23 25 26 26 25 25 25 26 26 26 26 26 27 27 27 25 23 22 21 20 20 20 21 21 21 21 20 20 19 18 18 16 15 16 19 21 23 24 23
29 28 28 27 25 24 24 23 22 22 23 24 26 28 30 30 30 29 28 27 25 23 23 22 22 23 24 25 25 25 25 25 25 25 25 26 27 27 27 26 25 24 24 23 22 22 22 23 24 24 23 23 23 22 20 18 17 18 19 21 23 25 25
31 31 30 29 27 26 25 24 23 22 22 22 23 25 27 29 30 30 29 28 25 24 24 24 23 22 22 22 23 24 25 24 24 24 24 24 25 25 25 26 26 25 25 25 25 25 24 25 25 26 26 26 26 24 22 21 21 21 20 22 24 27 28
34 33 33 31 29 28 27 26 24 23 23 23 23 24 26 28 29 30 30 30 27 25 25 26 25 24 23 22 22 24 25 24 24 23 23 24 25 25 26 26 27 27 27 26 26 26 27 27 28 28 29 29 28 27 25 24 24 23 23 24 26 28 29
37 36 36 34 32 30 29 27 26 25 25 25 25 25 26 27 29 30 31 31 29 26 26 27 26 26 24 23 23 25 26 25 25 24 24 26 26 26 26 27 28 28 28 28 28 28 29 30 30 30 31 31 30 29 29 28 28 27 27 27 29 30 31
39 39 38 37 35 33 32 30 29 27 27 27 27 27 27 28 29 30 31 32 31 29 28 27 27 27 26 25 25 26 25 25 27 28 29 29 28 27 28 29 30 31 31 31 30 30 31 33 33 32 32 32 32 33 32 32 32 32 31 31 31 33 33
40 40 40 39 38 36 35 34 32 30 30 29 29 29 29 29 29 30 32 33 33 30 28 28 29 29 28 26 26 25 24 26 28 30 29 28 27 28 30 31 32 33 35 36 36 35 35 35 34 34 33 34 34 35 34 34 34 35 36 36 35 35 35
41 40 40 40 39 39 38 36 35 33 32 32 31 31 31 30 30 31 32 34 34 32 30 31 32 31 30 28 27 26 25 26 27 28 28 28 28 29 31 32 31 32 34 37 39 40 39 38 36 36 36 36 36 35 34 34 34 34 36 38 39 38 38
41 41 41 40 40 39 39 38 36 35 34 33 33 32 32 32 32 33 33 33 34 33 32 32 33 33 32 30 29 28 27 28 28 28 30 31 30 32 34 33 33 33 34 35 37 38 39 39 39 38 38 38 38 36 35 34 34 34 34 36 41 42 41
41 42 41 40 40 39 39 38 37 36 35 34 34 34 34 33 34 34 34 34 34 34 34 34 34 35 35 33 32 32 31 31 32 33 34 35 34 35 36 36 36 36 37 38 38 38 39 39 39 40 40 40 40 39 38 37 37 36 34 33 37 42 44
41 42 42 42 41 40 39 38 37 37 36 35 34 35 35 34 34 35 35 36 36 35 35 35 35 36 37 37 36 36 35 35 36 37 38 39 39 39 39 39 39 39 39 40 40 42 42 42 42 42 42 43 43 43 42 41 39 38 36 33 34 39 43
41 42 42 42 42 41 40 39 38 37 37 36 36 35 35 35 35 36 36 37 38 38 37 37 37 38 39 39 39 39 40 40 39 40 41 41 42 43 42 41 41 41 40 41 42 43 44 45 45 46 45 45 45 44 44 44 41 38 37 36 35 36 40
40 41 42 43 43 43 42 40 39 38 38 37 37 36 36 36 37 37 37 38 39 39 40 40 40 41 41 42 42 43 43 43 43 43 43 43 44 45 44 43 43 43 42 42 43 44 45 46 48 49 48 48 47 46 45 46 44 42 41 40 40 40 41
42 41 41 42 43 43 43 42 40 39 38 38 38 38 38 38 38 38 38 38 38 39 40 41 42 42 43 43 44 44 45 44 44 44 44 44 45 45 44 44 44 43 43 44 45 45 46 48 49 50 51 50 50 49 49 48 47 47 47 45 44 44 45
43 42 42 42 42 42 42 41 40 39 38 38 38 38 39 39 39 39 39 39 39 40 40 42 42 42 43 43 44 45 45 44 44 44 44 45 45 45 44 43 43 44 45 46 46 47 49 49 50 51 52 52 53 53 53 52 51 51 51 49 47 47 48
45 44 43 42 41 41 40 40 39 38 38 38 38 38 39 39 40 41 41 41 41 41 41 42 42 43 44 44 45 45 45 45 45 45 45 46 46 46 45 45 45 47 47 48 48 49 50 51 51 51 52 53 54 55 56 55 53 53 54 54 52 51 51
47 46 45 44 43 42 41 40 39 39 38 39 39 38 38 39 39 40 41 42 42 42 42 42 44 45 45 46 46 46 47 47 48 47 47 47 48 48 48 48 48 48 49 49 49 50 51 52 53 53 54 56 56 56 57 57 55 54 56 58 57 56 56
48 47 47 46 45 44 44 43 42 41 40 39 39 38 38 37 38 39 40 41 41 41 42 43 44 45 46 46 46 46 47 48 48 48 48 49 49 50 50 50 49 49 49 50 50 51 53 54 55 56 57 58 59 59 58 58 58 57 59 61 60 60 61
50 49 48 48 47 46 45 45 44 43 41 40 40 39 38 38 38 38 39 40 41 42 43 44 44 45 45 46 46 46 46 46 47 47 48 48 48 48 48 48 48 49 51 52 53 55 56 57 58 59 59 60 62 62 62 61 62 62 63 63 64 64 65

ECMWFFLT1_500_spd_033.txt.gz
Wind_Speed
32 30 27 27 26 25 25 24 23 23 23 22 22 23 23 24 23 23 23 24 25 25 25 24 24 23 22 22 22 21 20 20 19 20 20 20 19 18 18 18 18 17 16 15 14 14 13 13 12 11 11 10 9 8 8 8 9 8 7 8 8 8 8
32 29 28 29 27 26 25 25 25 25 24 23 24 24 24 23 23 24 24 25 26 26 25 25 25 24 24 24 23 22 21 20 20 20 21 20 20 19 19 19 19 18 17 16 15 15 14 14 14 13 12 12 11 10 10 10 10 9 9 9 9 9 8
30 28 29 28 26 25 26 26 26 26 25 25 25 24 23 23 23 24 25 26 26 26 26 26 26 25 25 25 24 23 22 21 21 21 21 21 20 20 19 19 19 19 18 17 16 16 15 14 14 14 14 13 13 12 12 11 11 10 10 10 10 11 10
30 28 29 27 27 26 26 26 26 27 26 25 25 24 23 23 24 25 26 26 26 26 26 25 26 26 26 25 24 23 21 20 20 21 21 21 21 20 19 18 18 18 18 17 17 17 16 16 15 15 15 15 14 14 13 13 13 12 11 11 11 12 12
33 31 29 28 28 28 25 24 25 26 26 25 25 25 24 24 25 26 26 26 26 25 25 26 26 25 25 24 23 22 21 20 20 20 20 20 20 19 18 18 19 18 18 18 17 17 17 17 17 17 16 16 16 15 15 15 15 14 13 13 12 13 14
37 32 29 28 29 28 24 23 23 24 24 25 26 26 26 25 25 25 24 24 25 25 25 25 24 24 24 24 23 22 21 20 19 19 19 19 19 19 19 20 20 20 20 19 19 18 18 18 18 18 18 18 17 17 16 16 16 17 16 15 14 14 14
37 32 30 29 28 25 22 22 23 23 24 25 26 26 26 25 25 24 24 24 24 24 24 24 23 23 23 23 22 21 20 19 19 19 20 19 19 19 20 20 19 20 20 20 20 20 20 20 19 19 19 19 19 18 18 18 18 18 18 17 16 15 15
38 32 29 28 27 24 22 23 24 24 24 24 23 23 24 24 25 24 23 23 23 23 22 23 23 22 22 22 21 20 20 21 21 20 20 20 19 19 19 19 19 19 19 19 20 20 21 21 21 20 20 20 20 20 20 19 19 19 19 19 19 18 17
39 34 27 25 26 26 25 26 26 24 23 22 22 23 25 25 25 24 23 23 23 22 21 21 21 21 22 21 20 20 21 22 21 21 21 20 19 19 19 19 19 19 19 19 19 19 20 20 21 21 21 21 21 20 20 20 20 20 20 20 21 21 20
39 37 31 28 28 28 28 28 25 22 22 22 24 26 26 26 26 25 25 24 23 22 21 22 22 21 21 20 20 21 22 22 22 22 21 21 20 19 19 20 19 19 19 19 19 18 18 19 20 21 22 21 21 21 21 21 21 21 21 22 22 23 22
41 37 33 32 31 30 29 26 22 21 24 24 24 25 26 27 26 25 26 26 24 23 23 24 25 24 22 21 22 22 22 21 22 21 21 21 20 20 21 20 20 19 18 19 18 18 18 18 18 19 20 21 21 21 21 22 22 22 22 22 23 24 24
39 32 32 34 34 32 30 27 25 25 26 27 27 26 25 26 25 25 25 26 26 26 26 26 27 26 25 24 24 24 22 21 21 20 21 21 21 21 21 21 19 18 18 18 18 17 17 16 16 16 17 19 19 19 20 21 21 21 22 22 23 23 24
34 32 34 36 36 35 34 32 31 30 30 31 31 29 26 24 24 24 24 24 25 27 27 27 27 27 27 26 26 25 22 21 20 20 21 22 22 22 22 21 19 18 18 17 16 15 15 15 14 14 14 14 14 14 15 16 17 18 20 21 21 22 23
34 35 36 37 38 38 36 35 34 34 33 34 34 32 28 26 25 24 24 25 26 26 27 27 26 27 27 28 28 27 24 23 22 22 22 23 23 22 22 21 19 18 17 16 14 14 14 14 13 12 11 11 11 10 10 11 11 12 14 16 17 18 20
36 36 37 39 40 39 37 36 37 37 37 37 37 35 32 30 29 26 25 26 26 26 27 27 26 25 26 28 29 28 26 26 25 24 24 24 24 23 22 21 19 18 17 16 15 15 15 14 12 11 10 9 9 9 9 9 10 10 11 12 14 16 17
39 39 40 41 42 41 39 38 38 39 40 39 39 37 35 34 33 30 29 29 28 27 28 28 26 24 24 26 28 29 29 28 27 26 26 25 24 23 23 22 21 19 18 16 16 16 15 14 13 11 10 9 8 8 8 8 9 10 11 13 15 16 17
41 42 44 44 43 42 41 41 41 41 41 41 40 39 38 37 36 34 33 33 31 28 29 29 26 23 22 22 25 29 30 29 28 27 27 26 25 24 24 24 23 21 19 18 18 18 17 15 14 12 11 10 9 9 8 8 9 11 12 14 16 18 19
40 41 42 42 42 40 40 42 43 42 42 42 41 40 39 38 38 37 36 35 34 31 30 30 27 24 21 21 23 26 27 28 29 28 28 27 27 25 25 26 24 22 21 20 19 19 18 17 15 14 13 12 11 11 10 10 10 11 13 15 17 19 20
38 39 39 40 39 38 38 40 41 41 42 42 42 41 40 39 39 38 37 36 35 34 32 30 28 25 22 21 22 22 23 26 28 29 28 28 28 27 27 27 26 24 22 21 21 20 19 18 17 16 16 15 14 14 14 13 13 13 14 16 18 19 21
36 36 35 35 33 32 32 34 36 37 38 38 39 40 40 39 39 39 38 37 36 36 33 30 28 25 22 21 21 20 22 25 28 29 29 29 30 29 28 27 27 25 24 24 23 22 20 19 19 19 18 18 18 18 17 17 17 16 16 18 19 20 22
34 34 33 31 29 27 27 30 32 32 32 33 34 36 38 39 39 40 40 38 37 37 35 31 27 23 20 20 20 20 22 25 27 29 30 30 31 30 29 28 27 26 26 25 25 23 22 21 22 22 22 22 22 22 21 20 20 19 19 20 22 23 24
34 34 33 30 28 27 27 28 27 27 27 28 30 32 35 37 39 40 40 39 37 36 35 31 26 21 18 18 19 19 21 24 27 30 31 31 31 29 28 27 26 26 27 27 27 26 25 24 24 24 24 24 25 25 25 24 24 23 22 22 24 26 27
35 34 31 29 29 29 28 26 25 24 24 24 25 27 30 34 36 38 38 38 36 34 32 29 24 21 19 18 18 18 19 22 25 28 30 30 28 26 25 25 25 27 28 28 28 28 27 27 28 28 27 27 27 27 28 28 28 26 23 23 24 27 28
35 33 32 31 30 29 28 27 26 25 24 23 23 23 25 29 32 33 35 35 34 32 30 27 24 22 20 19 18 18 18 19 22 24 27 27 25 24 24 25 26 27 27 28 28 29 29 29 29 30 30 30 30 29 30 31 30 27 24 24 26 28 30
36 36 35 34 32 30 30 29 28 27 26 25 24 23 23 25 27 30 31 32 32 30 29 27 25 24 23 21 20 20 20 20 20 21 23 23 24 24 25 25 26 27 28 28 28 28 29 29 29 29 30 31 31 31 30 31 31 30 27 27 28 30 32
40 39 37 36 33 32 32 31 30 29 28 27 25 24 24 24 25 27 29 29 30 29 29 29 28 27 26 24 22 22 22 21 20 19 20 21 23 24 25 26 27 27 28 28 28 29 29 30 30 30 31 31 32 32 32 32 32 32 31 31 31 32 34
42 41 40 38 35 34 34 33 31 31 30 29 28 27 26 26 25 26 27 29 29 28 29 31 31 30 29 27 25 24 24 22 20 18 19 21 23 24 25 25 27 28 28 28 29 30 30 30 31 31 31 31 31 32 32 33 34 33 33 34 35 34 35
43 42 42 40 38 37 36 35 33 32 31 30 30 29 29 28 27 27 27 28 29 30 31 31 31 32 31 29 27 27 26 24 22 20 21 22 23 23 24 25 27 28 29 29 30 31 32 32 32 32 33 33 33 32 32 32 34 34 34 35 35 36 37
45 44 44 43 41 39 38 37 36 35 33 32 32 31 31 31 29 28 28 28 29 31 31 30 31 32 33 31 30 29 28 27 26 24 23 23 23 24 25 26 28 29 30 31 32 33 35 35 35 35 36 36 36 35 34 34 35 35 35 34 36 38 39
45 45 45 45 44 42 41 40 38 37 36 35 33 33 33 32 32 31 30 30 30 31 31 31 31 32 34 33 32 31 31 30 29 28 27 27 27 28 28 29 30 31 32 33 35 37 38 38 38 39 39 39 39 38 38 38 38 38 38 37 37 39 39
45 45 46 46 45 44 43 42 40 39 38 37 36 35 34 34 34 33 33 32 31 32 32 32 32 33 34 35 35 34 33 31 30 30 30 31 31 32 32 32 34 34 35 36 37 39 41 41 42 43 42 43 42 41 41 41 41 42 43 42 41 41 41
44 45 45 45 44 44 44 43 42 41 40 39 38 36 36 36 35 35 35 34 34 34 33 33 34 34 34 35 36 35 34 33 32 33 34 35 36 36 36 37 38 38 39 40 40 41 42 44 46 46 46 46 46 44 43 44 45 45 45 45 45 44 43
44 44 44 44 43 44 45 44 43 42 42 40 39 38 37 37 37 36 37 37 37 36 35 34 34 35 36 36 36 36 36 35 35 35 37 39 40 40 40 41 42 42 43 43 43 44 45 46 48 49 48 48 47 46 46 47 48 48 48 49 49 47 46
45 44 44 43 43 43 44 44 44 43 42 41 41 40 39 38 38 38 38 38 38 38 38 37 36 36 37 38 38 38 39 38 38 39 40 42 43 44 44 44 44 45 45 45 46 47 48 49 49 49 49 48 48 48 48 49 50 50 50 51 53 52 50
46 45 45 44 43 42 43 43 43 43 42 41 41 41 40 39 39 39 38 38 38 38 39 39 39 39 39 39 40 41 41 42 43 43 45 46 47 47 47 47 47 47 48 48 48 49 49 50 50 49 49 49 49 50 51 51 52 51 51 53 56 55 54
47 47 46 46 45 44 43 42 42 42 42 41 41 41 41 40 40 39 39 39 38 38 39 40 40 41 41 41 42 42 43 44 45 46 47 47 48 48 49 49 49 49 49 49 49 49 49 50 50 50 50 50 51 52 52 52 52 52 52 54 56 57 56
48 48 47 47 46 45 44 43 42 42 41 41 41 41 40 40 40 40 39 39 39 39 39 40 41 42 42 42 43 43 43 44 46 46 46 47 48 48 49 49 49 49 49 50 50 50 50 50 50 50 51 53 54 54 54 54 54 54 55 57 59 60 60
50 49 48 48 47 47 46 45 44 42 42 42 41 41 40 39 39 39 39 39 40 40 40 41 42 43 43 44 44 44 44 46 46 46 47 48 49 50 50 51 51 51 51 51 51 51 51 52 52 52 53 54 56 56 56 56 57 59 61 62 63 65 65

ECMWFFLT1_500_spd_036.txt.gz
Wind_Speed
29 31 25 22 22 20 21 21 19 17 18 20 20 18 17 16 17 19 21 22 22 23 23 23 23 23 22 22 21 19 17 16 16 15 15 14 13 12 11 12 12 11 11 10 10 9 9 9 8 8 8 7 7 7 7 7 6 5 6 7 7 8 8
29 31 27 22 21 21 22 23 21 19 20 20 19 17 16 15 16 18 20 21 22 23 23 23 23 23 22 22 20 19 18 17 16 16 15 14 13 12 11 12 12 11 11 11 11 11 10 11 11 10 10 9 9 9 9 9 8 7 6 6 7 8 8
28 30 29 20 18 22 23 23 22 21 22 21 18 15 14 14 16 18 20 22 22 23 23 23 23 23 22 21 20 19 18 17 16 16 15 14 13 12 11 11 11 11 11 11 11 12 12 12 13 12 12 12 12 12 11 11 10 9 8 7 7 8 9
22 24 28 19 17 22 22 22 23 23 23 19 15 14 14 15 17 19 21 22 22 22 22 23 23 22 21 20 19 18 16 16 15 16 15 14 13 11 11 11 11 12 12 12 12 12 12 13 13 14 14 14 14 14 14 13 12 12 11 9 8 8 9
18 21 25 20 16 20 21 20 22 24 22 17 14 14 15 16 18 19 21 22 22 22 22 22 22 21 20 19 18 17 16 15 15 15 15 14 13 12 12 12 12 12 12 13 13 13 13 13 14 14 15 15 16 16 16 15 14 14 13 12 11 10 10
20 24 28 24 18 18 21 20 20 22 20 17 15 15 17 18 18 19 20 20 21 21 21 21 20 19 19 18 18 17 16 15 14 13 14 13 13 13 13 13 13 13 13 14 14 14 15 15 16 16 16 17 17 17 17 17 17 16 16 15 14 13 12
23 26 29 28 21 18 20 19 19 21 19 19 19 19 19 19 19 19 19 19 20 20 19 19 19 19 19 19 19 18 16 15 14 13 13 13 13 14 14 14 14 14 14 14 15 16 16 17 17 18 18 19 18 18 18 18 18 18 18 17 17 16 15
25 26 30 30 25 20 19 20 21 22 22 21 21 20 19 19 19 20 19 19 19 19 19 19 19 19 20 20 19 18 17 16 15 15 15 15 15 15 15 15 15 14 14 14 15 16 16 16 17 18 19 20 20 19 19 19 19 19 19 19 19 19 18
24 25 28 30 27 22 20 22 23 23 23 23 21 19 18 18 18 18 19 20 19 18 18 19 20 20 20 20 20 19 18 17 16 16 16 15 15 15 15 15 14 14 13 14 15 15 15 16 16 17 18 19 20 20 20 20 20 20 19 19 20 20 20
25 26 24 24 25 22 20 22 23 22 23 23 21 19 17 17 18 19 19 20 19 18 17 18 19 20 20 19 19 19 18 16 16 16 15 15 15 16 16 15 14 14 14 14 14 14 15 15 15 16 16 17 18 19 20 20 21 21 20 20 21 21 22
26 28 25 22 23 21 19 21 23 22 21 21 21 19 18 18 19 19 19 19 19 19 18 19 20 19 19 20 19 19 17 16 16 15 15 15 16 16 17 16 15 14 14 14 14 14 14 14 14 14 14 15 16 17 18 19 20 21 21 20 21 21 22
30 30 29 26 25 25 24 23 24 24 22 20 20 19 17 17 18 18 19 19 19 20 20 19 20 20 20 21 21 20 18 17 15 14 14 15 16 17 17 16 16 15 15 15 14 13 13 13 13 13 13 13 13 14 15 16 17 18 19 19 20 21 22
33 31 30 27 25 26 25 23 24 25 24 22 21 19 17 18 18 18 19 19 20 21 21 20 20 21 21 22 21 20 18 17 15 15 16 16 16 17 18 17 17 16 16 16 14 13 13 13 13 12 12 11 11 11 12 13 13 14 15 16 17 19 20
32 31 31 26 22 21 20 23 25 26 25 24 22 20 20 20 20 20 20 20 20 20 20 20 20 20 20 20 21 20 19 18 18 18 18 18 19 19 19 19 18 17 17 16 15 14 14 13 12 11 11 11 11 10 10 10 10 11 12 14 15 16 17
33 32 32 29 25 21 19 22 25 25 24 23 22 21 21 21 22 22 22 22 22 21 21 20 20 20 19 19 19 20 20 21 22 22 21 21 21 21 20 20 19 18 18 17 16 16 15 13 12 11 11 11 11 9 8 8 8 9 11 12 14 14 15
33 31 31 31 30 26 24 24 24 24 24 24 23 23 22 21 21 21 22 23 23 23 22 21 21 21 20 19 19 20 22 23 24 24 24 23 23 22 22 22 21 20 19 18 18 17 16 14 12 11 11 11 10 8 7 6 7 8 10 12 13 14 14
34 32 32 33 34 33 31 29 27 27 27 27 27 26 24 23 22 22 22 22 22 22 22 22 21 21 22 21 20 20 22 23 24 25 25 24 24 24 24 23 22 21 20 19 19 18 16 14 13 12 13 12 10 9 7 6 6 7 9 11 13 15 15
37 36 33 33 35 36 34 32 30 30 30 30 30 29 28 27 26 25 24 23 23 22 22 22 21 21 22 22 21 20 20 21 23 24 24 24 24 25 25 25 23 21 21 20 20 19 18 16 14 14 15 14 12 10 8 8 8 9 10 12 14 16 17
37 38 35 33 32 34 34 32 32 33 33 32 32 32 31 30 29 29 27 26 25 23 23 23 22 23 23 22 21 19 19 20 21 22 22 22 23 24 25 25 23 22 21 21 21 21 19 17 16 16 16 15 14 12 11 10 10 11 12 13 16 18 19
36 38 38 36 31 30 32 30 29 30 31 32 33 33 33 32 32 31 31 29 27 25 25 25 25 25 25 24 23 21 19 20 20 20 20 21 22 23 24 24 23 22 22 23 23 22 19 18 18 18 18 17 16 15 14 13 13 13 14 15 17 20 22
35 36 37 35 29 26 28 27 25 25 28 31 33 33 33 33 33 33 32 31 29 28 28 27 27 27 27 27 27 24 21 20 20 20 20 20 21 22 23 23 24 25 25 25 24 23 21 20 20 19 19 19 18 17 16 15 16 16 17 18 19 21 23
35 36 36 34 30 26 25 24 24 26 28 30 32 33 33 34 34 34 34 33 32 32 31 30 29 29 29 29 29 27 22 18 18 20 21 20 21 21 22 23 25 27 27 26 25 24 23 22 21 20 21 21 21 20 18 17 18 18 19 20 22 23 24
35 35 34 33 31 28 26 25 25 28 30 32 34 34 34 33 33 34 34 34 34 34 34 33 32 31 31 30 29 26 21 17 16 18 20 20 20 20 22 24 26 28 28 27 25 24 23 22 22 22 22 22 21 21 20 20 20 20 21 23 25 26 25
35 34 32 31 29 28 29 29 26 27 30 32 33 32 31 32 32 32 33 33 34 35 35 35 34 34 33 31 28 24 20 17 16 16 18 19 19 19 21 24 25 27 27 26 25 24 23 23 23 23 22 22 21 21 21 22 23 24 24 26 28 28 27
36 33 32 30 28 28 30 29 27 27 28 28 27 26 27 28 29 31 32 34 35 35 36 36 36 35 34 32 27 22 21 20 18 17 16 16 17 18 20 22 24 25 25 25 25 24 24 23 22 21 21 21 21 21 22 23 24 26 26 27 29 30 30
35 33 33 31 30 29 30 29 28 29 28 26 25 24 24 25 26 27 28 30 32 33 34 36 36 35 35 33 27 24 23 21 20 19 18 17 17 18 19 21 23 24 24 24 24 24 23 22 21 20 20 20 21 22 23 23 24 25 25 25 27 29 31
36 35 35 33 32 32 31 31 30 30 29 27 26 26 25 24 24 24 24 25 26 28 29 31 32 33 34 32 28 26 24 23 22 21 21 20 19 19 19 20 21 22 23 23 24 23 23 22 22 21 21 22 23 23 23 24 24 24 24 25 26 28 30
40 38 38 37 35 34 34 33 32 31 30 29 28 28 27 25 24 24 24 24 24 24 25 26 27 29 30 30 29 28 27 26 25 24 23 22 20 19 19 20 20 21 21 22 23 24 24 24 24 24 24 24 24 24 24 25 26 26 26 27 28 29 30
43 42 42 41 39 37 36 36 34 33 32 30 30 30 29 27 26 26 26 26 25 24 25 24 24 25 27 28 29 30 29 28 28 27 26 24 22 21 21 21 20 20 20 21 22 24 24 24 25 25 26 26 26 26 27 28 29 30 30 30 31 32 32
43 44 44 44 42 40 39 39 37 36 34 33 32 32 31 30 29 28 29 28 26 25 25 25 25 25 25 27 29 30 30 30 29 29 28 27 26 25 25 24 22 21 21 21 22 23 23 24 25 26 26 27 28 29 30 32 32 33 33 34 34 35 35
44 45 46 46 45 43 42 41 40 38 37 35 34 34 33 32 31 30 30 30 28 27 27 27 27 26 26 27 29 31 31 31 30 31 31 30 29 29 28 26 25 24 24 24 24 25 25 26 27 28 29 30 31 32 33 35 36 36 37 38 38 39 40
46 46 47 47 46 45 44 44 43 41 39 37 36 36 35 33 32 31 31 31 31 30 30 30 30 28 27 28 29 31 32 32 32 32 33 33 32 31 30 29 28 28 27 27 28 29 29 30 31 32 33 34 35 35 37 38 39 39 41 43 43 43 44
46 46 47 48 48 47 47 47 45 43 41 39 38 38 37 35 34 32 32 32 32 32 32 32 31 30 29 29 30 30 32 33 33 33 34 34 35 34 33 32 31 31 31 31 33 33 33 34 34 35 36 37 38 39 40 41 41 43 45 47 48 47 47
46 45 46 47 48 48 49 49 48 46 44 42 41 41 40 39 37 35 34 33 33 33 33 33 32 32 31 31 31 31 32 32 33 33 33 35 36 36 36 35 34 34 35 35 36 37 37 37 37 38 40 41 43 43 44 44 45 47 49 50 51 51 50
47 45 45 46 47 48 50 50 50 49 47 45 44 43 42 41 40 39 37 35 35 35 35 34 34 34 33 33 33 34 34 33 33 34 34 35 37 38 38 38 37 37 38 38 38 39 39 39 40 42 43 45 46 46 47 48 49 50 51 52 53 54 54
48 46 45 45 46 47 48 49 50 49 48 47 46 45 45 43 42 41 40 38 37 37 37 36 36 36 36 36 35 35 34 34 35 36 36 37 37 38 39 39 39 39 39 39 40 40 41 42 44 46 47 48 49 50 51 51 52 53 54 54 55 56 57
48 47 46 45 45 46 47 48 48 48 48 47 47 46 46 45 44 43 42 41 40 39 39 39 39 39 38 37 36 36 35 35 37 38 38 38 38 39 39 40 40 41 42 42 42 43 45 47 48 50 51 52 53 53 53 53 54 54 55 56 57 58 58
48 48 47 46 46 46 46 47 47 47 47 47 47 46 46 45 45 44 44 43 42 41 41 41 41 40 39 39 39 39 38 38 39 39 39 39 40 41 41 41 43 44 45 45 46 47 48 50 51 52 53 54 54 54 55 55 56 56 57 57 58 58 58

ECMWFFLT1_500_spd_039.txt.gz
Wind_Speed
18 13 14 17 19 19 17 16 14 11 12 14 16 19 19 20 21 22 21 20 20 20 19 19 18 17 16 15 15 15 13 13 13 13 12 11 9 9 9 9 8 8 7 6 5 4 5 5 4 3 3 3 3 3 4 4 3 3 5 6 6 6 5
21 11 11 16 20 20 19 18 15 11 12 15 17 19 20 20 22 23 22 22 22 21 21 20 19 17 16 15 14 13 12 12 13 12 11 10 9 9 9 8 9 9 8 7 5 5 6 6 5 4 4 5 5 6 6 6 5 5 5 6 7 7 7
23 12 11 14 16 19 20 18 15 12 12 15 18 19 19 20 22 23 23 22 22 22 22 20 19 18 16 15 13 12 11 11 12 11 11 10 9 8 8 8 9 9 8 8 8 8 8 8 8 8 7 8 8 8 8 8 8 7 6 6 7 8 9
23 14 13 14 15 19 21 20 17 14 13 15 17 18 19 21 23 23 22 22 22 22 21 20 18 18 16 14 13 12 11 11 11 10 10 9 8 7 7 7 8 8 8 9 9 9 9 9 10 10 10 10 10 11 11 10 10 10 9 8 8 8 9
22 15 16 16 17 19 20 20 18 14 14 15 17 19 20 22 23 22 21 21 21 22 21 20 19 18 16 15 14 13 12 12 11 10 9 9 8 6 6 7 7 7 8 8 8 8 9 10 10 11 11 11 11 12 12 12 12 12 12 11 10 9 10
24 18 17 16 18 21 21 20 18 14 15 17 18 19 20 21 22 21 20 20 20 20 19 18 16 16 15 14 13 12 12 11 10 9 9 9 9 7 7 7 7 8 8 8 8 8 9 10 11 11 12 12 13 13 13 13 13 13 13 13 12 12 11
25 20 17 16 18 22 22 19 16 15 17 18 18 19 18 19 20 19 19 19 19 19 17 15 14 14 13 13 12 12 11 10 10 9 10 10 9 9 8 8 8 8 8 8 8 9 9 10 10 11 12 13 13 14 14 14 14 14 14 14 14 14 13
25 20 19 19 20 22 21 17 16 17 18 18 16 15 16 18 19 19 18 19 19 18 16 15 15 14 14 14 13 13 12 11 10 10 11 10 10 10 9 9 9 9 9 8 9 9 9 9 9 10 11 12 13 14 14 15 15 15 14 14 14 14 15
25 20 21 22 23 24 21 17 16 17 17 15 14 13 15 18 18 18 18 19 19 18 17 16 16 16 15 15 14 13 13 12 11 12 11 11 11 10 10 10 10 9 9 9 8 8 8 8 8 9 10 11 12 13 14 15 15 15 15 14 14 15 15
27 23 21 22 24 25 23 20 18 16 13 13 14 14 14 15 17 18 18 18 18 18 18 17 17 16 15 15 14 14 12 11 11 12 12 11 11 11 10 10 10 10 9 9 8 8 8 8 8 9 10 10 10 11 12 13 13 13 13 13 14 14 15
29 26 21 21 22 23 23 21 17 14 12 13 14 13 12 13 16 18 18 18 18 18 18 17 16 16 15 15 14 13 13 12 12 12 12 12 11 10 10 9 9 10 10 9 9 9 9 9 8 9 10 10 9 8 8 9 10 11 12 12 13 13 14
29 26 21 20 18 18 20 20 18 17 15 15 15 14 12 12 14 16 18 20 20 19 17 16 15 15 15 15 14 14 14 14 14 13 12 11 10 9 9 9 9 9 10 10 10 10 9 9 9 9 8 8 7 7 6 5 6 8 9 10 11 11 12
25 24 21 17 14 18 21 21 22 22 19 18 18 17 14 14 15 16 18 19 19 19 17 16 15 15 15 15 15 15 15 14 14 13 12 11 10 10 9 9 9 9 10 11 11 10 10 10 9 8 8 7 6 5 4 4 4 6 6 7 7 8 9
22 23 23 18 14 20 24 25 23 20 19 20 22 20 18 18 17 16 16 17 17 17 15 14 14 14 14 14 14 14 14 14 14 13 12 12 11 11 10 10 10 10 11 11 11 10 11 11 9 8 8 7 6 5 4 4 4 4 4 4 5 6 8
24 26 25 20 14 14 19 23 22 19 18 19 22 23 21 19 18 15 15 15 14 13 13 12 12 11 11 11 11 12 13 14 14 14 14 14 13 12 13 13 13 12 12 12 12 11 12 11 10 8 8 7 6 5 4 4 3 3 3 3 3 5 6
28 28 25 21 16 11 12 16 19 18 18 19 22 22 21 20 19 17 15 14 13 11 10 10 9 8 8 8 9 10 12 13 13 14 15 15 15 15 15 16 16 15 14 13 13 12 12 11 10 9 8 7 6 5 5 4 4 3 3 3 3 4 5
29 27 24 21 18 16 15 16 16 17 18 20 21 20 20 21 20 19 18 17 15 14 12 11 10 8 8 8 9 10 10 10 12 13 14 15 16 17 17 18 18 17 16 15 14 13 13 12 11 9 9 8 6 6 6 6 5 4 4 4 5 6 6
29 26 25 23 21 19 20 19 17 17 18 19 20 19 20 21 21 21 20 18 18 17 16 14 12 11 10 10 10 10 10 11 12 13 14 15 16 17 18 19 20 20 18 15 15 15 14 12 11 11 10 8 7 7 8 7 6 5 5 6 7 8 8
30 29 29 28 25 23 23 22 22 22 21 21 22 21 20 22 22 21 19 18 18 18 17 16 14 13 11 11 10 10 11 12 12 13 14 15 16 17 18 19 19 20 19 17 17 17 15 13 12 11 11 9 9 9 9 8 7 6 7 7 9 10 11
33 33 31 29 27 24 23 21 22 24 24 24 24 24 23 24 23 21 19 18 18 17 16 15 14 12 11 11 11 11 12 13 13 13 14 15 16 16 17 17 18 19 20 19 19 17 16 15 14 12 12 11 11 10 9 9 9 9 9 9 10 12 12
30 29 28 27 26 24 21 17 16 18 20 22 24 25 25 25 23 21 20 18 16 15 14 14 13 12 12 12 13 13 14 14 14 15 15 16 17 16 15 16 17 19 21 20 19 18 17 17 16 14 13 12 12 12 11 11 11 11 11 12 12 13 14
27 27 25 25 25 24 22 19 17 16 16 17 19 21 22 23 23 22 20 18 17 16 15 15 15 14 14 15 16 16 16 16 17 17 17 17 17 17 16 16 17 19 21 21 19 19 18 17 16 15 15 15 14 13 12 13 14 14 13 13 14 14 15
25 24 23 23 23 23 23 21 19 18 17 17 17 18 19 21 23 23 22 20 19 18 18 18 17 17 18 18 18 18 19 19 18 18 17 16 17 17 17 17 17 19 21 21 19 18 17 17 17 16 17 17 16 13 12 13 14 14 13 13 14 15 16
25 24 23 23 23 23 22 21 20 19 18 18 18 18 18 19 20 21 21 21 20 20 20 20 21 22 22 22 21 21 22 22 20 18 17 17 16 16 17 18 19 20 21 21 20 19 18 18 17 17 17 17 17 15 14 14 14 13 12 13 15 17 18
28 26 26 26 25 24 22 21 21 20 19 20 20 20 20 20 20 21 22 22 23 22 22 23 24 25 26 26 25 25 25 24 22 19 18 19 17 16 17 19 20 21 22 21 21 20 19 19 18 17 17 16 16 16 15 14 14 14 14 15 18 19 21
32 30 28 28 27 25 23 22 21 20 20 21 22 22 22 21 20 21 22 23 24 25 25 25 27 28 28 28 28 28 27 26 24 20 19 20 20 18 18 19 20 22 22 21 21 21 20 19 17 16 16 16 16 16 15 14 14 15 17 19 20 22 23
34 32 30 28 27 26 25 24 23 21 21 21 21 22 22 22 20 20 21 22 24 25 26 27 28 29 29 30 30 30 29 27 25 22 20 22 22 21 20 19 20 20 20 21 22 21 20 19 17 17 17 17 17 17 16 16 16 18 20 21 22 23 23
35 35 32 30 29 28 27 26 25 23 23 22 22 22 23 22 21 20 20 21 22 23 24 25 26 27 28 29 30 30 30 29 26 23 22 23 23 22 22 21 21 20 20 21 21 21 20 19 18 18 18 18 18 18 17 18 18 20 21 22 23 23 24
36 36 36 34 32 31 29 28 26 26 25 23 23 23 23 23 22 22 22 21 21 21 22 22 23 24 24 25 26 28 29 29 26 25 24 24 24 24 23 23 23 21 20 20 20 20 19 19 19 19 18 18 18 18 18 19 19 20 21 23 24 25 26
40 40 40 38 36 34 32 30 29 28 27 25 25 25 25 25 24 23 23 22 21 21 21 21 21 21 22 23 24 25 27 27 26 26 25 26 27 26 25 25 24 23 22 21 19 19 19 19 19 18 17 17 17 18 19 19 20 22 24 25 25 26 27
43 44 43 41 39 37 35 34 32 31 28 27 27 27 26 26 26 25 24 23 22 22 22 22 22 22 22 23 24 25 26 26 27 27 28 29 29 29 28 27 26 26 25 24 22 20 19 19 19 19 18 19 19 20 21 23 24 26 28 28 28 29 30
44 45 45 44 41 40 39 38 35 32 30 29 29 29 28 28 27 26 26 25 24 24 24 25 25 25 24 24 25 26 26 27 28 29 29 31 31 31 31 30 29 29 28 27 25 24 22 22 22 21 22 22 22 23 25 27 29 31 32 32 31 32 33
43 45 46 45 43 42 42 41 38 35 34 33 32 32 31 30 29 28 28 28 27 26 27 28 29 28 27 26 26 26 27 28 29 30 30 31 31 32 32 31 31 31 31 30 29 27 27 27 26 26 26 26 27 28 30 32 34 35 35 34 34 34 36
44 46 46 45 44 44 44 43 41 39 38 37 36 35 34 33 32 31 31 31 30 29 30 31 31 30 29 29 28 28 28 29 30 30 30 30 31 31 31 31 32 32 32 32 31 30 31 31 31 31 32 32 32 33 34 35 36 37 37 37 37 38 39
44 45 45 44 44 44 45 45 44 42 41 40 39 38 38 36 34 33 33 33 33 32 31 32 32 32 31 31 31 30 30 30 30 31 31 31 31 31 31 31 32 33 33 33 33 33 33 33 34 35 35 36 36 36 36 37 38 39 40 40 41 41 41
45 46 45 44 43 44 45 45 45 44 43 42 41 41 40 39 38 36 36 35 35 34 33 33 33 33 33 33 33 32 32 31 31 32 31 31 31 31 31 31 32 32 33 33 34 34 34 35 36 36 37 37 37 38 38 39 40 41 42 43 44 45 45
46 47 46 45 44 44 45 45 45 45 44 44 44 43 42 41 41 39 38 38 37 36 36 35 35 35 35 35 34 34 34 34 34 34 33 33 33 32 32 33 33 34 34 34 34 35 36 37 37 38 38 39 40 41 41 42 43 44 45 46 47 48 49
48 48 48 46 44 44 45 45 45 45 45 46 46 45 44 43 42 42 41 41 40 39 39 38 37 37 37 37 37 36 36 36 37 36 36 36 35 35 35 35 35 36 36 36 36 37 38 39 39 40 41 42 43 43 44 45 46 47 48 49 50 51 52

ECMWFFLT1_500_spd_042.txt.gz
Wind_Speed
15 15 14 11 11 16 19 16 12 10 8 10 13 16 17 17 18 19 19 18 18 18 16 16 18 18 19 18 18 16 15 14 14 15 15 15 14 14 14 13 12 11 10 9 8 8 7 6 6 4 3 2 1 1 1 1 3 4 5 5 5 6 6
16 16 14 13 13 16 18 17 14 12 9 9 13 16 17 18 19 19 20 20 20 20 19 19 19 19 19 19 19 17 16 16 16 16 16 15 15 14 14 14 13 12 11 9 8 8 7 6 6 5 3 3 3 3 3 3 3 4 5 5 5 5 5
15 17 17 16 15 16 17 18 17 12 9 10 13 15 15 16 18 19 21 21 21 22 21 21 21 21 21 20 19 19 18 18 18 17 17 17 16 16 15 14 13 12 11 9 9 8 7 6 5 5 5 5 6 6 7 7 7 7 7 7 7 6 5
17 19 19 17 17 17 18 19 17 13 12 12 14 16 15 16 18 20 21 22 22 22 21 20 21 22 22 21 20 19 19 19 19 19 18 18 17 16 15 14 14 12 11 10 10 9 8 7 6 6 6 7 8 8 9 10 10 10 9 9 9 8 8
20 19 19 20 19 18 17 16 15 14 15 15 16 18 17 16 17 19 20 20 20 21 21 22 22 22 22 22 21 20 20 20 20 20 19 19 17 16 15 15 14 13 12 11 10 10 9 8 7 7 7 8 8 9 9 10 10 11 11 11 11 10 10
21 19 21 23 21 16 13 13 14 15 17 18 17 18 16 14 15 17 18 19 19 20 20 20 20 21 21 21 21 22 22 21 20 20 20 19 18 17 17 16 15 14 13 11 10 9 8 7 7 7 8 8 9 10 10 10 10 11 11 12 12 11 11
21 20 23 25 20 14 12 13 15 17 19 21 19 17 15 13 14 16 18 18 18 19 19 18 18 18 19 19 21 22 22 21 21 20 20 19 19 19 18 17 15 14 13 11 10 8 8 8 8 9 9 10 11 11 12 12 11 12 12 12 12 11 11
21 20 23 24 19 14 13 15 18 20 23 24 21 17 15 14 14 15 16 17 18 18 18 17 17 17 18 19 20 22 22 22 22 21 20 19 19 19 18 17 16 14 13 12 11 9 9 9 9 9 10 10 11 11 12 13 12 12 12 12 11 11 11
21 19 23 23 19 15 15 17 20 23 25 24 20 16 15 15 15 14 15 17 17 18 18 18 18 18 20 20 21 21 22 22 22 21 20 19 19 18 17 17 16 15 14 13 11 10 10 9 9 9 9 10 10 11 12 12 13 12 12 12 11 11 10
22 20 22 22 19 16 15 18 23 25 24 22 19 16 16 17 17 17 16 17 18 19 20 20 20 20 21 22 23 23 22 22 21 21 20 20 19 18 17 17 16 14 14 12 11 11 10 9 9 8 9 9 10 10 10 11 11 11 11 10 10 10 10
22 21 23 24 21 18 18 19 22 22 21 20 18 16 16 18 19 19 17 17 18 20 21 21 21 21 22 22 23 22 21 21 20 21 21 21 20 19 18 16 15 14 13 12 12 11 10 9 8 9 9 9 9 9 8 8 9 9 9 9 9 9 10
21 21 24 26 24 22 21 20 21 20 18 19 18 17 17 18 19 19 19 19 19 19 20 21 21 22 22 22 22 21 20 20 20 21 21 21 20 19 17 15 14 13 12 12 12 11 10 9 9 9 8 7 7 7 7 8 8 8 7 7 7 8 8
19 20 25 27 26 24 22 21 23 22 19 18 18 18 18 18 19 19 19 19 20 20 20 21 21 21 21 21 21 21 21 21 21 22 22 22 21 19 17 15 14 13 12 12 12 11 10 10 9 8 7 7 6 7 7 8 8 8 7 6 5 4 4
19 20 26 28 27 24 21 20 24 25 22 19 19 19 19 19 19 18 17 19 21 21 21 21 21 21 21 21 21 21 21 22 22 23 23 22 20 18 17 16 14 13 12 12 11 11 11 10 9 8 7 7 7 7 7 7 8 7 6 5 4 3 3
19 21 24 26 24 21 19 21 25 27 26 22 20 21 21 20 19 18 17 18 21 22 21 21 21 21 21 21 20 21 22 23 23 23 22 21 19 18 17 16 15 14 13 12 12 12 12 11 9 8 8 8 7 7 7 7 7 7 6 5 4 3 4
19 21 21 22 21 18 18 22 26 28 28 26 23 23 23 22 20 18 15 15 18 20 21 21 21 21 20 20 21 21 22 23 23 22 21 20 19 18 17 16 15 14 13 13 13 13 12 11 10 9 9 9 8 8 7 7 7 7 6 6 5 4 4
20 22 20 21 22 19 20 23 26 27 28 25 24 24 25 23 21 18 16 14 15 17 19 20 19 19 19 20 21 22 22 22 22 21 21 20 19 19 18 17 17 16 15 15 14 14 13 13 11 10 10 9 8 8 8 7 7 7 7 7 6 5 4
23 24 22 23 24 22 22 23 23 25 26 24 22 22 23 23 22 20 18 16 15 16 17 17 17 17 17 18 19 20 20 20 20 20 20 20 20 19 19 19 18 17 17 16 16 15 15 14 13 11 11 9 9 9 9 8 8 8 8 8 7 6 5
25 27 24 23 24 23 23 22 21 23 26 26 23 21 22 23 22 21 20 19 18 16 15 16 15 14 14 14 14 14 14 14 15 16 16 16 17 17 18 17 17 17 18 18 18 18 17 16 15 13 11 10 10 10 10 10 9 10 10 9 8 7 6
25 29 27 26 26 25 24 23 23 26 29 29 27 26 25 25 25 23 23 23 21 19 17 16 16 15 14 13 12 11 12 12 11 12 13 14 15 15 15 15 16 18 19 20 21 20 19 17 16 15 13 11 12 12 12 11 11 11 12 11 10 8 7
25 28 28 28 28 28 28 27 29 31 31 30 29 29 28 29 29 27 26 25 24 22 20 19 19 18 16 15 14 13 12 12 11 12 12 13 14 14 14 15 16 17 19 20 22 22 21 20 19 18 15 14 15 15 14 13 14 14 14 14 13 12 10
24 26 28 27 27 28 28 30 32 33 32 30 28 28 28 29 29 29 28 27 26 25 24 23 22 21 19 17 16 15 14 13 13 12 12 12 13 13 14 16 17 17 18 20 22 23 24 23 21 19 17 16 16 15 15 16 17 17 17 17 16 15 13
24 25 26 26 24 23 23 25 27 28 28 29 28 28 28 28 28 28 28 28 27 27 27 26 25 23 21 19 18 17 17 16 15 14 13 13 12 12 13 15 17 18 18 19 21 23 24 23 21 20 19 18 17 16 16 19 20 20 20 19 18 17 15
24 23 24 24 23 21 20 20 20 21 22 24 26 27 28 28 28 28 28 27 27 27 27 27 25 23 21 19 17 18 19 18 17 16 15 15 14 13 14 15 16 18 19 19 20 22 24 24 23 22 21 19 18 18 19 22 23 22 21 20 20 19 18
26 24 23 23 22 21 20 19 19 19 19 20 21 22 24 25 26 27 27 27 26 25 24 23 22 21 20 19 18 18 20 20 19 19 18 17 16 16 16 17 17 17 19 20 20 21 23 24 24 23 21 19 19 20 21 23 25 24 22 22 22 21 20
28 26 25 24 23 23 21 20 20 20 20 21 21 21 21 22 22 23 25 26 26 25 24 22 21 20 20 20 20 20 21 21 21 21 21 20 19 19 20 20 18 17 17 19 20 22 23 24 23 21 20 20 20 22 22 23 24 24 23 24 24 22 21
30 30 28 26 24 23 23 22 21 20 21 22 22 22 23 23 23 24 24 24 24 24 24 24 24 24 24 23 23 22 23 23 23 24 25 24 22 22 22 22 21 19 17 17 19 22 23 24 23 23 22 22 23 23 23 24 25 25 25 25 24 23 21
33 33 32 29 26 24 23 22 22 22 22 23 23 24 24 25 26 26 26 26 25 24 24 25 25 26 26 26 25 24 24 25 24 25 26 26 24 23 23 23 22 21 19 18 18 20 22 24 24 24 24 24 25 24 24 25 26 26 26 26 24 23 22
35 34 33 31 29 27 26 24 23 23 24 24 24 24 25 25 26 26 26 26 26 26 26 26 26 27 27 27 27 27 27 28 27 28 28 28 26 25 24 24 24 23 21 20 19 19 20 22 23 24 24 24 24 25 26 27 28 27 27 26 25 24 24
35 33 32 31 30 30 28 26 24 24 23 24 24 24 24 24 25 25 26 26 26 26 26 27 27 28 28 28 28 29 30 31 31 30 30 30 29 26 25 25 25 24 23 22 21 21 20 20 21 22 22 23 24 25 26 27 28 28 27 26 25 25 26
36 34 32 32 31 31 30 29 27 25 23 23 23 23 24 24 24 25 25 25 26 26 27 27 27 27 27 27 27 28 29 30 31 31 32 31 30 28 26 26 26 26 25 24 23 22 22 21 20 21 22 23 24 25 26 27 28 28 27 26 26 26 27
39 37 35 34 34 34 34 33 31 29 26 25 25 24 24 24 24 24 24 25 25 26 27 27 27 26 26 26 26 26 26 27 29 30 32 32 31 30 29 28 28 28 27 27 25 24 24 23 22 21 22 22 23 24 26 27 28 27 26 26 27 28 29
44 42 40 38 38 39 38 37 35 33 30 28 28 27 26 25 25 25 25 25 25 26 26 26 26 26 26 26 25 25 24 25 26 28 30 32 32 32 32 31 31 30 30 29 28 27 26 25 24 23 23 23 24 25 26 28 28 27 27 28 29 30 32
47 46 43 41 41 41 41 40 39 37 35 33 32 31 29 27 26 26 25 25 25 26 26 26 26 26 26 26 25 24 24 24 24 26 28 31 32 32 33 33 34 33 33 33 32 31 30 29 28 27 27 27 27 28 29 30 30 30 30 31 32 33 35
49 47 45 42 42 44 44 43 42 40 38 37 35 33 32 30 28 27 26 26 26 27 27 27 27 27 26 26 26 25 25 25 25 26 27 29 29 30 31 33 33 34 34 35 34 34 34 33 33 33 32 32 32 33 33 33 33 34 34 35 35 36 37
47 44 42 41 42 43 44 44 44 43 42 40 38 36 35 33 31 29 28 28 27 28 29 29 29 28 28 27 27 27 27 27 27 28 28 28 28 29 30 31 32 33 33 33 34 34 35 35 36 36 36 36 36 36 37 37 37 38 38 39 39 40 40
45 42 39 38 39 40 42 43 43 44 44 43 41 39 38 37 35 33 31 30 30 30 30 30 30 30 29 29 29 29 29 29 29 30 30 30 30 30 30 31 32 32 33 33 34 35 35 36 37 38 39 39 39 39 39 39 39 40 40 41 42 42 42
49 46 43 41 39 38 40 42 43 43 43 44 44 42 40 39 38 36 35 33 32 32 32 32 32 32 32 31 31 31 30 30 30 31 31 31 31 31 32 32 33 34 34 35 35 36 37 38 39 40 40 40 40 40 40 41 41 41 42 43 43 43 43

ECMWFFLT1_500_spd_045.txt.gz
Wind_Speed
21 24 27 26 24 21 18 14 13 12 11 12 14 16 17 18 19 19 19 19 19 18 19 20 22 22 22 21 21 19 17 17 17 16 17 18 18 17 16 16 15 14 14 13 11 10 9 9 9 8 7 6 5 3 2 2 2 2 3 4 5 6 7
19 22 26 26 24 22 18 16 15 14 12 13 14 16 17 18 19 19 20 20 20 20 20 21 22 22 22 23 22 20 19 18 18 17 17 18 18 18 18 18 16 15 15 14 12 11 11 10 9 8 7 6 5 4 3 2 2 2 2 2 2 3 4
22 23 24 24 23 21 17 16 15 14 13 13 14 16 17 18 19 20 20 21 21 21 21 22 23 23 24 23 23 21 20 20 19 18 18 19 19 20 20 19 17 16 14 14 13 13 12 11 10 9 7 7 6 5 5 5 5 5 5 5 5 4 4
26 27 26 25 22 19 17 16 15 15 15 14 14 16 17 19 20 21 21 22 22 21 21 22 23 24 25 24 23 23 22 22 21 20 20 20 21 22 21 20 18 17 16 16 15 14 13 12 11 10 9 8 8 7 7 7 7 7 7 7 7 6 6
25 29 28 27 24 22 20 18 17 17 16 14 15 16 18 20 21 21 21 22 22 22 23 24 24 25 25 24 24 24 23 23 23 22 22 22 22 22 21 20 19 18 18 18 17 16 14 13 12 11 10 10 9 9 8 8 8 8 8 7 7 7 7
20 25 27 27 26 25 24 21 20 19 16 15 16 16 17 19 20 21 21 22 22 23 24 25 25 25 25 25 25 25 24 24 24 23 23 23 23 22 21 21 21 20 20 19 18 16 15 13 12 12 11 11 10 9 8 8 8 8 8 7 7 7 7
19 21 24 25 25 25 25 24 22 20 16 15 18 19 19 19 19 21 22 21 22 23 23 23 23 23 24 25 25 25 25 25 24 24 23 23 22 22 22 21 21 20 20 19 18 16 14 13 12 12 11 11 10 10 9 9 9 9 9 8 7 7 7
21 20 21 22 24 26 26 25 23 20 18 17 19 21 20 18 20 21 22 21 21 22 22 22 21 21 22 24 25 25 25 26 25 25 24 23 23 23 22 21 20 20 19 18 17 16 14 14 13 12 12 11 11 10 10 10 10 10 10 9 8 8 7
22 22 20 20 24 28 28 25 23 20 18 19 20 21 19 18 20 21 22 22 22 22 22 22 22 21 22 23 23 24 26 26 26 26 25 24 24 23 22 21 21 20 19 18 17 16 15 15 14 13 12 12 11 11 10 11 11 11 11 10 9 9 8
24 23 21 20 25 30 29 25 23 22 21 21 21 21 20 19 20 21 22 22 22 22 23 23 23 23 23 23 23 25 26 27 27 27 26 26 25 24 23 22 21 20 19 19 18 17 16 15 14 13 12 12 12 11 11 11 11 11 10 10 10 9 9
26 24 22 23 28 34 32 27 25 24 23 22 21 21 20 19 20 22 23 22 22 23 24 24 24 24 24 24 25 25 26 27 27 27 27 27 26 26 25 24 22 21 21 20 18 18 17 15 14 14 13 13 12 12 11 10 10 10 9 10 10 10 10
27 25 25 26 31 37 35 29 26 26 24 22 21 20 20 20 21 22 23 23 23 23 24 24 25 25 25 25 26 26 26 26 26 25 26 26 26 26 26 25 24 23 22 21 19 19 18 16 15 15 14 13 12 11 10 10 10 10 10 10 11 11 12
26 27 29 30 34 38 35 30 28 27 24 22 21 21 21 22 23 23 24 24 23 23 23 23 24 25 25 26 27 27 27 27 26 25 25 26 26 26 26 25 24 24 22 21 20 20 18 17 17 16 15 13 12 11 11 10 10 10 10 11 11 12 12
26 30 33 34 36 37 35 31 29 26 24 23 22 22 23 24 25 25 24 24 23 22 21 22 23 24 25 27 27 28 28 28 28 27 27 27 27 27 26 25 24 23 22 21 21 20 19 19 18 16 14 13 12 11 11 11 10 10 10 10 11 11 11
26 30 36 38 38 37 35 32 28 26 25 24 23 24 25 25 25 25 25 25 24 22 21 22 23 25 25 26 26 27 28 29 28 28 28 29 28 27 26 25 24 23 22 22 21 21 21 20 18 16 14 13 13 12 11 11 10 10 10 10 11 11 12
25 28 34 37 37 36 35 32 29 28 26 24 23 24 26 25 25 25 25 25 23 22 22 22 24 25 25 26 27 28 29 29 29 29 29 29 27 27 26 25 24 24 23 22 22 21 21 20 17 15 14 14 13 12 11 11 10 10 10 11 11 12 13
23 24 29 33 34 35 35 32 30 30 29 26 24 24 25 26 25 25 25 24 23 23 23 23 24 25 25 26 28 29 29 29 28 28 28 28 28 27 26 26 25 24 23 22 22 21 21 19 17 16 15 15 14 13 12 11 11 11 12 13 13 14 14
20 22 26 32 35 36 35 31 30 30 30 28 26 25 25 26 26 26 25 23 23 23 23 24 24 25 25 26 27 28 28 28 28 28 28 28 28 28 27 27 26 25 24 23 22 22 20 19 17 17 16 15 14 14 13 12 12 13 14 15 15 15 14
17 19 26 33 36 35 32 28 28 29 29 29 29 26 25 27 26 25 23 22 22 23 24 25 25 25 25 26 26 26 27 28 28 28 29 29 29 29 28 27 26 25 24 24 23 22 20 19 19 19 18 16 15 15 15 14 14 14 15 16 16 15 15
18 20 26 32 34 33 29 26 27 27 27 29 30 28 27 28 26 24 24 23 23 23 24 25 26 26 26 26 26 26 26 27 26 27 27 28 28 28 27 27 26 25 25 25 24 22 20 20 20 20 19 17 17 18 17 17 16 16 16 17 17 16 16
18 20 25 30 33 33 30 27 27 27 27 30 32 31 30 30 29 29 28 27 25 24 25 26 26 26 27 26 26 26 25 25 25 25 25 26 26 26 25 25 25 25 25 25 24 22 22 23 22 22 21 20 20 20 19 18 18 18 18 19 19 18 16
19 20 24 30 34 34 32 29 28 28 29 32 34 33 31 31 32 31 30 28 27 26 25 27 26 26 25 24 22 22 22 22 22 22 22 22 22 21 21 21 22 23 23 23 23 23 24 24 24 24 24 23 22 21 20 20 20 19 20 20 20 19 17
22 22 26 32 36 36 34 32 31 30 30 32 34 34 32 32 32 31 30 29 28 27 27 27 27 25 24 23 21 21 21 21 20 20 19 18 18 17 18 19 20 21 22 22 22 23 24 25 26 27 27 26 24 23 22 22 22 21 22 22 22 21 19
25 25 28 34 37 38 37 36 34 34 33 32 33 33 32 32 32 31 30 29 28 27 27 27 26 26 25 24 24 23 22 21 21 20 19 18 17 16 17 17 18 20 20 21 21 22 23 25 28 29 29 28 26 25 24 24 24 24 24 24 24 23 21
28 27 29 34 37 38 39 38 37 35 35 34 34 34 33 33 34 32 31 29 29 28 26 26 26 26 26 26 25 25 24 23 22 21 20 18 17 16 16 17 17 18 19 20 21 21 23 25 27 29 30 30 28 27 26 27 27 27 26 26 26 25 24
29 29 30 33 36 37 39 39 38 37 36 35 34 34 35 36 36 35 34 33 32 31 30 29 29 28 28 27 26 25 25 24 24 23 22 21 20 19 18 18 17 17 18 19 20 22 23 25 25 27 29 31 30 29 28 28 29 28 27 28 29 28 27
31 31 31 32 34 35 36 36 36 35 34 34 35 36 36 36 37 38 39 40 39 38 37 35 34 32 30 29 28 26 26 25 25 25 25 25 24 23 22 21 19 18 18 18 20 21 22 24 25 25 27 30 31 30 29 29 29 29 29 29 30 29 29
33 33 33 33 33 34 34 33 31 30 30 31 34 35 36 35 35 36 39 40 40 40 40 40 38 35 33 31 30 29 28 28 27 27 27 27 27 26 25 24 22 21 20 20 20 20 21 22 24 25 26 28 29 29 29 29 29 29 29 30 30 30 30
36 36 36 35 34 34 33 31 29 28 28 29 30 32 33 34 34 35 35 35 35 36 37 37 37 36 34 33 32 32 31 30 30 30 30 30 30 29 28 28 27 25 23 22 22 22 21 21 22 24 26 27 28 29 29 30 30 31 31 31 32 32 32
38 39 39 38 36 34 32 30 28 28 29 30 30 31 31 32 32 34 35 35 35 35 35 35 35 36 36 35 35 35 35 34 33 33 33 32 32 32 31 31 31 29 27 25 23 22 22 22 21 22 24 26 28 29 31 32 33 33 33 33 33 34 34
38 39 38 36 35 33 31 29 27 27 29 30 31 31 32 32 33 33 34 36 37 38 38 38 37 37 37 37 37 37 36 36 35 34 34 34 34 34 34 34 34 33 31 28 25 23 23 23 23 23 23 24 26 28 31 34 35 35 34 34 34 34 34
38 38 37 35 33 31 30 30 29 28 28 29 30 31 32 33 35 35 36 37 39 40 41 41 41 41 40 39 39 38 37 37 36 35 35 36 37 37 37 37 36 36 34 32 28 26 25 25 25 24 24 25 25 26 29 32 33 33 33 33 33 33 33
39 38 37 35 33 31 31 31 30 30 29 28 29 29 30 31 33 35 37 38 40 41 42 43 44 44 44 43 42 41 40 39 39 39 39 40 40 41 40 39 38 38 36 34 31 29 27 27 27 26 26 26 26 26 27 28 29 30 31 32 32 32 33
40 39 39 37 36 33 32 31 31 31 30 29 29 28 29 29 30 33 35 37 38 40 40 41 42 43 44 45 44 44 43 43 42 42 42 42 42 42 42 41 40 39 38 37 34 32 30 29 29 28 28 28 28 28 27 26 26 27 29 30 31 32 32
43 42 42 41 39 37 35 33 32 32 32 32 32 31 30 29 30 31 32 33 34 36 37 38 39 40 41 42 42 42 42 41 40 39 38 38 38 38 40 41 41 41 40 38 37 35 34 32 32 31 31 31 31 30 29 28 27 28 29 30 31 31 32
48 46 45 44 42 40 38 36 35 34 34 34 34 33 32 31 30 30 30 29 30 31 33 34 35 36 36 37 37 37 36 36 35 33 32 32 31 32 34 37 39 39 40 39 39 38 37 36 35 35 35 35 34 33 32 31 31 31 31 31 32 33 33
51 50 48 47 45 43 41 39 37 36 36 35 35 35 34 32 31 30 29 29 28 29 30 31 32 33 33 33 33 33 33 33 32 31 29 29 28 28 28 30 33 35 36 38 38 39 39 38 38 38 39 39 38 38 37 37 36 35 35 35 36 36 37
53 52 50 49 47 45 43 42 41 39 37 36 36 36 35 34 33 32 31 30 30 29 30 30 31 32 33 33 33 33 33 32 31 31 30 29 28 28 28 28 29 31 32 34 37 38 39 39 40 41 42 42 41 40 40 39 39 39 39 39 39 39 40

ECMWFFLT1_500_spd_048.txt.gz
Wind_Speed
22 22 25 26 27 26 23 22 20 17 15 13 14 15 17 18 20 21 22 23 22 21 22 24 26 27 27 26 26 24 21 18 18 18 19 19 18 17 15 14 15 15 15 14 13 13 13 13 13 13 12 12 11 10 9 8 8 7 7 8 8 9 10
27 25 26 27 28 26 24 24 23 21 18 15 14 15 16 17 19 20 21 23 23 22 22 24 27 27 28 28 27 25 22 20 19 19 18 18 17 17 16 16 15 15 15 14 13 13 14 14 13 13 12 11 10 8 7 5 4 3 3 3 3 3 4
31 30 28 28 28 25 24 26 25 23 19 16 14 14 15 18 19 21 22 24 24 23 23 25 28 29 30 30 28 26 24 22 21 20 19 18 18 18 18 18 17 16 15 14 13 14 15 14 14 13 12 10 9 8 6 5 3 2 2 1 1 1 1
30 32 30 29 28 26 25 27 27 24 21 17 15 14 15 18 20 22 23 24 25 24 23 25 28 30 31 31 30 28 26 24 23 22 21 20 20 20 20 20 19 16 15 15 15 15 15 15 14 13 11 10 9 8 6 5 4 4 4 4 3 3 3
30 31 32 32 31 28 27 29 29 26 22 19 16 15 17 19 22 23 23 24 26 26 26 27 30 33 33 32 31 30 28 27 26 25 23 22 21 21 21 21 20 18 17 17 17 16 16 15 14 13 11 10 9 8 7 6 5 5 5 5 5 5 4
31 30 32 33 31 29 29 30 29 27 24 21 18 16 17 20 22 23 23 24 25 26 27 28 30 33 34 33 33 32 30 29 28 27 25 24 23 22 23 23 22 19 19 18 18 17 16 15 14 13 12 11 10 9 8 7 7 6 6 6 6 5 5
30 31 31 31 30 31 31 31 30 28 25 22 20 20 20 22 23 23 24 24 25 26 27 27 28 30 32 33 33 32 31 30 29 28 26 25 24 24 25 25 23 21 20 20 19 18 16 15 15 14 13 12 11 10 9 9 8 8 7 7 7 7 6
25 29 31 31 31 32 33 33 31 29 27 26 24 22 22 22 23 24 24 24 25 26 26 27 27 28 30 31 32 32 32 32 31 29 27 26 25 25 25 25 24 23 22 21 20 19 18 16 16 15 14 13 12 12 11 10 10 9 9 9 9 8 8
21 24 28 30 30 31 33 34 33 32 30 28 25 23 22 22 23 23 24 25 25 25 26 27 27 28 29 30 31 32 33 33 32 30 28 26 26 26 26 26 25 24 22 22 22 20 19 18 17 16 15 14 13 13 12 12 11 11 11 10 10 10 10
25 24 25 27 28 28 30 33 35 35 33 31 28 26 24 23 23 23 24 25 25 25 26 27 28 29 29 29 31 33 33 33 32 30 28 27 27 27 27 27 26 25 24 24 23 21 20 19 18 16 15 15 15 14 14 14 13 13 13 12 12 12 12
29 29 28 27 27 28 30 32 34 34 34 33 31 28 26 24 23 23 24 25 25 26 28 29 29 29 29 29 31 32 32 32 31 30 29 28 28 28 29 28 27 25 25 25 24 22 21 20 19 17 16 16 16 16 15 15 14 14 14 14 14 14 13
32 33 32 31 29 28 30 31 32 31 30 31 31 29 27 25 23 23 24 25 26 28 30 31 30 30 29 29 29 30 30 30 30 29 29 29 30 31 31 30 28 27 26 26 25 24 23 21 20 18 18 18 18 17 16 15 15 14 14 15 15 15 15
36 36 35 34 32 31 31 32 33 31 29 30 31 30 28 26 24 24 24 25 27 29 31 32 32 31 30 29 28 29 29 28 29 29 30 31 32 32 32 31 29 28 28 27 26 25 24 23 22 20 20 20 18 17 16 15 15 15 15 15 15 16 16
38 39 38 38 36 34 33 35 35 34 32 32 32 30 29 28 26 25 25 26 28 30 31 32 32 31 31 30 29 28 28 28 29 30 31 32 33 34 33 31 30 29 29 28 27 27 25 24 23 22 22 21 18 17 16 15 15 15 15 15 16 16 16
34 36 39 40 39 36 36 37 37 35 33 33 33 31 30 29 29 28 28 28 29 30 31 31 30 30 30 30 29 29 29 30 31 31 31 33 34 33 32 31 31 30 30 29 28 28 27 26 24 23 22 20 18 17 16 16 16 16 15 15 16 16 16
30 33 37 40 39 37 37 38 38 35 34 34 34 32 31 31 31 29 29 29 29 29 30 30 30 29 29 29 30 30 31 32 32 32 32 33 33 32 32 32 32 31 31 30 30 29 28 26 24 24 22 20 18 17 17 16 17 16 15 15 16 16 16
27 29 33 37 38 38 38 38 37 35 36 35 33 31 32 32 31 30 29 29 28 29 30 30 29 28 28 29 31 32 33 34 34 33 33 33 33 32 32 32 32 32 32 31 30 29 27 26 24 24 22 20 18 18 17 17 17 16 15 16 16 16 16
26 26 29 34 36 37 38 38 37 37 39 36 31 31 33 33 31 30 30 29 28 29 29 29 29 28 29 30 31 32 33 34 34 34 34 34 33 33 33 33 32 32 32 31 30 29 27 25 24 24 22 20 19 18 18 18 18 16 16 16 16 16 17
25 25 28 32 35 37 38 37 35 37 38 34 30 32 34 33 31 29 29 29 29 29 29 29 28 28 29 30 31 31 32 34 34 35 34 34 34 33 32 32 31 30 30 30 29 28 26 25 24 23 22 20 19 19 19 19 19 17 17 17 17 17 18
25 27 30 32 35 37 38 36 35 36 36 33 31 32 33 32 31 30 30 31 31 31 30 29 28 28 29 30 30 31 32 33 34 34 34 33 33 32 31 29 29 29 29 29 28 26 25 24 24 23 22 21 20 20 20 20 19 19 18 18 18 19 19
27 29 31 32 34 36 37 38 39 38 37 34 33 33 33 32 32 32 32 32 32 32 31 29 28 28 29 30 31 31 32 32 32 32 32 32 31 30 29 28 28 28 28 27 26 25 25 24 23 22 22 21 22 21 21 21 21 20 19 19 19 20 20
29 31 31 31 32 35 37 39 39 38 38 37 35 34 33 33 33 33 33 33 34 33 32 30 30 30 30 30 30 30 30 30 31 31 31 30 30 29 28 27 27 27 27 27 26 25 25 24 23 22 22 22 22 21 21 22 22 21 20 20 21 21 20
28 29 30 30 32 36 38 38 37 37 39 38 37 36 35 34 33 34 34 34 34 34 33 32 31 30 30 29 28 28 28 28 28 28 28 28 27 27 27 27 27 27 27 26 26 26 25 25 24 24 24 24 23 22 23 25 24 23 22 23 23 23 21
25 24 26 29 35 39 40 37 36 37 39 38 38 38 38 36 35 36 36 35 34 34 33 32 31 30 29 29 29 29 28 27 27 27 26 26 25 25 25 25 26 26 26 26 26 26 26 26 26 26 26 25 24 24 25 27 27 26 25 26 26 24 23
27 24 24 28 35 38 38 37 37 38 38 38 38 40 40 39 37 37 36 35 34 33 32 32 31 30 30 30 30 29 28 28 27 26 25 25 24 24 24 24 24 25 25 25 26 26 27 27 27 26 26 26 27 27 27 28 29 29 27 27 28 26 24
30 26 23 25 32 36 37 39 39 38 37 36 36 39 41 40 38 35 34 34 33 32 31 32 32 32 31 31 30 27 26 26 26 25 25 24 24 23 23 23 24 24 24 24 24 25 26 25 25 26 26 27 28 28 29 30 31 31 30 30 29 28 27
31 29 25 22 28 36 40 41 40 38 36 35 34 37 39 39 36 33 32 32 31 31 31 32 32 32 31 30 28 26 25 25 25 25 25 24 24 23 23 22 22 22 22 22 23 23 23 23 24 24 25 26 27 27 28 30 32 33 33 32 31 30 29
32 31 28 25 28 37 42 42 42 40 38 35 35 36 37 37 35 33 32 32 31 31 31 32 32 33 32 30 29 28 28 27 27 26 26 26 25 24 23 22 22 21 21 21 21 20 20 20 21 22 23 25 25 25 26 28 31 34 35 34 33 32 30
35 33 30 28 31 39 44 44 43 42 39 37 37 36 37 36 35 34 34 34 34 34 34 34 36 36 35 34 33 32 30 30 30 29 29 28 27 26 26 25 24 23 22 22 21 19 19 19 19 20 21 22 23 23 24 26 29 33 35 36 36 34 31
38 35 32 31 35 42 45 45 45 44 41 39 39 37 36 35 34 36 37 38 38 39 39 39 39 40 39 38 36 34 32 32 31 30 30 30 30 29 29 28 27 26 26 25 24 22 21 20 20 21 21 22 22 23 24 26 28 30 32 35 36 35 32
39 37 34 33 37 44 47 46 46 45 43 41 40 37 34 33 34 36 38 39 39 40 42 43 42 41 42 41 39 37 36 34 33 32 31 31 31 30 31 31 31 30 29 29 28 26 25 24 24 23 23 23 23 23 24 26 27 28 29 31 33 33 32
41 38 36 36 39 44 48 48 48 47 45 42 39 35 33 34 35 36 36 36 36 37 41 46 47 46 46 45 43 41 39 38 36 35 34 34 33 33 33 33 33 32 32 32 31 31 30 30 29 26 25 25 26 26 26 26 26 27 28 29 31 31 32
43 40 39 39 41 45 48 48 47 46 44 40 36 33 32 32 33 33 33 34 33 32 35 43 49 50 51 50 49 46 43 41 39 39 38 38 38 37 36 35 35 35 35 35 35 34 34 34 33 31 29 28 28 29 28 27 25 25 27 28 29 31 33
45 43 42 41 43 46 47 46 43 41 39 37 34 32 31 31 31 33 34 33 33 33 33 36 41 44 46 47 48 47 46 44 43 42 41 41 41 40 39 38 38 38 38 38 38 38 37 37 37 35 34 32 30 30 29 28 27 26 26 26 26 28 30
46 45 45 44 44 46 46 45 43 41 38 36 34 32 32 32 33 35 36 35 36 37 37 37 38 39 39 40 41 42 44 45 45 45 44 43 43 43 42 42 41 41 41 41 41 41 41 40 39 38 37 35 33 31 31 30 29 28 27 27 26 26 28
49 47 47 46 46 46 46 45 44 42 39 37 35 33 33 34 35 37 38 37 38 39 39 39 40 41 41 41 41 41 42 43 44 45 45 45 45 45 45 45 45 45 45 45 45 45 45 44 42 41 40 38 36 34 33 33 32 31 30 29 29 29 29
51 49 48 48 47 47 46 45 44 42 40 38 37 35 34 35 37 37 37 37 38 38 39 40 40 41 42 44 44 45 45 45 46 46 46 47 47 48 48 48 48 49 49 48 48 48 48 47 46 45 44 42 40 38 36 35 35 34 33 32 32 32 32
51 50 49 50 49 49 48 47 45 43 41 39 37 36 36 36 36 36 36 36 36 36 37 39 41 42 43 44 45 46 47 48 48 49 49 50 50 50 51 51 51 50 49 48 47 47 47 48 47 47 46 45 43 41 39 37 37 36 36 35 35 35 34

ECMWFFLT1_500_spd_051.txt.gz
Wind_Speed
36 35 33 31 29 27 25 21 20 19 18 17 17 18 19 21 24 25 26 26 26 25 26 27 29 30 30 29 29 27 24 21 20 21 21 19 18 16 14 14 14 14 14 13 12 12 13 12 12 13 14 15 15 15 15 15 14 14 14 14 14 14 14
37 35 34 32 30 28 27 24 23 22 20 19 19 19 19 20 23 24 25 26 27 26 27 28 29 30 30 31 31 29 25 22 22 22 21 20 18 17 15 15 14 14 14 12 11 11 13 13 14 14 15 15 15 14 13 12 11 11 11 11 11 12 12
37 36 35 33 30 30 29 27 25 23 21 21 20 19 19 20 22 24 26 27 28 27 27 29 30 31 32 33 32 30 27 24 24 24 23 21 20 19 17 16 15 14 14 12 11 12 14 15 15 15 15 14 13 12 11 9 8 7 7 7 7 7 8
38 36 36 34 32 32 32 30 27 25 24 22 21 19 20 21 23 25 26 28 28 28 27 28 30 32 33 33 33 31 28 27 26 26 24 23 22 21 19 18 17 15 14 13 13 14 15 16 16 16 15 13 12 10 9 7 6 5 5 5 4 5 5
38 37 36 35 34 34 34 32 30 28 26 25 23 22 22 23 24 26 27 28 29 29 29 30 32 34 35 34 34 33 31 29 29 28 26 25 23 21 20 19 19 17 17 16 16 16 17 17 18 17 16 14 12 10 8 7 5 5 5 4 4 4 4
37 37 36 35 34 34 34 32 30 29 28 27 25 23 23 24 25 26 27 28 29 30 30 31 33 35 36 36 35 34 33 32 31 30 28 26 24 23 22 22 21 20 18 17 18 18 18 19 19 18 16 14 12 11 9 7 6 6 6 5 5 5 5
37 37 35 34 34 34 33 32 31 30 29 29 28 27 26 25 24 25 27 28 29 30 30 30 31 34 35 36 36 36 34 33 32 31 29 28 26 25 25 24 23 22 20 19 20 20 19 19 19 18 16 14 12 11 9 8 7 7 7 7 7 6 7
36 36 35 34 34 35 33 31 31 31 31 32 32 30 28 26 26 26 27 27 28 30 30 29 30 31 34 36 36 36 36 35 34 33 31 29 28 27 26 26 25 24 22 21 21 21 21 20 19 18 16 14 13 12 10 9 9 9 9 9 8 8 8
36 36 35 34 34 36 33 30 32 33 33 34 33 31 29 28 27 26 26 27 28 28 29 29 29 30 33 35 36 36 37 36 35 34 33 31 29 28 28 28 27 26 23 23 23 23 22 21 20 18 17 15 14 13 12 11 11 10 11 11 10 10 11
37 37 36 35 35 35 33 32 34 35 35 36 35 33 32 30 28 27 27 28 28 28 29 30 31 31 31 34 36 37 37 37 37 36 34 32 30 29 30 30 29 27 26 25 25 24 24 23 21 20 18 17 16 15 15 14 13 12 12 12 11 12 12
40 39 38 36 36 36 34 34 37 38 37 38 37 35 33 31 30 29 27 27 27 28 29 31 32 32 31 32 35 36 37 37 37 36 34 32 31 31 31 31 30 29 28 27 27 26 26 24 23 21 20 19 18 17 17 15 14 13 13 13 12 12 13
42 40 39 38 37 36 35 35 37 38 38 39 38 36 34 33 31 30 28 28 27 28 29 31 32 33 32 32 33 35 36 36 36 35 34 33 32 32 33 32 32 31 30 29 29 28 27 26 25 23 23 21 20 19 18 16 15 14 14 13 13 13 14
43 42 40 40 39 38 37 37 39 39 39 39 39 37 36 34 32 31 30 29 28 29 30 31 33 33 33 33 33 33 34 35 35 35 35 35 34 34 34 33 33 32 31 31 31 30 29 27 26 26 25 23 21 20 19 17 15 15 14 14 14 15 16
45 44 42 42 43 42 41 40 41 40 39 39 39 39 38 37 34 32 32 31 30 30 30 31 32 33 34 34 33 32 32 33 35 36 37 36 36 35 35 34 34 34 33 32 32 31 30 29 28 27 26 23 21 20 19 17 15 15 15 15 16 16 17
47 47 45 44 44 44 44 43 42 40 38 37 38 39 40 38 35 33 33 33 33 32 32 32 32 33 34 34 34 33 32 33 35 36 37 37 36 36 35 35 34 34 34 33 32 32 32 31 30 28 26 23 22 21 19 17 15 15 16 16 17 17 17
49 49 48 47 46 45 45 44 42 40 37 36 37 39 40 37 34 32 32 33 34 34 34 33 33 33 34 34 34 34 34 34 35 36 36 36 36 35 35 35 35 35 34 33 33 33 33 32 30 28 26 24 23 22 19 17 16 17 17 16 16 17 16
51 51 51 50 48 47 47 45 43 41 39 38 38 38 38 36 33 32 32 33 35 35 34 34 33 33 33 33 35 36 36 35 35 35 35 36 36 35 35 35 36 36 35 34 33 33 33 31 30 28 27 25 24 22 20 18 18 18 18 17 16 16 16
51 52 52 52 52 51 49 47 45 44 41 40 39 38 37 36 34 34 33 34 35 35 35 34 33 33 32 33 35 37 37 36 35 34 35 35 35 35 35 36 37 36 35 34 33 33 32 31 30 29 28 26 25 23 20 19 20 19 18 17 16 15 16
49 50 51 51 51 49 48 47 46 44 42 41 40 38 38 38 36 34 33 33 35 36 35 34 33 33 33 34 36 37 37 36 36 35 35 35 35 35 36 36 36 36 35 34 34 33 32 31 31 30 29 27 26 23 21 21 21 20 19 17 16 16 16
45 46 44 42 41 41 44 47 48 46 44 42 40 39 39 39 36 35 35 34 36 37 36 33 33 33 33 34 36 37 37 37 36 36 36 36 36 36 36 35 35 35 35 35 34 33 32 32 31 30 29 27 26 24 22 22 22 21 20 18 18 17 17
39 37 34 32 32 35 40 45 49 49 46 43 41 41 40 38 36 36 36 35 37 38 36 34 33 33 34 35 35 36 37 37 36 36 37 37 37 36 36 35 35 36 35 35 34 33 32 32 32 30 29 27 26 24 23 23 23 22 21 20 19 19 18
33 31 29 28 29 31 34 39 46 49 47 43 42 42 41 38 36 36 35 36 39 39 36 34 34 34 34 34 35 36 36 36 36 36 36 37 36 36 35 35 35 35 34 33 32 32 32 32 31 29 28 26 25 24 23 24 24 23 22 21 20 20 20
29 29 28 28 30 31 32 36 44 49 47 43 42 42 40 38 37 35 35 38 41 40 37 35 34 34 34 34 34 34 34 34 34 35 35 35 35 34 35 35 34 34 32 31 31 31 31 30 30 29 27 26 25 24 24 25 25 24 23 23 22 21 20
30 29 28 29 31 32 33 35 42 47 46 44 42 42 39 37 36 35 37 40 41 39 36 35 35 35 34 34 33 33 32 32 32 33 33 33 33 34 34 34 33 32 31 30 30 30 30 30 30 29 28 26 26 25 25 26 26 25 25 24 23 23 22
32 30 28 29 29 31 33 35 40 45 46 44 42 41 38 36 35 36 38 40 40 38 36 35 35 35 34 33 33 32 32 31 31 31 32 32 32 33 33 33 33 32 31 30 30 30 31 31 30 28 27 26 26 26 26 27 27 27 27 26 26 25 23
33 30 27 27 28 30 32 35 40 45 46 44 42 41 39 37 36 37 39 40 39 37 35 35 36 36 35 34 33 32 31 31 31 31 31 31 32 33 33 33 33 32 30 30 30 30 30 29 28 27 27 27 27 27 27 28 29 29 29 29 28 27 26
35 30 26 25 26 28 30 34 42 46 46 44 44 43 41 39 39 39 39 38 37 35 35 35 36 36 35 34 32 31 31 31 31 31 31 31 31 31 31 31 30 29 28 28 28 28 28 27 27 27 27 28 28 28 28 29 30 31 32 31 31 30 28
36 31 27 24 25 28 30 34 41 45 45 45 45 44 42 42 41 40 39 37 35 34 34 35 35 34 34 33 31 31 30 30 30 30 30 30 30 29 29 28 27 26 26 26 26 27 27 27 27 28 28 28 28 28 29 29 30 31 31 31 32 31 29
38 33 29 25 25 29 35 37 38 40 42 43 43 43 42 42 41 40 39 36 33 33 33 33 32 32 32 31 31 30 30 30 30 29 29 29 28 28 27 27 26 25 25 26 26 26 26 26 27 27 27 27 27 27 28 28 28 29 29 30 31 30 29
40 36 32 29 27 30 37 39 38 38 39 40 41 41 40 41 42 41 39 37 34 32 32 32 31 31 31 31 31 31 31 31 30 29 29 29 29 28 28 27 26 26 26 26 26 25 25 25 25 25 25 24 24 24 25 25 25 26 27 28 29 29 28
43 39 36 32 30 30 34 38 39 39 39 40 41 39 37 37 39 39 39 37 35 32 32 32 32 31 31 32 33 33 33 32 31 31 31 31 30 30 29 29 28 27 26 25 25 24 24 24 24 23 23 22 22 22 22 22 23 23 24 25 25 26 26
46 42 39 36 33 31 31 36 40 41 41 42 42 39 35 34 34 35 36 36 36 35 34 35 35 34 34 35 36 36 35 34 34 33 33 33 32 32 31 31 30 29 28 27 26 25 25 25 25 24 23 23 22 22 22 22 23 23 24 24 24 24 24
48 45 41 39 37 34 32 35 40 43 43 43 43 40 37 34 32 32 34 36 37 37 37 38 39 39 37 37 38 38 38 37 37 37 36 35 34 34 34 33 32 31 31 30 29 29 28 29 28 28 27 27 26 26 25 24 24 24 25 26 26 25 24
50 47 44 41 39 37 35 37 42 44 45 45 44 42 39 36 33 32 33 36 37 38 39 40 41 40 39 40 40 40 41 40 40 39 38 37 36 36 36 35 33 33 33 32 33 33 33 33 33 32 31 31 30 30 29 28 27 27 27 28 29 28 27
52 49 46 44 42 40 38 39 43 46 46 47 46 44 42 40 36 33 34 36 36 37 38 38 37 37 39 42 43 43 44 44 43 42 40 38 38 37 37 36 35 35 35 36 36 36 36 36 36 35 34 34 33 32 32 32 32 32 31 31 30 31 30
55 53 49 46 45 43 41 41 44 48 48 49 48 47 45 42 39 37 36 37 37 36 36 34 33 34 37 40 43 46 47 47 46 45 43 41 40 40 39 38 37 37 38 38 38 38 38 38 37 37 37 36 35 35 35 35 35 36 36 35 33 33 33
57 55 52 49 47 46 43 42 45 49 51 50 50 49 47 44 42 40 38 39 40 37 35 34 35 35 37 37 39 44 49 51 49 48 47 46 45 44 43 41 39 38 39 40 40 40 39 39 39 39 39 38 38 38 38 39 39 39 40 39 37 36 36
59 57 55 52 50 49 46 43 44 49 52 52 51 50 47 45 43 41 39 40 41 37 33 34 37 38 38 37 36 39 46 52 54 53 51 51 50 49 49 46 43 42 41 41 42 42 41 41 41 41 41 41 42 42 42 43 43 43 43 43 42 41 39

ECMWFFLT1_500_spd_054.txt.gz
Wind_Speed
39 38 37 35 33 32 29 25 22 20 19 19 19 20 22 24 25 27 28 29 28 28 29 30 31 32 31 31 30 30 28 25 23 22 22 22 20 18 17 17 17 17 17 17 16 15 15 15 14 14 13 13 14 13 13 13 12 12 11 11 11 10 10
40 39 38 36 34 32 29 26 23 21 21 20 19 20 21 23 24 26 28 30 29 29 29 30 31 32 32 32 31 30 28 26 24 24 23 23 21 20 19 18 18 18 17 16 15 15 16 16 16 15 15 15 15 15 14 14 13 13 13 12 12 11 10
39 38 37 36 34 32 30 27 24 22 22 21 19 18 19 21 23 26 29 31 31 31 30 31 32 33 34 34 33 31 29 27 26 25 25 24 23 22 20 19 19 19 17 16 15 15 16 17 17 17 17 18 17 17 16 15 15 14 13 12 11 10 9
39 38 37 36 35 33 32 29 25 24 23 22 21 19 19 21 24 26 29 31 33 32 31 31 32 34 35 35 34 32 30 28 26 27 27 26 25 23 22 21 20 19 18 16 16 16 17 18 18 18 19 20 19 18 16 15 13 12 10 9 8 7 6
39 38 38 37 36 35 33 30 27 25 25 24 23 21 20 21 24 26 29 31 33 33 33 33 34 35 36 36 36 34 31 29 28 29 29 28 26 24 22 22 21 19 19 18 17 18 19 19 20 21 21 21 19 18 15 13 11 9 8 7 6 6 6
39 39 39 38 38 36 34 31 28 26 26 26 25 23 22 21 23 26 29 31 33 34 34 35 35 36 36 37 37 36 33 31 30 30 30 28 27 25 24 24 22 21 20 19 19 19 20 21 22 23 22 21 19 17 14 12 9 8 7 6 6 6 7
41 40 40 39 38 37 35 32 30 28 28 28 28 26 25 24 23 25 29 31 32 34 34 34 34 35 36 37 38 37 35 33 32 32 31 29 27 26 26 25 23 22 21 20 20 21 21 22 23 23 23 21 19 16 14 11 9 7 7 7 7 7 7
43 41 41 40 39 37 36 34 32 30 30 31 31 29 27 26 25 25 27 30 32 33 33 33 33 34 36 37 37 37 36 35 34 34 33 31 29 28 27 25 24 24 22 21 22 22 22 23 24 23 22 21 19 16 14 12 9 8 8 8 8 8 9
43 42 41 40 39 38 37 35 34 33 33 33 32 30 29 29 27 26 27 30 32 32 32 32 32 33 36 37 37 37 37 36 34 34 34 32 30 29 28 27 27 25 24 23 23 24 23 24 24 24 23 21 19 17 15 13 11 10 9 9 9 9 9
44 42 41 40 40 40 39 38 38 37 36 35 33 32 32 31 29 28 28 30 32 32 32 33 33 34 35 36 37 38 38 37 35 35 34 33 31 30 30 29 29 27 26 25 25 25 25 25 25 25 23 22 20 18 17 15 13 11 11 10 9 9 10
46 44 42 42 42 41 41 40 40 38 36 35 35 34 33 33 32 30 29 30 32 33 33 34 34 34 34 35 37 38 38 37 36 36 35 34 33 32 31 31 30 29 28 27 26 27 27 26 26 26 25 23 22 20 19 16 14 12 12 11 10 10 10
46 45 44 44 43 42 41 40 39 38 35 35 36 35 34 34 33 31 29 30 32 33 34 35 35 34 34 35 36 37 37 37 36 36 36 36 35 34 33 32 32 31 30 29 28 28 28 28 27 27 26 26 24 22 20 17 15 13 13 11 10 10 11
47 47 47 46 44 43 41 39 39 38 35 35 37 36 35 35 34 33 31 30 31 34 35 35 35 35 35 35 35 35 36 36 37 37 37 37 36 35 34 33 33 33 32 31 30 30 29 29 28 28 28 27 26 23 21 18 16 14 13 12 11 11 12
50 51 50 48 46 44 41 39 39 38 34 35 38 38 37 37 36 35 33 31 31 33 35 35 35 35 36 36 35 34 34 35 37 37 38 38 38 37 35 34 34 34 34 33 32 31 31 31 30 30 30 28 26 24 21 18 16 15 15 13 13 13 13
54 54 52 50 48 45 43 41 40 39 36 36 39 40 39 39 38 37 35 33 32 33 34 35 35 35 36 36 35 33 33 34 36 37 38 39 39 38 37 35 35 35 35 34 33 33 33 32 32 31 30 29 27 25 22 19 18 17 16 15 14 14 14
57 56 54 52 51 48 46 44 42 41 39 38 40 42 41 39 39 38 37 35 33 33 33 35 35 35 36 35 35 34 34 34 34 36 38 39 39 39 38 37 36 35 35 34 34 34 34 34 33 32 31 30 28 25 22 21 20 19 18 16 15 15 14
59 58 57 55 53 51 49 47 45 44 42 40 41 43 42 40 40 40 39 37 35 33 32 33 35 35 35 35 35 35 35 35 34 35 37 38 39 39 39 38 37 36 35 35 35 35 35 35 34 33 33 31 29 26 23 22 22 21 19 17 16 15 14
60 59 58 57 55 53 52 50 48 47 45 42 41 43 43 41 41 41 41 38 36 33 32 32 33 34 35 36 36 36 36 36 35 36 36 37 38 39 39 39 38 37 35 35 35 35 35 35 35 35 34 32 30 27 25 23 23 22 20 18 17 16 15
60 60 59 58 57 55 54 53 51 50 47 44 43 43 43 42 41 41 41 38 36 34 33 31 31 33 34 35 36 36 36 37 36 36 36 36 37 38 39 39 38 36 35 35 35 35 35 35 35 35 35 33 31 28 27 25 24 22 21 20 18 16 15
60 61 60 59 58 57 55 54 53 52 50 47 45 44 44 44 43 43 43 40 37 35 34 33 32 33 33 34 34 35 37 37 37 36 37 37 37 38 38 38 37 36 35 35 35 34 35 35 35 35 35 34 32 30 29 27 25 23 22 21 19 17 16
58 59 59 59 58 57 56 56 54 53 51 48 46 45 46 45 44 45 45 41 37 36 35 34 34 34 34 33 33 35 36 36 36 36 37 37 38 38 37 37 37 36 36 35 35 34 34 35 35 35 34 33 33 31 30 28 26 24 23 22 21 18 17
57 58 58 57 57 57 57 56 53 51 50 48 47 46 46 45 43 44 45 42 38 38 37 36 36 35 35 34 33 34 35 35 36 36 37 37 38 37 37 37 37 37 36 36 35 35 35 35 35 34 34 33 33 32 30 28 27 25 24 23 22 20 18
54 57 57 58 58 58 58 56 53 50 48 47 47 47 46 45 44 45 46 43 41 40 39 37 37 36 35 35 33 33 34 34 35 35 36 37 37 37 36 36 37 37 37 36 35 34 34 34 34 34 33 33 33 31 30 29 28 26 25 25 24 21 19
51 54 56 58 59 59 58 55 51 48 46 45 45 46 47 47 46 46 47 45 42 41 40 38 36 36 36 35 32 32 33 33 34 35 36 36 36 36 36 36 36 37 36 35 34 34 34 34 34 34 33 33 32 32 31 30 29 27 26 26 24 22 20
48 50 53 56 58 58 55 52 49 48 47 46 46 47 48 47 46 46 48 47 43 41 40 37 35 36 37 35 32 32 33 33 33 35 35 35 35 36 36 36 36 36 35 34 34 34 34 34 33 33 33 33 32 31 31 31 30 28 27 26 25 23 22
44 46 49 52 53 51 47 45 46 47 47 48 49 49 49 47 47 49 50 46 42 40 39 35 34 36 37 35 32 32 33 33 33 34 34 34 35 35 36 36 36 36 34 33 34 34 33 33 32 32 32 32 32 31 31 31 31 29 27 26 25 24 23
42 43 45 46 43 40 39 40 41 43 45 47 49 51 51 49 49 51 51 45 41 40 37 33 34 37 38 35 32 32 32 33 33 33 32 33 34 35 35 35 35 34 33 33 33 33 32 32 31 31 31 31 31 31 31 31 31 29 28 27 26 25 25
41 41 40 38 36 35 36 37 39 41 43 45 47 50 52 51 51 54 52 46 41 39 36 35 37 39 37 33 31 31 32 32 32 32 32 33 33 33 33 33 33 33 32 32 33 32 32 32 31 31 31 32 32 32 31 31 30 28 28 27 27 26 26
41 40 38 35 34 34 35 36 37 38 39 40 42 46 49 52 55 56 52 44 40 38 37 37 38 37 34 31 30 30 30 31 32 32 31 31 31 31 31 30 30 30 30 31 31 31 31 31 31 31 31 31 32 31 31 30 29 29 28 28 28 28 27
42 40 38 36 35 36 36 36 36 36 36 38 40 42 47 53 56 54 48 42 40 39 38 37 36 34 30 28 29 29 30 31 31 31 31 30 30 30 29 29 29 29 29 30 31 31 31 31 31 31 31 31 31 31 30 30 29 29 29 28 28 28 27
43 41 39 38 38 37 37 36 35 35 35 36 38 42 47 53 54 49 43 41 40 39 37 36 33 30 28 27 28 30 31 32 31 30 29 29 29 29 29 29 28 28 29 30 30 30 30 30 30 30 30 30 30 29 29 29 29 29 27 26 26 25 25
44 42 41 40 40 38 36 35 35 34 35 38 40 44 49 53 52 46 41 40 39 38 36 35 32 29 28 28 29 30 31 31 31 30 30 30 30 30 30 29 29 29 29 29 28 28 29 29 29 29 29 29 28 28 28 28 27 26 24 23 22 22 22
46 45 44 43 41 38 35 34 33 34 37 41 44 46 50 52 50 45 41 40 39 39 37 35 32 30 29 29 29 30 31 31 32 32 32 32 32 31 31 30 30 29 29 29 29 29 30 30 29 28 28 27 27 26 26 26 25 24 23 22 21 21 22
48 47 47 45 42 39 35 32 32 34 37 43 46 48 50 50 46 43 41 41 41 40 38 36 34 32 30 31 31 32 32 33 34 34 34 34 33 32 31 31 31 30 30 30 31 31 31 30 29 28 27 27 27 27 26 26 26 25 25 24 23 23 23
51 50 50 47 43 40 36 33 33 35 37 41 46 48 49 48 45 43 43 42 41 41 39 38 36 34 34 34 35 34 34 35 36 36 36 36 35 34 33 33 33 32 32 33 33 32 32 31 30 29 29 29 29 28 28 28 28 27 27 27 26 26 26
53 53 52 49 45 42 39 35 35 38 40 41 43 45 46 45 45 44 42 40 40 41 41 39 38 38 37 38 39 38 37 37 38 38 39 38 37 36 36 36 35 35 35 35 35 34 34 34 33 32 32 32 31 30 30 30 29 29 29 29 29 29 29
56 55 54 51 47 44 41 38 38 39 41 42 42 42 43 43 43 43 41 39 38 38 39 39 40 40 41 42 43 42 40 40 40 40 40 39 39 39 39 39 38 38 38 37 37 37 37 37 36 35 35 34 33 32 33 33 33 32 33 33 33 32 32
57 57 56 53 50 47 44 42 40 40 41 42 42 43 43 44 43 43 41 39 36 35 35 38 40 41 42 43 43 42 40 41 41 42 42 41 41 41 42 41 41 40 40 40 40 40 40 39 39 38 38 37 36 36 36 36 36 37 37 37 36 35 34

ECMWFFLT1_500_spd_057.txt.gz
Wind_Speed
32 32 35 34 31 27 24 24 22 19 16 14 15 15 15 18 20 22 25 27 27 27 29 29 29 29 29 28 28 28 26 24 22 21 21 21 21 19 18 18 18 18 17 17 16 15 14 13 13 13 12 12 12 12 11 10 10 9 9 8 8 8 7
35 34 35 32 29 26 26 28 25 20 17 14 16 16 14 15 18 20 23 26 28 28 28 29 30 30 30 30 29 29 27 25 23 22 22 21 21 20 19 19 19 19 19 18 17 16 15 15 14 14 13 13 13 13 12 11 10 9 9 8 7 7 6
39 37 34 30 27 27 30 31 26 20 18 16 16 15 13 13 15 19 22 25 28 29 29 29 30 31 31 31 30 29 28 26 24 23 22 22 22 21 20 20 20 20 20 19 17 17 16 16 15 15 15 14 14 13 12 11 10 9 9 8 7 7 6
41 40 37 31 28 30 34 33 28 22 19 18 18 16 13 13 14 17 20 24 27 29 29 29 30 32 32 32 32 30 28 27 25 24 24 24 23 22 21 20 20 20 20 19 18 18 17 17 17 16 16 15 15 14 13 12 11 11 10 9 8 7 6
42 42 41 35 30 33 37 36 31 25 21 20 20 18 16 15 14 15 18 22 25 28 30 31 32 33 33 34 33 32 30 28 27 26 25 25 24 23 21 21 21 20 20 19 18 18 18 18 18 17 17 16 16 15 14 14 13 12 10 9 7 6 5
44 44 44 38 33 33 35 34 32 27 23 22 21 20 19 17 15 15 16 19 23 27 31 32 33 34 34 35 34 33 32 29 28 27 27 26 25 24 22 22 21 21 20 20 18 18 18 19 19 18 18 18 17 17 16 15 13 11 10 8 7 6 6
43 44 44 40 35 34 34 33 32 30 26 24 24 23 21 19 17 16 16 17 20 25 29 31 32 32 34 35 36 35 33 31 29 29 29 28 27 25 24 23 22 22 21 20 19 18 19 19 19 19 19 19 19 18 17 15 13 11 10 9 8 7 7
41 43 44 41 36 35 36 35 33 32 29 26 25 24 23 21 20 19 16 16 17 21 26 30 31 31 33 35 36 36 35 34 32 31 30 29 28 27 26 24 23 22 21 20 19 19 19 19 20 20 20 21 21 20 18 16 14 12 10 10 9 9 8
39 42 43 41 37 35 36 36 33 33 32 29 27 25 24 23 21 20 18 17 17 18 22 28 30 31 32 33 35 36 37 36 34 32 31 30 29 28 27 26 25 24 22 21 21 21 21 20 21 21 22 22 22 21 19 17 15 13 12 11 10 10 9
39 42 42 39 38 37 36 36 34 35 34 32 28 26 25 25 23 23 22 20 18 18 21 26 29 31 32 32 34 36 37 37 35 33 32 30 30 29 28 28 26 25 24 24 24 24 23 22 22 22 23 23 24 23 21 18 16 14 13 12 11 10 10
38 40 41 39 38 38 37 36 36 36 35 32 30 28 27 26 25 25 24 22 20 19 21 24 27 31 32 32 34 36 37 37 37 35 33 31 31 31 30 29 28 27 26 26 26 25 25 23 23 23 24 25 25 25 23 21 18 15 13 12 11 11 11
41 40 41 39 37 38 40 40 39 37 36 34 32 31 29 28 27 27 25 24 23 22 23 24 26 29 32 33 34 34 35 36 37 35 34 33 32 32 32 31 29 29 28 28 27 26 26 25 24 25 26 27 27 27 25 23 20 17 14 13 12 12 12
44 43 43 42 41 43 45 44 40 38 37 36 34 33 31 30 29 29 27 26 25 25 24 24 26 28 31 33 34 34 34 35 35 35 35 34 34 34 33 32 31 30 30 30 28 27 27 27 26 26 27 28 29 28 27 24 21 18 16 14 13 13 13
40 39 40 40 41 44 47 44 40 38 38 37 36 36 35 33 32 31 30 29 28 27 26 25 25 27 30 33 34 33 33 34 35 35 35 35 35 35 35 33 32 31 31 31 29 29 28 28 28 28 28 29 30 29 28 25 22 19 17 15 15 14 14
39 37 38 40 42 45 47 45 42 40 40 40 39 39 38 36 35 34 33 31 30 28 27 26 26 26 29 32 33 32 32 33 34 35 35 36 36 36 35 35 34 32 32 31 30 30 30 30 30 29 29 29 30 29 28 25 22 20 18 17 16 15 14
45 44 44 46 48 50 50 48 47 44 43 42 42 41 40 38 36 35 34 33 31 29 28 27 26 26 27 30 31 32 33 33 34 34 34 35 36 36 36 36 36 34 33 31 31 32 31 31 31 30 30 30 30 29 27 25 23 21 20 19 17 16 15
49 49 48 47 48 52 53 51 50 47 45 44 43 43 42 39 37 36 36 35 33 31 30 29 26 25 26 28 31 32 33 33 33 33 33 34 35 36 36 37 36 36 34 33 33 32 32 32 32 31 31 31 30 29 27 25 24 23 22 20 18 16 15
50 51 50 48 48 51 53 52 50 49 47 45 45 45 42 38 37 38 37 36 34 33 32 30 28 25 25 27 30 31 32 32 32 32 33 33 33 34 36 37 37 36 36 35 34 33 32 32 32 32 32 32 31 30 27 26 25 24 23 21 19 16 16
51 52 52 51 50 51 52 52 51 49 48 47 46 45 41 38 37 37 37 36 35 36 35 33 30 28 26 27 28 29 30 31 32 32 32 32 32 33 34 35 36 36 36 36 35 35 33 32 32 33 33 33 32 31 29 28 26 25 24 23 20 18 16
50 52 52 52 52 52 53 53 52 50 49 48 47 44 42 39 37 36 37 38 39 38 37 35 34 31 29 26 25 26 28 29 31 31 32 32 32 32 33 33 34 35 36 36 36 35 34 33 32 32 33 33 33 33 31 30 27 26 25 24 22 19 17
50 52 52 52 53 53 54 54 53 51 50 49 47 44 43 41 38 37 38 40 40 38 37 37 36 34 31 28 25 24 25 27 29 30 31 32 32 32 32 32 32 34 35 36 36 35 34 34 33 32 32 33 33 34 33 31 29 28 27 25 23 21 19
49 52 52 52 52 53 55 55 54 53 52 50 48 46 44 43 40 38 38 39 39 38 38 38 38 35 33 29 26 24 24 25 27 29 29 30 31 31 31 31 31 32 34 35 35 35 35 34 33 32 32 32 32 33 33 33 31 29 29 28 25 22 20
47 51 53 53 54 54 56 56 55 55 53 50 48 47 46 44 42 40 39 39 39 40 39 39 38 35 33 30 27 26 25 26 26 27 28 28 29 30 31 31 31 32 33 34 34 35 35 35 34 33 32 32 32 32 32 32 31 31 31 30 26 23 21
45 50 53 55 56 56 57 57 57 55 53 51 50 49 47 46 44 43 41 40 40 40 40 40 38 35 32 31 30 28 27 28 27 27 27 27 28 29 31 32 32 32 32 33 34 34 34 35 35 34 33 33 32 31 32 32 31 31 31 30 27 24 22
45 48 53 56 58 59 59 58 57 56 54 53 51 50 49 48 48 47 44 42 40 41 42 41 38 35 32 32 32 31 30 30 28 27 26 26 27 29 30 32 32 32 32 33 34 34 35 35 35 34 33 33 32 31 31 32 31 30 30 30 27 24 23
46 47 52 56 58 61 61 60 59 57 56 55 53 52 51 50 51 50 47 44 42 42 44 42 38 35 34 34 35 34 32 31 30 27 25 25 27 29 30 31 33 33 33 33 34 34 34 34 34 33 33 33 32 31 31 31 30 29 29 28 26 25 24
47 47 50 54 58 60 61 61 60 58 57 56 55 53 52 52 53 52 48 46 44 43 44 44 41 38 37 36 37 36 33 32 30 28 26 26 28 30 30 31 32 33 33 34 34 33 32 32 32 32 33 32 32 31 30 30 30 28 27 27 26 26 26
49 48 48 50 54 57 59 60 60 58 57 57 56 54 52 52 53 51 48 46 44 42 44 46 44 41 39 38 39 37 34 33 32 29 28 28 29 30 30 30 32 33 33 33 33 32 31 31 31 31 31 31 31 30 29 30 29 27 27 27 27 27 26
49 48 48 48 50 53 55 57 57 56 56 57 56 53 51 52 52 50 46 43 41 43 47 48 46 43 41 40 39 36 34 34 33 30 28 28 29 30 29 29 31 32 32 32 32 31 30 30 30 30 30 30 29 29 29 29 28 27 26 27 27 27 26
49 48 47 47 47 49 52 54 55 55 55 56 54 51 51 52 52 50 46 41 41 46 50 49 47 45 43 40 37 35 35 35 33 30 29 29 29 29 29 29 29 30 31 31 31 30 30 30 30 30 30 29 28 28 28 28 28 27 26 26 27 26 26
49 48 47 47 47 47 49 51 53 54 53 53 52 51 50 51 50 48 47 45 45 48 50 50 48 47 44 40 37 35 35 35 32 30 29 28 29 29 28 28 29 29 29 30 30 30 30 30 29 29 28 28 28 27 27 27 27 27 26 26 27 27 27
49 48 47 47 46 46 47 49 50 50 49 48 49 48 48 48 47 46 48 50 49 49 50 50 50 49 46 42 39 37 36 34 31 29 29 28 28 27 27 27 28 28 29 30 30 30 29 28 28 27 27 28 28 28 27 28 27 27 27 28 28 28 27
49 48 47 46 45 45 47 47 45 44 45 45 46 47 46 45 44 44 47 49 51 51 51 51 51 49 46 43 41 39 36 32 30 29 28 27 27 26 26 27 28 28 29 30 29 29 28 27 26 26 27 28 28 28 28 28 28 28 28 28 28 27 27
48 47 47 46 45 46 46 45 43 42 44 45 44 44 44 43 43 43 45 47 49 51 52 52 51 49 46 44 43 39 35 31 30 29 28 27 26 27 27 28 28 28 29 29 29 28 27 27 27 27 28 28 28 29 29 28 28 29 29 28 27 26 25
48 47 47 47 46 46 45 44 43 42 42 42 42 41 42 42 43 44 45 46 48 50 52 53 53 49 47 45 43 39 35 32 30 29 28 28 28 28 28 28 29 29 29 29 29 29 28 28 28 29 29 29 29 29 29 29 28 28 28 27 25 25 23
47 47 48 47 46 46 45 44 43 41 40 40 41 40 41 42 44 45 47 47 48 49 52 55 54 50 47 45 42 38 35 32 31 31 30 30 29 29 29 29 29 29 28 28 28 27 28 28 29 29 30 30 30 29 29 29 28 28 27 26 25 24 22
49 49 49 49 47 47 46 44 42 42 41 41 41 41 41 42 44 45 45 46 47 50 54 55 53 50 46 43 40 37 35 33 33 33 32 31 30 30 30 30 30 30 29 29 28 29 30 30 30 30 31 31 30 30 30 30 28 28 27 26 25 24 23
54 52 51 51 49 48 47 45 43 43 43 43 41 40 40 41 42 43 44 46 48 51 54 54 52 48 44 40 38 37 36 35 35 35 34 32 31 31 32 32 32 32 31 31 31 32 32 32 32 32 33 32 31 31 31 30 29 28 27 27 26 26 26

ECMWFFLT1_500_spd_060.txt.gz
Wind_Speed
26 26 25 23 23 21 19 20 22 20 18 16 13 13 12 10 13 17 19 20 21 21 22 22 23 23 23 23 23 22 21 19 18 18 19 19 19 19 18 17 17 16 15 14 13 12 11 10 9 9 8 8 7 7 6 6 6 6 6 5 5 4 3
26 24 22 22 21 20 21 22 24 22 19 17 14 13 13 10 11 15 18 20 21 22 22 22 23 23 24 24 24 24 22 20 19 18 19 20 20 19 19 19 18 18 17 16 15 14 12 12 11 10 9 9 9 8 7 6 6 6 5 5 4 3 1
30 27 22 19 18 20 23 25 25 22 20 18 14 12 13 12 11 13 16 19 21 23 23 23 23 23 25 25 26 25 23 21 20 19 19 20 20 20 20 20 20 19 18 17 16 15 14 13 12 12 11 10 10 9 8 7 6 6 5 5 3 2 3
32 30 27 23 22 24 25 26 25 23 20 18 16 14 15 16 13 13 14 17 20 22 23 23 23 24 25 26 27 26 24 22 21 20 20 20 21 21 21 20 20 20 20 19 18 17 16 15 14 13 13 12 12 10 8 7 7 6 5 5 5 6 6
36 32 31 30 30 30 27 24 23 22 22 21 18 17 17 19 16 13 13 15 17 20 23 24 25 25 26 27 28 27 26 24 22 22 21 21 21 21 20 20 20 21 20 20 19 18 17 17 16 16 15 14 13 10 8 8 7 6 7 7 7 7 6
38 34 31 29 29 31 29 25 22 22 23 23 21 18 18 19 17 14 14 13 15 18 21 24 25 24 25 27 28 28 28 26 24 23 23 22 22 21 21 20 20 20 21 20 20 19 18 18 18 18 17 15 13 11 9 9 8 9 9 8 7 6 5
34 37 34 30 27 28 27 26 24 23 24 26 24 20 17 18 18 15 14 14 13 14 17 20 23 23 24 25 27 29 29 28 26 24 24 24 23 22 21 21 20 20 20 20 20 19 19 19 19 19 18 16 14 12 11 11 11 11 10 8 7 6 5
32 36 38 37 33 29 26 26 25 25 26 27 26 21 18 18 18 17 14 13 13 12 13 17 20 23 24 25 26 28 29 29 28 26 25 25 24 23 22 21 21 20 20 19 19 19 19 19 19 19 18 16 14 13 13 13 13 12 11 9 8 7 6
29 31 35 40 39 33 27 26 27 27 26 26 25 23 20 20 20 19 17 13 12 11 10 14 17 21 24 25 25 27 29 31 30 28 27 26 25 24 23 23 22 21 20 19 19 19 19 19 18 18 17 16 15 15 15 15 14 13 12 11 9 8 7
28 30 33 38 39 34 28 27 29 29 26 25 25 25 24 22 21 21 20 16 12 11 10 11 14 18 22 24 25 26 28 30 31 30 28 26 26 25 24 24 23 21 20 20 20 20 20 19 18 17 17 16 16 17 17 17 16 15 13 12 10 9 8
26 29 32 36 38 34 29 29 30 30 29 27 26 25 25 24 22 21 20 18 14 11 10 11 12 15 19 23 25 26 26 28 30 31 30 28 26 26 26 25 24 22 21 20 20 20 20 20 19 18 17 17 17 18 19 19 18 16 15 13 11 10 10
27 28 31 35 36 35 32 30 30 32 31 29 28 26 26 26 25 22 21 20 17 13 12 12 11 13 17 20 23 25 26 27 28 29 30 29 28 27 27 26 25 24 23 22 21 21 21 20 19 19 18 18 19 20 21 21 20 18 16 15 13 11 11
27 26 28 32 32 32 32 31 31 32 32 29 29 27 27 29 28 24 23 23 20 17 15 13 12 13 15 18 20 23 25 26 27 28 29 29 30 30 29 28 27 25 24 23 22 21 21 21 20 20 20 20 21 22 22 22 21 20 18 16 14 13 12
29 30 30 30 30 30 32 33 33 32 32 31 30 30 30 31 30 28 27 27 24 20 17 15 14 13 15 16 17 20 23 26 26 27 28 29 31 31 31 30 28 27 26 25 23 22 22 22 22 21 21 21 21 22 23 23 22 22 20 18 16 15 14
34 37 37 35 35 34 34 34 35 35 34 32 32 33 34 33 33 32 31 30 27 22 19 18 16 15 15 15 15 17 21 24 26 27 27 28 30 30 31 31 30 28 27 26 25 24 23 23 23 23 23 22 22 22 23 23 23 22 22 20 18 17 15
37 38 38 36 36 35 34 34 36 38 37 36 36 37 37 37 37 36 33 30 28 24 22 20 17 16 15 15 15 16 18 22 24 26 26 27 27 28 30 31 31 30 28 27 27 26 25 24 24 24 24 24 23 22 22 23 23 23 23 22 20 18 16
41 39 38 38 37 37 37 37 38 39 40 42 43 43 43 42 39 36 34 31 28 26 25 22 19 17 16 15 16 16 16 19 21 24 25 25 26 26 27 29 31 31 30 29 28 28 26 25 25 25 25 26 25 24 22 23 24 24 24 24 22 19 17
41 40 39 40 40 40 39 39 40 40 40 42 43 44 46 46 42 38 36 32 29 28 27 25 21 19 17 16 17 17 16 17 19 21 23 24 25 25 25 27 29 31 30 29 29 29 28 27 26 25 26 26 26 26 24 24 24 24 25 25 24 22 18
39 40 40 40 42 41 40 40 40 41 41 40 39 40 41 41 41 40 37 33 31 30 29 27 24 21 20 18 17 17 17 17 17 19 21 22 23 24 24 24 25 27 29 29 30 30 30 29 28 27 27 27 26 27 26 25 25 24 25 25 25 23 20
40 41 42 43 43 43 43 42 42 43 45 43 42 42 40 38 39 39 36 35 35 34 33 31 28 24 23 21 19 18 18 17 16 17 19 20 22 22 22 22 22 24 26 27 28 30 30 30 30 29 29 28 27 27 27 27 26 25 26 26 26 24 22
42 42 44 45 45 45 45 44 44 44 46 45 43 43 43 41 40 39 38 39 39 37 35 32 29 26 24 23 21 19 19 18 16 16 17 19 20 20 20 21 21 22 23 24 25 27 29 30 31 31 30 30 29 28 27 27 27 27 27 27 26 25 23
45 44 44 45 45 45 45 45 45 43 43 43 43 44 45 44 42 41 40 38 35 33 33 32 30 28 26 23 22 20 19 18 17 16 17 18 18 19 19 20 20 21 22 23 23 24 26 28 29 30 31 31 31 29 28 28 27 27 28 28 28 27 25
46 44 44 44 44 46 46 46 45 44 42 41 41 43 45 44 42 41 39 34 31 30 32 32 30 28 26 23 22 21 20 19 18 17 17 17 18 18 18 20 20 20 21 22 23 23 24 26 27 28 29 31 31 30 29 29 28 27 28 29 30 28 26
46 45 44 43 44 46 47 47 46 45 44 42 41 43 44 43 41 40 37 34 31 31 31 30 29 28 25 23 23 22 21 21 20 18 18 18 18 17 18 19 20 21 21 22 23 24 24 26 27 27 28 29 30 31 30 30 29 27 28 29 30 28 26
46 45 43 43 44 45 46 46 46 47 46 45 44 44 44 44 42 39 38 36 34 33 31 29 29 28 25 23 24 24 23 23 22 20 19 19 19 19 19 19 20 22 22 23 23 24 25 26 27 27 27 28 29 30 30 30 29 28 28 28 29 28 27
45 45 43 43 44 45 46 46 46 47 47 46 45 45 45 45 42 40 39 38 36 34 32 29 29 29 26 25 26 27 26 24 23 22 21 21 21 21 21 21 21 22 23 24 24 25 25 26 26 27 27 27 28 29 29 29 28 27 27 28 28 28 27
42 43 43 44 45 45 46 46 45 46 47 47 47 47 47 46 43 41 41 39 38 35 31 30 31 31 29 27 27 28 27 25 24 24 23 23 23 23 23 23 22 22 23 24 25 26 26 26 26 27 26 26 27 27 27 27 27 27 27 28 28 28 28
46 45 45 45 46 46 47 47 47 47 48 48 48 48 49 48 46 44 43 42 39 35 32 32 33 33 30 28 27 28 28 27 26 25 25 25 25 25 25 24 23 24 24 25 26 27 26 26 26 27 26 26 26 26 25 26 26 27 27 28 29 29 28
52 51 50 49 48 48 47 48 49 49 49 50 50 49 49 49 48 46 45 45 42 37 35 36 36 34 32 30 29 29 29 29 28 28 27 26 26 26 26 25 25 25 25 26 26 27 27 26 26 26 26 25 25 24 24 25 26 26 27 28 29 29 28
54 54 55 52 50 49 48 48 49 50 51 51 50 50 50 50 49 48 47 46 43 39 40 40 38 36 35 33 32 31 31 31 31 30 29 28 27 28 28 26 26 26 26 27 27 27 27 26 26 25 25 24 24 24 24 24 25 25 26 27 28 28 27
57 55 57 56 52 49 48 48 48 49 51 51 50 50 51 51 50 50 49 47 44 43 44 44 41 38 38 36 36 35 34 33 33 33 31 29 29 30 29 27 26 27 27 28 28 27 27 26 25 25 24 24 25 25 24 24 24 24 25 26 27 27 26
61 57 57 57 53 50 48 47 47 47 49 50 50 50 50 50 50 51 50 49 47 47 48 47 44 41 40 40 40 40 38 36 35 34 32 31 31 31 30 28 27 28 28 29 29 28 27 26 25 25 25 26 26 26 26 25 24 25 26 27 26 26 25
63 59 58 56 53 51 50 48 46 45 45 47 48 49 50 50 50 51 51 49 48 49 50 49 46 43 42 42 42 43 41 39 38 36 34 33 32 31 29 28 28 28 28 28 28 28 27 26 26 26 26 27 27 26 27 27 26 26 26 27 26 25 26
63 60 59 56 53 52 51 49 47 45 44 44 46 47 48 49 50 52 52 49 47 48 49 49 48 44 43 43 44 45 43 41 40 39 37 35 34 30 28 28 28 28 27 27 28 28 27 26 26 26 27 27 27 27 27 26 26 26 26 27 27 27 26
61 60 60 59 56 55 53 50 48 46 44 43 44 45 46 47 49 50 51 48 47 47 48 48 48 46 44 44 46 46 44 43 42 41 39 39 35 30 27 27 28 27 28 29 29 28 28 27 27 27 27 28 27 27 26 26 26 27 27 28 28 28 27
57 57 57 58 57 56 54 51 49 47 46 44 44 44 45 47 48 49 48 46 45 46 47 48 48 45 44 46 47 47 45 43 43 42 41 40 37 31 28 28 29 29 29 29 29 29 27 27 27 27 27 28 27 26 26 26 27 28 29 29 29 28 28
55 52 53 55 57 55 54 52 50 48 48 46 45 45 45 46 47 47 46 45 44 45 45 46 45 44 45 47 48 47 46 44 43 42 42 41 36 31 29 30 30 31 30 30 29 29 28 27 27 27 27 27 27 27 27 28 29 30 29 28 28 28 27
58 51 49 52 55 54 53 51 50 49 49 48 46 46 46 46 46 45 45 44 43 43 42 41 41 42 44 47 48 47 47 46 45 44 43 41 36 32 31 33 33 32 31 29 28 28 28 27 27 28 28 27 27 28 28 29 29 29 28 27 27 27 27

ECMWFFLT1_500_spd_063.txt.gz
Wind_Speed
16 19 18 17 16 15 15 15 16 14 13 11 9 8 6 4 4 7 13 18 20 21 22 22 21 21 21 21 20 19 17 16 16 16 16 17 17 16 16 15 15 14 13 12 11 10 9 8 7 6 5 4 3 2 1 1 1 1 2 2 3 4 5
13 16 18 16 15 14 14 15 16 15 14 12 10 8 7 4 4 6 11 16 20 21 22 22 22 22 22 22 21 20 18 17 16 16 16 17 17 17 17 16 16 15 15 13 12 11 10 9 8 8 6 5 4 3 2 2 1 1 1 2 4 5 7
18 17 17 16 14 13 13 15 16 16 14 12 10 9 8 7 7 7 10 14 19 22 22 23 23 23 23 23 22 21 19 18 17 17 16 17 17 18 18 17 17 17 16 14 14 13 12 11 10 9 8 7 6 4 3 2 2 1 1 3 6 8 10
25 20 17 17 16 13 13 14 15 16 15 13 11 10 10 10 10 9 10 12 16 21 23 23 24 24 24 24 23 22 21 19 18 17 17 17 18 18 18 18 18 17 16 16 16 15 14 13 11 10 10 9 7 5 3 3 2 0 2 5 9 11 12
30 26 23 22 21 17 16 15 14 13 14 14 12 12 12 12 10 9 8 10 13 18 23 25 26 27 27 26 24 24 23 21 19 18 18 18 18 17 17 17 17 17 17 17 17 16 15 14 13 12 11 10 9 6 4 3 3 2 4 8 11 12 11
32 32 28 25 22 19 18 19 17 15 14 14 14 14 14 12 10 9 8 8 11 15 20 23 26 27 28 28 27 25 24 23 21 19 19 19 18 18 17 17 18 17 17 17 17 17 16 16 15 14 13 12 10 7 5 5 4 5 7 10 10 10 10
32 31 27 26 25 23 23 22 21 19 16 16 16 16 15 12 11 11 10 9 9 11 15 19 22 24 25 27 27 26 25 24 23 21 20 19 19 18 18 18 18 17 17 17 17 17 17 17 16 15 15 13 11 8 7 6 6 7 9 10 9 8 8
30 28 26 28 27 25 25 24 22 21 19 17 16 17 16 14 14 14 12 12 11 11 12 15 18 22 23 25 26 26 26 25 25 23 21 20 20 19 19 18 18 18 17 17 17 17 17 18 17 16 16 15 12 10 9 8 8 9 10 10 8 7 6
29 29 28 29 26 24 26 24 20 20 20 19 17 18 19 18 17 16 15 15 13 11 12 14 17 20 23 25 26 27 27 27 26 25 23 21 20 19 19 18 18 18 17 17 17 17 18 18 17 17 16 15 13 11 10 10 10 10 11 10 8 6 5
31 31 29 29 27 26 27 25 21 19 18 18 19 20 21 21 19 18 18 17 14 12 12 13 16 19 22 25 25 27 28 27 26 26 24 22 21 20 20 19 19 18 17 17 17 17 17 18 17 16 16 15 14 13 12 12 11 11 11 10 8 6 5
32 31 29 29 29 29 28 28 26 23 20 20 20 21 23 23 21 20 19 18 16 14 13 12 14 17 21 25 26 26 27 27 26 25 24 23 22 21 21 20 19 19 18 17 17 17 17 17 17 17 16 15 14 14 14 13 13 13 12 11 9 7 6
33 31 29 27 26 27 29 28 26 25 25 24 23 24 24 23 23 23 22 21 19 17 15 14 14 16 19 23 25 26 26 26 25 23 23 23 23 23 23 22 21 20 19 18 17 17 16 16 17 17 16 16 15 15 15 14 14 14 13 12 11 9 8
36 35 33 29 25 24 25 26 25 26 28 28 27 27 26 25 25 26 25 23 22 20 18 16 16 15 16 19 23 25 26 26 25 23 23 23 24 24 24 23 22 22 20 19 19 18 17 16 17 17 17 16 15 14 15 15 15 15 14 13 12 10 9
36 38 38 36 31 29 28 27 27 28 29 30 31 30 28 27 28 29 28 27 25 23 20 19 18 16 16 16 18 22 25 26 25 24 23 23 24 25 25 25 24 23 22 21 20 18 18 18 18 18 17 16 15 14 14 14 15 15 15 14 13 12 11
36 38 39 37 35 35 36 34 33 33 33 34 35 33 32 31 31 31 31 31 29 26 24 22 20 19 17 16 16 19 22 24 25 25 24 23 23 23 24 25 24 24 24 23 21 20 20 20 19 19 18 17 16 14 13 13 14 15 16 16 16 15 13
35 38 38 37 36 38 40 39 38 39 39 39 38 38 38 37 37 37 36 36 34 31 28 25 23 21 19 18 18 19 20 21 23 24 23 23 22 22 22 24 24 25 25 24 23 22 21 21 20 20 19 19 17 15 14 13 14 15 17 17 18 17 15
36 36 37 38 38 39 39 37 38 40 42 42 40 40 41 40 40 40 39 39 39 37 35 31 26 23 21 20 20 20 18 19 20 21 22 22 22 21 21 22 23 24 25 25 25 24 23 22 21 21 21 21 19 17 15 14 14 15 17 18 18 19 18
37 36 36 37 37 39 39 36 36 39 41 41 40 40 41 41 39 38 36 35 35 36 37 36 33 29 25 22 22 20 19 18 18 19 21 22 22 21 21 21 21 22 23 24 25 25 24 23 22 22 22 22 21 20 18 16 16 16 17 17 18 19 19
39 36 36 37 36 37 39 37 36 38 39 39 40 41 41 42 40 38 36 36 36 37 37 36 35 34 31 26 22 20 19 18 17 17 18 20 21 21 20 19 19 19 21 22 24 26 26 25 24 23 23 23 22 22 21 20 19 18 18 18 18 18 19
43 40 38 39 37 36 39 39 37 39 39 38 39 41 41 41 39 38 38 38 39 39 38 36 34 32 31 27 23 20 18 17 16 15 16 18 20 20 19 18 18 18 19 20 22 24 25 25 25 24 24 24 24 23 23 22 21 21 21 20 19 19 19
46 44 42 42 40 38 40 42 40 39 39 38 38 39 39 38 37 38 38 39 39 37 37 37 35 30 27 22 18 17 18 16 15 15 15 16 17 18 19 18 18 18 18 19 19 20 22 24 25 25 25 25 26 25 24 24 23 23 23 22 21 20 20
48 48 47 47 45 42 42 43 43 41 40 39 39 38 37 36 37 39 39 38 36 34 33 34 32 30 28 21 15 14 16 16 15 14 14 14 16 17 18 18 18 19 19 19 19 19 21 22 23 24 25 26 27 26 25 25 25 25 24 24 24 23 21
51 51 52 52 50 47 45 45 45 43 42 40 39 38 36 36 38 40 40 38 36 34 31 28 26 28 29 24 18 16 16 16 16 15 14 15 15 15 17 18 19 20 20 20 20 20 20 21 22 23 24 25 26 27 27 27 27 26 26 26 26 25 23
55 55 56 56 54 51 49 48 47 45 44 42 40 39 38 38 38 40 40 39 39 37 32 25 24 27 29 26 20 18 18 18 18 17 16 15 15 15 16 18 19 20 20 20 20 21 21 22 22 22 23 24 24 25 27 28 28 28 28 28 27 27 25
59 59 58 58 57 54 51 49 48 47 45 44 43 42 40 40 40 40 40 38 37 37 32 27 25 27 27 25 22 21 21 21 21 20 19 17 16 16 17 17 18 19 20 20 21 21 22 22 23 23 22 22 23 24 25 26 27 28 28 28 28 27 26
58 59 59 59 58 55 52 50 49 49 48 47 46 44 42 41 41 41 40 38 37 36 33 28 26 26 26 27 26 24 23 23 23 23 21 20 19 19 19 19 19 19 20 20 21 22 23 23 23 23 23 23 23 23 23 24 25 26 27 28 28 28 26
57 57 58 58 57 56 54 52 50 50 50 50 48 45 44 43 42 40 39 38 36 34 31 28 26 26 28 29 29 26 24 24 24 24 24 23 22 22 22 21 21 20 20 20 21 22 22 23 23 24 24 23 23 23 23 23 23 24 26 27 27 27 27
59 58 58 58 58 57 56 54 52 51 50 50 49 47 45 44 42 40 38 36 33 30 30 29 28 27 29 30 29 27 25 24 24 25 27 27 26 25 24 24 23 23 22 22 22 22 22 23 23 24 24 24 24 23 23 23 23 23 24 25 26 26 26
62 61 61 60 61 61 59 56 54 52 51 50 50 48 47 45 43 42 40 36 32 31 31 33 32 30 31 31 30 29 27 25 25 27 28 29 29 28 27 27 26 25 24 24 24 24 24 23 23 24 24 24 24 24 23 23 23 22 23 25 25 26 25
62 62 62 63 63 63 61 58 56 53 50 50 50 49 48 46 44 43 42 37 33 33 35 36 35 34 33 32 32 30 29 27 26 28 29 30 31 31 30 29 28 27 27 26 26 26 25 25 24 24 24 24 24 24 24 23 23 23 24 25 26 26 26
64 65 66 67 65 63 61 59 57 54 50 49 49 48 47 47 45 44 42 39 36 36 37 38 38 37 35 34 32 31 30 28 28 29 30 31 32 32 32 31 31 29 29 29 28 28 27 26 25 24 24 24 25 25 24 24 24 24 25 26 27 27 28
66 64 65 67 65 61 60 59 56 53 50 48 48 48 47 46 46 45 43 40 38 38 39 39 39 38 36 35 33 31 30 29 29 29 31 32 33 33 33 33 32 32 32 31 30 29 28 27 26 25 24 24 24 25 26 26 26 26 27 27 27 28 28
70 63 60 63 63 59 58 57 54 51 49 47 47 48 47 46 46 45 44 41 40 40 40 40 40 40 38 37 35 32 31 30 30 30 31 32 33 34 34 34 34 33 33 33 31 29 28 27 26 25 24 24 25 26 27 28 27 27 27 28 28 27 28
76 69 62 61 61 59 57 55 53 50 48 46 46 47 46 46 46 46 44 43 42 42 42 42 42 41 40 38 36 34 33 32 31 31 31 32 33 34 35 35 34 33 33 32 30 28 28 28 27 26 25 25 26 27 28 29 28 27 27 28 28 28 29
80 75 68 63 63 62 59 57 54 51 48 47 47 47 47 45 45 46 45 44 44 44 43 43 43 42 41 40 38 37 36 34 33 33 33 33 34 35 36 35 34 33 33 31 29 28 28 28 27 27 27 28 28 29 29 29 28 27 28 29 31 31 31
80 77 72 66 64 64 61 58 55 52 51 50 50 50 49 46 46 47 46 44 44 45 44 44 44 43 42 41 40 39 38 37 37 36 36 36 36 37 37 37 36 34 33 31 28 27 28 29 29 29 29 30 30 30 30 29 29 29 30 31 32 33 33
78 78 75 71 66 64 63 61 57 53 51 52 52 52 50 48 47 46 46 44 45 46 45 45 44 44 42 42 42 41 41 41 41 41 41 41 41 40 40 39 37 36 34 31 28 27 29 30 30 31 31 31 31 31 30 30 29 30 30 31 32 33 34
75 77 77 76 73 69 66 66 63 58 52 51 53 53 51 50 48 47 45 44 44 45 46 46 45 45 44 44 44 44 45 45 47 48 50 49 47 46 45 42 39 37 36 33 30 29 31 32 31 31 32 32 32 32 31 30 30 29 29 30 32 34 35

ECMWFFLT1_500_spd_066.txt.gz
Wind_Speed
13 11 12 14 15 15 15 15 14 14 13 13 14 14 13 11 10 10 13 18 21 22 22 22 22 21 21 20 18 18 18 19 19 19 18 18 18 18 18 18 17 16 16 14 14 13 12 11 10 10 9 8 7 7 6 5 5 5 6 6 6 6 7
14 11 10 13 15 15 15 14 14 13 13 14 15 15 13 11 10 9 11 17 21 22 22 23 23 22 22 22 20 19 19 19 20 20 19 18 17 18 18 18 18 17 16 15 14 14 13 12 10 9 8 8 7 7 6 6 5 5 6 7 7 8 8
15 12 9 10 12 14 14 13 12 12 12 14 14 14 13 12 11 11 11 14 20 23 23 23 24 23 23 23 22 21 20 20 20 20 19 18 18 18 18 18 18 17 16 15 14 14 13 12 10 9 8 7 6 5 6 5 5 5 6 8 9 10 11
18 15 12 12 13 15 15 13 12 12 13 14 14 14 15 14 13 12 10 12 17 21 22 22 24 25 24 24 23 22 21 21 20 20 20 20 19 19 18 18 17 16 15 15 15 14 13 12 11 9 8 6 5 4 4 4 5 6 8 10 11 12 12
21 20 19 17 15 15 15 13 11 11 13 15 16 15 16 16 14 12 10 10 13 18 22 23 24 26 26 25 24 24 22 22 22 21 21 21 20 18 17 17 16 16 15 15 15 14 13 12 11 10 9 7 5 3 3 3 5 8 10 12 12 12 12
23 24 24 21 18 17 18 14 12 12 12 15 17 17 17 16 14 12 10 10 12 16 21 22 23 24 25 25 24 24 24 22 22 22 22 21 20 19 17 17 16 15 15 15 15 14 13 12 11 11 9 7 5 3 2 2 4 9 13 13 13 12 11
24 24 24 23 21 21 21 18 15 15 14 14 17 18 18 18 15 14 12 11 12 14 17 19 20 20 22 23 24 24 24 23 22 22 22 21 21 20 19 17 16 16 15 15 15 14 13 13 12 11 10 8 5 3 3 3 4 9 14 14 13 12 11
24 25 24 24 23 24 25 22 19 19 17 16 17 17 18 18 17 15 14 12 12 13 15 17 19 19 20 22 23 24 25 25 24 23 23 22 21 21 20 18 17 17 16 15 15 15 14 13 12 11 10 8 6 4 3 4 4 8 13 14 13 12 11
25 26 26 24 23 25 27 26 24 22 20 19 19 17 18 19 18 16 15 14 14 14 15 17 18 20 21 22 23 24 25 26 26 25 24 22 21 21 20 20 19 18 17 17 17 16 15 14 13 12 11 9 8 6 5 6 6 8 11 13 13 12 11
25 26 26 24 23 25 28 29 29 26 22 22 22 20 19 20 20 19 18 17 16 16 17 18 19 20 22 23 23 25 26 27 27 26 25 23 22 21 21 21 20 19 18 18 18 17 16 15 14 13 12 11 10 9 7 8 8 9 11 13 13 13 12
26 27 27 27 26 26 30 32 31 28 24 23 25 24 22 21 22 22 20 18 17 18 18 18 18 19 20 22 24 26 26 27 28 27 26 25 24 23 23 22 21 20 19 18 18 17 17 16 15 15 14 13 12 11 9 10 10 11 11 12 13 13 12
30 33 33 33 34 34 35 36 34 30 27 25 27 27 25 24 23 23 23 21 19 19 19 18 18 18 19 21 24 26 26 27 27 27 27 27 26 26 25 24 23 21 20 19 18 17 17 16 16 15 15 15 13 12 10 10 11 12 12 13 13 13 13
31 36 38 38 40 40 39 38 37 35 33 31 30 30 28 27 26 26 26 23 21 21 21 20 20 19 19 20 22 24 26 26 26 26 28 29 29 29 27 26 25 23 22 21 20 18 17 16 16 15 16 15 13 12 11 11 12 13 13 13 13 14 13
27 30 35 37 40 42 40 39 38 37 36 35 35 34 33 32 30 29 29 26 25 25 24 23 22 20 20 20 20 22 24 26 27 27 29 30 31 31 30 28 27 25 24 23 21 20 18 17 17 16 16 15 14 13 12 11 12 13 13 14 14 14 13
29 28 31 33 36 39 40 41 40 39 39 39 38 37 36 35 35 34 34 32 30 29 29 27 25 23 21 20 19 21 24 27 29 29 30 31 32 31 31 30 29 28 27 25 23 21 20 19 19 18 17 16 14 13 12 11 12 12 14 15 15 15 15
37 35 34 35 35 37 39 41 41 41 42 42 41 39 37 36 37 38 39 38 36 34 33 31 28 27 25 23 23 24 26 29 30 31 31 31 31 30 30 30 30 29 28 26 25 24 22 21 20 19 18 17 15 14 13 12 12 13 14 15 16 16 16
42 40 39 37 36 37 39 42 44 44 43 44 44 42 41 38 38 40 41 41 39 37 35 32 29 27 25 23 22 22 25 28 31 32 32 31 30 30 30 31 31 31 30 29 27 26 24 23 21 20 19 19 17 16 14 13 14 14 14 15 16 16 16
44 41 40 39 36 37 39 42 46 47 46 46 45 44 43 41 39 39 40 41 42 41 38 34 30 27 24 21 18 17 19 23 26 29 32 32 31 31 31 31 31 31 31 30 29 28 27 25 23 22 22 21 20 18 16 16 16 16 15 16 16 16 16
47 44 41 40 38 40 43 44 46 48 48 48 47 46 45 43 42 40 40 41 41 42 41 38 34 31 27 23 19 17 18 19 21 24 27 30 31 31 31 31 30 30 30 31 31 30 29 27 26 24 23 22 21 20 19 18 18 18 17 17 17 17 17
51 49 44 40 39 43 47 47 45 45 45 45 46 45 44 43 43 42 41 40 39 39 40 41 38 34 31 27 24 23 25 24 21 22 25 28 30 31 31 29 28 29 30 31 32 31 30 29 27 26 25 24 23 22 21 21 20 20 20 19 18 18 18
51 49 45 41 40 42 46 47 46 44 42 41 41 41 41 41 41 41 40 38 38 37 36 38 39 37 34 31 30 30 32 32 27 24 25 27 28 29 30 29 29 29 29 30 31 30 30 30 29 28 27 26 25 24 23 22 22 22 21 21 21 20 20
49 49 46 43 42 42 43 46 47 46 44 42 41 41 41 41 41 40 39 38 40 40 35 32 35 36 35 35 34 33 35 34 30 27 26 26 26 26 28 29 29 29 29 29 29 30 30 30 29 29 28 28 27 26 25 24 24 24 23 23 23 23 22
48 50 51 49 47 44 43 43 43 43 44 45 44 43 43 43 44 42 40 38 40 41 38 33 34 35 35 36 36 35 35 33 28 26 27 26 25 25 27 29 30 30 30 29 29 29 29 29 28 28 28 28 28 27 26 26 26 26 26 26 26 26 24
49 51 52 52 50 48 45 43 42 40 41 43 45 45 45 45 45 43 42 42 41 41 40 37 37 38 36 37 38 38 36 32 27 26 27 27 26 26 27 28 30 31 31 30 29 29 29 29 29 29 29 28 28 28 28 28 28 28 29 29 29 29 27
50 52 53 52 52 52 49 47 46 44 42 41 42 44 45 46 44 41 41 43 42 41 41 40 41 41 39 39 40 40 37 33 29 27 27 27 27 27 27 29 30 31 31 31 30 30 30 30 29 29 28 28 27 28 29 29 30 30 30 31 32 31 30
52 52 55 55 54 55 53 50 50 49 47 45 43 42 44 46 43 39 38 40 41 41 41 41 42 42 40 40 42 43 40 35 30 28 27 27 28 28 28 29 30 31 31 31 31 31 30 29 29 28 29 28 28 27 28 28 29 30 30 32 33 32 32
61 55 55 56 55 55 54 52 51 51 49 47 45 43 44 46 43 40 39 39 38 39 41 42 42 41 39 39 42 45 45 38 30 28 28 29 30 30 30 30 30 31 31 32 31 31 30 29 28 28 28 28 28 27 27 27 27 28 29 30 31 32 32
69 63 58 56 56 56 55 52 52 53 51 49 46 45 46 47 45 43 42 39 37 37 40 42 42 39 37 37 38 42 44 39 32 30 31 31 32 32 31 30 30 31 31 32 32 31 30 29 28 27 27 27 27 27 26 26 27 27 28 29 29 29 30
72 69 65 61 58 57 57 56 54 54 54 52 49 47 47 48 47 46 44 41 39 39 40 40 40 39 39 37 34 33 35 35 33 32 33 33 33 33 32 31 31 31 31 31 31 31 30 28 27 27 26 26 26 26 26 26 27 27 27 28 27 27 28
74 73 70 68 63 60 60 60 58 57 57 55 53 51 50 49 48 47 45 43 42 41 40 40 39 38 38 36 32 29 29 31 31 33 34 35 34 34 34 34 33 32 32 32 31 30 29 27 26 26 25 25 25 25 25 26 27 27 27 28 27 27 27
77 77 75 73 69 65 62 63 63 62 61 59 57 55 53 51 49 48 47 46 45 43 42 42 41 39 37 34 32 31 32 33 34 35 36 37 37 36 36 35 34 34 34 33 32 31 29 27 26 25 25 24 24 24 24 25 27 27 27 28 28 28 28
79 80 80 77 74 69 65 64 66 67 65 63 62 59 57 54 52 50 48 47 46 44 44 45 44 42 40 38 37 37 37 38 38 37 38 38 38 37 37 37 36 36 36 35 34 32 30 28 27 26 25 24 23 22 23 25 26 27 27 28 29 29 29
81 81 83 82 79 75 68 64 68 70 68 67 66 63 59 57 54 52 51 49 47 46 46 46 46 45 44 42 41 41 41 40 40 39 39 38 38 37 37 38 38 38 38 37 35 32 31 29 28 26 25 23 22 22 24 25 26 26 26 28 29 30 30
87 84 83 82 81 80 73 67 69 73 71 69 69 66 62 59 56 52 51 50 48 48 47 46 46 46 45 45 45 44 43 41 40 40 40 39 38 37 37 38 39 40 39 37 34 32 31 29 28 27 25 24 23 24 25 26 27 25 25 28 30 31 31
91 89 86 82 81 80 76 68 68 74 75 73 71 69 65 62 58 53 51 50 50 49 49 48 47 46 46 47 47 47 45 43 42 42 42 41 40 38 37 38 40 41 40 38 36 34 31 29 27 27 27 26 26 27 28 28 27 26 27 30 32 33 33
92 92 89 85 81 79 76 69 66 71 76 74 72 69 66 62 60 56 53 52 51 51 51 50 50 48 48 48 49 49 48 46 45 44 44 43 41 40 40 41 41 41 40 39 37 35 32 30 28 28 29 29 30 30 30 28 27 28 31 33 34 35 36
91 93 93 89 84 81 79 73 66 67 72 73 71 69 66 63 61 59 57 54 53 53 53 53 52 51 50 50 50 49 49 48 48 48 47 47 46 46 45 42 39 38 38 38 38 36 34 32 31 31 32 32 32 32 32 30 29 30 32 34 35 36 38
88 92 94 93 89 84 82 78 71 67 69 72 70 68 67 66 63 61 59 56 54 52 53 53 54 53 52 52 51 50 50 50 50 51 52 52 51 50 47 42 38 37 38 39 40 39 37 34 33 33 33 33 33 34 34 32 31 31 32 34 36 37 39

ECMWFFLT1_500_spd_069.txt.gz
Wind_Speed
16 17 18 18 15 14 16 17 15 15 15 14 13 13 14 14 14 14 16 20 23 24 24 24 23 21 19 19 18 18 19 18 18 18 17 18 18 18 18 17 16 15 14 14 13 12 11 11 10 9 8 8 7 7 6 6 6 6 7 7 8 8 9
13 14 16 17 16 14 15 17 17 15 15 15 16 16 16 15 15 14 15 19 23 25 24 25 25 23 21 20 19 19 19 19 19 18 17 17 17 18 19 18 17 16 16 15 14 13 12 11 10 9 8 8 8 7 7 6 6 6 7 8 8 8 9
14 14 14 16 17 16 15 16 17 15 15 16 16 17 16 15 15 14 15 18 22 25 25 25 26 26 25 23 20 19 19 19 19 18 17 17 17 18 19 19 18 17 16 15 14 14 13 12 11 10 10 9 9 8 7 7 7 7 8 9 9 9 10
16 14 14 16 18 19 18 17 18 17 16 16 17 18 18 17 17 16 15 17 21 24 25 26 26 28 28 26 23 20 19 19 19 18 18 18 18 18 18 18 18 17 16 16 15 15 13 13 12 11 11 11 10 9 8 7 7 8 9 10 10 10 11
18 16 16 16 17 18 18 17 18 17 16 17 18 19 20 20 19 17 15 14 18 22 26 28 29 29 29 29 27 24 22 21 20 20 19 19 18 18 17 17 17 17 17 17 16 15 14 14 13 12 12 11 11 9 8 7 8 9 11 11 12 12 12
21 19 17 15 14 15 16 17 17 17 17 18 19 20 21 21 19 17 14 13 15 20 25 28 29 29 28 28 28 27 25 23 22 22 21 20 19 18 17 17 17 16 17 17 16 16 15 14 13 13 12 11 11 10 8 7 8 10 12 13 13 13 12
23 21 20 18 15 14 16 18 18 18 18 20 21 22 22 21 20 18 15 13 14 18 22 25 27 27 27 27 28 28 27 26 24 23 22 21 20 19 19 18 17 17 16 16 16 15 15 14 14 13 12 11 11 10 9 8 9 11 13 14 14 13 12
25 24 23 23 20 18 19 20 20 20 19 20 22 23 23 22 21 19 16 14 14 17 20 23 26 27 27 27 27 27 28 28 27 25 24 23 22 21 21 19 18 18 17 15 15 15 14 14 14 12 11 11 10 10 9 9 10 13 14 15 14 14 13
30 28 28 28 27 26 25 25 25 24 22 21 22 23 23 23 21 19 18 16 15 16 18 22 25 28 29 28 28 28 29 29 29 27 26 24 23 23 23 22 22 20 18 18 17 16 15 14 13 12 11 10 10 9 9 10 12 14 16 16 16 15 13
33 32 33 34 34 34 34 32 32 31 27 24 25 25 24 24 23 21 20 19 17 17 19 22 25 28 29 29 29 29 30 30 30 29 27 25 25 25 25 24 24 22 21 21 20 18 17 16 14 12 11 10 10 10 10 11 13 16 18 18 17 16 15
35 35 36 37 38 39 39 38 37 36 33 30 30 29 27 27 26 24 23 21 19 19 20 22 25 27 29 30 30 31 30 31 31 30 28 27 26 26 26 26 25 24 23 23 21 20 19 18 16 14 13 12 12 11 12 13 14 16 19 19 19 17 16
38 38 38 39 40 41 41 40 40 39 37 34 34 33 32 31 30 28 26 25 23 22 22 23 24 27 29 30 31 31 31 31 31 30 30 29 28 28 28 27 26 25 24 24 23 22 21 19 18 17 16 16 15 13 13 14 15 17 19 20 20 19 17
41 40 40 40 41 41 42 42 41 41 40 37 36 34 33 34 34 33 32 30 28 27 25 25 25 26 28 30 31 31 31 30 29 29 30 30 30 30 29 28 27 26 25 24 24 23 22 21 20 19 19 18 17 15 14 14 15 16 18 20 21 20 19
43 42 41 41 41 42 43 43 43 43 43 41 38 35 34 35 35 36 36 34 33 32 31 29 28 28 28 29 30 30 30 30 29 30 30 31 32 32 31 29 27 27 26 26 25 24 23 22 22 22 22 20 19 17 15 15 15 16 17 19 21 22 20
45 44 43 42 42 42 43 44 44 44 45 44 41 38 36 37 37 38 38 37 36 36 35 35 33 32 31 30 30 29 30 31 31 31 31 32 33 33 32 31 29 28 28 27 26 25 25 24 24 23 23 21 20 18 17 15 15 16 17 19 21 23 22
45 46 45 43 43 43 43 45 45 45 46 46 44 40 38 39 40 40 40 40 40 40 39 38 36 35 34 33 31 29 29 29 30 31 32 31 31 32 32 32 31 30 29 28 27 27 26 26 25 24 23 22 20 19 17 16 16 17 18 19 21 23 23
46 46 47 46 45 45 44 45 46 46 47 48 46 43 41 41 42 43 43 43 43 42 40 37 34 33 32 32 32 30 27 26 26 28 30 31 31 31 32 32 32 31 30 29 29 28 28 27 26 25 24 23 22 20 18 17 17 18 18 20 21 23 24
47 48 48 48 47 47 46 46 46 47 48 48 47 45 44 44 44 45 45 44 43 43 42 38 34 33 32 30 31 30 28 27 26 27 30 32 32 32 32 32 33 32 32 31 30 30 29 28 27 26 25 25 23 21 19 19 19 19 19 20 21 22 24
49 49 50 50 49 48 47 46 45 44 45 47 47 47 47 46 46 47 47 47 46 44 42 40 38 37 35 32 30 29 29 29 29 30 31 33 34 34 34 34 34 33 33 33 33 33 31 30 28 28 27 26 25 23 21 21 21 21 21 20 21 22 23
54 51 50 51 51 49 48 46 43 42 43 45 46 47 49 48 48 48 48 48 47 44 41 41 39 37 37 35 32 30 30 29 29 30 32 33 35 36 35 34 34 34 35 35 35 35 33 32 31 30 29 27 26 25 24 24 24 23 23 22 22 23 23
61 55 52 53 53 52 50 49 46 43 43 44 44 46 49 50 50 49 48 49 47 43 41 42 39 35 36 37 35 33 32 29 28 30 33 34 35 36 36 35 34 34 35 36 37 36 35 35 33 32 31 30 29 28 27 26 26 26 25 24 24 24 24
63 59 56 56 56 55 54 53 51 48 46 45 45 47 49 51 51 50 49 49 47 42 41 41 39 37 37 37 35 34 33 31 30 32 34 34 35 35 35 35 34 34 35 36 37 37 37 36 35 34 33 32 31 30 28 28 28 28 27 26 26 26 25
59 60 59 59 59 59 58 57 55 52 49 47 46 48 49 50 50 49 50 51 49 44 41 40 39 38 39 39 38 37 36 35 34 34 35 35 34 34 34 34 35 35 36 36 37 37 37 37 36 36 36 35 34 32 30 30 31 30 30 29 29 28 26
55 58 61 63 63 62 62 60 58 55 52 51 49 48 50 51 51 49 49 50 49 45 42 40 39 39 41 41 40 39 38 37 35 34 34 34 32 32 32 33 35 36 37 37 37 37 37 37 38 38 37 37 36 34 33 33 33 33 33 32 31 30 28
58 53 54 59 65 67 65 62 61 57 54 53 53 51 51 53 53 50 46 45 45 44 43 41 40 41 42 42 41 40 40 37 33 31 31 31 31 30 31 32 34 36 38 38 38 38 38 38 39 38 38 38 37 36 35 35 35 35 35 34 34 31 29
68 58 49 48 58 67 69 65 62 59 56 54 54 55 53 53 54 52 47 44 43 44 43 41 41 42 43 42 41 41 40 38 33 31 30 31 31 30 30 31 33 36 38 38 39 39 39 39 39 39 38 38 38 38 37 36 37 37 36 36 36 33 32
73 68 57 47 46 54 64 67 63 58 57 56 54 54 55 56 55 52 48 45 44 44 44 43 43 44 45 43 42 41 40 38 35 32 32 32 33 32 31 31 32 34 37 38 39 40 40 39 39 38 38 38 38 38 37 37 37 37 37 37 37 35 35
75 72 67 57 46 43 51 61 63 59 58 58 56 53 54 57 56 53 49 46 45 45 46 46 45 46 47 46 44 42 40 39 37 35 34 35 35 34 33 32 32 34 36 37 39 39 39 39 39 38 37 37 37 37 36 36 37 37 37 37 37 37 37
80 75 71 66 58 49 46 51 59 62 59 57 56 55 54 55 56 54 51 48 47 47 47 47 47 47 47 46 46 45 42 41 39 37 37 38 38 37 36 34 33 34 35 36 37 38 39 39 38 37 37 37 37 36 36 36 35 35 35 35 36 37 37
83 80 77 71 67 63 55 49 51 59 61 58 55 54 54 55 56 55 52 49 48 48 47 47 47 48 47 46 47 47 45 42 41 39 38 40 40 39 38 37 35 34 35 35 36 37 38 38 38 37 37 36 36 35 35 34 34 33 33 34 35 35 35
85 84 82 78 73 71 67 57 50 53 58 60 58 55 54 55 55 53 50 49 48 47 47 46 47 48 50 48 47 47 46 44 42 40 40 41 42 41 39 38 37 36 35 35 35 35 36 36 36 36 35 35 34 33 33 33 33 33 33 33 35 35 34
88 87 86 84 80 77 75 69 60 53 52 57 62 61 58 55 54 53 50 47 46 45 45 44 43 45 49 50 48 46 46 45 43 43 44 45 46 44 41 39 38 38 37 37 35 34 33 33 34 34 33 32 30 30 31 32 33 33 33 33 34 34 34
89 90 89 88 85 82 80 76 71 62 53 52 59 64 63 58 53 53 52 49 46 45 44 44 43 44 47 48 46 45 45 45 45 46 47 49 51 51 46 41 40 41 40 38 36 34 33 33 33 32 31 29 28 28 29 31 32 32 32 33 33 33 34
91 91 92 92 89 86 84 80 77 72 63 56 55 60 65 63 58 55 54 53 50 47 45 45 45 46 47 47 45 44 45 47 47 45 45 48 55 58 52 45 42 43 42 40 38 36 35 35 34 33 31 29 28 28 30 31 30 30 30 31 33 34 36
94 93 93 94 93 90 87 84 81 78 74 68 61 57 59 62 62 59 57 55 53 49 46 46 47 48 48 46 45 45 47 48 48 45 42 43 49 53 52 47 44 45 44 42 40 39 38 38 36 34 33 32 31 31 31 30 29 28 30 32 35 37 39
95 95 94 94 94 93 90 87 85 83 80 77 73 64 57 56 59 60 57 55 53 50 47 46 48 50 49 48 47 47 47 48 48 47 45 44 45 46 46 45 44 45 44 43 42 41 41 41 39 37 36 35 33 33 33 31 30 31 33 35 36 39 41
94 95 95 95 95 94 92 90 88 87 84 81 79 74 64 56 54 55 56 55 54 52 50 48 49 51 52 51 50 49 49 49 49 48 47 47 47 46 45 44 44 44 44 43 43 42 43 43 41 39 38 36 34 34 34 34 34 34 35 37 38 40 41
92 93 95 96 96 96 95 93 91 89 87 84 81 77 71 64 57 54 54 56 57 57 55 52 52 53 54 53 53 52 51 52 52 50 49 49 49 48 46 45 45 45 44 43 43 43 44 44 43 42 41 38 36 35 35 36 37 37 37 38 40 42 42

ECMWFFLT1_500_spd_072.txt.gz
Wind_Speed
30 28 26 26 24 21 19 19 18 18 18 17 16 15 15 14 14 17 19 20 21 21 22 23 23 22 21 19 17 16 16 17 17 17 18 19 18 16 15 14 14 13 13 13 13 13 14 14 13 13 13 12 12 12 11 11 11 11 11 10 10 10 10
26 26 26 26 25 23 21 21 20 19 18 19 18 17 16 16 15 16 19 21 22 23 23 24 24 24 23 21 20 18 17 18 18 16 16 16 17 17 17 15 14 13 12 12 12 12 13 13 13 13 13 12 12 12 11 11 11 11 11 11 10 10 10
21 22 23 24 25 23 22 22 21 19 18 19 19 18 17 17 16 17 18 21 23 25 25 25 25 25 25 23 21 19 19 19 19 17 16 16 16 17 18 17 16 14 12 12 12 12 12 13 13 13 13 12 12 11 11 11 11 11 11 11 11 10 10
21 21 23 25 25 24 23 23 22 20 19 18 18 19 19 19 19 18 18 20 23 25 26 27 27 27 26 24 22 21 20 20 21 20 18 17 17 17 17 17 17 15 14 14 13 12 12 12 12 13 13 13 12 12 11 11 11 11 11 11 11 11 10
23 22 23 24 24 23 23 23 23 21 20 19 19 19 20 21 21 19 18 19 21 25 28 29 30 29 28 26 25 23 22 22 22 22 21 19 17 16 16 16 17 17 16 15 15 14 13 13 12 13 13 13 13 12 11 11 11 12 12 12 12 12 12
24 21 22 23 25 25 24 24 25 23 22 22 21 21 22 22 21 20 19 18 19 23 27 30 31 31 30 29 28 26 24 23 23 23 22 20 18 17 16 16 16 17 17 17 16 15 14 14 13 14 14 14 13 12 12 11 11 12 13 13 14 14 14
26 21 22 25 27 28 29 29 29 28 26 26 26 24 23 23 22 22 20 18 17 19 24 28 31 32 32 31 30 28 26 25 24 24 23 22 20 18 18 17 16 17 17 17 17 16 15 15 14 14 14 14 14 13 11 11 12 13 14 14 15 15 16
29 23 24 27 27 29 32 33 34 33 32 31 30 27 25 25 25 24 22 19 17 17 20 26 30 32 33 33 32 30 28 27 26 26 25 23 22 21 20 18 17 17 16 16 16 16 15 15 15 15 15 15 14 13 12 11 12 14 15 16 16 16 16
32 27 28 30 28 29 31 33 35 36 36 34 32 31 30 29 28 27 25 23 20 18 18 23 29 33 34 34 34 33 31 30 28 27 26 24 23 22 22 21 20 18 16 16 16 15 15 15 15 15 15 15 15 14 13 13 13 15 16 17 17 17 17
33 32 33 33 31 31 32 33 35 35 36 36 35 34 34 32 31 30 29 27 24 21 20 23 28 33 35 35 35 35 34 33 31 29 28 26 25 24 24 23 22 20 19 18 17 16 16 15 15 14 15 15 15 15 15 14 15 17 18 19 19 18 17
34 35 38 37 35 33 32 33 34 34 35 35 35 35 35 34 33 32 32 30 27 25 24 24 27 32 35 36 36 36 35 34 33 32 30 28 27 27 26 26 25 23 22 21 20 19 18 17 16 15 15 16 16 17 16 16 17 18 20 20 20 20 19
37 39 41 42 40 37 35 34 35 35 35 35 34 35 35 35 34 33 32 31 29 28 27 26 27 31 35 37 37 36 36 35 34 33 32 32 31 30 30 29 28 26 26 25 23 22 21 20 18 17 17 18 19 18 18 18 18 19 21 22 22 21 20
39 41 43 44 44 42 39 38 36 36 36 35 35 35 35 36 35 34 33 32 31 30 29 28 28 30 34 37 38 37 37 36 36 35 35 35 34 34 33 32 31 29 29 28 27 26 24 23 22 21 21 21 21 20 20 19 19 20 21 23 23 23 22
41 42 44 45 45 45 44 42 40 39 38 37 36 35 35 36 36 35 34 34 33 33 32 31 30 30 33 37 38 39 38 38 38 38 38 38 37 36 35 34 33 32 31 30 29 28 27 26 25 24 24 24 23 22 21 20 19 20 22 23 25 25 24
44 43 44 45 46 46 46 45 44 42 41 40 39 37 36 35 36 37 36 36 35 35 35 34 33 32 33 35 38 39 39 40 40 40 40 39 39 38 37 36 34 33 32 31 30 29 29 28 27 26 26 25 25 24 22 21 20 21 22 24 25 26 26
45 44 44 45 46 47 47 47 47 46 44 43 42 41 39 37 37 37 37 37 37 37 36 35 34 32 31 32 34 37 39 40 41 41 41 40 39 38 38 36 35 34 33 31 30 30 30 29 28 27 27 26 26 25 23 21 21 22 23 24 26 27 28
46 46 46 47 47 48 48 48 48 48 47 46 45 44 43 40 39 39 39 39 39 39 38 37 36 34 32 30 32 36 39 41 41 41 41 40 40 39 38 37 36 35 34 32 31 31 30 30 29 28 28 27 27 26 24 22 22 23 24 24 26 27 29
49 48 48 48 49 50 49 50 50 49 49 49 48 47 46 44 43 42 42 41 41 41 41 40 38 36 34 32 32 34 36 39 41 41 41 40 40 39 38 38 37 36 35 33 33 32 32 31 30 29 29 29 28 27 25 23 23 24 24 25 25 27 29
52 51 50 50 51 51 51 51 51 50 51 51 50 50 49 48 47 46 45 45 45 44 43 41 40 38 37 35 34 33 33 34 37 39 40 40 40 39 39 39 38 37 36 35 35 35 34 33 32 31 31 30 29 28 26 24 25 25 25 25 26 26 28
54 53 53 52 52 52 52 53 52 51 52 52 51 51 52 51 51 51 50 48 46 45 43 42 42 41 39 38 36 34 32 33 34 35 38 40 41 41 41 40 39 38 38 38 38 37 36 35 34 33 32 31 31 30 28 27 26 26 26 26 26 26 27
56 55 55 55 54 53 53 54 54 53 53 52 52 52 54 54 54 55 53 49 43 40 41 42 43 43 41 39 39 38 36 35 34 34 37 40 42 42 42 42 41 41 40 40 40 39 38 37 36 35 34 33 32 31 30 28 28 28 27 27 27 26 26
57 57 57 56 56 55 55 55 55 55 54 53 52 52 53 55 56 56 55 50 43 40 41 42 44 45 44 42 41 41 40 39 37 37 38 39 40 40 42 42 42 42 42 42 42 42 41 39 38 36 35 35 34 32 31 30 30 30 29 28 28 28 26
57 58 58 59 59 58 58 57 57 57 56 55 53 52 53 55 55 56 54 51 47 43 41 43 46 47 46 45 45 44 43 42 41 39 38 38 38 37 39 41 42 43 43 44 43 43 42 41 40 39 38 37 35 34 32 32 33 32 31 30 30 29 27
59 58 58 59 61 62 61 60 59 59 59 58 56 54 54 55 55 54 52 50 48 46 42 42 45 48 47 45 44 45 47 45 42 40 39 37 37 37 37 39 41 43 44 44 43 43 42 42 42 41 40 39 37 35 35 34 35 34 33 32 31 30 28
64 62 59 58 60 63 64 63 61 61 61 61 59 58 56 55 54 54 54 52 49 48 45 41 42 46 48 45 41 41 45 47 43 40 39 36 36 37 37 38 40 42 44 44 43 43 42 42 42 42 41 40 39 38 37 36 36 36 34 33 32 30 29
67 67 64 61 60 62 65 66 64 63 64 64 63 61 59 57 54 54 55 54 51 49 47 44 42 44 46 47 45 42 43 45 44 41 40 38 37 38 38 38 39 41 43 44 43 42 42 41 41 41 41 41 41 40 39 38 38 38 36 35 34 32 31
69 70 69 66 64 62 64 66 68 68 67 66 66 65 62 59 57 55 53 52 51 50 48 45 44 44 43 42 43 44 45 45 43 41 41 41 40 40 40 39 39 40 42 43 43 42 41 40 40 39 40 41 41 42 41 40 40 40 39 38 36 35 34
71 71 71 71 70 67 65 65 69 72 72 70 68 67 66 63 61 59 56 53 51 50 49 47 45 46 46 42 40 40 42 44 44 44 45 45 44 42 40 39 39 40 41 41 41 41 40 40 40 39 40 40 41 41 40 40 41 41 41 40 39 38 36
72 73 73 73 73 73 71 69 67 67 70 73 72 68 67 67 64 62 60 57 53 51 50 49 47 47 47 47 44 40 39 42 45 47 49 48 45 43 41 39 39 39 40 39 39 39 39 39 39 39 40 40 40 39 39 40 41 41 41 41 40 39 38
73 74 74 74 75 76 77 76 73 66 63 69 74 73 70 69 67 64 63 61 58 55 52 49 49 50 48 47 46 44 41 42 45 47 47 45 45 44 42 39 38 39 39 38 37 37 36 37 38 39 39 40 39 38 38 39 40 40 41 41 40 40 39
74 74 75 76 76 77 78 80 80 75 66 63 67 72 73 73 70 66 64 63 61 59 56 52 51 52 51 48 46 47 47 47 47 47 44 41 43 46 44 40 39 39 40 39 37 36 35 35 35 36 37 38 38 37 37 38 38 39 39 40 39 38 38
76 75 76 76 77 79 81 81 80 80 76 68 64 62 65 71 74 71 67 65 64 61 59 56 55 53 52 50 48 49 50 51 51 49 44 40 41 44 45 43 41 40 41 41 39 37 36 35 34 35 35 36 36 36 36 37 37 38 38 38 37 37 37
79 78 78 79 79 80 83 84 81 79 79 78 74 68 61 60 66 72 72 68 66 65 61 58 57 56 54 52 51 51 51 51 52 51 46 42 41 42 43 44 44 42 43 42 40 38 36 35 34 34 34 34 34 34 35 36 36 36 36 36 36 36 37
84 84 82 81 81 81 84 87 86 82 80 80 80 79 71 60 54 62 72 73 68 66 64 61 58 57 56 55 54 53 53 52 52 52 48 44 43 43 43 44 44 44 45 44 42 39 37 36 36 34 33 33 33 34 35 35 35 33 33 34 35 36 38
87 86 84 82 81 82 84 87 88 86 84 82 80 79 79 73 59 53 62 72 73 68 65 62 59 57 57 57 56 54 54 53 52 52 50 46 44 44 45 45 44 44 45 44 42 41 40 38 37 35 33 33 34 34 34 33 31 30 31 34 36 37 38
90 88 86 84 82 82 83 87 90 89 86 85 84 80 79 80 73 60 54 61 70 72 68 63 60 57 58 58 58 56 55 54 53 53 51 48 46 44 45 46 46 43 41 40 39 41 41 39 38 36 35 35 35 34 33 31 30 30 33 36 36 36 37
92 92 90 87 84 83 83 85 90 91 89 86 86 85 81 80 80 74 62 55 58 64 65 63 60 59 59 59 58 58 56 55 54 52 51 50 49 47 46 46 46 45 43 41 41 42 42 41 40 39 38 37 36 35 34 32 32 33 35 36 36 35 36
86 91 93 91 88 85 85 85 88 91 92 90 88 87 85 82 81 81 76 65 56 55 58 60 60 59 59 59 58 57 56 54 52 50 49 49 49 48 47 46 46 46 45 45 46 47 46 45 44 43 42 40 39 38 36 34 35 36 36 37 37 37 37

ECMWFFLT1_500_spd_075.txt.gz
Wind_Speed
31 30 29 27 25 24 23 22 22 21 19 18 16 15 14 15 17 19 20 21 22 23 24 25 25 24 22 20 18 17 18 18 19 19 19 18 17 16 15 15 14 14 13 13 13 14 14 13 13 13 13 13 13 12 12 11 11 11 11 11 11 10 10
32 31 30 28 26 25 24 23 24 23 22 21 19 17 16 15 16 19 21 22 22 23 24 25 26 26 24 22 19 18 19 19 19 19 19 19 18 17 16 15 14 13 12 12 13 13 14 13 13 13 13 13 13 13 12 12 11 11 12 11 11 11 11
31 30 29 29 28 27 26 25 24 24 24 23 22 19 17 17 17 18 21 23 23 24 24 26 27 27 26 23 21 20 20 20 20 19 20 20 20 19 18 16 15 14 13 13 13 13 14 13 13 13 13 13 13 13 13 13 12 12 12 12 12 12 11
28 27 26 27 28 29 27 26 26 26 26 26 25 23 21 20 20 20 21 23 25 25 25 26 27 28 27 25 23 21 21 21 21 21 21 21 21 20 19 17 16 15 15 15 14 14 14 14 14 14 14 14 14 14 13 13 13 13 13 12 12 12 12
26 26 25 26 27 28 28 27 28 28 29 29 29 28 27 25 24 23 22 22 24 26 27 28 28 29 28 27 25 23 23 23 23 22 22 22 21 21 20 19 18 17 16 16 15 14 14 14 14 14 15 14 14 14 14 14 14 13 13 13 12 12 12
26 26 26 26 27 28 29 29 29 29 30 31 31 31 30 28 27 26 24 23 24 27 28 29 29 29 29 28 27 26 25 24 24 24 23 22 22 21 21 21 20 19 18 17 16 15 15 14 15 15 15 16 15 15 15 14 14 14 14 14 13 13 12
28 28 28 27 27 28 29 30 30 29 29 30 31 31 31 30 29 27 26 24 24 26 28 30 30 30 30 30 29 27 27 26 26 26 25 24 23 23 22 22 21 20 20 19 18 17 16 15 15 16 16 17 17 16 15 15 14 15 15 14 14 13 13
30 31 29 28 28 29 30 30 29 29 29 30 31 32 32 32 31 29 28 27 25 25 27 30 32 32 32 32 31 29 28 28 28 28 27 25 24 24 23 22 22 22 21 20 19 19 18 17 16 16 17 17 18 17 16 15 15 15 16 15 15 14 13
32 32 31 29 29 29 30 30 29 30 31 31 31 32 32 32 32 31 30 29 28 26 25 27 31 34 35 34 33 32 30 29 29 29 28 26 26 25 25 24 24 23 22 22 21 20 19 18 17 17 17 18 18 18 17 16 15 15 16 16 16 15 14
34 33 32 31 30 30 30 31 31 32 33 33 33 32 32 32 31 31 31 30 29 27 25 25 29 34 37 36 35 34 33 31 30 30 29 28 27 27 27 27 26 25 24 23 23 22 21 20 18 18 18 18 19 19 18 17 16 16 16 17 17 16 15
35 34 34 33 31 30 31 31 32 33 35 35 35 34 33 32 32 32 31 30 29 29 28 27 27 30 35 38 38 37 35 33 32 31 30 30 29 29 30 29 28 27 26 25 24 23 22 21 20 19 19 20 20 20 20 19 17 16 16 17 18 17 16
38 36 36 36 33 31 31 32 33 34 36 37 37 36 35 34 34 33 32 31 31 30 30 30 29 29 32 37 39 39 38 37 35 33 32 32 32 32 32 31 30 29 27 26 25 24 23 22 21 20 20 21 22 22 21 20 19 17 17 18 18 18 17
40 40 39 40 38 33 32 34 35 34 35 38 38 38 37 36 35 35 33 32 32 31 30 30 30 30 31 34 38 40 40 39 38 36 35 35 34 34 33 33 32 30 29 28 27 27 25 23 22 22 22 23 23 23 23 22 20 19 18 18 19 19 19
42 43 43 44 43 38 34 36 38 36 36 37 39 40 40 38 37 36 35 33 33 32 31 30 30 29 29 31 35 39 41 41 41 40 39 38 37 35 34 33 32 32 32 31 30 28 27 26 25 25 25 25 25 25 24 23 21 20 19 19 20 21 21
43 45 46 46 46 42 38 39 40 39 38 37 38 40 40 40 39 38 37 35 34 33 33 33 32 31 30 29 31 36 40 42 42 42 42 41 39 37 35 34 34 33 33 33 31 31 30 29 28 27 27 26 26 26 26 25 23 22 21 20 21 22 22
44 46 47 48 47 44 42 41 43 43 41 39 38 39 40 41 40 40 39 37 36 36 36 35 35 34 32 30 29 32 37 41 42 43 43 42 41 40 38 36 36 35 34 34 33 33 32 31 30 29 28 27 28 27 27 26 24 24 23 22 22 23 24
46 47 48 48 48 47 44 44 45 46 45 43 41 40 40 41 41 41 41 40 39 38 38 37 37 36 34 33 31 31 33 37 41 43 43 43 42 41 40 39 38 37 36 35 35 34 34 33 31 30 30 29 29 28 27 26 26 25 25 24 23 24 25
47 47 48 48 49 48 47 46 47 49 49 47 45 43 42 42 42 41 41 41 41 40 40 39 39 38 36 35 34 33 32 34 38 41 42 42 43 42 42 41 40 39 38 37 36 36 35 34 33 32 31 31 30 29 28 27 27 27 26 25 25 25 25
46 46 47 48 49 49 48 47 47 50 52 52 50 47 46 45 45 44 43 42 42 42 41 42 42 41 38 37 36 34 33 32 34 37 40 41 42 43 43 43 42 41 40 39 38 37 36 35 35 34 33 32 31 30 30 29 29 29 28 27 27 26 26
45 45 46 47 49 49 49 48 48 49 52 54 53 51 49 48 48 47 46 45 44 43 43 43 44 42 39 38 37 35 34 33 32 33 36 39 41 42 43 43 43 42 42 41 40 39 37 37 36 35 35 34 33 32 31 31 31 30 30 29 28 28 28
46 46 46 47 48 49 49 49 49 49 51 53 54 54 53 51 50 50 49 48 46 45 44 43 42 41 39 38 38 37 37 35 32 32 33 36 38 40 41 42 42 42 42 42 41 40 39 38 38 37 36 35 34 33 32 31 31 31 30 30 30 30 29
46 47 47 48 49 49 49 50 51 51 52 52 53 54 55 54 53 53 53 51 48 45 44 43 41 41 41 40 40 40 39 37 35 33 33 34 35 36 38 40 41 42 43 43 43 42 41 41 40 39 38 37 35 34 32 32 32 32 31 30 31 31 30
46 47 49 50 50 50 50 52 53 53 53 53 53 53 54 55 55 55 55 54 51 47 45 43 42 42 42 41 42 42 41 39 38 36 35 35 34 35 37 39 40 42 43 43 44 43 43 43 42 41 40 39 37 35 33 32 33 33 32 31 32 32 31
48 48 50 52 53 53 53 54 55 54 54 54 54 54 54 54 55 56 56 56 54 51 47 45 44 44 44 44 44 43 42 41 40 39 39 38 37 37 37 39 40 41 42 43 44 44 44 45 44 43 42 41 38 36 34 33 33 33 32 32 32 32 31
51 51 51 53 54 55 55 55 56 57 56 56 56 56 56 55 55 56 56 56 56 54 51 48 47 47 47 47 46 44 43 44 43 43 43 42 41 41 40 39 39 40 41 43 44 44 45 45 45 44 43 42 40 38 36 35 34 34 33 33 33 33 31
55 54 54 55 56 57 58 58 58 58 59 59 58 57 58 57 56 56 57 56 56 55 53 51 50 49 49 49 48 47 46 46 46 46 47 47 46 45 44 42 41 40 40 42 43 44 45 45 45 44 43 42 41 40 39 37 36 36 36 35 35 34 33
58 58 58 58 58 59 59 60 59 59 60 61 61 60 59 59 59 59 59 57 56 55 55 53 51 50 50 51 51 50 49 48 48 48 50 52 52 49 47 46 44 42 41 42 42 44 44 45 45 44 43 43 42 42 41 40 39 39 39 38 37 36 34
60 60 61 61 62 62 62 62 62 61 60 61 63 62 61 60 60 60 60 59 58 56 55 54 53 51 51 51 52 53 53 51 50 50 50 52 53 51 48 49 48 45 43 43 43 44 44 44 45 44 44 43 42 42 41 41 41 41 41 40 39 38 37
62 63 63 64 65 65 65 64 64 63 62 62 63 63 63 62 62 61 61 61 60 58 56 55 54 53 52 51 51 52 53 53 53 53 52 50 49 48 46 49 51 48 45 44 45 44 44 44 43 43 43 43 42 41 40 40 40 41 41 41 41 40 39
64 65 65 66 67 68 69 68 67 66 65 64 64 63 63 62 63 64 63 63 62 61 59 58 56 55 54 53 51 51 52 53 53 54 53 50 49 47 45 46 51 53 49 47 46 44 43 43 42 42 41 41 41 40 39 39 39 40 40 41 41 41 40
65 66 67 68 69 70 72 72 71 70 69 68 67 66 64 62 62 64 65 65 64 63 62 61 59 57 57 56 54 53 52 53 54 54 52 49 48 48 46 46 51 54 52 49 47 45 42 41 40 39 38 38 39 39 39 39 39 40 39 39 39 39 39
65 66 67 69 70 71 72 74 75 74 72 71 71 70 69 66 63 62 64 66 65 64 63 63 62 60 59 58 57 55 53 52 53 53 51 49 49 48 45 43 44 47 48 47 46 45 42 40 39 38 37 36 37 38 39 39 39 39 38 37 37 37 37
69 68 68 69 71 72 72 73 75 77 76 76 75 74 74 73 69 65 63 64 65 65 64 64 64 63 61 60 58 56 54 52 52 51 51 51 50 49 47 44 40 39 42 43 43 44 43 40 40 38 36 35 36 36 38 39 39 39 38 37 37 37 37
73 72 70 70 71 73 74 74 75 77 78 79 79 79 79 78 77 73 67 64 65 65 64 65 66 66 65 63 61 58 56 53 52 51 51 52 52 51 51 49 45 42 41 40 41 43 44 42 40 39 37 35 35 36 37 38 38 36 36 36 37 37 38
76 77 76 74 73 74 75 76 76 76 78 79 80 82 83 82 81 79 75 70 68 66 64 63 64 66 68 67 64 61 60 58 55 53 52 52 51 50 50 49 48 46 44 42 40 42 45 45 42 40 39 38 36 36 37 36 34 34 34 37 38 38 39
71 76 79 80 78 77 76 77 78 78 78 79 80 82 84 85 84 83 82 78 74 71 68 65 62 61 65 69 68 65 62 61 59 57 56 54 51 50 49 48 47 48 47 45 43 42 44 46 45 42 42 41 38 37 36 34 33 34 36 38 38 38 39
57 65 73 79 82 82 81 80 80 79 79 79 80 82 84 86 86 86 85 84 81 77 75 72 67 62 60 63 66 66 64 63 61 60 59 57 54 51 50 49 48 48 47 46 46 44 43 44 45 45 44 43 40 38 37 36 35 35 37 37 37 38 39
46 52 59 68 76 82 85 85 84 82 81 80 80 81 83 85 87 88 88 88 86 83 80 78 76 71 65 62 61 62 62 63 63 62 60 59 56 54 53 52 50 49 48 47 47 47 44 43 44 46 46 45 42 40 39 38 37 36 37 37 38 38 39

ECMWFFLT1_500_spd_078.txt.gz
Wind_Speed
29 28 28 27 25 24 23 22 22 22 20 18 17 16 15 16 18 20 20 20 21 23 25 27 27 25 22 20 18 18 19 20 20 19 19 19 19 19 17 16 15 14 13 13 13 12 12 11 11 12 12 12 11 11 11 11 11 10 10 10 10 9 9
29 29 29 29 27 25 24 24 24 24 23 22 20 18 16 16 18 21 22 22 22 23 25 28 28 26 24 21 19 19 20 20 20 20 20 20 20 19 19 17 16 15 14 13 13 12 11 11 11 11 12 11 11 10 10 10 10 10 10 9 9 8 8
29 29 29 29 29 28 27 25 25 26 25 25 24 22 20 18 19 21 24 24 24 24 25 27 29 28 25 23 21 20 20 21 21 21 21 21 21 20 20 18 17 16 15 15 14 13 13 12 11 12 12 11 11 11 10 10 10 10 9 9 8 8 8
30 31 30 30 30 29 28 27 26 26 26 26 26 25 24 23 22 23 25 27 27 26 27 28 30 29 27 25 23 22 22 22 22 22 23 23 22 21 20 19 18 17 17 16 15 15 14 13 13 13 13 12 12 11 10 10 10 10 9 9 8 8 8
31 32 32 32 31 30 29 28 27 27 27 27 27 27 27 26 25 25 25 27 28 29 29 30 31 31 29 27 26 24 24 24 24 23 24 24 23 22 21 20 19 19 18 17 16 16 15 14 14 14 13 13 13 12 11 11 11 11 10 10 9 9 9
33 33 32 31 31 31 31 29 28 27 27 28 29 29 29 28 27 25 25 26 28 30 30 31 32 32 31 30 28 27 26 26 25 24 24 24 24 24 23 21 21 20 19 18 17 16 16 15 15 15 14 14 14 13 13 12 12 12 11 11 10 10 9
33 33 32 31 30 31 31 30 29 29 29 30 31 30 30 29 28 27 25 24 26 29 30 31 31 32 32 32 30 29 28 27 27 26 25 25 25 25 24 23 22 21 20 19 19 17 17 16 15 15 15 14 14 14 14 13 12 12 12 12 11 11 10
34 32 31 30 30 30 31 31 30 30 30 30 29 29 30 30 29 27 25 25 24 24 26 28 29 30 31 32 32 31 30 29 29 28 27 26 26 26 25 25 24 23 22 21 20 19 18 17 16 16 15 15 15 14 14 14 13 13 12 12 12 12 11
34 32 31 30 30 30 31 30 30 31 31 30 29 30 31 31 29 28 27 26 24 23 24 26 27 29 30 30 31 32 31 31 30 29 28 27 27 27 27 27 26 25 24 23 22 21 20 18 17 17 16 16 16 15 15 15 14 13 13 12 13 13 12
34 32 31 30 30 31 31 30 30 32 32 30 30 31 31 31 30 29 29 28 27 26 26 26 27 28 29 30 31 32 31 31 31 30 30 29 28 28 28 28 28 27 26 25 24 23 22 20 19 18 17 17 17 17 16 16 16 15 13 13 13 14 13
35 33 31 31 31 32 31 30 31 32 32 31 30 30 31 32 32 31 31 29 29 28 28 27 27 28 29 30 32 32 32 32 32 31 31 30 30 30 31 30 29 29 28 27 26 25 24 23 21 20 19 18 18 18 18 17 17 16 15 14 14 15 15
37 35 33 32 32 32 32 31 31 31 31 30 30 31 31 31 32 33 33 32 31 30 30 28 27 27 28 30 32 33 33 33 33 32 32 32 32 32 32 32 31 30 30 29 28 28 27 25 23 22 21 21 21 20 19 19 18 17 16 15 15 15 16
39 37 36 35 34 33 33 33 32 31 29 28 28 30 31 31 31 31 33 35 35 33 31 30 28 27 26 27 29 32 34 35 34 34 34 33 34 34 34 33 33 32 32 31 30 30 29 27 26 24 24 23 23 22 21 20 19 18 17 16 15 16 17
41 39 39 38 36 35 35 34 32 31 30 28 26 27 29 31 32 31 32 34 36 35 33 31 30 28 27 27 27 28 32 35 37 36 35 35 35 35 34 34 34 34 33 32 31 31 31 29 28 27 26 25 24 24 23 22 21 20 19 17 16 17 18
43 42 41 41 39 38 37 36 34 31 30 29 27 27 27 29 32 33 33 33 34 34 33 32 31 31 31 30 29 29 30 33 36 37 37 37 36 36 35 35 34 34 34 33 32 32 32 31 30 29 28 27 26 25 25 24 23 21 21 20 19 19 19
44 43 43 43 43 41 40 38 37 35 33 31 30 29 29 30 31 33 34 34 33 33 34 33 33 33 33 32 32 32 31 31 33 36 38 39 38 38 37 36 35 34 34 33 33 33 33 32 31 31 30 29 28 27 26 26 25 24 23 23 22 21 21
46 45 45 45 46 45 43 41 40 40 38 36 34 32 32 32 32 32 34 35 35 34 35 35 34 35 35 34 35 35 34 32 32 33 36 39 40 40 39 38 36 35 34 34 34 34 34 33 32 32 31 30 29 29 28 27 27 26 27 27 25 24 23
46 46 46 46 47 48 46 45 44 44 44 42 40 38 36 35 35 34 34 35 37 37 36 35 35 36 36 37 38 37 36 34 33 32 32 36 39 41 41 40 39 37 35 35 35 35 34 34 33 33 32 31 31 30 30 29 28 29 29 29 28 27 26
46 47 47 46 48 49 49 49 47 47 47 46 45 42 40 38 39 38 37 37 37 38 38 36 36 38 39 40 40 40 38 36 34 32 31 32 35 38 41 41 41 40 39 38 37 36 35 34 34 33 33 32 32 31 30 30 30 30 31 31 30 30 29
46 47 47 47 48 49 50 51 51 50 49 49 48 46 44 42 42 41 40 39 38 38 39 39 39 41 42 42 40 39 38 36 34 32 31 31 32 34 37 39 40 41 41 41 40 38 37 36 35 34 33 33 32 32 31 31 31 31 32 32 32 32 31
47 48 48 48 48 48 50 51 52 52 52 52 52 50 48 46 45 45 44 42 41 40 41 43 43 42 40 39 38 37 36 36 36 35 33 31 31 32 34 36 39 40 41 41 42 41 40 39 38 36 34 33 33 32 32 32 31 32 32 33 33 33 33
48 49 49 48 48 48 49 50 51 52 53 53 53 52 51 49 48 48 48 47 45 43 43 44 45 43 39 37 37 37 37 38 38 37 35 34 33 33 33 34 36 39 40 41 41 41 40 40 40 38 36 35 34 33 33 33 32 32 33 33 34 34 33
49 50 50 49 49 49 49 49 50 51 52 52 52 51 51 50 49 50 51 51 49 47 45 45 45 45 43 40 38 38 39 39 39 37 36 36 35 35 34 34 35 37 39 40 40 40 39 39 40 40 38 37 36 34 33 33 33 33 33 34 35 34 33
50 50 50 50 50 50 49 49 49 49 50 50 50 50 48 48 48 49 51 53 53 51 49 47 46 47 47 45 42 41 40 39 38 38 38 38 38 38 37 37 37 37 38 38 38 38 38 39 39 40 39 39 38 37 35 34 34 34 34 35 35 35 33
53 51 51 51 51 51 51 50 50 50 49 48 49 50 48 47 47 48 48 51 54 55 54 51 49 48 49 48 45 43 43 41 39 39 40 40 40 41 41 40 39 38 37 36 36 37 37 38 39 40 39 39 40 40 38 36 36 35 35 35 36 35 35
55 54 53 52 52 52 52 52 52 51 51 50 48 49 50 49 49 48 48 49 51 54 56 55 53 52 51 50 49 46 44 43 42 41 41 41 42 43 44 43 41 39 37 37 36 36 36 38 39 39 39 40 40 41 40 38 37 37 36 37 37 37 36
54 56 56 54 53 52 52 53 53 53 53 52 51 50 50 50 50 50 50 50 50 51 54 55 55 54 52 52 51 50 47 45 45 44 43 43 43 44 45 44 42 40 40 39 39 38 37 37 39 39 40 41 41 41 41 40 39 39 39 39 39 39 38
54 56 58 58 57 55 54 54 54 54 54 54 53 52 51 51 51 51 51 51 51 51 52 53 54 54 55 53 52 53 53 51 49 47 46 46 46 45 45 45 43 43 43 43 41 40 38 38 39 40 40 41 41 41 41 40 40 41 40 41 41 41 40
56 57 59 60 61 60 59 57 56 56 56 55 55 55 54 53 53 53 52 52 51 52 53 53 53 53 55 55 52 51 53 55 55 53 51 49 48 48 48 47 45 45 45 45 44 43 41 40 41 41 41 41 41 40 41 41 42 41 42 42 43 43 42
57 58 59 61 62 63 63 62 60 59 59 58 58 58 57 56 55 55 55 54 53 53 53 54 55 54 54 55 55 52 50 51 53 55 55 53 51 50 50 50 49 47 46 46 46 46 45 44 44 44 42 42 41 40 40 41 41 41 42 43 43 44 44
54 56 57 59 61 63 65 66 65 64 63 62 62 61 61 60 58 57 57 57 56 56 56 55 56 56 56 56 57 57 54 51 50 50 52 54 54 53 52 52 51 49 49 49 49 47 47 47 48 47 45 43 42 41 41 41 40 41 42 43 44 44 44
53 54 55 56 58 60 63 65 67 68 67 67 66 66 65 64 63 61 60 59 59 59 59 58 58 58 58 58 58 59 59 57 54 52 51 52 52 53 53 53 52 51 52 52 51 49 48 48 48 48 47 46 45 43 43 43 41 40 42 43 44 44 44
56 56 56 56 57 58 60 62 65 67 69 70 70 70 70 69 68 67 65 63 62 61 61 61 61 60 60 60 60 59 60 60 58 56 55 54 53 52 52 52 51 51 52 53 52 51 49 47 46 46 45 46 48 49 48 46 43 41 41 42 42 43 45
59 59 59 60 59 59 60 60 61 64 67 69 72 73 74 73 72 72 71 69 67 66 64 63 63 63 63 63 61 61 61 61 60 59 58 58 57 55 53 52 51 51 51 52 52 51 50 47 44 44 44 45 49 53 52 46 42 42 42 43 43 44 45
61 61 62 62 63 63 63 63 63 63 64 66 69 72 75 76 75 76 75 74 73 71 70 67 65 64 65 65 65 63 62 62 62 62 60 59 59 57 54 53 53 52 51 51 52 51 50 48 44 42 42 42 46 52 51 44 42 45 45 42 42 44 44
57 59 60 62 63 65 66 66 67 66 65 66 67 69 72 75 77 78 78 79 78 76 74 72 70 67 66 66 67 66 65 64 64 64 63 62 60 59 56 54 54 52 50 50 51 50 50 49 47 45 43 39 39 44 47 46 45 44 40 37 37 39 40
51 53 55 57 60 62 64 66 68 69 69 69 69 69 70 73 75 78 79 81 82 81 79 77 75 72 70 68 67 67 67 66 65 65 65 64 63 62 60 56 54 52 49 49 51 51 50 49 48 49 49 44 40 39 42 46 47 43 39 38 39 38 38
46 48 50 52 54 56 59 62 65 68 70 71 72 72 72 72 73 76 78 80 83 84 84 82 79 77 75 73 70 69 68 68 67 66 66 66 65 64 63 60 58 56 52 49 49 51 51 49 47 48 50 49 45 41 38 42 46 46 43 42 42 40 38

ECMWFFLT1_500_spd_081.txt.gz
Wind_Speed
26 27 25 24 25 25 25 26 27 27 24 21 20 18 16 16 17 19 19 20 21 23 24 25 26 25 22 19 17 17 18 19 19 18 18 17 16 15 14 13 12 12 11 11 11 11 10 10 10 10 10 10 10 9 9 9 8 8 7 7 6 6 6
26 27 26 25 26 27 27 28 28 26 23 22 22 21 19 18 18 19 20 21 22 23 25 26 27 26 24 21 19 19 20 20 19 19 19 18 17 16 15 14 13 13 12 12 12 11 11 10 10 9 9 9 9 8 8 8 7 7 7 6 6 5 5
26 27 27 26 27 27 27 26 26 25 23 23 23 23 22 20 20 21 23 24 24 24 25 26 27 27 25 22 20 21 22 22 21 20 20 20 19 18 16 15 14 14 13 13 12 12 11 10 10 9 8 8 8 8 7 7 6 6 6 5 5 5 5
28 27 26 26 26 24 24 25 25 26 27 25 25 24 23 22 23 24 26 26 24 25 25 25 27 28 26 24 23 22 23 23 23 22 21 21 20 19 18 17 16 15 15 14 13 12 11 10 10 9 8 8 7 7 7 7 6 6 5 5 5 5 4
29 27 26 26 25 23 23 25 26 28 30 28 26 26 25 25 25 25 24 23 23 24 24 25 26 28 28 26 24 24 24 25 24 23 22 22 21 21 20 19 17 16 16 15 13 13 12 11 10 9 8 8 8 7 7 7 6 6 6 5 5 5 5
29 27 26 27 26 25 25 25 24 26 28 27 25 25 27 28 28 26 23 22 23 25 25 24 25 27 27 26 25 24 25 25 25 24 24 23 23 22 22 21 19 18 17 16 15 14 13 12 11 10 10 9 9 8 8 7 7 7 6 6 6 6 5
29 28 28 27 28 28 27 24 20 21 23 23 23 25 27 28 28 26 23 22 24 26 25 24 24 25 26 26 25 24 25 25 25 25 25 25 24 24 23 22 21 20 19 18 17 16 15 14 13 12 11 11 10 9 9 9 9 8 7 7 7 7 6
31 29 29 28 28 29 29 27 24 21 21 21 22 23 25 25 25 24 24 26 27 26 24 24 24 25 26 27 26 26 25 26 25 24 24 25 25 25 24 24 23 22 21 20 19 18 16 16 15 14 13 12 12 11 11 11 10 10 9 8 8 8 7
32 31 30 29 29 29 29 29 28 26 24 23 22 22 23 23 24 25 27 28 28 25 24 24 25 26 27 27 28 28 27 26 25 25 24 24 25 25 25 25 25 24 23 22 21 20 19 18 16 15 15 14 14 13 12 12 11 11 10 9 9 8 8
33 32 32 31 31 30 29 29 28 27 26 25 25 25 24 24 26 26 26 27 26 24 24 24 25 26 27 27 28 28 28 27 27 26 25 24 24 25 26 27 26 25 25 24 23 22 21 20 18 17 17 16 16 15 14 13 13 12 11 10 10 9 9
35 34 33 32 32 32 30 29 28 28 27 27 28 28 27 27 26 26 27 28 28 26 24 24 23 24 25 27 27 27 28 28 28 27 26 25 25 25 26 27 28 27 27 26 25 24 23 22 20 20 19 18 17 17 16 15 14 13 12 11 10 10 10
36 35 34 34 34 33 31 30 29 28 28 28 29 30 30 28 27 27 29 30 29 26 24 24 24 22 23 25 26 27 28 28 29 29 28 27 26 26 26 27 28 29 29 28 27 26 25 24 23 22 21 20 19 18 17 16 16 15 14 13 12 11 11
37 36 35 34 34 34 32 31 30 30 30 30 31 30 30 29 27 27 27 29 29 27 25 26 25 22 21 22 24 26 28 29 29 30 30 29 28 27 27 27 27 29 29 30 29 28 27 26 25 24 23 22 21 20 19 18 17 17 16 15 14 13 12
39 38 36 35 35 34 32 31 31 32 32 32 32 31 30 29 28 26 25 26 29 29 29 28 26 24 23 24 24 25 26 28 30 30 31 30 30 29 28 27 27 28 29 30 29 29 29 28 27 26 26 25 23 22 21 20 19 18 18 17 16 16 15
42 40 38 36 35 34 33 32 33 33 33 33 32 31 31 29 28 27 26 24 26 28 29 30 29 27 27 27 27 27 27 28 30 31 31 31 31 30 29 28 27 27 28 29 30 30 29 29 29 28 28 27 25 24 23 22 21 20 20 20 19 19 17
44 42 40 38 37 36 34 33 35 36 35 34 33 33 32 30 28 27 27 25 26 27 27 29 30 31 31 30 31 31 30 30 30 31 31 31 32 32 32 31 29 28 28 29 30 30 30 29 29 29 29 28 27 26 25 24 23 22 22 22 22 21 20
46 45 43 41 40 39 37 36 37 38 37 35 34 33 32 31 28 27 26 26 27 28 28 28 29 31 33 34 34 35 35 33 32 31 30 30 31 33 34 34 33 31 29 29 29 30 30 29 29 29 29 29 28 27 27 26 25 24 24 25 25 24 23
47 48 46 45 43 42 41 39 38 39 39 38 36 33 30 30 30 28 26 26 27 28 28 28 28 29 32 36 38 38 37 35 35 34 31 28 28 30 32 34 34 34 32 31 30 30 30 30 30 29 29 29 29 28 27 27 26 26 26 27 27 27 26
46 48 49 47 46 45 44 43 42 41 41 40 39 35 31 30 31 30 29 28 28 28 29 30 31 31 32 35 37 38 36 35 35 35 32 29 28 28 29 30 32 34 35 34 34 33 32 31 30 29 29 29 29 28 27 27 27 27 27 28 29 29 28
45 47 49 49 48 48 47 46 45 44 43 42 42 40 36 33 32 33 32 32 31 30 31 32 34 35 35 35 36 35 33 32 33 33 32 33 33 31 30 30 30 32 35 37 37 37 35 33 32 31 30 29 29 28 27 27 28 27 27 29 30 31 31
44 45 48 49 49 49 49 49 48 47 46 45 45 44 42 39 36 36 36 36 35 34 34 34 36 37 37 36 35 31 28 28 30 32 34 36 36 35 33 32 30 31 34 36 37 39 39 37 36 34 32 31 30 29 28 28 28 27 27 29 31 32 32
44 45 46 47 48 49 50 50 50 50 50 49 48 46 45 44 42 40 40 40 40 39 38 38 38 38 38 37 34 31 28 27 28 32 36 37 36 35 36 35 33 31 33 35 36 36 36 36 37 36 34 34 33 31 29 29 28 28 28 29 32 33 33
46 45 46 46 47 48 49 50 51 51 51 52 52 50 48 47 47 45 44 44 45 44 43 41 40 40 40 39 36 34 34 32 31 32 36 37 36 34 36 37 36 33 33 34 34 32 31 32 34 35 35 36 36 34 32 31 30 30 30 31 33 34 34
47 47 47 47 47 48 49 50 50 51 52 52 53 54 53 51 49 49 48 48 48 48 47 45 43 42 42 42 39 37 38 39 38 36 35 36 36 35 35 37 38 37 34 32 32 32 32 32 33 33 33 35 36 36 35 34 33 33 33 33 34 34 34
48 48 48 48 48 48 48 49 50 50 51 52 52 54 55 54 53 51 51 51 51 51 50 48 47 45 45 44 43 42 41 42 43 42 39 38 37 37 36 35 35 35 34 33 33 33 33 32 32 32 32 32 34 35 36 36 36 35 34 35 35 36 35
49 50 49 49 49 48 49 49 49 50 50 51 52 53 54 55 55 54 53 53 54 54 53 52 50 49 48 48 46 46 45 45 44 44 43 42 41 41 39 35 31 31 33 35 34 32 31 31 31 31 30 30 32 33 35 36 37 36 36 36 37 37 37
49 50 51 50 50 49 50 50 50 50 50 50 51 52 52 53 54 54 54 54 54 54 55 55 54 53 52 51 50 49 48 47 46 45 44 43 43 43 41 37 33 32 33 33 31 30 31 31 30 30 30 29 30 31 33 35 37 37 37 37 38 38 39
50 50 51 51 51 51 51 51 51 51 51 50 51 51 52 52 52 53 54 54 54 54 54 55 56 55 52 50 51 52 52 51 49 47 44 43 43 43 42 40 37 35 36 34 30 29 31 32 32 32 31 30 30 29 31 34 36 38 38 38 38 39 40
52 52 52 52 53 53 52 52 52 53 53 53 52 52 52 52 52 52 53 54 55 55 54 54 56 57 55 51 50 50 52 53 53 52 50 48 46 44 43 43 41 38 38 37 35 33 32 33 34 34 33 32 32 31 31 33 35 37 38 39 39 39 40
55 55 55 55 55 55 54 54 54 54 55 55 55 55 54 53 53 53 53 54 55 55 56 55 56 57 58 56 53 52 52 53 54 55 55 54 51 47 44 43 43 43 42 40 39 38 36 36 37 36 34 34 34 34 35 35 36 37 39 41 41 40 40
55 56 57 57 57 57 57 57 57 56 57 57 58 58 57 56 56 55 55 55 56 56 56 57 57 57 58 59 58 56 55 55 55 56 57 57 55 53 50 45 41 43 45 45 43 42 40 40 39 39 37 37 36 37 38 38 39 40 41 40 39 39 39
51 53 55 57 58 58 59 59 59 59 59 60 60 60 60 60 59 58 57 57 57 58 58 59 59 58 58 59 60 60 59 58 58 58 58 57 57 57 55 50 43 39 41 43 44 45 45 44 43 42 41 40 41 41 41 40 39 40 41 41 39 39 39
48 49 50 53 55 57 58 58 59 60 60 61 62 63 63 63 62 61 61 60 60 60 60 60 61 61 60 60 60 61 61 61 61 60 60 59 59 58 57 56 52 46 41 40 41 43 45 46 46 45 44 45 45 45 43 40 38 38 39 40 41 41 40
49 49 49 50 51 53 55 56 57 58 58 59 61 63 64 64 64 64 64 64 63 63 63 62 62 63 63 63 62 62 63 63 63 63 63 62 62 60 58 58 58 55 50 45 42 42 43 44 44 45 46 47 47 46 43 42 43 43 41 39 40 41 41
52 52 52 51 52 52 53 54 56 57 57 58 59 61 62 64 65 66 66 66 66 66 66 65 65 65 65 65 65 65 65 65 65 65 66 65 64 63 61 60 59 59 56 53 49 46 45 44 43 43 46 47 46 42 41 42 45 46 44 41 40 41 42
54 54 54 54 54 54 54 55 55 56 57 58 59 59 61 62 64 65 66 67 68 68 68 68 68 68 67 67 67 67 67 67 67 67 67 67 66 65 64 63 62 61 59 57 56 54 52 50 47 46 46 47 44 41 40 41 43 44 44 43 42 42 43
54 55 55 55 55 55 55 56 56 57 58 59 60 61 61 61 63 64 65 66 68 69 70 70 70 70 70 69 69 69 69 69 70 70 69 69 68 68 67 66 65 64 62 60 60 59 57 55 53 50 49 48 45 43 42 41 41 42 44 43 42 42 42
50 52 53 53 54 54 54 55 55 56 57 59 61 62 63 63 64 64 65 66 68 69 70 70 71 71 71 71 72 72 71 71 71 71 71 71 70 70 69 69 68 66 65 64 63 61 60 58 56 53 51 50 47 45 43 42 42 42 42 42 42 43 42

ECMWFFLT1_500_spd_084.txt.gz
Wind_Speed
19 18 18 19 23 26 27 25 23 22 20 17 17 17 15 15 15 15 16 17 17 19 20 21 21 20 19 16 14 15 16 16 16 15 15 14 13 13 12 11 10 9 9 8 8 7 6 6 6 7 7 7 6 6 5 5 4 3 3 3 3 3 3
21 19 18 19 22 24 25 23 22 21 20 20 20 20 19 20 19 17 17 18 18 18 20 21 22 21 20 17 15 15 16 17 16 15 16 16 15 14 13 12 12 11 10 9 8 8 7 7 7 7 7 7 6 6 6 5 5 4 3 4 4 3 3
22 19 16 18 21 22 22 21 21 21 21 23 24 24 23 22 22 20 17 17 18 17 18 20 21 21 21 19 17 16 17 17 17 16 16 17 16 15 14 14 13 12 11 10 9 9 8 7 7 7 7 7 7 7 6 6 5 5 4 4 4 4 4
22 19 17 18 22 23 22 21 20 21 24 25 26 26 23 21 23 24 20 18 17 16 18 20 21 22 21 20 18 16 16 17 17 17 17 16 16 15 15 14 14 13 12 11 10 9 8 8 8 8 8 8 8 8 7 6 6 6 6 5 5 5 5
24 22 19 19 22 23 22 21 21 23 25 26 27 27 24 21 24 25 22 20 18 17 19 20 21 21 21 21 20 18 17 17 16 16 16 16 16 16 16 15 15 14 13 12 10 9 9 8 8 8 8 8 8 8 8 7 6 6 6 5 5 5 5
25 24 22 21 21 22 23 23 23 24 23 24 26 26 22 22 23 23 22 21 20 18 18 19 20 22 22 22 22 20 18 17 16 16 16 16 16 16 16 16 15 15 14 12 11 10 10 9 9 9 9 9 8 8 8 7 7 6 5 5 5 5 5
25 24 24 23 21 22 24 23 21 20 18 19 23 24 23 24 25 25 24 23 22 19 17 18 19 21 22 23 24 23 21 19 18 17 16 16 17 17 16 16 16 15 15 14 13 12 11 11 10 10 9 9 8 8 8 7 7 6 6 6 5 5 5
26 25 26 26 24 24 25 23 19 17 16 16 19 23 26 27 25 25 25 23 23 20 18 19 20 21 22 23 25 25 24 22 19 17 16 16 17 17 17 17 17 17 16 15 14 14 13 12 11 11 10 10 9 9 8 7 6 6 6 6 6 6 5
27 26 26 27 26 25 25 25 21 19 18 17 17 20 24 26 25 25 26 25 24 21 20 20 21 22 23 23 24 26 26 24 21 19 17 16 16 17 18 18 18 18 18 17 16 15 14 13 12 12 12 11 11 10 9 8 7 6 5 6 6 6 6
28 27 27 27 27 26 25 25 24 23 22 19 18 17 18 21 21 22 25 25 24 21 21 22 21 23 25 24 24 26 26 25 23 21 19 17 16 17 18 19 19 19 20 19 18 17 16 15 14 13 13 13 12 11 10 9 8 7 6 6 6 6 7
31 29 29 28 28 27 27 27 26 25 24 21 19 18 19 19 17 17 20 23 24 23 22 23 24 26 27 25 25 26 26 26 25 24 22 19 18 18 18 19 20 20 21 20 19 19 18 17 16 15 15 14 13 12 11 10 9 8 7 7 7 7 7
32 32 31 30 29 28 28 29 27 25 23 21 20 19 21 23 20 18 19 21 22 21 22 24 25 25 25 25 25 25 25 25 25 25 24 23 21 20 19 19 20 21 21 21 21 21 20 19 18 17 17 16 15 14 13 12 11 10 9 9 8 8 7
33 34 33 32 31 30 29 30 29 26 23 21 22 21 20 23 25 23 20 18 19 19 21 23 23 23 23 24 25 26 27 27 26 26 27 27 26 24 22 21 21 21 21 21 22 22 22 21 20 20 19 18 17 16 15 14 13 12 11 11 10 10 9
34 35 34 33 33 32 31 31 30 29 26 22 23 24 22 22 24 25 23 20 20 19 21 25 26 25 25 24 24 27 28 27 26 26 25 24 25 27 26 24 22 22 22 22 22 22 23 23 23 22 21 20 19 18 17 16 15 14 14 13 13 12 11
34 35 35 34 34 34 33 32 30 30 29 24 21 23 23 20 17 20 23 22 21 21 22 26 28 29 28 26 24 24 24 23 23 22 22 22 23 25 26 26 25 24 23 22 22 22 22 23 23 23 23 22 21 20 19 18 17 17 16 16 15 15 14
35 37 37 37 36 35 35 34 31 30 31 28 23 22 24 23 18 17 20 22 22 23 24 25 27 29 28 26 24 23 23 23 22 22 23 24 24 26 26 26 26 26 24 23 22 23 23 23 23 22 22 23 22 21 20 19 19 19 19 19 18 17 16
37 38 39 39 38 37 36 35 33 31 32 33 31 27 26 28 27 22 20 23 24 24 25 25 26 27 28 28 27 25 24 23 22 22 23 24 25 27 26 24 26 27 27 26 25 24 25 24 23 22 22 22 22 21 20 20 19 20 20 21 21 20 19
39 39 40 40 40 40 38 38 36 34 32 34 35 32 29 30 30 27 24 25 26 27 27 26 26 26 26 27 28 26 25 26 24 23 23 23 26 28 26 25 24 25 27 28 27 26 26 24 23 22 22 22 22 21 21 20 19 19 20 21 22 22 22
39 40 41 41 42 41 40 40 38 37 35 34 35 34 33 32 32 31 30 29 28 28 27 27 28 27 25 25 26 25 25 27 28 27 26 26 26 27 27 27 26 25 26 28 28 27 27 26 24 23 22 22 22 22 22 21 20 20 19 20 22 23 23
39 40 41 42 43 43 42 42 40 39 37 36 36 35 35 35 35 34 33 32 31 30 27 26 28 29 27 27 27 26 26 27 28 29 30 30 28 28 29 30 29 27 25 26 27 28 28 28 27 26 24 24 24 24 23 23 23 22 21 21 22 24 25
39 40 42 43 44 44 44 44 42 41 40 39 38 38 37 37 38 37 36 35 35 33 31 29 30 30 29 29 28 28 27 27 26 27 29 31 31 31 32 33 33 30 25 23 25 28 29 29 29 29 28 27 26 25 25 25 25 24 23 22 23 26 27
40 41 41 43 45 45 46 45 45 44 43 41 41 40 40 39 40 40 40 38 37 36 35 34 33 32 31 30 29 27 27 28 27 26 27 27 29 31 33 34 34 32 28 25 26 28 28 28 29 31 30 29 27 26 25 26 27 27 26 25 26 27 29
42 42 43 43 45 46 47 47 47 47 46 45 44 43 43 42 41 42 42 42 41 39 38 37 36 35 34 33 31 29 29 29 29 29 29 28 27 28 30 32 33 32 31 29 29 29 29 27 28 32 33 31 30 28 28 28 30 31 30 28 28 29 30
43 44 44 45 45 46 47 48 48 49 48 47 47 46 45 45 44 44 44 45 44 43 42 40 40 39 37 36 35 33 32 32 31 30 31 30 28 26 26 28 30 31 31 31 31 31 30 29 29 32 34 34 33 31 31 32 33 34 34 32 32 31 31
44 44 45 45 45 46 47 48 49 49 49 49 49 48 48 48 48 47 47 47 47 46 45 43 42 42 41 40 39 38 37 36 34 32 32 32 31 29 26 26 28 28 29 31 32 32 32 32 32 32 33 35 35 34 32 32 34 36 37 36 36 36 35
47 47 46 45 46 46 47 48 48 49 49 49 50 50 49 49 49 50 50 50 49 49 48 47 45 44 44 43 43 42 41 39 37 36 35 35 34 33 31 30 29 28 29 31 31 31 32 33 34 34 33 35 36 36 34 32 34 37 38 37 38 39 38
48 48 48 47 47 48 48 47 48 49 49 49 50 51 50 50 50 51 51 52 52 51 50 50 49 48 47 47 47 46 45 44 41 39 38 37 36 35 35 33 32 32 32 32 32 31 31 32 33 34 35 35 36 36 35 35 36 37 37 36 37 38 38
46 48 48 48 48 49 49 48 48 49 49 50 51 51 51 51 51 51 51 52 52 53 52 52 51 51 50 50 50 49 49 48 46 44 42 41 39 38 37 34 33 34 34 34 34 34 33 32 32 33 34 35 35 36 37 37 37 36 36 34 34 35 36
47 48 48 49 49 50 49 50 50 50 51 51 51 51 51 51 51 51 52 52 52 53 53 53 53 53 52 52 52 51 51 51 51 49 47 46 44 43 42 39 37 36 35 34 34 35 35 34 34 33 31 32 34 37 38 37 35 35 35 33 32 34 36
50 50 50 50 49 49 49 50 51 51 52 52 52 52 52 52 52 52 52 52 52 52 53 54 54 54 53 53 53 53 53 53 53 52 51 51 50 48 47 45 43 42 40 37 35 35 36 36 36 35 33 32 33 36 37 34 33 34 35 34 33 36 37
50 51 52 51 51 51 51 51 51 52 52 53 53 53 53 52 52 52 53 53 53 53 53 54 54 54 54 54 54 54 54 54 54 53 53 53 53 52 51 50 49 47 46 44 41 38 37 37 37 38 37 36 35 35 35 33 32 33 35 34 34 34 35
50 51 51 52 52 53 54 54 53 53 53 54 54 54 54 54 54 54 53 53 53 54 54 54 54 54 54 54 55 55 56 56 56 55 54 53 53 54 53 53 51 50 48 48 47 45 44 42 40 38 38 39 39 37 34 33 32 32 33 34 33 33 34
48 49 50 51 52 53 54 55 56 56 56 56 56 56 55 55 55 55 55 55 55 55 55 55 55 54 54 54 55 55 56 57 57 57 57 56 56 55 55 55 54 52 51 50 50 50 49 48 45 43 41 41 40 39 38 36 35 35 35 36 36 35 36
46 47 48 49 50 51 52 53 55 56 57 57 57 57 57 57 57 57 57 57 57 57 56 56 56 55 55 55 55 55 56 57 57 58 58 58 58 58 58 58 57 56 55 54 53 51 50 50 50 49 47 44 42 40 39 40 41 40 37 36 36 35 36
45 45 46 46 47 48 49 51 52 53 55 56 57 57 58 58 58 59 59 59 59 59 58 58 58 58 57 57 57 57 57 57 57 58 59 59 59 59 58 58 59 58 58 58 57 55 54 53 53 52 52 50 46 42 39 38 40 41 40 39 39 38 39
46 46 46 46 46 46 47 48 49 50 51 53 54 55 56 56 57 58 58 59 59 59 60 60 60 60 60 60 60 60 60 59 59 59 59 60 60 60 59 58 58 58 59 59 59 59 58 57 56 55 54 53 51 50 46 42 41 41 41 41 41 41 41
48 48 48 48 48 47 47 47 48 48 49 50 51 53 53 54 55 56 57 57 58 58 59 59 60 60 60 61 62 62 62 62 62 61 61 61 61 61 60 59 59 59 59 59 60 60 60 60 59 58 57 54 53 54 53 50 48 46 44 42 41 41 41
48 49 50 50 50 50 50 50 50 50 50 51 51 52 53 53 54 55 55 56 57 57 58 58 58 59 59 60 61 62 63 63 64 64 64 63 63 63 62 61 60 60 60 60 60 60 61 60 60 60 59 57 55 55 56 56 54 53 50 48 45 44 42

ECMWFFLT1_500_spd_087.txt.gz
Wind_Speed
15 16 18 18 16 16 17 18 18 18 18 17 16 16 15 12 10 9 9 12 14 15 16 18 19 19 18 17 15 13 11 10 10 10 9 10 10 10 9 9 8 9 10 10 8 7 6 6 7 6 6 7 7 7 8 8 7 7 7 7 6 6 7
16 16 18 18 16 17 18 19 20 21 21 20 18 18 17 13 11 10 9 10 12 13 15 16 18 19 18 17 16 14 13 11 11 10 10 10 10 10 9 9 8 8 8 9 8 7 6 6 6 6 6 5 5 6 6 7 6 6 6 6 6 6 6
18 18 19 18 16 18 19 21 22 24 24 22 20 19 18 15 12 12 11 10 11 12 13 15 17 19 18 18 17 15 14 12 12 12 12 12 11 10 10 10 9 8 8 8 8 7 6 6 5 5 5 5 5 5 5 5 5 5 6 6 6 6 6
20 20 20 17 16 18 21 24 25 27 25 22 21 20 18 16 14 13 13 12 13 14 13 14 16 18 19 18 17 17 14 13 13 13 13 12 12 12 11 11 11 10 9 9 9 9 8 7 6 5 5 5 5 5 5 5 5 5 6 6 6 6 6
20 19 17 16 18 20 22 23 23 24 23 20 20 21 19 18 16 15 14 14 17 17 15 13 14 15 18 18 18 18 16 14 13 14 14 13 13 13 13 13 12 11 10 10 10 10 10 9 8 6 5 5 5 5 5 5 6 6 6 6 6 6 6
18 18 16 14 16 16 15 18 21 23 22 20 20 20 20 19 17 17 16 15 19 20 16 15 15 14 16 18 19 18 17 15 14 14 14 14 14 15 14 14 14 13 12 11 11 11 11 10 9 8 7 6 6 5 5 5 5 6 6 7 7 7 7
20 18 16 14 14 14 13 17 21 22 21 20 20 20 20 19 19 20 19 17 20 21 19 17 15 15 16 16 18 19 18 17 15 14 15 15 16 16 15 15 15 14 13 13 13 12 12 11 11 10 9 8 7 6 6 5 5 5 6 6 7 7 8
22 20 17 14 15 17 17 16 17 18 18 18 20 21 21 21 22 23 21 19 21 22 21 19 16 16 16 16 19 20 19 18 16 15 15 15 17 17 16 16 16 15 15 15 15 14 13 12 12 11 11 10 9 7 7 6 5 5 5 6 7 7 7
21 20 18 17 18 21 21 17 13 14 15 16 18 20 19 20 22 24 22 21 23 24 23 20 18 18 17 17 20 21 21 21 20 18 16 16 17 18 18 18 17 17 17 16 15 14 14 13 13 12 12 11 10 9 8 7 6 6 6 6 7 8 8
22 20 19 20 20 22 24 20 14 13 14 14 16 18 17 16 19 22 24 23 24 26 25 22 21 21 20 20 21 22 22 23 23 21 18 17 17 18 19 19 19 19 18 18 17 16 15 14 14 13 12 12 11 10 10 9 8 7 7 7 7 8 9
24 23 22 21 21 22 24 23 19 18 17 15 16 19 19 16 15 19 23 25 26 27 26 25 25 24 23 22 22 22 22 22 22 22 21 19 18 18 19 19 20 20 20 19 19 18 17 16 15 15 14 13 13 12 11 10 9 9 8 7 7 8 8
26 25 24 23 22 23 25 24 21 20 19 19 19 20 21 18 14 15 18 21 24 28 29 27 26 24 23 22 21 20 21 20 21 23 24 23 21 20 19 19 19 20 20 20 19 19 18 17 16 16 15 15 14 13 12 12 11 10 9 9 8 8 8
26 26 25 25 24 24 24 24 23 22 22 22 22 22 22 21 18 16 16 17 20 26 29 28 26 24 24 24 22 21 21 21 21 24 26 26 24 22 20 20 20 20 20 19 19 19 18 18 17 17 16 16 15 14 14 13 12 11 11 10 10 10 9
26 25 25 25 26 26 25 25 25 26 25 23 23 23 23 23 22 19 18 18 19 22 25 26 26 25 26 27 26 23 23 23 24 24 26 27 26 24 22 21 21 20 20 19 18 18 18 18 18 17 17 16 16 15 14 13 13 12 12 12 11 11 11
26 26 25 25 26 27 27 26 27 28 26 24 24 24 24 24 24 23 21 20 20 21 23 24 25 25 25 26 27 25 24 24 25 24 25 27 27 26 24 22 22 21 20 19 18 18 18 18 18 18 18 17 17 16 15 14 13 13 13 13 12 12 12
27 27 27 27 27 28 28 28 28 29 27 26 26 27 25 24 24 24 25 24 22 23 24 24 23 24 23 23 23 23 22 23 25 26 27 27 27 26 25 23 23 23 22 20 19 18 18 18 18 18 18 18 18 17 16 16 15 15 15 15 14 13 13
29 29 29 29 28 29 29 29 29 30 29 28 28 28 26 25 23 21 22 22 19 19 23 23 20 20 21 22 21 20 20 22 23 25 28 27 25 25 24 24 23 23 23 23 21 20 19 18 18 18 18 18 18 17 17 17 17 17 17 17 16 16 15
30 30 30 30 30 30 30 30 30 30 30 29 29 29 28 27 24 21 21 20 18 17 20 20 18 18 20 23 24 23 23 24 23 25 27 27 24 23 23 24 24 24 24 24 24 23 21 19 18 18 18 18 19 18 17 17 18 18 18 18 18 18 17
28 29 30 31 32 31 31 32 32 32 32 31 31 30 31 29 26 25 25 24 23 21 19 19 17 17 19 21 22 22 24 25 25 26 27 26 25 24 25 27 27 26 26 25 26 25 24 22 21 20 20 19 19 19 19 19 19 19 19 20 20 20 19
25 27 29 31 33 33 33 33 33 32 32 32 32 31 32 31 29 29 29 28 27 25 23 22 21 20 19 19 18 18 19 21 23 25 26 26 26 26 27 28 28 27 27 27 26 25 24 23 22 23 23 22 21 21 21 20 21 22 22 21 22 22 21
27 27 27 29 31 33 34 34 34 34 34 33 33 33 33 33 32 32 33 32 31 28 26 25 24 23 22 21 20 19 19 19 21 22 24 27 29 30 29 29 27 27 28 28 26 25 24 23 23 24 24 24 25 24 23 23 24 25 25 25 25 25 25
31 30 29 29 29 32 34 35 35 36 36 36 35 35 35 34 34 35 35 34 34 34 31 28 25 24 23 23 23 23 22 21 21 22 23 24 27 30 31 31 29 28 28 28 28 27 25 23 23 25 26 27 27 26 25 26 28 29 29 28 28 28 27
35 33 32 31 31 31 32 34 35 36 37 38 38 37 37 37 36 37 38 37 36 36 36 35 32 29 27 26 25 26 26 24 22 22 22 21 22 24 27 29 29 29 29 29 28 28 27 25 24 25 27 28 28 27 28 30 31 31 30 29 28 27 28
40 37 34 33 33 33 33 33 34 35 36 37 38 38 38 38 38 38 39 39 38 37 37 37 37 35 33 31 29 28 28 27 26 25 24 22 20 20 22 24 25 27 29 30 29 29 30 29 28 28 27 28 29 29 30 31 31 30 29 28 28 28 28
43 40 38 37 36 36 36 35 34 35 36 37 37 38 38 39 39 39 39 39 39 39 38 38 39 39 37 36 34 32 31 30 29 28 28 26 23 22 23 23 23 24 26 27 29 31 32 33 33 32 30 29 30 31 32 31 30 29 30 30 30 31 32
42 41 40 40 40 38 38 38 37 37 38 38 38 39 39 39 39 39 39 39 40 40 40 40 40 41 41 40 39 37 35 33 31 30 30 30 27 25 25 24 24 24 24 25 26 29 32 34 35 35 33 32 33 34 34 31 28 28 30 32 33 35 36
41 41 41 42 42 41 41 40 40 40 40 40 40 40 41 41 41 41 41 40 41 42 42 43 43 42 43 43 43 42 41 38 36 34 33 33 31 30 29 28 27 27 27 26 27 28 30 32 34 35 35 35 35 35 35 33 31 30 31 34 37 38 37
40 41 42 42 43 43 43 43 42 42 41 41 41 41 41 42 43 43 43 42 43 43 44 45 45 45 45 45 45 46 45 44 42 40 38 37 35 34 33 32 31 31 30 30 30 31 31 31 32 33 34 35 36 35 35 34 34 34 34 36 37 38 38
41 42 43 43 43 43 44 44 45 45 44 42 42 41 42 43 44 44 44 44 44 45 45 46 47 47 47 47 47 48 48 47 46 45 43 42 40 38 37 35 35 34 34 32 31 32 32 31 31 32 33 34 35 34 34 34 34 36 37 37 38 39 40
42 44 44 44 44 44 45 46 47 47 46 45 44 44 43 44 44 45 45 45 45 45 45 46 46 47 47 48 49 49 49 50 49 48 47 45 43 42 41 40 39 38 37 36 35 34 34 33 33 32 33 33 33 33 34 34 34 34 35 37 39 40 40
43 45 46 45 46 47 47 48 48 47 47 47 46 46 46 46 46 46 46 46 46 46 46 46 46 46 47 48 49 49 49 50 50 50 50 48 46 45 44 44 43 42 41 40 39 39 38 38 37 36 36 34 33 32 33 35 35 34 34 35 38 39 40
42 44 46 46 46 47 47 48 48 47 47 47 46 46 47 47 47 47 47 47 47 47 47 47 47 47 47 47 48 49 49 50 50 51 51 51 50 48 47 46 46 45 45 44 43 42 42 42 42 41 40 39 37 36 35 35 35 34 34 35 36 37 38
42 44 46 46 46 47 47 48 48 48 48 48 47 47 47 47 47 48 48 48 48 48 48 48 47 47 48 48 48 49 49 50 50 51 51 51 51 50 49 48 47 47 46 46 46 46 46 46 45 45 44 43 41 40 38 38 37 36 35 36 36 36 37
41 43 45 46 46 46 48 49 49 50 50 50 50 49 49 49 49 49 49 49 49 49 49 49 48 48 48 49 49 50 50 50 50 50 50 50 50 50 50 50 50 49 48 47 48 49 49 49 48 48 47 46 44 43 42 41 41 40 39 38 38 38 38
40 41 43 44 45 46 47 48 49 50 50 51 51 51 51 51 51 50 50 50 50 50 50 50 50 50 50 50 50 51 51 51 51 51 51 51 51 51 51 51 51 51 50 49 49 50 51 51 51 50 49 48 46 46 45 44 44 43 42 41 41 41 40
40 40 41 42 44 45 46 47 47 48 49 50 50 50 51 51 51 51 51 51 51 52 52 52 52 52 52 52 52 52 52 52 52 52 52 52 52 52 51 51 52 52 51 51 51 51 52 52 52 52 51 49 48 48 48 47 48 47 45 44 43 44 44
43 42 42 42 43 43 44 44 45 46 47 48 48 49 49 49 49 50 50 50 51 51 52 52 52 52 53 53 53 53 53 54 54 54 54 54 54 54 53 52 52 52 52 52 52 52 52 53 53 53 52 51 50 50 50 49 49 49 49 48 47 46 46
46 46 46 45 44 43 43 44 44 45 45 46 46 46 47 47 48 48 48 49 49 49 50 50 51 51 52 52 53 53 54 54 54 55 55 55 55 55 55 54 54 54 53 53 53 52 53 53 54 54 54 53 52 51 51 51 51 51 51 50 49 49 48

ECMWFFLT1_500_spd_090.txt.gz
Wind_Speed
14 16 17 19 20 20 21 21 21 21 19 17 16 16 14 11 8 7 8 10 12 12 12 13 14 14 14 15 14 13 13 14 14 14 15 15 14 13 13 13 13 14 13 13 11 10 9 10 10 10 10 10 10 10 10 9 9 9 9 9 9 9 9
16 17 20 23 23 22 23 23 23 23 21 19 18 17 15 13 11 10 9 10 11 12 12 12 12 13 13 14 15 14 14 14 15 15 15 16 15 14 13 13 13 14 14 14 13 11 10 10 10 10 10 10 10 9 9 9 8 8 9 9 9 9 9
14 16 20 23 23 24 26 26 25 22 19 18 18 17 16 15 13 12 11 10 10 11 12 12 12 12 13 14 15 15 14 14 15 16 15 16 16 15 14 13 12 13 14 15 14 13 12 11 11 10 10 9 10 9 9 9 8 8 9 9 9 10 9
13 16 18 19 19 22 24 25 24 23 20 19 19 17 17 17 15 13 12 11 10 11 12 14 13 13 13 14 15 15 15 14 15 16 16 16 16 15 14 13 13 13 14 14 14 14 13 12 12 11 11 10 10 10 10 10 9 9 9 9 9 10 10
17 19 18 17 19 21 22 23 25 27 26 24 22 19 18 18 17 14 12 12 12 12 13 14 14 14 15 16 16 16 16 15 15 16 16 16 17 17 16 15 14 13 13 14 15 15 14 14 14 13 13 12 12 12 12 11 11 10 10 9 9 9 9
20 18 15 16 18 18 19 22 25 28 28 26 26 25 22 21 20 18 16 15 15 14 15 16 15 15 17 18 18 18 17 17 15 15 16 17 18 18 18 17 16 15 15 15 15 16 16 16 16 15 15 14 13 13 12 12 12 11 10 10 9 9 9
21 18 14 15 16 15 17 20 22 25 28 28 28 28 25 24 25 22 19 19 18 17 18 20 18 17 18 19 20 20 19 19 17 16 16 17 18 19 19 18 18 17 16 16 17 17 17 17 17 17 16 15 14 13 13 12 12 12 11 10 10 10 10
20 19 18 17 16 15 18 22 23 24 27 28 28 26 25 26 27 24 21 21 22 21 21 22 21 19 18 19 21 21 21 21 19 17 17 17 18 18 19 19 18 18 17 17 17 18 18 18 18 18 17 16 15 14 13 13 12 12 11 11 11 11 10
20 20 20 21 20 17 17 21 22 21 23 25 24 24 25 26 26 25 24 25 26 25 24 22 19 17 16 16 17 19 20 21 22 20 18 18 18 18 18 18 18 18 18 17 17 17 17 17 17 17 17 16 16 15 14 13 12 11 11 11 11 10 10
22 20 21 23 23 20 18 19 19 18 18 20 23 23 24 24 25 25 26 27 27 26 25 21 18 17 16 16 18 19 19 21 22 22 21 19 18 17 17 17 17 18 18 17 17 17 16 16 16 16 16 15 15 14 14 13 12 11 11 10 10 10 10
24 22 21 22 23 22 20 18 19 18 16 18 21 22 22 23 25 26 27 26 26 26 25 23 20 20 21 20 22 22 20 20 21 22 22 21 19 18 17 17 17 17 17 17 17 17 16 16 16 15 15 15 14 14 13 12 12 11 11 11 10 11 11
25 25 23 22 22 23 23 20 20 20 18 17 19 20 21 21 21 21 23 24 25 26 27 25 24 24 23 22 22 22 20 19 20 22 24 23 21 20 20 19 18 17 17 17 17 17 17 17 17 16 16 15 14 13 13 12 12 12 11 11 11 11 12
22 24 24 24 23 24 25 23 23 24 23 20 19 19 20 21 20 19 19 19 20 25 27 27 26 27 27 26 24 23 22 21 21 23 24 25 24 22 20 20 20 19 18 17 16 16 17 17 17 17 17 15 14 14 13 13 13 12 12 12 12 12 13
20 21 23 24 24 24 25 24 25 25 24 22 22 22 22 23 23 22 20 17 16 19 24 26 26 28 29 29 26 25 24 24 24 23 22 23 24 23 22 21 20 20 20 19 18 17 17 18 18 18 17 17 16 15 14 14 14 14 14 14 14 14 15
22 21 22 23 24 25 25 25 25 24 24 24 23 23 24 24 24 23 22 19 16 17 20 24 26 28 29 30 28 27 26 25 25 25 24 23 23 25 25 23 22 21 21 20 20 19 19 19 19 19 19 18 18 17 16 16 16 16 16 16 16 16 16
25 24 24 23 23 25 25 26 26 26 26 27 25 23 23 22 22 22 21 21 20 19 18 21 23 24 27 30 30 29 28 28 27 27 26 25 24 26 27 27 26 24 23 22 21 20 20 20 20 21 21 21 20 19 18 18 18 18 18 17 17 17 17
28 27 26 24 24 25 26 26 27 27 29 29 27 25 25 24 23 20 18 20 21 19 18 20 20 21 24 28 29 29 29 29 28 28 28 28 27 27 28 29 29 27 25 23 22 21 21 21 22 23 23 23 23 23 22 21 22 21 21 20 19 19 18
28 28 27 27 27 26 27 27 27 28 29 30 28 27 27 27 27 24 20 21 22 19 18 20 20 21 23 25 27 27 28 29 29 28 28 29 29 28 27 28 30 29 27 25 24 23 22 22 22 23 24 25 25 25 25 25 25 25 24 23 22 21 20
25 26 27 28 28 28 28 29 28 29 30 30 29 29 27 26 27 26 22 23 24 22 20 20 19 21 23 24 25 25 26 27 27 26 27 28 29 29 29 29 30 30 29 28 26 25 24 24 23 23 24 25 26 26 26 26 26 25 25 24 23 22 21
23 24 26 28 29 29 29 30 30 30 31 30 30 30 30 28 28 27 25 23 23 22 22 20 18 18 20 22 23 24 24 25 25 24 25 26 28 30 30 30 30 30 31 31 29 28 27 27 26 26 26 26 27 27 26 26 26 25 24 24 23 23 22
24 24 25 27 29 30 31 31 31 32 32 32 31 31 31 31 30 29 28 26 24 23 23 21 20 19 18 18 20 20 21 24 27 27 27 27 28 29 30 31 31 31 32 32 31 29 28 28 28 29 29 29 29 29 28 27 27 26 26 25 26 26 25
28 26 26 26 28 30 31 32 33 33 33 33 33 32 32 32 31 30 29 28 28 27 26 25 24 23 22 21 20 19 19 21 24 26 26 26 28 29 30 31 32 32 32 33 32 30 29 29 29 30 30 31 32 32 30 29 28 28 28 28 28 28 28
31 30 29 28 28 29 30 32 33 33 34 34 33 33 33 33 33 31 30 30 30 29 28 28 27 26 26 25 23 22 20 20 21 22 22 22 23 26 28 30 31 32 32 32 32 31 31 30 31 31 32 33 33 33 32 31 31 31 31 31 31 31 31
35 33 32 31 30 30 30 31 32 32 34 35 35 35 35 34 34 33 32 32 31 30 30 29 28 28 28 27 26 24 23 23 21 22 23 22 20 21 24 26 29 30 32 32 32 31 32 32 33 34 34 33 33 33 32 33 34 34 34 34 34 34 33
37 36 34 33 32 32 32 32 32 32 33 35 35 36 36 36 36 35 34 34 33 32 32 31 31 31 31 30 29 29 29 28 24 22 24 23 22 21 22 23 24 27 29 31 32 33 33 33 33 34 34 33 32 32 32 33 35 36 37 37 37 36 35
38 38 37 37 36 36 35 35 34 34 34 35 35 36 36 37 37 37 37 36 35 34 34 33 33 34 34 33 32 31 32 32 30 27 26 26 24 24 24 23 23 23 25 27 30 33 33 33 33 35 35 35 33 33 34 34 35 36 37 38 38 37 36
37 37 38 40 41 41 40 39 38 37 36 36 37 37 37 37 37 38 38 38 37 36 36 35 35 36 35 35 34 33 33 33 33 32 30 28 27 26 26 25 25 24 24 24 26 29 31 31 32 33 35 35 34 35 37 37 36 36 36 36 37 37 36
36 37 38 40 41 42 41 41 40 40 38 38 39 39 39 38 38 38 39 39 39 38 38 37 37 38 38 37 37 36 35 34 34 34 33 32 30 29 29 29 28 27 26 26 27 28 28 28 29 29 29 30 31 34 37 38 38 38 37 37 36 37 36
38 38 39 40 40 41 41 41 41 41 41 40 40 41 41 40 40 40 40 40 40 39 39 39 39 39 40 40 39 39 38 37 37 37 36 36 34 33 33 32 31 30 30 29 29 30 30 30 30 29 28 29 30 30 32 35 36 38 38 38 37 36 35
40 41 42 42 42 42 42 43 43 43 43 42 42 42 42 42 42 42 41 41 40 40 40 40 40 40 40 41 41 41 40 39 39 39 39 38 38 37 37 36 35 34 33 33 32 33 33 33 33 32 31 31 31 30 29 30 32 34 35 35 35 35 34
38 40 42 44 45 45 45 45 45 46 45 45 44 44 44 44 44 44 43 42 42 42 42 42 42 42 41 41 42 42 42 41 41 41 41 40 40 40 40 40 39 38 38 37 37 37 37 37 36 35 34 34 34 33 31 31 31 32 31 31 31 31 31
38 39 40 42 43 45 46 46 46 46 46 46 46 46 46 46 46 46 45 44 43 43 43 43 43 43 43 42 42 42 43 43 43 43 43 43 43 43 43 43 43 42 42 42 41 41 41 40 39 39 38 37 37 36 35 34 34 34 33 32 31 30 30
38 39 40 40 41 42 44 45 46 46 46 46 46 47 47 47 47 47 46 46 45 45 44 44 44 44 44 43 43 42 42 43 44 44 44 44 45 45 45 45 45 45 44 44 43 43 43 43 43 43 42 42 41 39 38 38 37 37 37 36 35 34 33
39 39 39 40 41 42 44 45 45 46 46 46 46 47 47 47 47 46 46 46 46 45 45 45 45 45 45 45 44 43 43 43 44 45 45 45 45 46 46 46 46 46 46 46 45 45 45 45 45 45 45 45 44 43 42 41 41 41 40 40 39 38 37
41 41 41 42 42 43 44 45 45 45 46 46 47 47 47 47 47 47 46 46 46 46 45 45 45 45 45 45 45 45 44 44 44 45 45 46 46 46 47 47 47 47 47 47 47 47 47 46 47 47 47 46 46 46 45 45 44 44 43 42 42 42 40
41 41 43 44 45 45 45 45 45 46 46 47 47 48 48 48 48 48 47 47 47 46 46 45 45 45 45 46 46 46 45 45 45 45 45 46 47 47 47 48 48 48 48 49 49 49 48 48 48 49 49 49 49 49 48 47 47 47 46 45 45 45 44
42 41 42 43 45 46 46 45 45 46 47 47 47 48 48 48 48 48 48 48 48 47 47 47 47 47 47 47 47 47 47 46 46 46 46 46 47 47 48 49 49 49 49 50 50 51 50 50 49 50 50 50 50 51 50 49 49 49 49 48 48 48 48
44 44 44 43 43 44 45 45 45 46 47 47 47 47 47 48 48 48 48 48 48 48 48 48 48 48 49 49 49 49 49 49 48 48 48 48 47 47 48 49 49 50 51 51 51 51 52 52 51 51 51 51 51 52 52 52 51 50 50 50 50 50 50

ECMWFFLT1_500_spd_093.txt.gz
Wind_Speed
18 20 21 23 24 25 24 22 20 19 17 16 17 15 14 11 10 9 11 13 14 14 14 14 15 16 16 16 14 14 14 15 15 14 14 14 13 13 13 12 12 14 13 12 12 13 12 12 12 12 12 11 10 10 9 9 9 8 8 8 8 9 9
18 21 23 23 22 22 23 22 19 18 17 17 17 15 14 13 11 11 11 13 15 15 15 15 16 17 17 17 16 14 14 14 15 15 15 16 15 14 13 12 13 13 13 13 13 13 13 13 13 13 13 12 11 10 9 9 8 8 8 8 9 9 9
16 16 18 20 21 23 24 23 20 18 17 17 16 14 13 13 13 12 12 13 15 17 17 17 17 17 18 18 18 16 15 14 15 16 16 17 16 15 14 13 13 13 14 14 14 13 14 14 15 14 14 13 12 11 10 9 9 9 9 9 9 10 10
11 11 14 17 20 23 25 25 23 20 19 18 17 16 14 14 15 15 14 14 14 16 18 19 19 19 19 20 20 19 17 16 16 17 17 17 17 16 15 15 14 14 14 14 14 14 15 15 16 15 14 14 13 12 12 11 10 10 10 10 10 10 11
11 12 14 15 18 22 25 27 27 24 22 21 20 19 18 19 19 18 17 16 16 16 17 18 19 19 20 22 22 21 20 18 17 17 17 18 18 17 17 16 15 14 14 15 15 15 16 16 16 16 15 15 14 14 13 12 12 11 11 11 10 10 11
15 13 12 13 16 20 23 26 27 27 26 25 23 22 23 23 22 21 20 19 18 16 14 15 16 17 19 22 23 23 22 20 19 18 18 18 18 19 18 17 16 15 15 16 16 16 16 17 17 17 16 16 15 15 14 13 12 12 11 11 10 10 10
18 16 15 15 16 18 20 22 24 26 27 27 25 25 26 26 25 24 22 19 16 13 11 12 15 17 18 20 24 24 24 23 21 19 19 19 19 20 19 18 18 17 16 16 17 17 17 17 17 17 17 17 17 16 15 14 13 12 11 10 10 10 10
20 19 18 17 17 18 19 20 22 23 25 27 29 29 28 27 26 24 21 18 16 14 13 14 16 18 17 18 21 23 24 24 22 20 19 19 20 20 20 20 19 18 18 18 18 18 18 17 18 18 18 18 18 17 16 15 13 12 11 11 11 11 11
23 21 21 20 19 19 19 19 19 21 24 27 30 30 30 29 29 26 22 20 19 18 18 18 18 19 18 17 18 20 22 22 22 21 20 20 20 20 21 21 20 20 20 19 18 18 18 18 18 18 18 19 19 18 17 16 14 13 12 12 12 12 12
27 24 23 22 21 20 19 17 18 20 22 24 26 28 30 31 31 28 24 22 23 22 22 22 21 20 20 19 18 18 20 22 23 22 21 20 20 21 21 21 21 21 21 20 19 19 19 19 19 19 19 19 19 18 17 16 15 15 14 14 14 14 14
29 27 25 24 24 22 19 18 18 20 21 22 24 25 28 31 31 30 28 26 26 26 24 24 23 22 22 22 20 19 20 23 24 24 23 22 21 21 21 21 21 21 21 20 20 19 19 19 19 19 19 19 19 18 18 17 17 17 16 16 16 16 16
30 28 26 25 24 23 21 19 19 20 20 22 24 26 28 30 30 30 29 28 29 30 28 26 26 25 25 23 22 22 22 23 24 25 25 25 23 23 22 22 21 22 22 21 21 20 19 19 19 19 19 19 19 18 18 18 18 18 18 18 18 18 18
32 27 25 24 23 22 21 21 21 21 21 22 23 23 26 28 28 28 28 29 31 32 31 30 29 29 28 26 24 24 23 24 25 26 27 27 26 24 23 22 22 22 23 22 22 21 20 20 20 20 19 19 19 19 19 18 18 18 18 18 19 18 19
32 27 24 24 24 22 20 22 23 22 22 23 21 19 20 22 24 26 29 31 33 34 35 35 31 30 30 29 26 25 25 26 26 27 28 28 27 25 24 23 22 23 23 23 23 23 23 23 22 21 20 20 20 20 20 19 19 19 19 19 18 18 18
29 26 24 23 25 25 23 24 25 22 21 21 18 17 17 18 20 23 26 28 29 30 33 34 30 29 31 30 28 28 28 28 27 27 28 28 28 28 27 25 24 23 23 24 24 25 25 25 25 24 22 21 21 20 20 20 20 19 19 19 18 18 17
26 26 25 24 25 26 26 25 25 24 22 20 19 20 20 20 21 22 23 24 24 24 26 28 29 31 33 32 31 32 32 30 28 27 28 29 29 29 29 28 27 26 25 25 25 25 26 26 26 26 25 24 23 21 21 21 21 20 20 19 18 17 17
26 26 26 25 24 25 26 26 26 26 25 23 21 22 22 23 23 22 23 24 23 23 23 25 27 30 32 33 34 34 34 32 31 29 29 29 30 30 30 30 30 29 27 27 27 27 27 27 27 27 28 27 26 24 23 22 22 22 21 20 19 18 17
26 27 27 27 25 25 25 26 26 27 27 26 24 22 21 22 23 23 24 26 24 23 23 23 23 24 26 29 32 33 33 32 32 31 30 30 31 30 30 30 31 31 30 29 29 28 27 27 28 29 29 29 28 27 25 25 24 24 23 22 22 21 20
29 28 27 26 26 26 26 26 26 27 28 29 28 26 22 21 23 24 25 26 25 23 22 22 22 22 23 26 28 30 31 31 31 31 32 32 32 32 32 31 31 31 31 31 31 30 29 29 29 30 30 30 30 29 28 27 27 26 26 26 25 24 24
33 31 29 27 26 26 27 27 27 28 28 28 29 28 26 24 24 26 26 26 25 24 22 20 21 21 23 25 26 27 28 28 29 31 32 34 33 33 33 33 32 32 32 33 33 32 32 31 31 31 32 32 31 31 30 30 30 29 29 29 28 27 26
33 33 31 29 27 26 27 28 29 29 30 29 29 28 27 26 26 28 28 27 27 26 24 23 22 21 20 21 23 25 25 26 28 30 32 34 35 35 34 33 33 34 34 34 34 34 34 33 32 32 32 32 32 31 31 31 31 31 31 31 30 30 29
32 32 32 30 28 26 26 27 29 30 30 30 30 29 28 28 29 29 29 28 27 27 25 25 24 23 20 18 18 19 19 20 24 28 30 31 32 32 33 33 34 36 36 35 34 35 35 34 33 32 32 32 33 32 31 31 31 31 31 31 31 31 30
33 32 31 31 29 27 26 26 27 29 30 30 29 29 29 30 30 30 29 29 29 28 26 26 26 25 25 23 20 19 17 17 19 22 25 28 28 28 29 30 31 33 35 35 35 35 35 34 34 34 34 35 35 34 33 31 30 30 30 30 31 31 31
33 32 31 30 30 29 28 27 26 27 29 30 30 30 30 30 31 31 30 30 29 28 27 27 27 26 27 27 26 25 24 21 20 18 18 20 24 26 27 28 30 31 33 34 34 34 34 34 34 35 35 35 36 35 34 32 30 30 31 31 32 32 32
34 33 32 32 31 31 31 30 29 28 28 29 30 30 31 31 31 31 31 31 30 30 29 28 28 27 27 28 29 29 29 27 25 23 20 18 19 23 25 27 29 31 31 32 33 34 35 35 35 35 36 36 36 35 34 32 32 32 33 33 33 33 33
38 37 36 35 35 34 34 34 33 31 30 30 30 30 31 32 32 32 32 32 31 31 30 29 29 29 29 29 29 30 30 29 28 27 25 23 23 24 24 24 25 26 26 27 29 32 34 35 35 34 35 36 37 35 34 34 34 35 35 34 33 34 34
42 40 40 40 39 38 37 37 37 35 33 32 31 31 31 31 31 32 33 33 33 32 32 31 30 30 30 30 29 30 30 31 30 29 28 28 27 27 27 26 25 23 22 22 24 25 26 29 32 33 34 35 37 36 34 34 36 36 36 36 35 35 35
42 41 40 40 41 41 40 39 39 38 37 35 34 34 33 32 31 32 32 33 33 34 34 33 32 32 32 32 31 31 31 32 32 31 30 30 31 30 30 30 29 27 24 23 23 22 21 21 24 29 32 34 35 35 34 35 36 37 38 38 38 38 37
42 43 42 40 40 41 41 41 40 40 40 39 38 37 36 35 34 34 33 33 34 34 35 35 35 34 34 33 33 33 33 33 33 33 32 33 33 32 32 32 33 33 32 29 27 25 24 22 22 24 27 29 30 32 32 32 33 34 35 37 39 40 41
43 45 47 46 45 44 44 43 43 43 43 43 42 41 41 40 39 38 37 36 36 36 36 36 36 36 36 35 35 35 35 35 35 35 34 35 35 34 33 33 34 35 36 36 34 31 29 28 27 27 27 27 27 28 29 28 29 29 30 32 34 36 37
43 45 46 48 49 49 49 48 48 47 46 45 45 45 45 44 44 43 42 41 40 39 39 39 38 38 37 37 37 37 37 37 37 36 36 36 36 36 36 35 35 35 36 38 39 37 35 33 32 32 32 31 30 30 29 29 29 29 29 30 30 30 30
46 46 46 46 47 48 49 49 49 49 48 47 47 47 46 46 46 46 45 44 43 43 42 42 41 41 40 40 39 39 39 39 39 39 39 38 38 37 37 37 37 37 37 38 39 39 38 38 37 37 36 36 34 33 33 32 32 32 31 31 31 31 30
48 47 47 47 47 47 47 48 48 49 49 48 48 48 48 47 47 47 47 47 46 45 44 44 44 43 43 42 42 42 42 41 41 41 41 40 40 40 39 39 39 39 39 39 39 39 40 39 40 40 40 40 39 38 37 36 36 36 35 34 34 34 33
45 45 45 46 47 47 47 47 48 48 49 49 50 50 49 49 49 49 49 48 48 47 46 45 45 45 45 45 45 44 44 44 43 43 42 42 42 42 42 42 42 41 41 41 41 41 41 41 41 41 41 42 42 42 41 41 40 40 39 38 38 37 36
41 43 44 44 45 46 47 47 47 48 49 50 51 51 51 51 51 50 50 49 49 48 47 47 47 47 47 47 47 46 46 46 45 45 45 44 44 44 44 44 44 44 44 44 44 43 43 43 43 43 42 42 43 44 44 45 45 45 44 43 42 42 40
40 43 45 46 46 46 47 47 47 47 48 49 50 51 52 52 52 52 51 51 51 50 49 49 49 49 49 49 49 48 48 48 48 48 47 47 46 46 46 46 46 46 46 46 46 46 46 46 45 45 45 44 44 45 45 46 46 47 46 46 45 45 44
40 42 44 46 47 47 48 48 49 49 49 49 50 50 51 51 52 52 52 52 52 52 52 51 51 51 50 50 50 50 50 50 50 50 50 50 49 49 49 49 49 48 48 49 48 48 48 48 48 47 47 47 46 46 46 47 47 47 47 47 47 47 46
42 43 43 44 44 46 48 49 51 51 51 51 51 51 51 51 51 51 52 52 53 53 53 52 52 52 52 51 51 51 51 51 51 52 52 52 52 51 51 51 51 51 50 51 51 50 50 50 50 49 49 49 48 48 48 48 48 49 49 49 48 48 48

ECMWFFLT1_500_spd_096.txt.gz
Wind_Speed
17 21 29 31 28 26 24 21 19 19 18 17 17 17 17 16 15 14 15 16 17 17 17 18 18 18 18 17 16 15 16 16 16 16 15 14 14 13 13 13 13 13 14 14 14 14 14 14 13 13 13 13 13 12 11 10 10 9 8 7 7 8 8
14 17 24 29 28 27 25 22 19 18 18 18 18 18 17 17 16 15 15 16 18 18 18 19 20 20 19 19 18 17 16 17 17 16 16 16 15 14 14 13 13 14 15 14 14 14 14 14 14 13 13 13 13 12 12 11 11 10 9 8 7 7 7
15 17 20 25 28 27 25 23 20 19 20 21 20 19 18 17 17 16 15 16 17 19 19 20 20 21 20 20 19 18 17 17 17 17 17 17 16 15 14 14 13 14 15 15 14 14 14 14 14 14 14 13 13 13 12 12 11 11 10 9 8 8 8
16 18 20 23 26 27 26 25 24 22 22 23 22 21 20 19 18 17 16 15 16 18 20 20 21 21 21 21 20 20 19 18 19 19 18 17 16 16 15 15 14 14 14 14 14 15 15 15 15 14 14 14 13 13 13 12 11 11 11 10 9 9 8
15 17 20 22 24 25 25 26 27 25 23 23 23 21 20 20 19 18 17 15 15 16 17 18 19 19 20 21 21 21 20 19 19 19 19 18 17 17 16 15 15 14 14 14 15 15 15 15 16 15 15 15 14 13 13 12 11 11 11 11 10 10 9
14 15 16 19 21 22 23 25 28 28 26 24 23 22 21 21 20 18 17 15 14 13 14 15 16 17 18 20 21 21 21 20 20 19 19 19 18 18 17 16 15 14 14 14 15 15 14 15 15 16 16 16 15 15 14 13 12 12 11 11 11 11 11
16 16 16 17 18 20 22 24 26 28 28 26 23 23 22 21 20 19 17 16 14 13 13 13 14 16 17 19 20 21 21 21 20 20 20 19 19 19 19 18 17 15 15 15 16 15 14 14 15 15 16 16 16 16 15 14 13 13 12 12 11 11 11
18 18 18 18 18 18 21 23 23 24 27 26 23 22 23 22 21 20 18 18 17 16 15 14 15 16 18 20 20 21 22 22 21 20 20 20 20 20 20 19 18 17 16 16 16 15 14 14 14 15 15 16 17 16 16 15 14 14 13 12 12 12 12
20 20 21 20 19 19 19 20 22 23 25 26 25 25 24 24 23 21 21 21 20 19 18 18 17 18 19 20 20 21 22 23 22 21 20 20 21 21 21 20 19 18 17 16 15 15 14 14 14 15 15 16 16 16 16 15 15 14 14 13 13 12 12
23 23 23 23 22 20 18 19 21 22 24 26 28 27 27 26 25 24 23 23 21 21 21 21 20 19 19 20 20 21 21 23 23 23 22 22 22 22 22 21 20 19 18 16 15 15 14 14 14 14 15 15 16 16 16 16 15 15 15 14 14 13 13
24 25 26 25 24 22 20 20 20 21 23 24 25 26 27 27 27 27 26 25 24 25 24 23 22 20 19 20 21 21 21 23 24 25 24 24 24 23 23 22 21 20 19 17 17 16 15 15 15 15 15 16 16 16 17 17 17 16 16 16 15 15 14
23 25 26 26 25 24 23 22 20 20 21 22 22 24 25 26 28 29 29 29 29 28 26 25 24 22 20 20 21 21 22 23 25 26 27 27 26 25 24 23 23 22 21 20 19 18 17 17 17 17 17 16 16 16 17 18 18 18 18 18 17 17 16
24 25 26 26 26 24 24 24 22 20 20 20 21 22 24 25 27 30 32 33 32 30 28 28 28 26 24 23 23 23 24 25 26 27 28 29 29 28 26 25 24 24 23 23 22 20 20 19 19 19 19 18 18 18 18 18 19 19 19 19 19 18 17
27 28 29 29 27 25 24 25 24 22 21 20 20 20 22 24 26 28 30 32 33 32 32 33 31 29 28 28 27 26 26 27 28 28 29 30 30 29 28 26 25 25 25 24 23 23 22 22 22 21 20 20 20 19 19 19 19 19 20 20 19 19 18
29 30 31 32 31 29 27 26 25 24 23 21 19 19 21 22 25 27 29 31 33 34 34 34 33 31 31 31 30 29 29 30 29 29 29 30 31 31 30 28 26 25 25 24 24 24 24 24 24 23 22 22 22 21 20 20 20 20 20 20 20 19 19
28 27 29 32 33 32 30 29 27 25 24 22 21 20 21 21 23 26 28 30 31 32 33 33 33 32 32 32 33 32 31 31 31 30 29 30 31 31 31 30 29 27 26 26 25 25 25 25 25 25 24 24 24 23 23 22 22 22 21 20 20 20 20
25 23 24 28 31 31 30 30 28 26 24 23 22 21 21 21 23 24 24 25 28 30 32 33 33 32 31 33 35 36 34 35 35 33 32 31 31 31 32 32 31 30 29 28 28 27 27 27 27 27 27 26 26 25 25 25 25 24 23 22 21 21 21
27 25 23 24 28 29 30 29 28 27 26 24 23 23 22 23 24 22 20 21 24 26 27 29 29 28 29 31 33 36 38 39 38 36 35 33 32 32 32 32 32 32 32 31 30 30 30 29 29 28 28 28 28 27 27 27 27 27 26 25 24 23 22
30 29 26 25 26 27 28 28 27 27 27 26 26 26 26 26 26 23 21 22 24 25 25 25 25 25 26 27 28 30 33 35 37 38 37 35 34 33 32 32 33 33 34 34 33 32 31 31 30 29 29 28 29 28 28 29 29 28 28 27 26 25 24
32 30 28 26 26 26 27 26 26 25 25 26 27 27 29 29 28 24 22 24 26 26 25 25 25 25 25 25 25 25 26 28 30 35 38 38 36 34 33 33 33 33 33 33 32 32 32 31 30 30 29 29 29 29 30 30 31 30 30 29 29 28 26
33 31 29 28 27 26 26 26 25 25 25 25 26 26 29 31 30 27 25 26 26 24 24 24 25 24 23 23 24 24 23 23 23 26 32 36 36 35 34 34 34 32 30 30 31 31 32 32 32 31 30 29 29 30 30 31 32 32 32 32 31 30 28
36 33 31 30 29 28 27 26 25 25 25 26 26 27 29 31 31 30 29 29 27 25 24 23 22 22 21 21 22 22 21 21 21 22 25 29 32 33 34 36 36 33 31 32 33 33 32 33 34 34 32 31 31 31 31 32 32 33 33 33 32 31 31
39 37 34 32 31 30 29 28 26 25 25 26 27 28 29 30 31 30 31 31 29 27 26 23 21 22 23 22 21 20 18 17 19 21 22 24 26 29 32 35 36 35 35 35 35 34 33 34 34 35 35 34 33 33 32 32 32 33 33 33 33 33 33
42 40 38 35 34 32 30 29 28 27 26 26 26 28 29 30 31 31 31 32 31 30 29 26 23 22 23 24 24 23 21 19 17 17 18 19 20 23 26 30 33 34 35 35 35 35 35 35 35 35 35 35 35 34 33 33 33 33 34 34 34 34 33
43 42 40 38 37 35 34 31 30 29 28 27 27 28 29 30 31 32 32 32 32 31 31 30 28 25 23 23 23 23 24 24 22 20 19 18 16 16 18 22 28 32 33 33 34 34 35 35 35 35 35 35 35 35 34 34 34 35 35 35 35 34 33
42 41 41 40 39 38 37 36 34 31 30 30 29 29 29 30 31 32 32 33 33 33 31 31 32 30 28 26 25 23 24 25 25 25 25 23 21 18 16 17 21 26 27 29 30 31 32 33 34 34 34 34 34 35 36 36 37 37 37 36 35 34 34
41 40 40 40 40 40 40 39 38 35 33 32 31 30 31 31 31 31 32 33 34 34 33 32 33 33 31 29 28 26 25 26 27 27 27 27 27 25 23 20 20 20 20 21 23 24 25 28 29 30 31 33 35 37 37 38 39 40 40 38 36 35 35
42 41 40 40 40 40 40 40 40 38 36 34 32 32 32 32 33 32 32 32 33 33 34 33 33 34 34 32 31 29 27 27 28 27 27 28 28 27 27 27 25 22 20 20 19 19 21 22 22 23 25 30 34 37 39 40 41 41 41 40 39 37 37
42 42 43 42 42 41 41 41 41 40 38 35 34 34 34 34 35 35 34 34 33 33 33 33 33 33 34 34 33 32 30 29 29 27 27 28 29 28 28 28 28 26 24 24 23 24 25 24 22 21 22 24 27 31 35 37 39 41 42 42 41 39 38
41 41 42 43 44 44 44 44 43 43 42 40 38 37 37 37 37 37 37 37 36 35 34 33 33 33 33 34 34 33 32 31 31 30 29 29 30 30 29 29 29 28 28 27 27 27 28 28 27 26 24 23 24 26 29 30 30 33 37 40 41 40 39
43 42 41 41 42 43 45 46 46 46 46 45 44 42 41 40 40 40 40 39 39 38 37 36 35 34 34 34 34 34 33 32 32 31 31 31 31 32 31 31 31 31 31 30 29 29 29 29 30 31 30 28 27 27 28 27 27 27 29 32 34 36 37
46 46 45 44 42 41 41 43 45 47 47 48 47 46 45 44 43 43 43 42 42 41 41 40 39 38 37 36 36 35 34 34 33 33 32 32 32 33 33 33 32 33 33 33 32 31 30 30 31 33 34 34 33 31 30 29 30 29 29 29 30 30 31
47 48 48 47 46 44 42 41 42 44 46 47 48 48 47 46 45 45 45 45 45 44 44 43 43 42 41 40 39 38 37 37 36 36 35 35 35 35 35 35 35 35 35 35 34 33 32 32 32 33 33 35 36 36 35 34 33 32 31 32 32 32 31
48 49 49 48 48 48 47 45 44 44 45 46 47 48 49 48 47 46 46 46 47 47 47 47 47 46 46 45 44 43 42 41 41 40 39 38 38 38 38 38 38 38 37 37 37 36 35 34 34 34 35 35 35 35 36 36 36 36 35 34 34 34 34
48 49 50 48 47 47 48 48 48 48 47 46 46 47 49 50 51 50 50 50 50 50 49 49 49 49 49 48 48 47 46 46 45 45 44 43 42 41 41 40 41 41 40 40 40 39 39 38 37 36 36 37 37 37 37 36 37 38 38 38 37 37 37
46 47 48 47 45 45 46 48 49 50 50 50 49 48 48 49 50 51 51 51 52 52 52 51 51 50 50 49 49 48 48 47 47 47 46 46 46 45 44 44 43 43 43 42 42 42 42 42 41 40 39 39 39 39 39 39 39 39 39 40 40 40 40
44 45 45 44 43 42 44 46 48 49 50 51 52 51 51 50 50 49 50 50 51 52 52 53 53 52 52 51 50 49 49 48 48 48 48 48 48 48 47 46 46 45 45 45 45 44 44 44 44 43 43 42 41 41 42 42 42 42 41 41 42 42 42
45 45 44 44 43 43 44 45 46 47 49 50 51 51 52 51 51 50 50 51 51 52 52 53 54 54 54 53 53 52 51 50 50 49 49 49 50 50 49 49 48 48 47 47 47 47 47 47 46 46 46 45 45 44 44 44 44 45 45 45 44 44 44

ECMWFFLT1_500_spd_099.txt.gz
Wind_Speed
22 24 25 24 23 22 21 21 21 21 20 19 19 20 20 20 20 20 20 20 20 20 19 19 19 19 19 17 16 16 15 15 14 14 13 13 12 12 11 11 11 11 12 12 12 12 12 12 12 12 12 12 12 11 10 9 9 9 9 10 10 10 10
16 20 23 25 24 23 23 23 23 22 22 21 20 20 20 20 21 21 21 21 20 20 20 19 19 19 19 18 17 16 16 15 15 15 14 14 13 13 12 11 11 11 12 12 12 12 12 12 12 12 13 13 13 12 11 10 10 10 9 9 10 10 10
16 17 20 23 26 27 26 25 25 24 24 23 21 21 21 20 21 21 22 22 21 20 20 20 20 20 20 19 19 18 17 16 16 16 16 15 15 14 13 12 12 12 12 12 12 12 13 13 13 13 13 13 13 12 12 11 11 10 9 9 9 10 10
18 19 19 20 27 34 32 27 27 26 24 24 23 23 22 21 20 20 20 21 21 21 21 21 21 21 20 20 20 19 18 18 17 17 17 16 16 15 14 14 13 13 12 12 12 13 13 13 13 13 14 14 13 13 12 12 11 10 9 9 9 9 9
17 17 17 17 23 33 35 29 27 27 25 24 24 24 23 22 20 19 18 19 20 22 22 21 21 20 20 20 21 21 20 19 18 18 17 17 17 16 15 15 14 13 12 12 13 13 13 13 14 14 14 14 14 13 12 12 11 10 10 9 9 8 8
16 14 16 17 18 25 33 33 28 27 26 25 26 25 24 22 20 19 18 17 18 20 21 22 21 21 21 21 22 22 21 20 19 19 19 18 18 18 16 16 15 14 13 13 13 14 13 13 14 14 14 15 14 13 13 12 11 10 10 9 9 9 9
16 15 16 19 17 18 26 35 33 29 28 27 26 26 24 22 22 21 19 18 17 17 18 21 22 22 22 22 22 23 24 23 22 21 20 19 19 19 18 17 16 15 14 14 14 14 13 13 13 14 15 15 15 14 14 13 12 11 10 10 9 9 9
18 18 17 18 17 15 19 29 33 33 31 29 27 26 24 22 22 21 20 19 17 16 17 18 20 22 23 22 23 24 25 25 24 23 22 21 21 20 19 19 18 17 16 15 14 14 14 13 14 14 14 15 15 15 14 14 13 12 12 11 10 10 10
18 18 17 16 16 15 16 20 26 29 29 28 28 27 25 24 23 22 21 20 19 18 18 18 18 20 21 22 23 24 25 26 25 24 24 23 23 22 21 21 20 19 18 17 16 15 15 15 15 15 15 15 15 15 15 15 14 14 13 12 11 11 10
17 17 17 16 15 16 16 17 19 21 22 23 25 28 28 26 24 23 22 21 21 20 20 18 17 17 18 20 22 23 24 24 25 25 25 25 25 24 24 23 22 21 20 19 18 17 16 16 16 16 16 15 16 16 16 15 15 15 14 13 12 12 11
17 16 18 18 17 16 16 15 16 16 17 18 21 25 28 28 26 25 24 23 22 21 20 20 19 18 18 19 20 21 22 23 24 25 26 27 27 26 25 25 24 23 22 21 21 20 18 18 18 18 17 17 17 17 16 16 16 16 15 14 13 13 12
17 16 17 19 19 18 17 16 15 16 16 17 18 21 25 27 27 27 26 25 23 22 22 22 22 22 21 20 20 21 21 22 23 24 26 27 28 27 26 25 25 25 25 24 24 23 21 20 20 20 19 18 18 17 17 17 16 16 16 15 14 13 13
17 16 16 16 17 17 17 17 16 16 16 17 17 19 22 25 27 27 27 26 25 24 24 25 25 25 24 22 22 21 21 21 22 23 25 26 27 27 26 25 25 26 26 26 26 25 24 24 23 22 21 20 19 18 18 17 17 16 16 16 15 14 14
19 18 17 16 16 17 17 18 17 17 17 17 18 18 20 22 25 26 27 28 28 28 29 29 28 28 26 26 25 24 23 22 22 23 24 25 27 28 28 27 26 26 26 27 27 27 27 26 26 25 23 21 21 20 19 19 18 17 17 17 16 15 14
21 21 20 20 19 19 19 20 19 18 18 19 20 19 19 21 23 25 27 28 30 31 33 33 32 31 30 29 29 28 26 26 25 25 26 26 27 28 29 30 29 28 27 27 27 28 28 28 27 26 25 23 22 21 20 20 20 19 19 18 17 16 15
24 23 23 23 23 22 22 22 22 21 20 20 21 22 22 22 23 24 26 27 29 31 33 34 33 34 34 32 32 32 31 30 29 28 28 28 28 28 29 31 31 30 28 27 27 27 27 27 27 27 25 24 23 22 22 22 21 21 20 20 19 18 17
27 26 26 25 24 24 24 24 24 24 24 23 23 23 23 24 25 25 25 26 27 29 31 32 32 34 36 35 34 35 35 34 33 31 30 29 29 30 30 30 31 31 30 28 27 27 27 27 27 27 26 25 24 23 23 23 23 23 22 21 21 21 20
30 30 29 27 25 23 23 24 25 26 26 26 25 25 25 27 27 26 26 26 26 27 29 30 31 33 36 38 38 38 37 35 33 33 32 30 30 31 32 31 31 31 31 31 30 29 29 28 28 27 26 26 25 25 25 25 25 24 24 23 23 22 22
32 32 30 28 25 22 21 22 24 26 27 28 28 28 28 29 29 28 26 25 25 25 24 25 28 31 33 36 38 38 36 35 34 34 34 33 33 34 34 33 32 32 33 34 33 32 31 31 31 29 28 28 27 27 27 27 27 26 25 25 25 25 24
32 32 30 28 25 24 23 22 22 24 27 29 30 30 30 31 30 29 27 25 25 24 22 21 23 25 26 28 31 33 33 34 34 34 33 33 35 37 36 35 34 34 35 35 35 35 34 34 33 32 31 30 30 30 30 29 29 28 27 27 27 26 26
32 31 30 29 26 26 26 25 24 25 27 29 30 30 30 31 31 30 29 27 26 26 24 22 22 22 22 23 24 26 28 29 30 30 28 29 31 33 35 37 38 37 36 36 38 38 37 36 34 33 33 33 32 32 31 30 30 30 29 29 29 28 28
34 33 32 30 28 27 27 27 27 27 28 29 30 30 30 29 29 29 29 28 27 26 26 25 23 23 23 24 23 25 26 25 26 26 25 25 25 26 30 36 40 40 38 36 38 39 38 37 37 35 34 33 32 32 32 31 31 31 31 31 30 30 29
37 36 35 33 30 28 27 27 27 28 29 30 31 31 31 30 29 29 29 28 27 26 27 27 26 24 24 24 22 23 24 25 25 24 23 23 22 23 26 31 36 40 40 38 38 38 37 37 38 37 36 35 35 34 33 32 32 32 32 32 31 31 30
39 38 37 35 32 30 28 28 28 29 30 31 32 32 32 32 31 30 29 29 28 27 27 28 28 26 26 25 22 21 21 22 23 21 20 20 20 22 24 26 29 34 38 39 39 38 37 36 37 38 39 39 38 36 34 34 33 33 33 33 32 31 30
39 37 36 35 34 32 31 30 30 30 31 31 33 33 33 32 31 30 30 31 30 29 28 28 29 28 28 28 27 25 23 22 22 21 18 17 16 17 20 22 23 26 30 34 38 39 38 37 37 39 40 39 38 37 36 36 35 35 35 34 33 32 32
36 35 35 35 35 35 34 34 33 34 33 33 33 34 34 33 31 30 31 31 31 30 29 29 29 29 28 29 29 30 28 25 24 23 21 20 18 16 16 17 17 17 20 24 29 34 38 38 38 38 37 37 37 37 37 38 38 37 37 35 33 33 34
35 35 35 36 36 36 37 37 36 36 36 36 35 35 35 35 34 33 32 31 31 30 30 29 29 29 29 29 30 31 31 30 29 27 25 24 24 21 19 18 15 15 17 17 17 21 29 35 37 37 37 37 38 37 37 39 40 39 38 37 35 35 36
37 37 37 37 37 37 37 37 37 37 38 38 38 38 37 36 36 35 34 33 32 31 30 30 30 30 29 29 30 31 31 31 32 31 28 27 26 26 25 25 22 21 22 21 17 16 20 25 30 33 34 35 37 37 37 39 40 38 38 38 37 36 36
37 38 38 38 38 38 38 37 37 38 38 38 38 39 39 38 38 38 37 37 35 34 32 31 31 31 30 30 31 32 31 30 31 31 29 28 28 29 28 28 27 26 26 27 24 20 19 18 19 22 25 27 29 31 32 34 36 36 37 38 38 38 38
38 38 37 38 38 38 38 38 38 38 38 38 38 39 40 39 39 39 40 39 39 37 35 34 32 31 31 31 32 32 32 31 31 31 30 29 29 30 29 28 27 27 26 27 26 24 22 21 19 18 19 20 21 22 24 25 27 29 31 34 36 37 38
40 39 39 39 39 40 41 41 41 40 40 40 40 40 41 41 41 41 40 40 41 40 39 37 35 34 32 32 32 33 33 32 32 32 32 31 31 31 30 28 27 26 26 27 28 27 26 26 25 24 23 22 22 22 23 24 23 23 22 23 26 29 30
41 41 40 40 41 42 43 43 43 43 43 43 43 43 43 43 43 43 42 41 41 41 40 39 38 37 35 34 34 34 33 33 32 32 32 33 33 33 33 31 30 29 29 29 30 29 28 28 28 28 28 27 27 27 26 26 26 25 23 22 25 27 25
41 42 42 42 42 43 43 44 45 45 45 45 45 46 46 46 46 46 45 44 42 41 41 40 40 39 38 37 37 36 36 35 34 33 32 32 33 33 33 33 33 32 31 31 31 30 30 29 29 29 30 29 29 29 29 29 29 30 29 29 30 30 28
44 44 44 44 44 44 44 45 46 46 46 45 45 45 46 47 48 49 49 48 47 45 43 42 42 41 41 40 40 40 39 39 38 37 35 34 34 34 34 34 34 33 32 32 32 31 31 30 31 31 32 32 32 32 32 33 32 31 31 31 31 32 31
46 47 47 48 48 47 47 46 46 47 47 47 46 45 44 45 46 48 49 50 50 49 47 45 44 44 44 43 43 43 42 42 41 40 39 38 37 37 36 36 36 35 35 34 34 34 33 33 33 34 34 35 35 34 34 34 33 33 32 30 30 31 32
44 45 47 48 49 49 49 48 47 47 47 48 48 47 46 45 45 46 46 47 49 50 50 49 47 46 45 45 45 45 45 45 45 44 43 42 41 40 40 40 39 39 38 38 38 38 37 37 37 37 37 37 37 37 36 35 35 34 34 34 33 33 33
42 43 44 46 47 48 48 47 47 47 47 48 48 47 47 47 47 47 47 47 47 48 49 50 50 49 48 47 47 47 47 47 47 47 47 46 45 45 44 44 44 43 43 43 43 42 42 42 41 41 40 40 40 40 40 39 38 37 37 37 37 37 37
43 43 43 45 46 47 47 46 46 46 47 48 49 49 48 48 48 49 50 50 50 50 49 50 50 51 51 50 50 50 50 49 49 49 49 49 49 48 48 48 48 48 48 47 47 47 46 46 46 45 45 44 43 43 42 42 42 41 41 41 41 41 41

ECMWFFLT1_500_spd_102.txt.gz
Wind_Speed
21 30 31 27 26 25 23 22 22 22 22 21 22 23 22 22 22 23 23 23 22 21 21 22 21 21 20 19 18 18 18 17 17 17 17 16 15 14 12 11 10 9 9 9 8 8 8 8 8 8 8 7 7 6 5 5 5 5 6 6 6 7 7
16 27 31 28 26 25 24 23 23 23 23 23 23 23 23 23 22 23 24 24 23 22 22 22 22 22 21 20 19 19 18 18 18 18 18 17 16 14 13 12 11 10 10 10 9 9 9 9 9 10 10 9 8 7 6 6 6 5 5 6 6 7 7
12 19 26 27 27 26 24 23 22 23 23 23 24 23 23 24 24 24 24 24 24 23 22 23 23 22 22 21 20 19 18 18 19 18 17 17 16 15 14 13 12 11 11 10 9 9 10 10 10 10 11 10 10 9 8 8 7 6 6 6 6 7 7
13 14 17 22 26 26 24 24 23 23 24 24 24 24 24 24 24 24 24 24 24 24 23 23 23 22 22 22 21 19 19 19 18 18 17 17 16 15 15 14 13 12 12 11 11 11 10 10 10 11 11 11 11 10 10 10 9 8 7 7 7 7 7
15 16 15 16 20 22 24 25 25 24 25 26 25 25 25 25 24 24 23 23 23 23 23 22 22 22 22 22 22 21 20 19 18 18 18 17 17 16 15 14 14 13 13 12 12 12 11 11 11 11 11 12 12 12 11 11 10 9 9 8 8 7 7
17 17 17 17 19 20 21 24 26 27 27 27 27 26 26 25 24 23 23 23 22 22 22 22 22 23 23 23 23 22 21 20 19 19 19 18 18 17 16 15 14 14 14 14 13 13 13 12 11 12 12 13 13 13 12 12 11 10 10 10 9 9 8
18 18 19 19 20 19 19 20 23 27 29 29 28 28 26 26 25 24 23 22 21 20 21 21 22 23 23 23 23 23 22 21 20 20 19 19 19 18 17 16 16 15 15 15 14 14 13 13 12 13 13 13 14 14 14 13 12 11 11 11 10 10 9
18 19 19 19 19 19 20 20 21 25 28 29 30 29 28 27 27 26 25 23 21 20 19 20 21 22 22 23 23 23 22 22 21 20 20 20 20 19 19 18 17 17 16 16 15 15 14 14 13 13 13 13 14 15 15 14 14 13 12 12 11 11 10
17 18 18 18 18 18 19 20 21 24 28 32 33 32 31 29 28 27 26 25 23 21 21 20 20 21 21 22 22 22 22 22 21 21 21 21 21 21 21 20 19 19 18 18 17 16 16 15 15 15 14 14 14 15 16 15 15 14 14 13 12 11 11
16 17 17 16 16 17 17 18 18 20 28 37 36 32 32 31 30 29 27 26 24 22 22 21 20 20 21 22 23 23 22 22 22 22 22 22 23 22 22 22 21 20 20 19 18 18 17 16 16 16 16 15 15 16 16 16 15 15 15 14 13 12 12
16 17 18 17 16 15 14 15 13 13 20 31 34 31 30 31 31 30 29 28 26 24 23 22 20 19 20 21 22 22 23 23 23 23 23 24 24 24 23 23 22 22 21 20 20 19 18 18 17 18 17 17 16 16 16 16 16 16 15 15 14 13 12
17 16 17 17 17 15 13 13 12 10 12 18 24 26 26 27 29 31 31 30 28 26 25 22 21 20 19 20 20 21 22 22 23 23 24 24 25 25 25 24 23 23 22 21 21 20 20 19 19 19 18 18 17 17 17 17 16 16 16 15 14 14 13
17 17 16 16 16 15 14 13 12 12 11 12 14 15 16 17 22 28 33 33 30 27 26 24 23 22 20 19 19 18 19 20 21 23 23 24 26 26 26 26 25 25 24 23 22 21 21 21 20 20 19 19 19 18 18 18 18 17 17 16 15 15 14
19 17 17 16 15 14 13 12 12 12 12 12 11 11 11 13 15 21 28 33 31 29 27 25 24 23 21 21 20 19 19 19 20 21 22 24 25 26 27 27 27 27 26 25 24 23 23 22 22 22 21 21 20 20 20 20 19 19 18 18 17 16 16
22 19 18 17 16 15 13 12 12 12 13 13 13 12 12 13 14 15 19 26 29 30 29 28 26 25 23 22 22 22 22 22 22 23 23 24 25 25 26 27 28 29 28 27 26 26 25 24 24 23 23 23 22 22 21 21 21 21 20 19 19 18 17
25 22 20 19 18 17 16 14 14 14 14 15 16 16 15 14 15 15 16 19 22 25 26 27 27 27 27 26 25 25 25 25 25 25 24 24 24 25 25 26 28 29 29 29 29 28 27 27 26 26 25 25 24 23 23 23 23 23 22 21 21 20 19
27 25 22 21 19 19 18 18 17 17 17 17 18 19 18 17 17 18 19 19 19 19 20 22 24 26 28 29 29 29 28 28 28 27 27 27 27 26 25 26 26 28 29 30 30 30 30 29 29 28 28 27 27 26 25 25 25 25 24 24 23 22 21
27 26 24 22 21 21 21 21 20 19 19 19 20 21 21 20 20 20 21 21 20 17 17 19 21 22 24 27 28 30 31 32 32 31 31 31 31 30 29 28 27 27 28 29 30 32 32 31 31 30 30 30 30 29 27 27 27 27 26 25 24 23 23
25 25 24 23 23 24 24 23 21 20 20 20 21 23 23 23 22 22 22 23 21 18 18 19 20 20 22 25 27 30 31 33 34 35 35 36 35 34 32 31 31 30 30 30 31 33 34 33 33 32 32 32 31 31 30 29 28 28 27 26 26 25 24
26 26 25 25 26 26 26 25 23 21 20 20 21 23 25 25 25 24 24 24 23 21 21 21 21 21 22 24 26 29 31 33 34 36 38 38 38 37 35 34 34 33 33 33 32 32 33 34 34 34 34 33 32 32 31 29 29 30 29 28 27 26 26
29 29 28 28 28 28 27 27 25 23 22 21 21 22 25 27 27 27 26 25 25 24 23 23 23 23 23 24 24 25 26 30 32 34 37 39 39 39 38 36 35 34 35 36 35 34 34 34 35 35 35 35 34 34 32 31 31 31 31 30 29 28 27
34 34 33 32 31 30 29 29 26 24 24 24 23 23 24 26 28 28 28 27 27 27 26 25 25 25 25 25 25 23 22 24 27 29 32 35 38 39 38 36 35 35 37 38 37 38 37 36 36 36 36 37 38 37 34 33 33 32 31 31 31 30 29
38 38 37 36 34 32 31 31 29 26 25 26 27 25 24 25 26 27 27 27 28 28 28 27 27 27 28 28 27 25 23 23 24 25 26 28 30 33 34 33 33 33 36 37 38 40 42 40 39 38 37 37 38 38 36 35 34 33 33 33 32 32 32
42 42 40 39 37 35 34 33 31 28 27 27 29 28 27 26 26 27 27 27 28 28 28 27 28 28 29 30 29 28 25 23 21 22 24 24 26 27 28 29 29 30 32 34 35 39 42 42 40 38 36 35 35 36 37 37 36 35 34 34 34 34 33
44 44 43 41 39 37 36 35 34 32 29 29 29 30 29 28 27 28 28 28 28 28 28 28 28 28 29 29 30 29 27 26 24 22 22 22 22 24 25 26 27 28 30 31 31 33 37 40 40 38 36 36 36 37 39 40 39 38 37 36 35 35 34
43 43 42 39 38 37 36 36 35 34 32 30 30 30 30 29 29 29 29 29 29 29 29 28 29 30 29 29 30 29 29 30 29 28 25 22 21 22 22 22 23 23 24 25 26 27 30 34 36 37 40 41 40 40 43 43 41 40 39 38 38 37 36
41 40 39 37 36 35 35 34 34 33 32 31 30 31 31 31 31 30 29 30 30 30 29 28 29 29 30 30 30 30 29 29 30 30 29 26 25 24 23 21 20 19 18 19 20 22 23 25 27 31 38 43 42 42 43 44 42 40 40 40 40 39 38
40 40 38 35 34 33 32 32 32 32 32 32 32 32 32 33 33 33 32 31 31 31 30 29 29 29 29 29 30 30 30 29 29 29 29 28 28 29 29 28 25 22 20 18 18 18 18 18 18 19 25 33 38 41 44 44 41 39 39 39 40 41 40
38 38 36 32 32 33 32 32 33 32 33 33 33 33 34 34 34 35 34 34 33 32 32 31 30 30 29 29 29 29 29 29 30 29 29 28 28 30 31 31 31 29 27 25 23 22 21 20 18 17 17 19 23 29 35 40 41 38 37 38 39 40 40
39 38 37 34 34 34 34 34 34 34 34 35 35 35 36 36 35 35 36 36 36 35 34 34 33 32 31 30 30 29 29 29 30 29 28 27 26 27 28 29 31 32 32 29 28 27 28 28 27 27 25 22 18 16 17 23 29 31 32 35 38 40 40
45 45 42 40 38 37 37 37 36 36 36 37 36 36 36 36 36 36 36 36 36 36 36 36 35 34 33 32 32 31 30 30 30 30 29 28 28 27 27 27 29 30 30 29 29 29 29 30 30 29 27 24 21 17 14 15 18 20 21 23 27 32 35
44 46 44 41 40 39 39 38 38 38 38 38 38 37 37 37 36 36 36 37 36 36 36 37 37 36 36 35 34 33 33 32 31 31 31 31 31 30 30 30 30 29 28 28 28 27 28 28 27 27 26 25 24 23 23 22 22 21 19 17 18 20 24
42 44 44 43 42 41 40 40 39 38 38 38 38 38 38 37 37 37 37 37 37 37 37 37 37 37 37 37 36 36 36 35 34 33 32 32 32 32 32 32 32 32 31 30 29 29 29 29 28 29 29 29 28 27 28 28 27 26 23 21 20 21 21
39 40 42 42 41 41 40 40 40 40 40 40 39 39 39 39 39 39 39 39 40 40 39 39 39 39 39 39 39 39 38 38 37 36 35 34 34 33 32 32 33 33 34 34 33 33 32 32 31 31 30 30 29 29 29 30 30 29 27 26 27 28 26
38 39 40 40 40 39 40 40 40 40 40 40 40 40 40 41 41 41 41 41 42 42 43 43 43 43 42 42 41 41 41 40 40 38 37 37 37 36 35 34 33 33 34 34 34 34 35 34 33 33 32 31 30 30 30 31 32 31 30 30 32 32 31
38 38 39 40 41 41 41 41 41 41 41 41 41 41 41 41 42 42 42 42 42 43 44 45 45 46 46 46 45 45 44 44 43 42 41 40 39 39 38 38 37 36 36 36 35 35 36 36 35 34 33 33 32 31 31 32 33 34 33 33 33 33 33
38 38 38 38 40 42 43 42 42 42 43 43 43 43 43 43 43 43 43 43 43 44 45 45 46 46 47 48 48 49 48 48 47 46 46 44 43 42 42 41 41 40 39 39 39 38 38 37 37 37 36 35 35 34 34 34 34 35 35 35 35 35 36
38 39 40 40 40 41 43 43 42 43 44 45 45 45 46 46 46 46 46 46 46 46 46 46 46 47 47 47 48 49 50 50 50 50 49 48 48 47 46 45 45 44 44 43 43 42 41 41 40 40 39 39 38 38 38 38 37 37 38 38 38 38 39

ECMWFFLT1_500_spd_105.txt.gz
Wind_Speed
10 16 26 27 28 29 29 27 25 23 22 22 22 22 23 24 25 24 23 22 21 20 20 20 20 19 19 19 19 18 17 16 15 14 14 13 12 11 10 10 9 9 8 7 6 5 5 5 5 4 4 4 4 3 3 3 3 3 3 4 4 4 4
12 14 18 22 28 31 30 28 26 23 23 23 22 22 22 24 25 25 24 23 22 21 21 21 21 20 19 19 19 18 18 17 16 16 15 14 13 13 12 11 11 10 9 8 7 6 6 5 5 5 5 5 5 5 4 3 3 3 3 3 4 4 5
14 15 15 17 25 32 31 29 26 24 23 23 22 21 21 23 25 25 25 24 23 22 21 21 21 21 20 19 19 18 18 17 17 16 15 14 13 14 13 12 12 11 10 9 8 8 7 6 6 6 6 6 6 6 5 5 4 4 3 4 4 4 5
15 16 17 17 23 31 32 29 26 24 23 22 22 20 20 22 24 25 25 24 23 22 22 22 22 21 21 20 19 18 18 18 18 17 16 15 15 16 14 13 13 12 11 10 9 9 8 7 7 7 7 8 8 8 7 7 6 6 5 5 5 5 5
15 15 17 16 20 29 31 28 26 25 23 23 23 21 22 25 25 24 24 24 23 23 23 22 22 21 21 21 20 20 19 18 18 18 17 17 17 17 16 14 13 13 12 11 10 9 9 8 8 8 9 9 9 9 9 9 8 8 7 6 6 5 5
15 15 15 14 16 23 28 28 27 26 24 24 23 22 24 26 25 24 24 24 23 23 23 22 22 22 22 22 22 21 20 19 19 19 19 18 18 18 17 16 15 14 12 11 11 11 10 9 9 9 9 9 9 10 10 10 10 9 9 8 7 6 6
15 16 16 15 16 19 24 27 28 26 25 25 23 24 25 26 24 24 24 23 23 23 22 22 23 23 23 24 24 23 21 21 20 20 19 19 19 18 18 17 16 15 13 12 13 12 11 11 10 10 10 10 10 10 10 11 10 10 9 9 9 8 8
13 14 15 14 15 17 19 23 24 23 23 24 26 27 28 27 25 23 23 23 23 22 22 22 23 23 23 24 24 24 23 22 22 21 20 20 19 19 19 18 18 17 15 15 15 14 13 12 11 11 11 10 10 10 10 10 10 10 9 10 10 9 9
11 10 12 12 13 15 16 17 18 20 20 21 23 27 30 30 27 25 25 25 23 23 22 23 23 23 22 22 23 23 23 23 22 22 21 20 20 19 19 19 18 18 17 17 16 15 14 14 13 12 12 11 11 11 11 10 11 11 11 11 11 10 10
10 10 10 11 12 13 14 14 15 17 19 18 19 24 30 32 30 28 28 27 25 25 24 23 23 22 21 22 22 23 23 23 23 22 22 22 21 20 19 19 19 18 18 18 17 16 16 15 14 14 14 13 12 11 11 11 11 11 12 12 11 11 11
11 11 11 11 11 11 12 12 12 14 16 17 18 21 26 33 34 32 30 30 28 26 25 24 22 21 20 21 22 23 22 22 22 22 22 22 22 21 20 20 19 19 18 19 18 17 17 16 16 15 15 14 13 13 12 12 12 13 13 13 13 13 13
12 12 11 10 10 11 11 11 11 12 13 15 18 18 21 30 36 34 31 31 29 28 27 25 23 21 20 20 20 21 21 21 21 21 21 22 22 22 21 21 20 19 19 19 19 18 18 18 17 17 16 15 15 14 14 13 13 14 14 14 14 14 14
14 13 12 12 11 11 11 11 11 12 12 13 15 16 16 22 32 34 31 31 30 29 28 27 25 23 22 21 20 19 20 20 20 20 20 21 22 22 21 22 22 21 20 20 19 19 19 19 19 19 18 17 16 16 16 15 15 15 15 16 16 15 15
18 16 15 14 13 12 10 11 12 12 12 12 13 13 12 14 24 29 30 30 30 30 29 29 28 26 24 23 21 20 19 19 19 19 19 21 21 21 22 22 23 23 22 21 20 21 21 21 20 21 20 20 19 18 17 17 16 16 17 18 17 17 17
20 20 19 16 14 12 10 11 13 12 12 11 11 12 9 10 16 21 24 26 27 28 30 31 30 28 26 25 23 21 20 20 19 18 19 20 20 21 22 22 23 23 24 23 23 22 22 22 22 22 22 22 21 20 19 18 17 17 19 20 19 18 18
19 20 20 19 18 15 13 13 14 13 13 12 11 11 11 11 13 16 19 20 20 21 25 32 35 32 28 27 25 23 23 22 21 21 21 20 20 20 21 22 23 23 24 24 24 24 24 24 23 23 23 23 23 23 22 21 20 20 22 21 20 19 19
20 17 17 18 19 18 16 16 17 17 15 14 13 12 12 13 13 14 15 17 17 16 16 23 33 35 31 29 28 26 25 24 24 23 23 23 22 21 21 21 22 23 23 23 24 25 26 26 25 25 25 25 25 24 24 24 24 24 23 23 21 21 21
23 19 16 16 18 19 18 18 19 19 18 17 16 15 14 14 15 15 15 16 16 16 13 14 22 29 30 30 30 30 30 30 29 27 26 25 24 23 23 23 23 22 22 22 23 24 25 26 27 27 27 26 26 26 26 27 27 26 26 25 24 23 22
25 22 20 18 18 20 21 20 20 21 20 20 19 17 15 15 16 16 17 18 18 18 16 14 16 20 23 23 25 27 28 30 32 32 30 29 28 27 26 26 25 24 24 24 24 24 24 25 27 29 29 29 28 28 28 28 28 28 28 28 26 25 25
28 26 25 23 22 21 22 23 23 23 22 21 20 19 17 17 17 18 19 20 21 20 19 18 17 18 18 17 17 19 20 22 26 30 31 30 30 30 30 29 28 28 28 27 26 26 26 27 28 29 30 31 31 32 32 31 30 30 29 30 29 28 27
31 31 30 27 25 24 24 24 24 24 24 23 22 21 20 18 18 19 20 21 22 22 22 21 20 20 19 16 15 17 18 18 20 24 28 29 30 31 31 31 31 32 33 32 31 30 30 30 31 32 31 32 33 33 32 32 33 31 31 32 32 30 30
30 31 31 29 27 26 26 26 26 26 26 25 24 23 23 21 19 19 21 22 23 23 24 24 24 24 23 20 18 18 19 19 18 19 20 23 26 28 30 31 33 35 36 36 34 34 33 33 34 34 32 32 33 32 32 34 34 33 34 35 34 32 31
30 31 31 31 30 29 30 29 29 28 28 27 26 25 24 24 23 22 21 22 24 24 24 25 25 25 25 24 23 22 21 22 22 20 19 19 21 23 26 28 31 33 36 37 36 35 36 35 34 34 32 33 34 34 35 37 37 37 38 38 37 35 33
33 33 33 33 34 34 34 33 32 31 30 29 29 27 25 25 25 25 24 23 23 24 24 25 26 26 25 25 25 24 22 23 24 24 23 21 19 19 21 24 26 28 32 36 36 36 37 36 34 33 33 34 36 39 40 41 40 40 41 41 40 38 35
36 37 37 37 38 38 37 37 36 35 34 33 32 30 28 26 26 26 26 26 24 24 23 24 25 25 26 25 25 24 24 24 25 25 25 23 19 18 19 20 21 23 26 29 31 33 35 34 32 33 33 34 37 42 44 44 45 44 41 41 42 40 36
38 39 39 39 39 39 39 39 38 37 35 34 34 33 31 29 27 27 27 27 26 25 24 24 24 25 25 25 26 26 25 25 25 25 25 25 24 24 23 21 20 20 21 24 26 28 31 32 31 33 34 34 36 42 44 44 46 46 42 40 41 41 39
41 41 41 42 41 40 40 39 39 38 36 35 35 35 34 32 30 29 28 28 28 27 26 25 25 25 25 25 26 27 27 27 26 26 25 25 26 26 26 25 24 23 22 22 21 22 24 27 28 29 31 31 32 36 39 41 44 45 43 41 40 42 41
41 42 42 42 42 41 42 43 42 39 37 36 35 36 36 34 32 30 29 29 29 29 28 27 26 26 25 25 25 26 26 26 27 27 26 26 25 25 26 25 25 26 26 25 23 22 21 22 22 22 22 22 21 22 24 28 34 38 40 41 40 40 40
41 41 42 42 41 41 43 46 45 42 39 37 36 37 37 36 33 31 30 30 30 31 30 30 29 27 26 26 25 25 25 25 25 25 25 25 25 25 25 25 25 26 27 28 28 26 23 22 20 19 19 18 17 16 15 15 17 20 25 32 37 39 40
42 41 42 44 43 42 42 42 43 44 41 38 38 38 36 35 33 32 31 31 31 32 32 32 32 31 29 28 27 26 26 26 25 25 24 24 24 24 24 25 26 26 26 28 28 26 25 25 24 22 22 21 20 19 19 19 19 17 15 18 24 31 37
40 40 41 42 42 43 42 40 41 45 45 40 39 38 34 33 32 32 32 32 32 33 33 33 33 33 33 31 30 29 28 28 27 27 26 25 25 25 24 24 25 24 25 27 27 26 26 28 28 28 29 30 29 28 27 27 26 24 19 16 17 20 24
40 40 40 41 42 43 43 41 40 44 46 42 38 36 35 33 33 33 33 34 34 34 34 34 34 34 34 34 33 32 31 30 30 29 29 28 27 26 26 25 25 24 25 26 26 25 26 27 28 27 29 30 30 29 27 25 23 23 23 23 23 21 17
38 38 38 38 40 42 44 43 40 40 42 40 38 38 37 37 37 36 36 36 36 36 36 36 35 35 35 35 35 35 34 33 32 32 31 30 29 29 29 28 27 27 28 28 28 28 27 27 27 25 24 25 25 24 25 25 23 22 23 24 25 24 21
37 38 38 37 38 40 42 42 41 41 42 41 41 41 41 41 40 40 39 38 38 38 38 38 37 36 36 35 35 36 36 36 35 34 34 33 32 31 31 31 31 31 31 31 30 30 30 30 29 26 23 24 24 24 26 28 27 26 25 25 27 28 27
38 39 39 39 39 41 43 44 44 45 46 46 46 45 45 45 44 43 42 41 41 40 40 39 39 38 37 37 36 36 36 36 36 36 35 35 34 34 33 33 34 34 34 33 32 31 31 32 32 30 28 29 31 31 30 31 30 29 28 27 27 29 30
39 38 38 38 38 39 42 45 47 48 48 48 48 49 49 48 47 46 45 44 43 42 42 41 40 40 40 39 38 38 38 38 37 37 37 37 37 36 36 36 36 36 37 36 35 34 34 33 33 32 32 33 36 36 36 34 32 31 31 30 30 30 30
40 39 39 40 41 39 39 41 44 47 48 49 49 50 51 50 49 47 46 45 44 44 43 43 42 42 42 41 41 41 40 41 40 40 40 40 39 40 40 39 39 39 39 39 39 38 37 36 35 35 34 34 35 36 36 36 35 34 33 32 32 32 32
39 39 40 42 45 45 44 42 42 43 45 47 47 48 48 48 47 46 45 45 45 45 45 45 44 44 43 43 43 43 43 43 43 43 43 43 43 43 43 43 43 43 42 42 42 41 40 40 39 38 37 37 37 37 37 37 37 36 35 34 34 33 33

ECMWFFLT1_500_spd_108.txt.gz
Wind_Speed
17 16 16 18 19 21 23 25 23 21 21 20 21 21 21 21 20 20 19 17 17 18 18 18 16 16 15 16 16 16 15 14 12 12 12 11 9 8 8 8 7 5 5 4 3 2 2 3 3 3 4 5 5 5 4 4 3 3 2 2 1 1 0
17 17 15 16 20 24 26 25 23 22 21 19 19 21 22 23 22 21 21 20 19 19 19 19 17 16 15 16 16 17 16 15 14 14 13 10 9 9 10 10 8 6 5 4 3 3 3 3 3 3 4 4 4 4 4 4 4 3 3 2 2 2 1
16 15 13 13 18 23 26 24 21 22 22 20 19 19 21 22 22 22 22 21 21 19 19 19 18 17 16 15 16 16 17 16 16 15 14 12 12 13 12 10 8 6 5 5 4 5 4 4 4 4 4 4 4 4 4 4 3 3 3 3 2 2 2
14 13 13 12 15 20 22 22 21 22 22 22 20 20 20 21 21 22 22 21 21 20 19 19 18 18 17 16 16 16 16 17 17 16 15 14 14 14 13 10 9 8 7 6 6 6 6 5 5 5 5 4 4 5 4 4 4 3 3 3 3 3 3
14 13 14 14 15 18 20 21 23 23 24 23 22 21 20 20 20 20 20 21 20 20 19 19 19 19 18 17 17 16 16 16 16 16 15 14 14 13 12 10 9 9 8 7 8 8 7 7 6 6 5 5 5 5 5 5 5 4 4 4 4 4 3
14 15 16 16 17 18 19 20 23 25 26 24 23 21 20 20 20 19 19 19 19 19 20 20 20 19 19 19 18 17 17 16 16 16 15 15 14 13 13 12 10 10 9 9 10 9 9 8 8 7 7 6 6 6 6 6 6 5 5 5 5 5 4
15 16 17 18 19 20 20 21 24 27 27 25 23 23 22 22 21 20 20 18 17 18 19 20 20 20 20 20 19 18 18 17 17 17 16 16 16 15 15 14 13 12 11 11 11 11 10 10 9 8 8 7 7 7 7 7 7 6 6 6 6 6 5
15 16 18 20 20 20 21 22 25 29 29 26 25 25 24 24 22 20 20 18 17 17 18 19 19 21 21 20 20 19 19 19 18 18 18 17 17 16 16 17 16 15 14 13 12 11 11 10 9 9 8 8 8 8 8 8 8 7 7 7 7 7 7
14 16 19 20 19 18 19 20 22 27 29 26 26 26 25 24 22 21 20 20 19 19 19 18 19 20 20 19 19 20 20 19 19 19 19 19 18 18 18 18 18 17 17 16 14 13 12 11 10 9 9 9 9 8 8 8 9 8 8 8 8 8 8
13 17 20 19 19 17 17 18 19 23 27 27 26 26 25 23 23 23 22 20 20 22 21 19 19 20 19 19 20 20 21 20 20 20 20 20 20 19 19 19 19 19 18 18 17 16 15 12 11 11 10 10 10 9 9 10 10 9 9 9 9 9 9
13 17 19 19 19 18 16 17 17 20 24 26 26 26 25 25 25 26 25 22 22 24 22 20 20 20 20 21 20 20 21 21 21 21 21 21 21 20 20 20 20 20 19 19 19 18 17 15 13 13 13 12 11 11 11 11 10 11 11 11 11 10 10
13 13 13 14 18 20 19 18 17 18 20 22 23 24 23 23 23 25 27 27 26 25 22 20 20 21 22 22 21 20 20 21 21 21 21 22 22 21 22 21 21 21 20 20 20 19 18 17 15 15 14 13 13 12 12 12 12 12 12 12 12 12 12
11 9 9 11 15 19 20 20 19 19 20 20 19 20 20 20 19 20 23 26 29 29 26 23 24 25 24 23 22 20 19 20 20 21 22 22 22 22 23 22 22 22 21 20 20 20 19 18 17 16 15 15 14 14 14 14 14 13 13 13 13 13 14
13 11 10 11 13 15 18 19 19 19 19 19 18 18 18 18 18 19 20 22 27 32 33 31 29 27 25 24 23 21 20 19 19 19 21 22 23 23 23 23 23 22 22 21 20 20 20 19 18 17 16 16 16 15 16 16 15 15 15 14 15 14 14
19 16 15 14 13 13 15 18 19 19 18 17 16 17 17 17 18 19 19 20 23 30 35 34 30 27 26 26 25 23 21 19 18 18 20 22 22 23 23 23 23 21 21 21 20 20 20 19 19 18 18 18 18 17 17 17 17 17 17 16 17 16 15
24 21 19 18 16 13 13 15 16 16 16 15 13 13 14 15 16 17 18 19 19 24 31 32 30 28 27 27 27 26 23 22 21 22 22 21 20 21 22 22 21 20 20 20 20 19 19 20 19 19 19 19 19 19 19 19 19 19 18 18 18 17 17
23 22 19 18 18 16 14 12 11 10 10 10 9 10 11 12 13 13 14 14 15 18 24 27 28 29 29 30 29 29 26 25 25 24 22 21 20 21 20 20 20 20 19 19 18 18 19 20 20 20 21 20 20 20 20 20 20 21 20 20 20 20 19
22 22 21 19 20 20 16 12 11 12 12 11 11 12 12 11 11 11 11 11 13 15 18 22 24 25 27 29 30 31 29 27 26 26 25 26 26 25 23 22 22 23 22 20 18 17 18 19 19 20 20 21 23 23 21 21 22 22 22 22 22 22 22
23 21 21 22 22 21 19 18 18 18 17 17 18 18 17 14 11 11 11 12 13 14 16 19 21 21 22 22 26 31 32 29 28 27 28 29 28 27 27 26 26 26 26 25 23 21 20 20 20 20 20 21 23 22 20 22 24 24 24 24 24 24 25
22 19 19 21 21 19 19 21 22 21 20 18 17 19 19 16 13 12 12 13 13 14 15 16 18 19 19 17 17 23 29 30 29 28 30 30 30 30 31 31 30 29 29 28 26 24 22 21 21 21 21 22 23 21 20 23 26 26 26 27 27 26 26
21 22 20 20 20 19 19 20 20 22 22 20 17 18 18 16 16 16 15 15 15 15 15 15 17 18 18 16 14 16 22 26 26 27 29 30 30 31 33 35 35 33 31 30 29 27 25 24 24 24 23 24 24 23 22 23 26 28 29 29 31 31 29
22 24 23 22 22 22 22 21 21 22 24 23 21 22 20 18 18 18 17 18 18 17 16 16 17 18 19 18 16 16 17 19 20 21 23 24 24 24 26 30 33 34 33 31 30 30 27 26 27 27 27 27 27 27 27 27 28 30 31 33 34 34 34
24 24 25 25 25 25 25 25 25 24 24 24 23 23 23 21 19 18 18 19 19 19 18 18 19 20 20 20 20 20 19 19 20 20 20 21 21 20 19 20 24 28 30 31 32 32 30 29 30 32 32 31 31 32 33 33 33 33 34 35 34 35 36
30 28 28 28 28 28 28 29 28 27 26 26 26 25 24 23 21 19 19 20 20 20 20 20 21 21 22 22 22 22 22 22 22 23 23 23 23 22 19 17 17 19 23 26 30 32 31 31 32 35 36 35 35 35 36 36 36 36 35 35 35 35 36
33 32 31 31 32 32 31 31 30 28 28 29 29 28 26 25 24 22 20 21 21 21 21 22 23 23 23 23 24 23 23 24 24 24 25 24 25 25 23 20 18 17 17 20 23 26 28 30 33 37 40 39 37 37 38 39 39 39 38 37 37 37 37
32 33 33 33 33 33 33 32 30 29 29 29 29 29 29 28 27 25 24 23 23 22 22 22 23 24 24 24 24 24 24 24 24 25 25 24 24 25 24 22 20 19 19 19 19 20 22 24 29 33 35 36 35 35 36 37 37 37 37 38 38 38 38
33 34 34 35 35 35 35 34 32 31 31 31 31 31 31 30 30 29 28 27 26 25 25 24 24 25 26 25 25 25 25 24 24 25 25 24 23 24 25 24 23 23 23 21 20 20 19 20 23 25 26 28 30 30 31 33 32 30 30 32 34 36 38
37 36 36 35 36 37 37 37 36 35 35 34 34 33 32 32 32 31 31 31 30 28 27 27 26 25 26 27 28 28 27 26 25 25 25 25 24 25 25 25 25 26 26 25 23 22 21 21 23 23 23 23 24 24 24 24 23 20 17 16 18 23 29
38 37 37 36 36 37 37 37 37 37 37 36 36 34 34 33 33 32 32 32 32 31 29 29 29 28 27 28 29 29 29 29 28 27 27 26 26 25 25 25 25 26 27 27 25 23 23 25 26 26 26 25 25 24 21 18 18 16 13 11 11 14 17
37 37 37 37 38 38 38 38 38 38 38 38 37 37 36 36 36 35 34 34 34 34 32 31 31 31 31 30 30 31 30 30 30 30 29 28 27 26 25 24 24 25 26 26 25 24 26 27 28 27 26 25 25 24 20 16 16 17 17 17 18 19 17
35 36 36 37 38 38 38 39 39 39 38 38 38 38 37 37 38 38 37 35 36 37 35 33 32 33 34 34 33 33 32 32 31 31 31 30 29 28 27 26 25 25 25 25 24 24 25 26 26 26 26 25 25 26 24 21 22 23 24 24 24 22 20
33 33 34 36 37 38 39 39 39 39 39 38 38 39 38 37 38 40 40 39 38 39 38 34 33 34 35 36 36 35 34 34 33 33 32 32 31 31 30 29 28 27 26 24 24 24 25 25 24 24 24 25 26 27 27 25 25 26 26 23 22 21 19
33 33 34 36 37 38 38 38 38 39 39 38 37 37 37 37 37 40 43 43 41 42 41 36 34 34 35 35 36 36 36 36 35 34 34 33 33 33 32 31 30 30 29 28 26 25 26 26 25 24 24 25 25 25 24 24 24 26 24 22 23 23 21
38 36 36 37 39 40 39 39 38 37 38 38 38 37 37 37 36 38 44 46 45 44 42 38 36 35 35 35 35 36 36 36 36 36 35 35 35 35 35 34 33 32 32 31 29 29 28 29 28 27 27 28 27 25 25 24 23 24 23 20 21 23 23
39 38 36 35 37 38 40 41 40 39 38 38 38 38 38 38 38 38 42 48 49 46 43 40 37 36 36 36 36 36 37 37 38 38 38 37 37 36 36 36 36 35 35 34 33 32 32 32 32 31 31 30 29 28 28 27 25 26 26 24 23 24 25
37 38 38 37 36 36 38 39 40 40 40 39 39 39 38 39 39 39 41 47 50 46 43 41 41 40 39 39 39 40 40 39 40 40 40 39 39 39 38 37 37 36 36 36 36 35 35 34 34 34 34 33 31 31 31 30 30 31 32 32 31 30 30
34 36 38 39 38 38 39 39 38 38 38 38 39 40 39 39 39 39 41 46 49 46 43 43 44 43 43 43 43 43 43 43 43 42 42 41 41 41 41 40 39 38 38 38 37 37 36 36 36 36 36 35 34 34 33 33 32 32 33 33 32 32 31
33 34 35 36 37 37 39 40 40 39 39 38 38 39 40 40 41 41 42 45 47 47 46 47 47 47 47 46 46 46 45 45 45 44 44 43 42 42 42 42 41 41 41 40 39 38 38 37 37 37 37 37 37 36 35 35 35 35 34 34 33 32 31

ECMWFFLT1_500_spd_111.txt.gz
Wind_Speed
18 17 17 17 17 18 19 18 18 17 15 14 15 14 13 14 14 14 15 15 14 13 13 13 13 13 13 12 12 11 10 8 7 7 7 6 5 4 5 4 4 4 3 3 2 1 2 3 4 4 4 4 4 4 4 4 4 4 4 4 4 4 4
15 16 17 17 18 18 19 19 18 19 17 16 16 15 15 15 15 15 16 15 14 14 14 14 14 14 13 13 13 13 11 10 9 8 7 6 6 6 6 6 5 5 5 4 4 3 3 3 4 5 5 4 4 4 4 4 3 3 3 3 3 3 3
13 15 17 18 18 18 19 20 19 18 20 19 17 15 15 16 16 17 18 17 16 15 14 14 15 15 14 14 14 14 13 12 11 10 9 8 8 7 7 7 6 6 6 6 6 5 5 4 4 4 5 5 5 5 4 4 3 3 3 2 2 2 2
15 16 18 19 20 19 19 21 21 20 22 22 18 16 15 16 17 18 18 18 17 17 16 15 15 16 16 16 15 15 15 14 13 12 11 11 10 10 9 8 8 8 7 7 7 7 6 6 5 5 4 5 5 5 5 4 4 4 3 2 2 2 1
17 17 17 19 20 20 19 20 21 21 23 23 19 17 15 15 16 17 17 18 18 18 18 17 15 16 17 17 17 15 15 15 14 14 13 13 13 11 10 10 9 9 9 9 8 7 7 7 7 5 4 4 4 5 6 5 5 4 4 3 3 2 2
17 16 17 19 19 17 17 21 23 23 24 24 20 17 16 16 16 15 16 17 18 18 19 18 17 17 17 18 18 17 17 16 15 15 14 14 14 13 13 12 12 11 11 9 9 9 9 8 7 6 5 4 5 5 6 6 5 5 5 4 4 3 3
15 15 17 20 20 17 17 21 24 25 27 26 21 18 17 16 15 15 15 15 16 16 17 18 18 18 18 18 19 19 18 18 17 16 16 16 16 15 15 14 14 13 12 11 10 10 10 9 8 7 6 6 5 5 6 6 6 6 6 6 5 4 4
15 16 17 19 21 20 19 21 23 26 28 26 22 20 19 19 18 17 16 16 16 16 17 17 18 18 18 18 18 18 18 18 18 17 17 17 17 17 16 16 16 15 14 13 12 11 10 9 9 8 7 7 7 6 6 6 7 7 7 7 6 6 6
17 18 19 23 24 23 22 24 25 25 26 25 23 23 23 23 22 20 19 19 19 18 18 17 17 17 17 18 19 18 18 19 19 19 18 18 18 17 17 17 17 16 16 15 15 13 12 10 10 9 8 8 8 7 7 7 7 7 7 7 8 7 7
16 19 20 23 25 25 25 26 27 26 25 23 24 26 26 25 24 21 21 22 20 19 18 18 18 16 16 18 19 19 19 20 20 19 19 19 19 19 18 18 18 18 18 17 16 15 13 12 11 10 10 10 10 9 9 8 8 8 8 8 9 9 8
16 19 20 20 23 25 25 25 27 26 25 24 27 28 28 26 25 23 23 22 20 19 19 19 19 17 16 18 19 19 19 20 20 20 20 20 20 19 19 19 18 18 18 17 16 16 16 15 14 13 12 11 11 11 11 10 10 10 9 9 9 10 10
17 18 18 19 23 25 25 25 26 26 25 26 29 30 30 28 26 24 24 22 20 20 18 18 18 16 15 17 19 19 19 20 20 20 19 19 20 19 19 19 18 18 17 16 16 16 16 17 17 16 14 14 13 13 12 11 11 11 11 10 10 10 10
19 19 18 20 24 26 26 25 25 25 24 26 29 30 31 29 27 25 24 22 21 21 21 20 18 17 18 19 19 17 18 18 18 19 19 19 19 19 18 18 18 18 17 17 17 17 17 18 18 18 17 16 15 15 14 13 13 12 12 12 12 11 12
20 19 18 20 24 25 25 24 23 23 23 25 27 28 28 28 27 25 23 23 23 24 25 25 23 21 20 22 21 17 17 19 19 19 20 19 19 18 17 18 18 18 17 17 17 18 18 18 19 19 19 18 17 16 15 15 14 14 14 14 13 13 13
19 18 17 18 20 23 23 22 22 22 22 23 23 23 25 27 26 25 23 23 24 25 27 28 28 26 24 24 22 20 19 20 21 21 20 20 20 19 19 19 19 19 19 18 18 17 18 18 19 20 20 19 18 17 16 16 16 16 16 16 15 15 14
18 18 18 19 20 22 23 23 25 26 25 25 23 21 22 24 24 23 23 22 22 23 24 24 26 27 28 29 26 24 22 21 21 22 21 21 20 19 19 19 19 20 21 20 19 18 18 19 20 20 20 19 19 19 19 19 18 18 18 18 17 17 16
20 20 20 20 21 23 23 22 24 27 29 29 27 23 23 25 24 22 22 21 22 22 22 22 23 24 28 31 30 27 25 24 23 23 23 23 21 19 19 19 19 20 21 21 21 21 20 21 22 22 20 19 19 20 21 21 21 21 20 20 19 19 18
21 20 21 21 22 22 21 21 22 25 27 28 27 24 23 23 22 19 19 21 23 23 23 23 23 23 26 31 31 28 26 26 25 25 25 25 24 22 21 21 20 20 20 20 21 21 20 21 22 21 20 20 21 22 23 24 23 23 22 21 21 21 20
23 23 23 25 27 26 22 20 21 22 24 25 23 21 21 21 19 17 17 18 20 22 23 23 23 22 23 27 29 28 27 27 27 27 27 27 26 25 24 23 22 22 21 20 20 20 20 20 21 20 20 22 22 21 23 25 25 24 24 23 23 23 23
24 26 28 29 31 31 26 21 20 21 21 22 21 19 20 21 20 19 18 17 17 17 18 19 19 19 19 20 22 23 24 26 27 29 30 30 29 28 27 26 25 25 24 24 23 22 21 21 22 21 22 23 22 20 22 25 25 25 26 26 25 25 25
21 23 26 26 25 26 24 20 20 20 21 22 21 19 19 20 20 20 18 16 15 13 12 13 15 15 15 16 18 19 19 20 22 24 28 31 32 31 29 28 27 27 27 27 27 25 24 24 25 26 26 26 24 22 21 22 23 25 26 26 25 25 25
27 26 27 27 22 19 20 20 18 18 19 21 21 18 18 20 21 19 16 14 14 13 12 11 11 11 11 13 15 17 17 17 16 17 21 28 32 32 30 29 29 28 29 30 30 30 29 28 28 29 29 29 27 24 22 22 24 25 25 24 24 24 24
32 32 32 33 31 28 26 24 21 19 19 22 23 20 18 18 19 19 17 15 16 15 13 11 10 9 11 12 13 15 15 15 15 14 15 21 26 29 29 29 29 29 29 30 31 32 34 34 33 33 32 31 30 27 26 26 26 26 25 25 26 26 27
32 32 32 33 35 36 34 30 27 24 21 23 25 23 22 23 25 25 22 21 21 20 16 14 13 12 13 14 14 15 15 15 16 16 16 17 19 21 24 25 26 25 24 25 26 27 30 32 34 35 35 34 33 31 29 28 29 29 29 29 30 30 30
35 32 32 31 32 33 32 29 26 23 19 20 21 20 22 24 25 24 23 22 21 19 17 16 15 15 16 17 17 17 17 17 17 18 18 19 19 20 21 22 23 23 23 22 21 21 22 24 28 32 34 35 35 33 31 31 32 33 33 34 35 35 34
35 32 32 32 31 30 28 25 24 22 21 22 20 17 18 20 18 17 19 20 18 16 17 17 18 18 19 19 20 20 20 19 19 19 19 21 21 22 22 22 23 24 25 25 24 21 19 20 22 25 28 32 34 34 34 34 35 38 38 38 38 38 37
28 29 30 31 30 31 30 28 26 25 25 27 27 24 23 24 22 19 20 20 19 19 19 20 20 21 21 21 21 22 22 22 22 22 22 22 22 23 23 23 23 24 25 26 26 25 22 21 21 21 23 25 28 30 32 32 34 35 34 32 33 35 36
25 26 28 30 31 31 30 29 28 27 28 30 31 30 30 29 26 23 22 22 22 23 23 23 24 24 24 24 24 23 24 24 25 25 24 24 23 23 24 24 24 24 24 25 26 26 25 24 23 23 22 21 21 23 24 24 24 23 22 22 24 26 25
31 30 30 30 31 31 31 32 31 29 29 29 28 28 28 29 29 28 27 27 26 26 26 26 27 27 27 27 27 26 25 25 26 26 27 26 26 25 25 25 26 26 25 25 26 26 27 27 27 26 26 24 23 23 23 23 21 19 19 20 20 20 18
32 35 34 33 32 31 32 33 32 30 28 28 29 30 30 31 32 32 32 32 31 30 29 28 29 29 29 29 29 29 28 27 27 27 28 29 29 29 28 28 27 27 27 26 26 27 27 28 28 28 28 27 27 26 27 28 26 23 21 20 20 21 20
23 27 30 32 33 34 34 34 34 34 31 29 31 33 34 35 36 36 36 36 35 34 33 32 31 31 31 31 31 30 30 30 30 29 30 31 31 31 31 30 29 28 27 27 27 27 27 28 28 28 28 28 28 28 28 28 26 24 23 23 22 22 21
28 27 27 27 29 32 34 35 36 37 36 34 34 35 37 38 38 38 39 39 38 37 36 35 34 33 33 33 33 33 32 32 32 32 32 32 33 33 33 32 31 29 29 28 28 27 28 28 28 29 28 28 28 27 27 26 25 25 27 28 28 27 26
34 35 33 30 29 30 32 34 36 37 38 38 37 37 38 38 38 38 38 39 39 38 38 37 35 35 35 36 36 36 35 34 34 35 35 35 35 35 35 34 33 32 31 31 30 29 29 29 29 29 29 28 27 27 27 26 25 26 27 29 30 30 29
30 32 32 31 31 32 32 33 34 35 36 36 37 37 37 38 38 38 38 38 38 37 37 36 35 35 37 39 39 39 39 37 35 36 37 38 38 37 36 36 36 35 34 34 33 32 32 31 31 31 30 30 29 29 28 27 26 25 26 27 28 28 28
28 29 30 30 32 33 34 34 34 34 35 35 35 36 36 37 37 37 37 38 38 37 36 35 35 35 38 41 42 41 42 42 40 38 38 40 40 39 38 37 37 37 37 37 36 36 35 34 34 34 33 33 33 32 31 30 28 28 27 27 28 28 27
26 26 27 29 31 33 35 36 37 37 37 36 37 37 37 37 37 36 36 36 36 36 36 36 36 36 37 39 42 44 44 44 43 42 41 40 40 40 39 38 37 37 38 38 38 38 38 37 37 36 35 35 35 34 34 33 32 31 30 29 29 29 29
25 25 25 26 28 30 32 35 36 38 38 37 36 36 36 37 37 37 37 36 36 37 37 37 38 38 38 39 41 45 47 48 47 46 44 42 41 39 39 39 39 39 39 39 39 39 39 40 39 39 38 37 37 37 37 36 35 34 33 32 32 31 31
25 25 25 26 27 27 29 31 33 34 36 37 36 35 35 35 36 36 37 38 38 38 38 38 38 39 40 40 41 45 48 50 50 49 47 45 43 41 40 41 41 41 41 41 41 41 41 41 41 41 41 40 39 38 38 38 38 37 36 35 35 34 34

ECMWFFLT1_500_spd_114.txt.gz
Wind_Speed
13 16 18 18 17 17 17 16 14 13 13 13 15 16 16 16 16 16 16 16 15 15 14 14 13 13 13 13 13 12 11 11 10 10 10 10 10 9 8 8 8 8 7 6 6 5 5 4 4 5 5 5 5 5 5 5 6 6 6 6 6 6 7
12 14 16 16 16 16 16 16 15 15 14 14 15 17 16 16 16 16 17 17 16 16 15 15 14 13 13 13 13 13 12 12 11 10 10 10 10 10 9 8 8 8 7 7 6 6 6 6 5 5 5 5 5 5 4 5 5 6 6 6 5 6 6
11 13 15 16 15 16 16 17 18 17 16 14 14 16 17 17 17 17 17 18 17 17 16 16 15 14 13 14 14 14 13 13 12 11 11 10 10 10 10 9 9 8 8 7 7 6 6 6 6 6 6 6 6 5 5 5 5 5 6 6 5 5 5
9 12 14 16 17 17 17 17 18 18 17 16 16 18 19 18 18 18 18 18 17 17 17 17 16 15 14 14 14 15 15 14 14 13 12 11 11 11 10 9 9 9 9 8 7 7 6 6 6 6 6 6 7 7 6 6 6 6 6 6 5 5 5
8 11 14 16 18 18 18 17 18 19 19 17 18 20 20 18 18 19 18 18 18 18 18 17 15 15 15 15 15 15 15 15 15 15 14 13 12 11 10 9 10 10 10 9 8 8 7 7 7 7 7 7 7 8 8 7 7 7 7 6 6 6 5
10 12 14 15 18 19 20 19 19 20 20 20 21 24 21 17 17 19 19 19 19 19 18 17 16 15 15 16 16 16 15 15 16 16 16 15 14 13 11 11 11 11 10 10 9 9 9 8 8 8 8 8 8 8 8 9 9 9 9 8 7 7 6
13 14 15 16 18 19 21 21 20 21 23 24 24 26 24 19 18 18 18 19 19 20 20 19 18 18 17 16 17 17 17 17 17 17 17 17 16 15 14 13 13 12 11 11 11 11 10 9 9 9 10 10 9 9 9 10 10 10 10 10 9 8 7
14 16 17 17 17 18 19 21 21 22 24 24 24 27 26 21 20 19 18 19 20 21 22 22 21 20 19 18 18 18 18 18 18 18 18 17 17 17 16 15 14 13 13 13 13 12 11 11 11 11 11 11 10 10 10 11 12 12 11 11 11 10 9
15 16 16 16 16 17 19 21 22 22 23 23 24 27 28 24 22 22 21 20 21 22 23 23 23 22 21 21 20 19 18 18 19 19 19 18 18 18 17 16 15 15 15 16 15 13 13 12 13 13 12 12 11 11 11 11 12 12 12 11 11 11 10
15 16 16 17 18 18 19 22 24 22 21 22 24 28 30 28 25 26 25 23 23 23 23 24 23 22 22 22 21 20 20 19 19 20 20 19 19 19 18 17 16 16 17 17 16 15 15 14 15 14 14 13 12 12 12 12 12 12 12 12 11 11 11
16 17 19 21 22 22 23 25 26 24 22 24 26 29 30 29 28 29 28 25 25 24 23 23 23 22 21 22 22 21 20 20 19 20 21 21 20 20 19 18 18 18 18 17 17 17 17 17 16 15 14 14 14 13 13 13 12 12 12 12 12 12 11
17 18 20 22 23 25 27 29 28 27 26 25 26 29 31 30 30 31 30 27 27 25 24 23 23 22 22 22 21 20 20 19 19 20 21 21 21 21 20 20 20 19 18 18 18 18 19 19 18 17 16 16 16 15 14 14 13 13 13 13 12 12 12
19 20 21 21 21 23 26 27 28 28 27 27 27 29 30 30 31 32 32 30 28 26 25 25 24 24 24 23 21 20 20 20 20 21 21 21 22 22 22 21 21 20 20 20 20 20 20 20 20 19 18 18 18 17 16 15 15 14 14 14 14 13 12
21 21 22 22 21 21 23 26 30 32 32 32 32 31 31 32 33 33 33 32 30 29 28 27 27 26 26 26 23 22 22 23 24 24 23 21 22 23 23 23 23 23 23 23 23 22 22 21 21 20 20 20 20 19 17 17 17 17 17 16 16 15 14
22 22 23 22 20 20 22 26 32 35 34 35 37 35 33 35 35 34 34 33 32 30 29 29 28 27 27 27 26 25 25 24 24 24 24 23 22 22 22 22 23 24 24 24 24 24 23 23 22 22 22 22 22 21 19 19 19 18 18 18 17 17 16
22 22 21 20 18 19 22 25 30 33 32 33 37 37 35 35 36 36 36 35 33 30 28 27 27 26 27 27 27 27 26 24 23 24 25 25 23 21 21 21 22 23 23 24 24 24 23 23 23 23 22 22 22 23 22 21 21 21 20 19 19 19 18
21 21 20 17 16 17 20 22 25 29 30 31 34 36 36 35 34 34 34 34 34 31 28 27 26 26 27 27 27 27 27 26 25 25 26 26 23 21 20 21 21 22 23 23 23 23 23 23 23 24 24 23 23 24 24 24 24 23 21 21 21 21 21
22 21 19 18 18 19 21 22 23 26 29 30 32 35 37 36 33 31 32 35 36 34 32 30 28 28 30 32 32 32 31 29 27 26 28 28 25 22 21 21 21 21 22 22 22 22 23 23 23 24 24 24 24 24 24 25 25 24 23 22 23 23 22
23 22 21 21 22 23 24 25 26 28 30 31 31 31 34 35 33 32 33 35 35 33 31 30 29 29 32 34 35 34 32 31 29 28 30 30 28 24 22 22 22 22 22 22 21 21 23 23 24 24 24 24 24 24 25 25 25 24 25 25 25 24 23
26 25 24 24 24 24 24 26 28 29 31 32 32 31 32 32 30 29 31 32 32 30 29 27 27 27 29 32 34 33 30 30 29 29 30 30 28 27 26 26 25 24 24 23 22 21 21 22 23 23 23 23 24 25 26 26 25 25 25 25 26 25 25
29 28 27 27 25 24 25 26 27 27 29 31 32 32 33 31 29 28 29 29 28 28 27 25 22 23 24 27 31 32 29 27 27 28 28 28 28 30 30 29 27 27 26 25 24 23 22 22 22 22 22 23 23 24 25 25 25 25 25 25 26 26 26
30 28 27 26 26 26 27 28 28 28 28 29 30 32 33 32 31 30 29 28 27 27 27 24 22 23 22 20 23 28 29 27 27 27 27 28 29 30 31 30 29 30 29 28 26 26 24 24 24 24 23 23 23 24 25 26 26 27 26 25 24 24 25
29 28 26 25 25 27 27 27 29 31 31 29 30 32 33 31 30 28 27 27 26 25 24 23 22 22 20 18 19 22 24 24 24 24 24 24 25 26 29 31 30 30 31 30 29 28 27 27 27 26 26 26 27 28 29 29 29 29 29 26 23 23 25
27 27 26 26 26 26 26 25 27 30 32 31 29 29 29 28 27 26 25 25 25 24 21 19 18 17 16 17 17 18 20 21 21 20 20 20 20 20 21 24 26 28 29 29 30 31 30 30 30 28 26 27 30 31 32 34 33 32 31 29 26 26 27
25 25 26 28 28 27 26 26 25 26 29 29 26 25 26 26 25 25 24 24 24 24 22 20 19 17 16 16 16 16 17 17 17 17 16 16 17 17 17 17 20 22 24 26 28 30 31 30 30 27 24 25 28 30 31 35 37 35 33 33 31 30 30
24 23 25 28 29 28 27 26 26 29 31 30 29 29 28 26 25 26 26 26 25 25 25 22 19 18 18 17 17 16 14 14 15 16 15 14 14 16 17 17 17 18 19 22 24 27 28 28 27 26 24 23 24 26 27 30 34 35 35 35 35 34 33
23 24 26 29 30 29 27 25 23 24 28 29 29 30 29 27 27 27 29 29 28 27 26 21 15 15 18 19 18 18 17 16 16 16 16 15 16 17 18 18 19 19 19 20 21 24 26 26 26 27 26 24 22 23 25 26 28 31 34 35 36 35 35
22 24 25 28 32 32 30 27 22 18 19 21 22 22 22 23 24 24 24 24 24 24 24 21 18 18 19 20 20 19 18 17 17 17 18 19 20 20 20 21 21 21 21 21 22 24 25 25 25 27 28 26 25 24 24 23 23 25 28 31 35 36 37
25 26 24 25 28 29 28 28 27 24 21 20 19 18 19 22 24 24 23 23 23 24 25 25 24 21 19 19 19 19 19 19 19 20 21 22 23 23 23 23 23 23 23 23 23 25 25 25 25 27 27 27 26 26 25 24 23 23 23 25 28 31 30
28 28 26 24 24 27 27 27 28 28 27 25 23 22 22 25 28 29 29 29 29 29 27 25 24 22 21 21 21 22 22 23 23 24 24 25 25 25 26 26 26 26 26 26 26 26 27 27 27 27 27 27 27 27 28 28 27 27 26 25 26 26 24
26 25 24 22 22 26 30 30 30 30 28 27 26 26 26 27 29 31 32 33 33 32 29 27 25 25 24 24 24 25 26 26 27 27 27 27 28 28 28 29 29 28 28 28 28 29 29 29 29 29 28 28 27 27 28 28 28 28 28 29 29 28 25
28 26 25 23 23 23 25 29 32 34 33 30 28 27 28 28 29 31 32 32 33 33 32 31 30 29 29 28 28 28 29 29 30 30 30 30 30 30 31 31 31 31 31 30 30 30 30 31 31 31 30 29 29 28 28 28 28 28 28 30 30 28 26
30 29 28 27 26 25 24 24 26 29 32 32 31 30 29 29 30 32 34 35 35 35 35 35 35 34 33 33 33 33 33 33 33 33 33 33 32 31 32 32 32 33 33 33 32 32 32 32 32 32 32 31 30 30 29 29 29 28 28 30 31 29 28
29 29 29 28 27 27 27 27 27 27 28 30 31 32 33 33 33 34 35 37 38 38 39 39 39 38 37 37 37 37 37 37 37 37 36 35 34 33 33 33 33 34 35 35 35 35 35 34 34 34 33 33 32 32 31 30 30 29 29 30 31 31 30
26 26 27 27 27 25 25 27 29 30 30 31 32 33 34 35 36 36 37 38 39 40 41 42 42 42 41 41 41 40 40 40 41 40 39 38 37 36 36 36 36 36 36 37 37 38 38 38 37 36 36 35 35 34 33 33 32 32 31 31 32 32 32
22 23 24 25 25 25 23 24 26 28 29 31 33 35 36 36 36 37 38 38 39 40 40 41 42 42 43 43 43 43 42 42 42 42 42 41 40 39 39 39 39 38 38 39 39 39 40 40 40 40 39 38 38 37 37 36 35 35 34 33 34 34 34
20 21 22 23 24 24 23 23 24 25 27 29 31 34 37 38 38 38 38 39 39 39 39 39 39 39 40 41 42 43 43 42 42 42 42 42 42 42 42 43 42 42 41 41 40 41 41 41 41 42 42 41 41 40 40 39 39 38 38 37 37 37 37
20 21 21 22 23 24 24 24 24 24 26 27 28 31 33 36 38 39 39 40 40 40 40 40 40 39 39 38 39 40 41 41 42 42 42 43 43 44 44 44 45 45 44 44 43 43 43 43 42 42 42 42 42 42 42 42 41 41 41 40 40 40 40

ECMWFFLT1_500_spd_117.txt.gz
Wind_Speed
21 24 25 23 22 20 18 16 16 17 17 18 19 19 19 19 19 19 19 19 18 17 17 17 17 16 16 15 14 14 13 13 12 12 12 12 11 11 10 10 9 8 7 6 6 6 7 7 7 7 7 7 8 8 8 8 8 8 8 7 7 6 6
15 21 25 25 23 22 20 17 16 16 16 16 17 18 19 19 19 19 20 20 20 19 18 18 18 18 17 16 15 15 14 14 13 12 12 12 12 11 11 10 9 9 8 8 7 6 6 7 7 7 7 6 7 7 8 8 8 8 8 7 7 7 7
13 17 23 24 23 23 21 18 17 16 15 15 15 16 17 19 20 21 21 22 21 20 19 18 18 18 18 17 17 16 15 15 14 14 13 13 12 11 11 10 10 9 9 8 7 6 6 6 7 7 7 7 6 7 7 7 7 7 7 7 6 6 7
14 17 20 21 21 22 21 19 19 18 17 16 16 15 16 18 20 21 22 22 23 22 21 21 20 19 19 18 18 18 17 16 16 15 15 14 13 12 12 11 10 9 9 8 7 6 6 6 6 6 6 7 7 7 7 6 6 6 7 7 6 6 6
12 16 20 20 19 20 20 20 20 20 19 19 18 18 17 18 19 20 20 21 23 23 23 22 21 21 20 19 19 18 18 17 16 16 16 15 14 13 12 11 11 10 9 9 8 8 7 6 7 6 6 7 7 7 7 7 7 6 6 6 6 6 7
11 13 16 20 20 20 20 20 21 21 21 21 21 20 19 18 18 19 19 20 22 23 23 22 21 21 20 20 19 19 19 18 18 18 17 17 16 15 14 12 12 12 11 10 10 9 9 8 8 8 7 7 7 7 7 8 8 8 7 7 7 7 7
11 12 15 18 21 21 22 22 23 23 22 23 24 23 22 21 20 20 20 20 21 22 23 23 23 23 22 21 20 20 20 20 20 20 19 18 18 17 16 15 14 13 12 12 12 11 10 10 10 10 9 9 8 8 8 8 9 9 8 8 8 7 7
11 13 14 16 20 22 23 24 24 24 24 24 25 25 24 22 21 21 21 20 21 22 23 24 25 25 24 23 22 21 21 21 20 20 20 20 20 19 18 17 17 15 14 13 13 13 12 11 11 11 11 10 10 9 9 9 10 10 10 10 9 9 9
14 15 16 17 20 23 25 25 25 26 25 25 25 26 26 24 22 22 22 22 22 22 24 26 27 27 26 25 24 23 22 22 22 21 20 20 20 20 20 19 19 17 16 15 15 14 14 13 13 13 13 12 11 10 10 10 10 11 11 11 11 10 10
14 16 17 17 18 19 22 24 24 25 26 25 25 27 28 27 25 25 25 23 22 23 25 28 29 29 27 26 25 25 24 23 23 22 21 21 20 20 20 20 19 18 18 17 17 16 15 14 14 14 14 13 12 12 12 12 11 11 11 12 12 12 11
14 15 17 18 18 16 19 22 23 23 23 23 24 27 30 30 30 29 28 26 25 25 27 29 30 29 28 27 26 25 24 23 23 22 22 21 20 20 20 20 20 19 19 19 18 17 17 16 16 16 15 14 13 13 13 13 13 12 12 12 13 13 12
17 18 18 20 19 17 18 20 21 22 23 25 27 30 31 33 33 32 30 29 29 29 28 29 29 30 29 28 27 25 25 24 23 23 23 22 22 21 20 20 20 20 20 20 20 19 18 19 19 18 17 16 15 15 15 15 14 14 13 13 13 13 13
20 21 21 20 19 18 18 19 20 22 24 27 31 32 32 34 34 32 31 32 32 28 28 29 29 30 29 28 27 26 25 25 26 26 26 25 24 23 22 21 21 21 22 21 21 20 21 21 21 21 20 19 18 18 17 17 17 16 15 15 14 14 14
23 23 23 22 21 20 19 19 20 21 23 26 28 29 30 32 33 32 32 34 33 29 29 31 29 27 27 28 27 26 27 28 28 28 27 26 25 23 23 22 22 22 23 23 22 22 22 23 23 22 22 22 21 21 20 20 19 18 18 17 16 16 15
23 22 21 21 21 21 20 20 21 23 25 26 28 29 29 30 31 32 33 35 35 32 32 33 30 27 26 26 26 26 28 29 29 29 28 27 26 24 23 23 22 22 23 23 23 23 24 24 24 23 22 23 23 23 23 23 22 21 21 20 19 18 17
21 21 20 20 21 21 22 23 24 25 26 27 28 30 31 31 31 33 34 36 36 34 33 35 36 32 30 28 27 28 28 28 28 28 28 27 27 26 25 23 22 22 23 23 24 24 24 25 24 23 23 23 24 24 24 24 24 24 24 23 21 20 19
23 22 21 22 23 24 24 25 26 27 27 27 28 30 33 35 34 33 34 36 37 35 33 36 38 36 32 31 30 30 30 30 30 29 28 27 26 25 25 24 22 22 23 23 24 24 24 25 25 25 25 25 25 24 24 25 26 26 25 24 23 22 21
25 23 22 23 25 25 25 26 27 26 25 25 27 29 33 37 36 34 34 35 38 38 36 37 39 38 35 33 31 30 29 31 32 32 31 29 27 26 26 24 22 23 23 23 23 23 23 25 25 26 26 26 25 25 26 26 26 26 26 25 24 24 23
26 25 24 24 24 25 26 26 25 23 22 23 25 28 32 36 36 35 35 35 37 38 37 39 41 40 37 34 32 30 28 29 31 33 34 33 30 28 28 26 24 24 23 22 22 22 22 23 25 26 26 26 26 26 26 26 26 26 25 25 25 25 25
28 26 26 25 24 25 26 26 24 22 22 23 25 26 29 33 35 36 36 37 39 39 38 38 39 38 37 35 34 32 30 29 31 33 35 36 32 29 29 29 27 25 24 23 22 21 21 22 23 24 25 26 26 26 26 26 26 26 26 26 26 26 26
31 29 28 26 26 26 27 26 24 23 22 23 24 25 26 29 32 35 35 37 40 41 40 40 39 39 39 38 36 34 32 32 34 35 36 36 34 31 31 31 30 27 25 24 22 21 22 23 24 24 24 25 25 26 26 26 27 27 27 27 27 27 27
34 34 31 29 29 29 28 27 26 25 24 23 24 25 26 26 29 32 33 34 37 40 40 40 40 41 41 39 37 36 36 37 37 38 38 38 37 35 32 32 32 31 28 26 25 25 27 28 27 26 25 24 24 24 24 25 26 26 27 27 27 27 27
35 36 35 33 32 31 28 27 28 28 27 25 24 25 27 28 29 31 31 31 33 36 36 36 36 36 38 38 38 38 39 40 39 38 38 40 40 38 35 33 33 32 30 29 29 29 31 33 31 28 26 25 25 24 24 24 24 25 25 26 26 26 27
33 34 37 37 35 34 31 29 29 29 29 28 27 26 26 27 29 31 31 31 31 31 31 31 30 29 30 33 34 34 36 38 39 38 39 40 40 38 36 32 31 31 30 31 33 33 33 32 31 29 28 28 27 27 26 26 26 27 27 27 27 28 28
28 29 33 36 36 34 32 31 30 29 27 27 27 27 26 25 26 27 28 30 31 30 29 29 28 27 26 26 26 25 26 28 30 32 35 36 36 34 31 29 29 29 28 29 32 34 35 34 33 31 31 31 30 30 30 29 29 30 31 31 31 32 33
26 25 27 30 32 32 31 31 30 29 28 26 27 29 29 28 27 26 25 25 26 27 28 29 29 27 24 22 21 20 19 20 21 23 26 29 28 27 25 26 27 26 23 21 23 26 29 31 31 30 30 31 31 30 31 31 30 31 32 32 33 35 35
22 23 22 24 26 28 29 29 29 29 28 28 29 29 29 30 31 30 29 26 24 24 25 27 28 26 22 19 17 16 17 17 16 16 18 20 21 21 21 24 26 25 21 19 19 19 20 22 24 25 26 28 29 29 29 29 28 28 28 29 30 31 32
22 20 19 20 22 24 25 26 27 28 29 31 31 29 27 28 29 30 28 25 23 23 24 24 24 24 21 19 17 16 15 15 14 15 15 16 17 19 21 22 24 24 22 21 20 21 20 19 20 22 23 24 24 25 26 28 29 27 26 27 27 27 28
28 22 19 20 22 23 22 23 24 27 29 30 30 30 30 29 28 29 30 28 27 26 26 26 25 24 23 23 22 21 19 17 18 19 18 17 18 21 22 22 21 21 22 22 22 23 23 20 19 21 22 23 22 21 23 26 27 26 26 26 26 26 26
36 31 27 25 25 24 22 22 22 24 27 29 28 28 30 31 30 29 28 30 31 30 29 29 29 27 26 24 22 22 21 19 19 20 21 21 22 23 24 24 22 22 23 24 25 25 25 23 21 21 23 24 23 22 23 25 25 25 26 26 26 27 26
38 38 35 31 30 28 26 25 25 24 25 28 28 27 26 26 26 24 21 22 24 24 23 24 24 25 25 24 22 22 21 20 20 21 22 23 23 24 24 25 26 27 27 27 28 28 27 26 25 24 24 26 25 25 25 25 25 26 26 27 28 28 28
32 34 34 33 32 31 29 29 29 27 25 26 27 28 27 25 26 25 24 22 21 21 21 21 22 22 24 25 25 25 25 23 22 22 22 23 24 25 26 28 29 30 31 31 30 30 30 29 29 28 28 28 28 27 27 27 27 27 27 28 28 28 27
26 28 29 30 31 32 31 30 30 28 26 25 26 27 28 30 31 31 30 28 26 25 25 25 25 26 26 27 27 28 28 26 24 23 24 25 26 28 29 30 31 32 32 33 33 32 32 32 31 31 31 30 30 30 29 29 29 29 29 29 30 30 29
23 24 25 27 29 30 31 31 31 30 28 26 25 25 26 28 29 29 29 29 28 27 26 25 25 27 28 28 28 28 28 28 27 28 28 29 29 30 31 32 33 33 34 34 35 35 35 35 34 34 34 33 33 32 32 31 31 30 30 30 31 31 31
22 22 23 24 26 27 29 29 30 30 30 30 29 28 28 28 27 26 26 26 26 27 27 27 28 29 30 31 31 32 32 32 32 33 33 33 33 33 33 33 34 35 35 36 37 37 37 37 37 37 36 36 36 35 35 34 34 33 32 32 32 32 33
20 21 21 22 22 24 25 26 26 27 28 29 29 30 30 31 31 30 29 28 28 28 29 30 32 33 34 36 36 37 37 37 38 38 38 38 37 37 37 37 37 37 38 38 39 39 39 39 39 39 38 38 38 38 38 38 37 37 36 35 35 35 35
19 20 20 20 20 21 22 22 23 24 24 25 26 28 29 30 32 33 33 33 33 33 33 34 35 37 39 40 41 42 42 42 43 43 42 42 42 42 42 42 41 41 41 41 41 42 42 42 42 41 41 40 40 39 39 39 40 40 40 40 39 38 38
17 18 19 19 20 20 20 21 22 22 23 23 24 26 27 29 31 32 33 35 36 37 37 38 38 39 40 42 44 45 46 46 47 47 47 47 47 47 46 45 45 45 44 44 44 44 45 45 44 44 44 43 43 42 42 41 41 41 41 42 42 42 41